# Wetter Temperatur Luftdruck Luftfeuchtigkeit Sichtweite Windgeschwindigkeit Windrichtung Zeit
1 Clouds 18 1013 82 10000 9.3 190 19:58 17.10.2019
2 Clouds 18 1013 82 10000 9.3 190 19:39 17.10.2019
3 Clouds 18 1013 82 10000 9.3 190 19:19 17.10.2019
4 Clouds 18 1013 82 10000 9.3 190 19:19 17.10.2019
5 Clouds 19 1014 77 10000 9.3 190 18:58 17.10.2019
6 Clouds 19 1014 77 10000 9.3 190 18:38 17.10.2019
7 Clouds 20 1014 77 10000 9.3 190 18:19 17.10.2019
8 Rain 21 1013 64 10000 8.7 190 17:42 17.10.2019
9 Rain 21 1013 64 10000 8.7 190 17:23 17.10.2019
10 Rain 23 1011 65 0 5.051 170 16:57 17.10.2019
11 Rain 23 1014 64 10000 9.3 200 16:38 17.10.2019
12 Rain 23 1014 64 10000 9.3 200 16:18 17.10.2019
13 Rain 23 1014 64 10000 9.3 200 15:55 17.10.2019
14 Rain 22 1014 64 10000 9.3 200 15:37 17.10.2019
15 Rain 22 1014 64 10000 9.3 200 15:19 17.10.2019
16 Rain 23 1012 67 0 3.13 180 14:42 17.10.2019
17 Clear 24 1013 68 0 3.58 180 14:24 17.10.2019
18 Clear 23 1013 70 0 3.58 180 13:57 17.10.2019
19 Clear 22 1015 77 0 8.49 200 13:39 17.10.2019
20 Clear 22 1013 71 0 4.02 180 13:19 17.10.2019
21 Clear 22 1013 71 0 4.02 180 12:41 17.10.2019
22 Clear 23 1015 77 0 8.49 200 12:21 17.10.2019
23 Clear 23 1013 73 0 4.47 180 11:59 17.10.2019
24 Clear 23 1013 73 0 4.47 180 11:41 17.10.2019
25 Clouds 22 1015 77 10000 8.7 200 11:41 17.10.2019
26 Clouds 22 1015 77 10000 8.7 200 11:19 17.10.2019
27 Clouds 21 1015 77 10000 8.7 200 10:56 17.10.2019
28 Clouds 21 1015 77 10000 8.7 200 10:56 17.10.2019
29 Clouds 21 1015 77 10000 8.7 200 10:38 17.10.2019
30 Clouds 21 1015 77 10000 8.7 200 10:18 17.10.2019
31 Clouds 21 1016 77 10000 6.7 190 09:54 17.10.2019
32 Clouds 21 1016 77 10000 6.7 190 09:36 17.10.2019
33 Clouds 20 1016 77 10000 6.7 190 09:18 17.10.2019
34 Clouds 19 1016 82 10000 6.2 190 08:42 17.10.2019
35 -273 0 0 0 0 0 08:24 17.10.2019
36 Clouds 18 1015 88 9000 7.7 210 07:56 17.10.2019
37 Clouds 18 1015 88 9000 7.7 210 07:37 17.10.2019
38 Clouds 17 1015 88 9000 7.7 210 07:18 17.10.2019
39 Clouds 17 1015 88 9000 7.7 210 07:18 17.10.2019
40 Clouds 18 1014 88 10000 5.7 200 06:40 17.10.2019
41 Clouds 17 1014 88 10000 5.7 200 06:21 17.10.2019
42 Clouds 17 1013 88 10000 7.7 200 05:57 17.10.2019
43 Clouds 17 1013 88 10000 7.7 200 05:32 17.10.2019
44 Clouds 17 1013 88 10000 7.2 210 04:56 17.10.2019
45 Clouds 17 1012 93 10000 6.2 200 03:55 17.10.2019
46 Clouds 17 1012 93 10000 6.2 210 02:50 17.10.2019
47 Clear 17 1013 88 10000 6.2 210 01:39 17.10.2019
48 Clear 17 1013 88 10000 5.1 210 00:40 17.10.2019
49 Clear 17 1013 88 10000 5.1 210 00:19 17.10.2019
50 Clear 17 1014 93 10000 5.1 210 23:42 16.10.2019
51 Clear 17 1014 93 10000 5.1 210 23:21 16.10.2019
52 Clear 17 1014 93 10000 7.2 210 22:56 16.10.2019
53 Clear 17 1014 93 10000 7.2 210 22:56 16.10.2019
54 Clear 17 1014 93 10000 7.2 210 22:37 16.10.2019
55 Clear 17 1014 93 10000 7.2 210 22:37 16.10.2019
56 Clear 17 1014 93 10000 7.2 210 22:19 16.10.2019
57 Clear 17 1014 93 10000 7.2 210 22:19 16.10.2019
58 Clear 17 1014 93 10000 7.2 210 22:19 16.10.2019
59 Clear 17 1014 93 10000 7.7 210 21:57 16.10.2019
60 Clear 18 1014 93 10000 7.7 210 21:38 16.10.2019
61 Clear 18 1014 93 10000 7.7 210 21:19 16.10.2019
62 Clear 18 1014 88 10000 7.7 200 20:58 16.10.2019
63 Clear 18 1014 88 10000 7.7 200 20:58 16.10.2019
64 Clear 18 1014 88 10000 7.7 200 20:39 16.10.2019
65 Clear 18 1014 88 10000 7.7 200 20:21 16.10.2019
66 Clear 18 1014 82 10000 8.2 210 19:59 16.10.2019
67 Clear 18 1014 82 10000 8.2 210 19:39 16.10.2019
68 Clear 19 1014 82 10000 8.2 210 19:21 16.10.2019
69 Clear 19 1015 77 10000 8.7 200 18:55 16.10.2019
70 Clear 19 1015 77 10000 8.7 200 18:36 16.10.2019
71 Clear 20 1015 77 10000 8.7 200 18:18 16.10.2019
72 Clear 20 1015 72 10000 8.7 200 17:54 16.10.2019
73 Clear 20 1015 72 10000 8.7 200 17:54 16.10.2019
74 Clear 20 1015 72 10000 8.7 200 17:36 16.10.2019
75 Clear 21 1015 72 10000 8.7 200 17:18 16.10.2019
76 Clear 22 1015 64 10000 8.2 190 16:43 16.10.2019
77 Clear 22 1015 64 10000 8.2 190 16:21 16.10.2019
78 Clear 23 1015 60 10000 9.3 190 15:58 16.10.2019
79 Clear 23 1015 60 10000 9.3 190 15:39 16.10.2019
80 Clear 22 1015 60 10000 9.3 190 15:19 16.10.2019
81 Clear 22 1016 60 10000 8.2 190 14:58 16.10.2019
82 Clear 22 1016 60 10000 8.2 190 14:39 16.10.2019
83 Clear 22 1016 60 10000 8.2 190 14:19 16.10.2019
84 Clear 22 1017 56 10000 7.7 200 13:57 16.10.2019
85 Clear 23 1017 56 10000 7.7 200 13:38 16.10.2019
86 Clear 24 1017 56 10000 7.7 200 13:20 16.10.2019
87 Clear 23 1017 64 10000 8.7 200 12:42 16.10.2019
88 Clouds 23 1017 64 10000 8.7 200 12:20 16.10.2019
89 Clouds 23 1018 64 10000 8.7 200 11:45 16.10.2019
90 Clouds 22 1018 64 10000 8.7 200 11:19 16.10.2019
91 Clouds 22 1018 64 10000 8.7 200 10:56 16.10.2019
92 Clouds 22 1018 64 10000 8.7 200 10:36 16.10.2019
93 Clouds 22 1018 64 10000 8.7 200 10:18 16.10.2019
94 Clouds 20 1018 68 10000 8.7 190 09:40 16.10.2019
95 Clouds 20 1018 68 10000 8.7 190 09:40 16.10.2019
96 Clouds 19 1018 68 10000 8.7 190 09:22 16.10.2019
97 Clouds 18 1018 72 10000 7.2 200 08:56 16.10.2019
98 Clouds 18 1018 72 10000 7.2 200 08:56 16.10.2019
99 Clouds 18 1018 72 10000 7.2 200 08:37 16.10.2019
100 Clouds 18 1018 72 10000 7.2 200 08:19 16.10.2019
101 Clouds 16 1018 82 10000 6.7 210 07:41 16.10.2019
102 Clouds 18 1018 82 10000 6.7 210 07:23 16.10.2019
103 Clouds 17 1018 51 10000 5.1 220 06:48 16.10.2019
104 Clouds 16 1018 51 10000 5.1 220 06:29 16.10.2019
105 Clouds 15 1018 67 10000 5.1 230 04:31 16.10.2019
106 Clear 15 1019 93 10000 5.1 230 02:51 16.10.2019
107 Clear 15 1020 82 10000 4.6 220 01:20 16.10.2019
108 Clear 16 1020 82 10000 5.1 210 00:59 16.10.2019
109 Clear 16 1020 82 10000 5.1 210 00:40 16.10.2019
110 Clear 16 1021 87 10000 5.1 190 23:59 15.10.2019
111 Clear 16 1021 87 10000 5.1 190 23:38 15.10.2019
112 Clear 16 1021 87 10000 5.1 190 23:20 15.10.2019
113 Clear 16 1021 87 10000 5.1 180 22:55 15.10.2019
114 Clear 16 1021 87 10000 5.1 180 22:37 15.10.2019
115 Clear 16 1021 87 10000 5.1 180 22:18 15.10.2019
116 Clear 17 1021 82 10000 5.7 180 21:55 15.10.2019
117 Clear 17 1021 82 10000 5.7 180 21:55 15.10.2019
118 Clouds 17 1021 82 10000 5.7 180 21:36 15.10.2019
119 Clouds 17 1021 82 10000 5.7 180 21:18 15.10.2019
120 Clouds 17 1021 82 10000 6.2 180 20:55 15.10.2019
121 Clouds 17 1021 82 10000 6.2 180 20:55 15.10.2019
122 Clouds 17 1021 82 10000 6.2 180 20:37 15.10.2019
123 Clouds 17 1021 82 10000 6.2 180 20:19 15.10.2019
124 Clouds 17 1021 77 10000 6.7 170 19:55 15.10.2019
125 Clouds 17 1021 77 10000 6.7 170 19:36 15.10.2019
126 Clouds 17 1021 77 10000 6.7 170 19:18 15.10.2019
127 Clouds 17 1021 77 10000 6.7 170 19:18 15.10.2019
128 Clouds 19 1021 68 10000 7.7 170 18:43 15.10.2019
129 Clear 19 1021 68 10000 7.7 170 18:25 15.10.2019
130 Clear 20 1021 52 10000 6.2 160 17:55 15.10.2019
131 Clear 20 1021 52 10000 6.2 160 17:37 15.10.2019
132 Clear 20 1021 52 10000 6.2 160 17:37 15.10.2019
133 Clear 20 1021 52 10000 6.2 160 17:18 15.10.2019
134 Clear 21 1021 49 10000 6.7 150 16:43 15.10.2019
135 Clear 21 1021 49 10000 6.7 150 16:22 15.10.2019
136 Clear 22 1021 41 10000 6.7 170 15:57 15.10.2019
137 Clear 22 1021 41 10000 6.7 170 15:39 15.10.2019
138 Clouds 23 1021 41 10000 6.7 170 15:19 15.10.2019
139 Clouds 23 1022 44 10000 2.6 160 14:56 15.10.2019
140 Clouds 22 1022 44 10000 2.6 160 14:37 15.10.2019
141 Clouds 23 1022 44 10000 2.6 160 14:19 15.10.2019
142 Clouds 23 1022 44 10000 3.1 150 13:43 15.10.2019
143 Clouds 23 1022 44 10000 3.1 150 13:21 15.10.2019
144 Clouds 23 1023 43 10000 4.1 310 12:57 15.10.2019
145 Clouds 22 1023 43 10000 4.1 310 12:38 15.10.2019
146 Clouds 23 1023 43 10000 4.1 310 12:20 15.10.2019
147 Clouds 23 1023 44 10000 3.6 310 11:44 15.10.2019
148 Clouds 23 1023 49 10000 4.6 310 11:20 15.10.2019
149 Clouds 22 1023 46 10000 4.1 310 10:57 15.10.2019
150 Clear 21 1022 49 10000 4.1 320 10:39 15.10.2019
151 Clear 21 1022 49 10000 4.1 320 10:19 15.10.2019
152 Clear 21 1022 46 10000 3.6 350 09:56 15.10.2019
153 Clear 21 1022 56 10000 3.6 10 09:37 15.10.2019
154 Clear 20 1022 56 10000 3.6 10 09:19 15.10.2019
155 Clear 18 1022 67 10000 2.1 70 08:41 15.10.2019
156 Clear 16 1022 67 10000 2.1 70 08:21 15.10.2019
157 Clear 16 1022 77 10000 2.1 50 07:55 15.10.2019
158 Clear 16 1022 82 10000 2.1 10 07:37 15.10.2019
159 Clear 16 1022 82 10000 2.1 10 07:37 15.10.2019
160 Clear 14 1022 82 10000 2.1 10 07:18 15.10.2019
161 Clear 14 1023 76 10000 1.5 0 06:43 15.10.2019
162 Clear 13 1022 81 10000 2.1 300 06:22 15.10.2019
163 Clouds 13 1022 82 10000 2.1 190 05:37 15.10.2019
164 Clouds 14 1022 82 10000 2.1 190 05:19 15.10.2019
165 Clouds 15 1023 82 10000 4.1 180 04:23 15.10.2019
166 Clouds 16 1024 77 10000 3.6 180 03:36 15.10.2019
167 Clouds 16 1024 77 10000 3.6 180 03:36 15.10.2019
168 Clouds 16 1024 87 10000 0.5 0 02:23 15.10.2019
169 Clouds 16 1023 87 10000 2.6 40 01:47 15.10.2019
170 Clouds 16 1023 87 10000 2.6 40 01:19 15.10.2019
171 Clouds 17 1023 77 10000 2.6 320 00:48 15.10.2019
172 Clouds 17 1023 77 10000 2.6 320 00:21 15.10.2019
173 Clouds 17 1023 82 10000 3.1 360 23:40 14.10.2019
174 Clouds 17 1023 82 10000 3.1 360 23:19 14.10.2019
175 Clouds 17 1022 77 10000 3.6 340 22:41 14.10.2019
176 Clouds 17 1022 77 10000 3.6 340 22:21 14.10.2019
177 Clouds 17 1022 77 10000 3.6 340 22:21 14.10.2019
178 Clouds 17 1022 77 10000 2.6 330 21:59 14.10.2019
179 Clouds 17 1022 77 10000 2.6 330 21:40 14.10.2019
180 Clouds 17 1022 77 10000 2.6 330 21:21 14.10.2019
181 Clouds 17 1021 72 10000 6.2 290 20:59 14.10.2019
182 Clouds 18 1021 72 10000 6.2 290 20:39 14.10.2019
183 Clouds 18 1021 72 10000 6.2 290 20:20 14.10.2019
184 Clouds 18 1019 68 10000 7.2 320 19:58 14.10.2019
185 Clouds 18 1019 68 10000 7.2 320 19:40 14.10.2019
186 Clouds 18 1019 68 10000 7.2 320 19:22 14.10.2019
187 Clouds 18 1018 63 10000 5.7 310 18:58 14.10.2019
188 Clouds 19 1018 63 10000 5.7 310 18:38 14.10.2019
189 Clouds 19 1018 63 10000 5.7 310 18:18 14.10.2019
190 Clouds 19 1018 63 10000 5.7 310 18:18 14.10.2019
191 Clouds 20 1019 60 10000 7.2 310 17:44 14.10.2019
192 Clouds 20 1019 60 10000 7.2 310 17:25 14.10.2019
193 Clouds 21 1019 56 10000 6.2 320 16:59 14.10.2019
194 Clouds 21 1019 56 10000 6.2 320 16:40 14.10.2019
195 Clouds 21 1019 56 10000 6.2 320 16:20 14.10.2019
196 Clouds 21 1019 56 10000 6.2 320 16:20 14.10.2019
197 Clouds 22 1018 49 10000 6.2 310 15:42 14.10.2019
198 Clouds 22 1018 49 10000 6.2 310 15:22 14.10.2019
199 -273 0 0 0 0 0 14:56 14.10.2019
200 Clouds 22 1018 49 10000 8.2 250 14:56 14.10.2019
201 Clouds 21 1018 49 10000 8.2 250 14:38 14.10.2019
202 Clouds 21 1018 49 10000 8.2 250 14:18 14.10.2019
203 Clouds 21 1016 56 10000 7.2 310 13:42 14.10.2019
204 Clouds 22 1016 56 10000 7.2 310 13:21 14.10.2019
205 Clouds 21 1016 64 10000 5.7 300 12:55 14.10.2019
206 Clouds 21 1016 64 10000 5.7 300 12:36 14.10.2019
207 Clouds 21 1016 64 10000 5.7 300 12:18 14.10.2019
208 Clouds 21 1016 60 10000 4.1 300 11:44 14.10.2019
209 Clouds 21 1016 60 10000 4.1 300 11:24 14.10.2019
210 Clouds 20 1016 64 10000 2.1 80 10:55 14.10.2019
211 Clouds 20 1016 64 10000 2.1 80 10:37 14.10.2019
212 Clouds 21 1016 64 10000 2.1 80 10:18 14.10.2019
213 Clouds 21 1016 64 10000 2.1 80 10:18 14.10.2019
214 Clouds 20 1015 77 10000 3.1 120 09:41 14.10.2019
215 Clouds 20 1015 77 10000 3.1 120 09:41 14.10.2019
216 Clouds 20 1015 77 10000 3.1 120 09:41 14.10.2019
217 Clouds 18 1015 77 10000 3.1 120 09:21 14.10.2019
218 Clouds 17 1015 82 7000 1 0 08:51 14.10.2019
219 Clouds 17 1014 100 6000 7.2 330 08:23 14.10.2019
220 Mist 16 1013 100 3000 7.2 340 07:47 14.10.2019
221 Fog 16 1013 100 800 7.2 340 07:25 14.10.2019
222 Fog 16 1012 100 800 5.1 350 06:59 14.10.2019
223 Fog 16 1012 87 800 4.6 330 06:28 14.10.2019
224 Clouds 15 1011 87 10000 4.6 340 05:57 14.10.2019
225 Clouds 15 1011 87 10000 4.6 340 05:27 14.10.2019
226 Clear 14 1012 87 10000 2.6 330 03:51 14.10.2019
227 Clear 16 1012 87 10000 2.6 330 03:26 14.10.2019
228 Clear 16 1012 87 10000 2.6 350 02:34 14.10.2019
229 Clear 16 1012 87 10000 1 40 01:22 14.10.2019
230 Clear 17 1013 77 10000 2.1 210 00:45 14.10.2019
231 Clear 18 1013 77 10000 2.1 210 00:19 14.10.2019
232 Clear 18 1013 77 10000 1.5 0 23:44 13.10.2019
233 Clear 18 1013 77 10000 1.5 0 23:20 13.10.2019
234 Clear 18 1013 77 10000 1.5 0 23:20 13.10.2019
235 Clear 19 1013 72 10000 3.6 200 22:58 13.10.2019
236 Clear 19 1013 72 10000 3.6 200 22:58 13.10.2019
237 Clear 19 1013 72 10000 3.6 200 22:40 13.10.2019
238 Clear 19 1013 72 10000 3.6 200 22:21 13.10.2019
239 Clear 20 1013 68 10000 4.1 220 21:58 13.10.2019
240 Clear 20 1013 68 10000 4.1 220 21:37 13.10.2019
241 Clear 20 1013 68 10000 4.1 220 21:18 13.10.2019
242 Clear 20 1013 68 10000 4.6 220 20:57 13.10.2019
243 Clear 20 1013 68 10000 4.6 220 20:38 13.10.2019
244 Clear 21 1013 68 10000 4.6 220 20:19 13.10.2019
245 Clear 21 1013 64 10000 5.1 230 19:57 13.10.2019
246 -273 0 0 0 0 0 19:57 13.10.2019
247 Clear 21 1013 64 10000 5.1 230 19:57 13.10.2019
248 Clear 21 1013 64 10000 5.1 230 19:39 13.10.2019
249 Clear 21 1013 64 10000 5.1 230 19:39 13.10.2019
250 Clear 21 1013 64 10000 5.1 230 19:20 13.10.2019
251 -273 0 0 0 0 0 18:55 13.10.2019
252 -273 0 0 0 0 0 18:55 13.10.2019
253 Clear 23 1013 50 10000 5.1 220 18:54 13.10.2019
254 Clear 23 1013 50 10000 5.1 220 18:36 13.10.2019
255 Clear 24 1013 50 10000 5.1 220 18:18 13.10.2019
256 Clear 25 1013 44 10000 6.2 210 17:42 13.10.2019
257 Clear 25 1013 44 10000 6.2 210 17:42 13.10.2019
258 Clear 25 1013 44 10000 6.2 210 17:42 13.10.2019
259 Clear 25 1013 44 10000 6.2 210 17:24 13.10.2019
260 Clear 25 1014 41 10000 7.2 210 16:45 13.10.2019
261 Clear 25 1014 41 10000 7.2 210 16:45 13.10.2019
262 Clear 25 1014 41 10000 7.2 210 16:21 13.10.2019
263 Clear 25 1014 39 10000 6.7 200 15:59 13.10.2019
264 Clear 27 1014 39 10000 6.7 200 15:40 13.10.2019
265 Clear 26 1014 39 10000 6.7 200 15:22 13.10.2019
266 Clear 25 1015 41 10000 8.2 200 14:59 13.10.2019
267 Clear 26 1015 41 10000 8.2 200 14:40 13.10.2019
268 Clear 26 1015 41 10000 8.2 200 14:22 13.10.2019
269 Clear 27 1016 34 10000 4.1 190 13:59 13.10.2019
270 Clear 27 1016 34 10000 4.1 190 13:39 13.10.2019
271 Clear 27 1016 34 10000 4.1 190 13:21 13.10.2019
272 Clear 26 1016 36 10000 5.1 210 12:56 13.10.2019
273 Clear 25 1016 36 10000 5.1 210 12:38 13.10.2019
274 Clear 25 1016 36 10000 5.1 210 12:19 13.10.2019
275 Clouds 24 1017 31 10000 2.6 190 11:58 13.10.2019
276 Clouds 25 1017 31 10000 2.6 190 11:38 13.10.2019
277 Clouds 25 1017 31 10000 2.6 190 11:38 13.10.2019
278 Clouds 25 1017 31 10000 2.6 190 11:19 13.10.2019
279 Clouds 23 1017 38 10000 1.5 0 10:42 13.10.2019
280 Clouds 24 1017 38 10000 1.5 0 10:23 13.10.2019
281 Clouds 22 1017 49 10000 2.6 150 09:58 13.10.2019
282 Clouds 21 1017 49 10000 2.6 150 09:38 13.10.2019
283 Clouds 20 1017 49 10000 2.6 150 09:19 13.10.2019
284 -273 0 0 0 0 0 08:43 13.10.2019
285 Clouds 19 1018 59 10000 4.1 160 08:43 13.10.2019
286 Clouds 19 1018 59 10000 4.1 160 08:23 13.10.2019
287 Clouds 17 1017 77 10000 1 0 07:47 13.10.2019
288 Clouds 17 1017 77 10000 1 0 07:28 13.10.2019
289 Clouds 16 1018 77 10000 6.7 140 06:48 13.10.2019
290 Clouds 16 1017 77 10000 7.2 140 05:57 13.10.2019
291 Clouds 16 1017 77 10000 7.7 170 04:59 13.10.2019
292 Clouds 16 1017 77 10000 7.7 170 04:33 13.10.2019
293 Clouds 17 1018 72 10000 8.2 170 02:48 13.10.2019
294 Clouds 17 1018 72 10000 8.2 170 02:23 13.10.2019
295 Clear 17 1018 72 10000 8.7 190 01:34 13.10.2019
296 Clear 17 1018 72 10000 8.7 190 01:34 13.10.2019
297 Clear 17 1019 77 10000 7.2 190 00:52 13.10.2019
298 Clear 17 1019 77 10000 7.2 190 00:52 13.10.2019
299 Clear 17 1019 77 10000 7.2 190 00:22 13.10.2019
300 Clear 17 1019 77 10000 7.2 180 23:59 12.10.2019
301 Clear 17 1019 77 10000 7.2 180 23:40 12.10.2019
302 Clear 17 1019 77 10000 7.2 180 23:21 12.10.2019
303 Clear 16 1019 82 10000 5.7 170 22:58 12.10.2019
304 Clear 16 1019 82 10000 5.7 170 22:39 12.10.2019
305 Clear 17 1019 82 10000 5.7 170 22:21 12.10.2019
306 Clear 17 1019 77 10000 8.2 170 21:55 12.10.2019
307 Clear 17 1019 77 10000 8.2 170 21:37 12.10.2019
308 Clear 17 1019 77 10000 8.2 170 21:19 12.10.2019
309 Clear 17 1019 77 10000 9.3 180 20:43 12.10.2019
310 Clear 17 1019 77 10000 9.3 180 20:25 12.10.2019
311 Clouds 18 1019 72 10000 8.7 180 19:40 12.10.2019
312 Clouds 18 1019 72 10000 8.7 180 19:22 12.10.2019
313 Clouds 18 1019 72 10000 8.7 180 19:22 12.10.2019
314 Clouds 18 1018 68 10000 9.8 180 18:59 12.10.2019
315 Clouds 19 1018 68 10000 9.8 180 18:41 12.10.2019
316 Clouds 19 1018 68 10000 9.8 180 18:23 12.10.2019
317 Clouds 20 1018 60 10000 9.3 190 17:45 12.10.2019
318 Clouds 20 1018 60 10000 9.3 190 17:20 12.10.2019
319 Clouds 20 1018 56 10000 11.3 190 16:56 12.10.2019
320 Clouds 20 1018 56 10000 11.3 190 16:38 12.10.2019
321 Clouds 20 1018 56 10000 11.3 190 16:18 12.10.2019
322 Clear 21 1018 52 10000 10.3 190 15:44 12.10.2019
323 Clear 21 1018 52 10000 10.3 190 15:25 12.10.2019
324 Clear 21 1018 52 10000 10.3 190 15:25 12.10.2019
325 Clear 21 1018 52 10000 10.3 190 15:25 12.10.2019
326 Clear 21 1018 52 10000 11.8 190 14:57 12.10.2019
327 Clear 21 1018 52 10000 11.8 190 14:38 12.10.2019
328 Clear 21 1018 52 10000 11.8 190 14:19 12.10.2019
329 Clear 21 1019 52 10000 9.3 180 13:44 12.10.2019
330 Clear 21 1019 52 10000 9.3 180 13:26 12.10.2019
331 Clear 20 1019 52 10000 11.3 190 12:41 12.10.2019
332 Clear 20 1019 52 10000 11.3 190 12:22 12.10.2019
333 Clear 20 1019 52 10000 11.3 190 12:22 12.10.2019
334 Clear 20 1019 52 10000 11.3 190 12:22 12.10.2019
335 Clear 19 1019 55 10000 9.3 180 11:59 12.10.2019
336 Clear 20 1019 55 10000 9.3 180 11:40 12.10.2019
337 Clear 20 1019 55 10000 9.3 180 11:22 12.10.2019
338 Clouds 19 1019 55 10000 9.8 180 10:56 12.10.2019
339 Clouds 19 1019 55 10000 9.8 180 10:37 12.10.2019
340 Clouds 19 1019 55 10000 9.8 180 10:18 12.10.2019
341 -273 0 0 0 0 0 09:55 12.10.2019
342 Clouds 19 1018 63 10000 8.7 180 09:55 12.10.2019
343 Clouds 19 1018 63 10000 8.7 180 09:37 12.10.2019
344 Clouds 18 1018 63 10000 8.7 180 09:18 12.10.2019
345 Clouds 18 1018 63 10000 8.7 180 09:18 12.10.2019
346 Clouds 17 1018 77 10000 8.7 190 08:41 12.10.2019
347 Clouds 17 1018 77 10000 8.7 190 08:41 12.10.2019
348 Clouds 17 1018 77 10000 8.7 190 08:20 12.10.2019
349 Clouds 17 1018 77 10000 8.7 190 08:20 12.10.2019
350 Clouds 15 1017 82 10000 6.2 200 07:36 12.10.2019
351 Clouds 15 1017 82 10000 6.2 200 07:18 12.10.2019
352 Clouds 15 1016 82 10000 6.7 190 05:53 12.10.2019
353 Clouds 15 1016 82 10000 6.7 190 05:24 12.10.2019
354 Clouds 15 1017 87 10000 7.7 190 04:29 12.10.2019
355 Clear 15 1016 87 10000 7.2 200 03:42 12.10.2019
356 Clear 15 1016 87 10000 5.7 220 02:28 12.10.2019
357 Clear 15 1016 87 10000 5.7 220 01:30 12.10.2019
358 Clear 15 1017 87 10000 4.6 210 00:44 12.10.2019
359 Clear 15 1017 87 10000 4.6 210 00:24 12.10.2019
360 Clear 16 1017 82 10000 6.2 210 23:41 11.10.2019
361 Clear 16 1017 82 10000 6.2 210 23:21 11.10.2019
362 Clear 16 1018 82 10000 8.2 200 22:59 11.10.2019
363 Clear 16 1018 82 10000 8.2 200 22:37 11.10.2019
364 Clear 16 1018 82 10000 8.2 200 22:37 11.10.2019
365 Clear 16 1018 82 10000 8.2 200 22:18 11.10.2019
366 Clear 16 1018 82 10000 8.2 200 21:40 11.10.2019
367 Clear 16 1018 82 10000 8.2 200 21:21 11.10.2019
368 Clear 16 1018 82 10000 8.7 190 20:55 11.10.2019
369 Clear 16 1018 82 10000 8.7 190 20:37 11.10.2019
370 Clear 16 1018 82 10000 8.7 190 20:18 11.10.2019
371 Clear 17 1018 82 10000 8.7 190 19:55 11.10.2019
372 Clear 17 1018 82 10000 8.7 190 19:36 11.10.2019
373 Clear 17 1018 82 10000 8.7 190 19:18 11.10.2019
374 Clear 18 1017 68 10000 9.3 190 18:54 11.10.2019
375 Clear 18 1017 68 10000 9.3 190 18:36 11.10.2019
376 Clear 19 1017 68 10000 9.3 190 18:18 11.10.2019
377 Clear 19 1018 59 10000 7.7 190 17:54 11.10.2019
378 Clear 20 1018 59 10000 7.7 190 17:36 11.10.2019
379 Clear 19 1018 59 10000 7.7 190 17:18 11.10.2019
380 Clear 21 1018 52 10000 7.7 180 16:39 11.10.2019
381 Clear 21 1018 52 10000 7.7 180 16:19 11.10.2019
382 Clear 23 1018 46 10000 7.2 180 15:57 11.10.2019
383 Clear 22 1018 46 10000 7.2 180 15:37 11.10.2019
384 Clear 22 1018 46 10000 7.2 180 15:18 11.10.2019
385 Clear 22 1018 43 10000 6.7 200 14:44 11.10.2019
386 Clear 22 1018 43 10000 6.7 200 14:25 11.10.2019
387 Clear 22 1019 43 10000 5.1 190 13:47 11.10.2019
388 Clear 23 1019 43 10000 5.1 190 13:27 11.10.2019
389 Clear 23 1020 40 10000 5.1 200 12:59 11.10.2019
390 Clear 22 1020 40 10000 5.1 200 12:41 11.10.2019
391 Clear 23 1020 40 10000 5.1 200 12:22 11.10.2019
392 Clear 21 1020 43 10000 3.1 220 11:59 11.10.2019
393 Clear 21 1020 43 10000 3.1 220 11:39 11.10.2019
394 Clear 20 1020 43 10000 3.1 220 11:21 11.10.2019
395 Clear 21 1020 46 10000 2.6 220 10:56 11.10.2019
396 Clear 20 1020 59 10000 3.1 230 10:38 11.10.2019
397 Clear 20 1020 59 10000 3.1 230 10:20 11.10.2019
398 Clear 19 1020 59 10000 2.1 180 09:54 11.10.2019
399 Clear 19 1020 59 10000 2.1 180 09:54 11.10.2019
400 Clear 19 1020 59 10000 2.1 180 09:36 11.10.2019
401 Clear 18 1020 59 10000 2.1 180 09:18 11.10.2019
402 Clear 17 1020 77 10000 0.5 0 08:40 11.10.2019
403 Clear 16 1020 77 10000 0.5 0 08:21 11.10.2019
404 Clear 16 1020 87 10000 0.5 0 07:59 11.10.2019
405 Clear 15 1020 87 10000 0.5 0 07:40 11.10.2019
406 Clear 13 1020 87 10000 1.5 0 07:20 11.10.2019
407 Clear 13 1020 93 10000 1 80 06:44 11.10.2019
408 Clear 13 1020 93 10000 1 80 06:21 11.10.2019
409 Clear 13 1020 87 10000 3.6 220 05:37 11.10.2019
410 Clear 13 1020 87 10000 2.6 240 04:59 11.10.2019
411 Clear 14 1020 87 10000 2.6 240 04:24 11.10.2019
412 Clear 14 1021 76 10000 3.1 150 02:18 11.10.2019
413 Clear 15 1022 82 10000 3.6 230 00:43 11.10.2019
414 Clear 15 1022 82 10000 3.6 230 00:25 11.10.2019
415 Clear 15 1022 77 10000 3.6 240 23:43 10.10.2019
416 Clear 15 1022 77 10000 3.6 240 23:21 10.10.2019
417 Clear 16 1023 72 10000 4.1 200 22:57 10.10.2019
418 Clear 16 1023 72 10000 4.1 200 22:39 10.10.2019
419 Clear 15 1023 72 10000 4.1 200 22:20 10.10.2019
420 Clear 16 1024 72 10000 4.6 200 21:57 10.10.2019
421 Clear 16 1024 72 10000 4.6 200 21:38 10.10.2019
422 Clear 16 1024 72 10000 4.6 200 21:20 10.10.2019
423 Clear 16 1024 72 10000 5.7 220 20:42 10.10.2019
424 Clear 16 1024 72 10000 5.7 220 20:22 10.10.2019
425 Clouds 16 1024 67 10000 8.2 200 19:59 10.10.2019
426 Clouds 16 1024 67 10000 8.2 200 19:41 10.10.2019
427 Clouds 17 1024 67 10000 8.2 200 19:20 10.10.2019
428 Clear 17 1024 63 10000 7.7 190 18:59 10.10.2019
429 Clear 17 1024 63 10000 7.7 190 18:39 10.10.2019
430 Clear 17 1024 63 10000 7.7 190 18:20 10.10.2019
431 Clear 18 1024 52 10000 7.7 190 17:55 10.10.2019
432 Clear 19 1024 52 10000 7.7 190 17:36 10.10.2019
433 Clear 19 1024 52 10000 7.7 190 17:18 10.10.2019
434 Clear 19 1024 40 10000 5.1 210 16:44 10.10.2019
435 Clear 19 1024 40 10000 5.1 210 16:44 10.10.2019
436 Clear 19 1024 40 10000 5.1 210 16:26 10.10.2019
437 Clear 20 1024 43 10000 6.2 190 15:57 10.10.2019
438 Clear 20 1024 43 10000 6.2 190 15:37 10.10.2019
439 Clear 21 1025 34 10000 1.5 0 15:19 10.10.2019
440 Clear 21 1025 34 10000 1.5 0 14:54 10.10.2019
441 Clear 21 1025 34 10000 1.5 0 14:36 10.10.2019
442 Clear 21 1025 34 10000 1.5 0 14:18 10.10.2019
443 Clear 21 1025 37 10000 3.6 230 13:41 10.10.2019
444 Clear 20 1025 37 10000 3.6 230 13:23 10.10.2019
445 Clear 20 1025 37 10000 3.1 240 12:57 10.10.2019
446 Clear 20 1025 37 10000 3.1 240 12:39 10.10.2019
447 Clear 19 1025 37 10000 3.1 240 12:20 10.10.2019
448 Clear 19 1025 34 10000 2.6 290 11:56 10.10.2019
449 Clear 19 1025 34 10000 2.6 290 11:38 10.10.2019
450 Clear 19 1025 34 10000 2.6 290 11:19 10.10.2019
451 Clear 18 1026 36 10000 1 0 10:44 10.10.2019
452 Clear 18 1026 36 10000 1 0 10:26 10.10.2019
453 Clear 17 1026 38 10000 1 0 09:56 10.10.2019
454 Clear 17 1026 38 10000 1 0 09:38 10.10.2019
455 Clear 17 1026 38 10000 1 0 09:38 10.10.2019
456 Clear 16 1026 38 10000 1 0 09:19 10.10.2019
457 Clear 15 1027 54 10000 2.1 160 08:56 10.10.2019
458 Clear 15 1027 54 10000 2.1 160 08:37 10.10.2019
459 Clear 15 1027 54 10000 2.1 160 08:18 10.10.2019
460 Clear 15 1027 54 10000 2.1 160 08:18 10.10.2019
461 Clear 13 1027 62 10000 5.1 140 07:42 10.10.2019
462 Clear 13 1027 62 10000 5.1 140 07:20 10.10.2019
463 Clear 12 1027 62 10000 8.2 160 06:46 10.10.2019
464 Clear 12 1027 62 10000 8.2 160 06:26 10.10.2019
465 Clear 12 1027 62 10000 8.2 170 05:27 10.10.2019
466 Clear 12 1027 62 10000 7.7 170 04:39 10.10.2019
467 Clear 11 1027 62 10000 7.7 170 04:21 10.10.2019
468 Clear 12 1029 71 10000 3.6 140 01:43 10.10.2019
469 Clear 12 1029 71 10000 3.6 140 01:43 10.10.2019
470 Clear 12 1029 71 10000 3.6 140 01:24 10.10.2019
471 Clouds 12 1029 71 10000 4.1 130 00:53 10.10.2019
472 Clouds 12 1029 71 10000 4.1 130 00:22 10.10.2019
473 Clouds 12 1029 71 10000 3.1 130 23:40 09.10.2019
474 Clouds 12 1029 71 10000 3.1 130 23:20 09.10.2019
475 Clouds 12 1029 66 10000 3.6 140 22:56 09.10.2019
476 Clouds 12 1029 66 10000 3.6 140 22:37 09.10.2019
477 Clouds 12 1029 66 10000 3.6 140 22:19 09.10.2019
478 Clouds 13 1028 62 10000 3.1 140 21:40 09.10.2019
479 Clouds 13 1028 62 10000 3.1 140 21:21 09.10.2019
480 Clouds 13 1027 62 10000 5.7 150 20:56 09.10.2019
481 Clouds 13 1027 62 10000 5.7 150 20:38 09.10.2019
482 Clouds 13 1027 62 10000 5.7 150 20:38 09.10.2019
483 Clouds 13 1027 62 10000 5.7 150 20:19 09.10.2019
484 Clouds 13 1027 58 10000 6.2 160 19:58 09.10.2019
485 Clouds 14 1027 58 10000 6.2 160 19:39 09.10.2019
486 Clouds 14 1027 58 10000 6.2 160 19:20 09.10.2019
487 Clouds 15 1026 44 10000 7.7 180 18:38 09.10.2019
488 Clouds 15 1026 44 10000 7.7 180 18:19 09.10.2019
489 Clouds 15 1026 44 10000 9.3 180 17:57 09.10.2019
490 Clouds 15 1026 44 10000 9.3 180 17:37 09.10.2019
491 Clouds 16 1026 44 10000 9.3 180 17:19 09.10.2019
492 Clouds 16 1025 48 10000 8.7 180 16:55 09.10.2019
493 Clouds 16 1025 48 10000 8.7 180 16:36 09.10.2019
494 Clouds 17 1025 55 10000 5.1 190 16:18 09.10.2019
495 Clouds 16 1025 55 10000 5.1 190 15:55 09.10.2019
496 Clouds 16 1025 55 10000 5.1 190 15:55 09.10.2019
497 Clouds 17 1025 55 10000 5.1 190 15:36 09.10.2019
498 Clouds 17 1025 55 10000 5.1 190 15:36 09.10.2019
499 Clouds 16 1025 55 10000 5.1 190 15:18 09.10.2019
500 Rain 17 1026 48 8000 9.3 180 14:42 09.10.2019
501 Rain 17 1026 48 8000 9.3 180 14:42 09.10.2019
502 Rain 17 1026 48 8000 9.3 180 14:18 09.10.2019
503 Clouds 17 1025 48 10000 8.2 190 13:58 09.10.2019
504 Clouds 16 1025 48 10000 8.2 190 13:36 09.10.2019
505 Clouds 17 1025 48 10000 8.2 190 13:18 09.10.2019
506 Clouds 17 1025 42 10000 7.7 200 12:42 09.10.2019
507 Clouds 17 1025 33 10000 7.7 210 12:22 09.10.2019
508 Clouds 16 1025 44 10000 8.7 200 11:58 09.10.2019
509 Clouds 16 1025 44 10000 8.7 200 11:39 09.10.2019
510 Clouds 16 1025 44 10000 8.7 200 11:20 09.10.2019
511 Clouds 16 1024 47 10000 9.3 220 10:57 09.10.2019
512 Clouds 16 1024 47 10000 9.3 220 10:57 09.10.2019
513 Clouds 15 1024 47 10000 9.3 220 10:39 09.10.2019
514 Clouds 15 1024 47 10000 9.3 220 10:18 09.10.2019
515 Clouds 15 1023 58 10000 7.2 200 09:42 09.10.2019
516 Clouds 15 1023 58 10000 7.2 200 09:20 09.10.2019
517 Clouds 15 1022 71 10000 5.7 210 08:57 09.10.2019
518 Clouds 14 1022 71 10000 5.7 210 08:37 09.10.2019
519 Clouds 14 1022 71 10000 5.7 210 08:18 09.10.2019
520 Clouds 14 1021 82 10000 4.6 200 07:43 09.10.2019
521 Clouds 14 1021 82 10000 4.6 200 07:24 09.10.2019
522 Clouds 13 1020 82 10000 6.7 210 06:54 09.10.2019
523 Clouds 14 1020 76 10000 7.2 220 06:20 09.10.2019
524 Clouds 14 1019 76 10000 5.1 210 05:46 09.10.2019
525 Clouds 14 1019 76 10000 3.1 230 04:41 09.10.2019
526 Clouds 14 1018 87 10000 7.12 223.388 03:24 09.10.2019
527 Clouds 14 1019 62 10000 2.1 160 01:48 09.10.2019
528 Clouds 14 1019 62 10000 2.1 160 01:22 09.10.2019
529 Clouds 14 1019 72 10000 2.6 200 00:59 09.10.2019
530 Clouds 15 1019 72 10000 2.6 200 00:40 09.10.2019
531 Clouds 15 1019 72 10000 2.6 200 00:22 09.10.2019
532 Clouds 15 1019 72 10000 2.6 200 00:22 09.10.2019
533 Clouds 15 1018 87 10000 3.1 180 23:58 08.10.2019
534 Clouds 15 1018 87 10000 3.1 180 23:37 08.10.2019
535 Clouds 15 1018 87 10000 3.1 180 23:18 08.10.2019
536 Clouds 16 1018 93 10000 2.1 310 22:40 08.10.2019
537 Clouds 16 1018 93 10000 2.1 310 22:21 08.10.2019
538 Clouds 16 1018 93 10000 2.1 300 21:58 08.10.2019
539 Clouds 16 1018 93 10000 2.1 300 21:39 08.10.2019
540 Clouds 16 1018 93 10000 2.1 300 21:39 08.10.2019
541 Clouds 16 1018 93 10000 2.1 300 21:20 08.10.2019
542 Rain 16 1017 93 8000 6.7 320 20:58 08.10.2019
543 Rain 16 1017 93 8000 6.7 320 20:39 08.10.2019
544 Rain 16 1017 93 8000 6.7 320 20:21 08.10.2019
545 Clouds 17 1016 72 10000 7.7 320 19:59 08.10.2019
546 Clouds 17 1016 72 10000 7.7 320 19:41 08.10.2019
547 Clouds 17 1016 72 10000 7.7 320 19:23 08.10.2019
548 Clouds 18 1016 63 10000 4.6 310 18:57 08.10.2019
549 Clouds 18 1016 63 10000 4.6 310 18:39 08.10.2019
550 Clouds 18 1016 63 10000 4.6 310 18:19 08.10.2019
551 Clouds 18 1015 59 10000 7.2 320 17:55 08.10.2019
552 Clouds 19 1015 59 10000 7.2 320 17:55 08.10.2019
553 Clouds 19 1015 59 10000 7.2 320 17:36 08.10.2019
554 Clouds 19 1015 59 10000 7.2 320 17:18 08.10.2019
555 Clouds 19 1015 59 10000 7.2 310 16:40 08.10.2019
556 Clouds 19 1015 59 10000 7.2 310 16:22 08.10.2019
557 Clouds 19 1016 63 10000 7.2 340 15:56 08.10.2019
558 Clouds 19 1016 63 10000 7.2 340 15:37 08.10.2019
559 Clouds 19 1016 63 10000 7.2 340 15:19 08.10.2019
560 Clouds 19 1016 59 10000 7.7 310 14:42 08.10.2019
561 Clouds 19 1016 59 10000 7.7 310 14:21 08.10.2019
562 Clouds 19 1016 55 10000 8.2 310 13:58 08.10.2019
563 Clouds 19 1016 55 10000 8.2 310 13:39 08.10.2019
564 Clouds 19 1016 55 10000 8.2 310 13:39 08.10.2019
565 Clouds 19 1016 55 10000 8.2 310 13:20 08.10.2019
566 Clouds 20 1016 52 10000 9.3 320 12:59 08.10.2019
567 Clouds 20 1016 52 10000 9.3 320 12:38 08.10.2019
568 Clouds 20 1016 52 10000 9.3 320 12:19 08.10.2019
569 Clouds 19 1017 52 10000 9.3 320 11:43 08.10.2019
570 Clouds 19 1017 52 10000 9.3 320 11:24 08.10.2019
571 Clouds 19 1017 55 10000 8.7 330 10:59 08.10.2019
572 Clouds 19 1017 55 10000 8.7 330 10:40 08.10.2019
573 Clouds 19 1017 55 10000 8.7 330 10:21 08.10.2019
574 Clouds 18 1017 63 10000 5.1 350 09:58 08.10.2019
575 Clouds 18 1017 63 10000 5.1 350 09:39 08.10.2019
576 Clouds 17 1017 63 10000 5.1 350 09:20 08.10.2019
577 Clouds 17 1017 67 10000 6.7 350 08:44 08.10.2019
578 Clouds 16 1017 67 10000 6.7 350 08:25 08.10.2019
579 Clouds 15 1017 72 10000 5.7 350 07:47 08.10.2019
580 Clouds 15 1017 76 10000 3.6 20 07:23 08.10.2019
581 Clouds 14 1017 76 10000 3.1 360 06:57 08.10.2019
582 Clouds 14 1017 76 10000 3.1 360 06:35 08.10.2019
583 Clear 13 1016 82 10000 2.6 10 05:58 08.10.2019
584 Clear 13 1016 82 10000 2.6 10 05:38 08.10.2019
585 Clear 14 1016 82 10000 3.1 50 04:55 08.10.2019
586 Clear 14 1016 87 10000 4.6 350 03:30 08.10.2019
587 Clear 14 1016 87 10000 4.6 340 02:40 08.10.2019
588 Clouds 15 1017 82 10000 3.6 330 01:51 08.10.2019
589 Clouds 15 1017 82 10000 3.6 330 01:32 08.10.2019
590 Clouds 15 1017 87 10000 4.1 350 00:55 08.10.2019
591 Clouds 15 1017 87 10000 4.1 350 00:22 08.10.2019
592 Clouds 15 1018 87 10000 4.1 320 23:43 07.10.2019
593 Clouds 15 1018 87 10000 4.1 320 23:21 07.10.2019
594 Clouds 16 1018 82 10000 3.6 320 22:58 07.10.2019
595 Clouds 16 1018 82 10000 3.6 320 22:58 07.10.2019
596 Clouds 15 1018 82 10000 3.6 320 22:40 07.10.2019
597 Clouds 16 1018 82 10000 3.6 320 22:21 07.10.2019
598 Clouds 16 1019 82 10000 3.6 320 21:58 07.10.2019
599 Clouds 16 1019 82 10000 3.6 320 21:40 07.10.2019
600 Clouds 16 1019 82 10000 3.6 320 21:20 07.10.2019
601 Clouds 17 1018 82 10000 5.1 330 20:58 07.10.2019
602 Clouds 17 1018 82 10000 5.1 330 20:39 07.10.2019
603 Clouds 17 1018 82 10000 5.1 330 20:21 07.10.2019
604 Clouds 17 1017 82 10000 5.7 320 19:59 07.10.2019
605 Clouds 17 1017 82 10000 5.7 320 19:59 07.10.2019
606 Clouds 17 1017 82 10000 5.7 320 19:40 07.10.2019
607 Clouds 17 1017 82 10000 5.7 320 19:20 07.10.2019
608 Clouds 17 1017 82 10000 6.2 320 18:58 07.10.2019
609 Clouds 17 1017 82 10000 6.2 320 18:38 07.10.2019
610 Clouds 18 1017 82 10000 6.2 320 18:19 07.10.2019
611 Clouds 19 1016 72 10000 7.7 320 17:43 07.10.2019
612 Clouds 19 1016 72 10000 7.7 320 17:23 07.10.2019
613 Clouds 20 1016 60 10000 7.7 290 16:59 07.10.2019
614 Clouds 20 1016 60 10000 7.7 290 16:41 07.10.2019
615 Clouds 20 1016 60 10000 7.7 290 16:22 07.10.2019
616 Clouds 20 1016 52 10000 9.3 300 15:46 07.10.2019
617 Clouds 21 1016 52 10000 9.3 300 15:26 07.10.2019
618 Clouds 21 1016 56 10000 8.2 310 14:58 07.10.2019
619 Clouds 21 1016 56 10000 8.2 310 14:40 07.10.2019
620 Clouds 21 1016 56 10000 8.2 310 14:22 07.10.2019
621 Clouds 21 1016 49 10000 8.7 320 13:43 07.10.2019
622 Clouds 21 1016 49 10000 8.7 320 13:21 07.10.2019
623 Clouds 21 1017 56 10000 8.2 310 12:57 07.10.2019
624 Clouds 21 1017 56 10000 8.2 310 12:39 07.10.2019
625 Clouds 21 1017 56 10000 8.2 310 12:19 07.10.2019
626 Clouds 20 1017 60 10000 8.2 320 11:58 07.10.2019
627 Clouds 19 1017 60 10000 8.2 320 11:38 07.10.2019
628 Clouds 19 1017 60 10000 8.2 320 11:20 07.10.2019
629 Clouds 19 1017 72 10000 5.7 310 10:42 07.10.2019
630 Clouds 19 1017 72 10000 5.7 330 10:21 07.10.2019
631 Clouds 19 1017 72 10000 5.7 330 09:56 07.10.2019
632 Clouds 19 1017 72 10000 5.7 330 09:38 07.10.2019
633 Clouds 18 1017 72 10000 5.7 330 09:19 07.10.2019
634 Clouds 18 1017 72 10000 5.1 350 08:42 07.10.2019
635 Clouds 17 1017 82 10000 4.6 350 08:20 07.10.2019
636 Clouds 15 1016 93 7000 3.1 30 07:46 07.10.2019
637 Clouds 15 1016 93 7000 3.1 30 07:27 07.10.2019
638 Mist 14 1016 93 5000 3.1 40 06:57 07.10.2019
639 Clouds 14 1016 93 10000 3.1 20 06:38 07.10.2019
640 Clouds 14 1015 93 10000 2.6 20 05:56 07.10.2019
641 Clouds 14 1015 93 10000 2.6 20 05:25 07.10.2019
642 Clouds 14 1015 93 10000 2.1 320 04:47 07.10.2019
643 Clouds 15 1015 87 10000 3.1 330 03:45 07.10.2019
644 Clouds 15 1015 87 10000 3.1 330 03:45 07.10.2019
645 Clouds 15 1015 87 10000 3.1 330 03:27 07.10.2019
646 Clouds 15 1015 77 10000 3.1 300 02:23 07.10.2019
647 Clouds 15 1016 82 10000 2.1 270 01:58 07.10.2019
648 Clouds 16 1016 82 10000 2.1 270 01:23 07.10.2019
649 Clouds 16 1015 82 10000 1 0 00:49 07.10.2019
650 Clouds 16 1015 82 10000 1 0 00:23 07.10.2019
651 Clouds 16 1015 82 10000 3.1 200 23:59 06.10.2019
652 Clouds 16 1015 82 10000 3.1 200 23:39 06.10.2019
653 Clouds 17 1015 82 10000 3.1 200 23:18 06.10.2019
654 Clouds 16 1015 82 10000 3.1 200 22:54 06.10.2019
655 Clouds 16 1015 82 10000 3.1 200 22:36 06.10.2019
656 Clouds 16 1015 82 10000 3.1 200 22:18 06.10.2019
657 Clouds 16 1015 82 10000 3.1 200 22:18 06.10.2019
658 Clear 16 1015 77 10000 2.1 140 21:55 06.10.2019
659 Clear 16 1015 77 10000 2.1 140 21:54 06.10.2019
660 Clear 16 1015 77 10000 2.1 140 21:36 06.10.2019
661 Clear 16 1015 77 10000 2.1 140 21:18 06.10.2019
662 Clear 17 1015 72 10000 2.6 150 20:54 06.10.2019
663 Clear 17 1015 72 10000 2.6 150 20:36 06.10.2019
664 Clear 17 1015 72 10000 2.6 150 20:36 06.10.2019
665 Clear 17 1015 72 10000 2.6 150 20:18 06.10.2019
666 Clouds 17 1015 55 10000 3.6 180 19:54 06.10.2019
667 Clouds 17 1015 55 10000 3.6 180 19:36 06.10.2019
668 Clouds 18 1015 55 10000 3.6 180 19:18 06.10.2019
669 Clouds 18 1015 55 10000 3.6 190 18:54 06.10.2019
670 Clouds 18 1015 55 10000 3.6 190 18:36 06.10.2019
671 Clouds 18 1015 55 10000 3.6 190 18:18 06.10.2019
672 Clouds 19 1015 52 10000 4.1 210 17:42 06.10.2019
673 Clouds 19 1015 52 10000 4.1 210 17:19 06.10.2019
674 Clouds 19 1015 59 10000 3.6 230 16:54 06.10.2019
675 Clouds 19 1015 59 10000 3.6 230 16:54 06.10.2019
676 Clouds 19 1015 59 10000 3.6 230 16:36 06.10.2019
677 Clouds 19 1015 59 10000 3.6 230 16:18 06.10.2019
678 Clouds 19 1015 52 10000 2.6 310 15:42 06.10.2019
679 Clouds 19 1015 52 10000 2.6 310 15:19 06.10.2019
680 Clouds 19 1016 52 10000 5.1 320 14:44 06.10.2019
681 Clouds 19 1016 52 10000 5.1 320 14:25 06.10.2019
682 Clouds 19 1016 56 10000 5.7 300 13:58 06.10.2019
683 Clouds 20 1016 56 10000 5.7 300 13:39 06.10.2019
684 Clouds 20 1016 56 10000 5.7 300 13:21 06.10.2019
685 Clouds 20 1017 59 10000 6.2 300 12:57 06.10.2019
686 Clouds 20 1017 59 10000 6.2 300 12:39 06.10.2019
687 Clouds 20 1017 59 10000 6.2 300 12:39 06.10.2019
688 Clouds 19 1017 59 10000 6.2 300 12:21 06.10.2019
689 Clouds 19 1017 59 10000 5.1 310 11:58 06.10.2019
690 Clouds 19 1017 59 10000 5.1 310 11:39 06.10.2019
691 Clouds 19 1017 59 10000 5.1 310 11:20 06.10.2019
692 Clouds 19 1017 63 10000 5.7 330 10:45 06.10.2019
693 Clouds 19 1017 63 10000 5.7 330 10:26 06.10.2019
694 Clouds 18 1017 67 10000 5.1 40 09:58 06.10.2019
695 Clouds 18 1017 67 10000 5.1 40 09:40 06.10.2019
696 Clouds 17 1017 67 10000 5.1 40 09:19 06.10.2019
697 Clouds 16 1017 77 10000 4.6 30 08:45 06.10.2019
698 Clouds 16 1017 77 10000 4.6 30 08:21 06.10.2019
699 Clouds 15 1016 87 10000 4.1 50 07:57 06.10.2019
700 Clouds 14 1016 87 10000 4.1 50 07:38 06.10.2019
701 Clouds 13 1016 93 10000 3.1 40 06:32 06.10.2019
702 Clouds 14 1014 90 0 4.02 353.045 05:35 06.10.2019
703 Clouds 12 1016 93 10000 3.1 50 04:27 06.10.2019
704 Clear 12 1016 87 10000 2.1 20 02:47 06.10.2019
705 Clear 13 1016 87 10000 2.1 20 02:27 06.10.2019
706 Clear 13 1016 81 10000 2.1 40 01:46 06.10.2019
707 Clear 13 1016 81 10000 2.1 40 01:27 06.10.2019
708 Clear 14 1016 72 10000 2.1 260 00:59 06.10.2019
709 Clear 14 1016 72 10000 2.1 260 00:29 06.10.2019
710 Clouds 14 1016 82 10000 1 160 23:46 05.10.2019
711 Clouds 14 1016 82 10000 1 160 23:23 05.10.2019
712 Clear 15 1015 82 10000 1.5 150 22:59 05.10.2019
713 Clear 15 1015 82 10000 1.5 150 22:40 05.10.2019
714 Clear 15 1015 82 10000 1.5 150 22:21 05.10.2019
715 Clouds 15 1015 72 10000 3.1 200 21:57 05.10.2019
716 Clouds 16 1015 72 10000 3.1 200 21:39 05.10.2019
717 Clouds 16 1015 72 10000 3.1 200 21:20 05.10.2019
718 Clear 16 1014 67 10000 4.6 190 20:56 05.10.2019
719 Clear 17 1014 67 10000 4.6 190 20:38 05.10.2019
720 Clear 17 1014 67 10000 4.6 190 20:19 05.10.2019
721 Clear 17 1013 72 10000 4.1 130 19:39 05.10.2019
722 Clear 17 1013 72 10000 4.1 130 19:21 05.10.2019
723 Clear 18 1013 63 10000 5.1 140 18:57 05.10.2019
724 Clear 18 1013 63 10000 5.1 140 18:39 05.10.2019
725 Clear 19 1013 63 10000 5.1 140 18:20 05.10.2019
726 Clouds 19 1013 60 10000 5.7 150 17:55 05.10.2019
727 Clouds 20 1013 60 10000 5.7 150 17:37 05.10.2019
728 Clouds 20 1013 60 10000 5.7 150 17:18 05.10.2019
729 Clear 21 1012 49 10000 5.7 170 16:42 05.10.2019
730 Clear 21 1012 49 10000 5.7 170 16:21 05.10.2019
731 Clear 21 1013 53 10000 4.6 160 15:57 05.10.2019
732 Clear 21 1013 53 10000 4.6 160 15:39 05.10.2019
733 Clear 21 1013 53 10000 4.6 160 15:21 05.10.2019
734 Clear 22 1013 33 10000 4.1 290 14:57 05.10.2019
735 Clear 22 1013 33 10000 4.1 290 14:38 05.10.2019
736 Clear 22 1013 33 10000 4.1 290 14:20 05.10.2019
737 Clear 22 1013 40 10000 4.1 320 13:42 05.10.2019
738 Clear 22 1013 40 10000 4.1 320 13:22 05.10.2019
739 Clear 21 1014 46 10000 3.1 290 12:46 05.10.2019
740 Clear 21 1014 46 10000 3.1 290 12:21 05.10.2019
741 Clear 19 1015 55 10000 3.6 310 11:59 05.10.2019
742 Clear 20 1015 55 10000 3.6 310 11:37 05.10.2019
743 Clear 20 1015 55 10000 3.6 310 11:18 05.10.2019
744 Clear 20 1015 55 10000 3.6 310 11:18 05.10.2019
745 Clear 19 1015 59 10000 3.1 310 10:45 05.10.2019
746 Clear 19 1015 59 10000 3.1 310 10:26 05.10.2019
747 Clear 19 1015 59 9000 2.1 260 09:58 05.10.2019
748 Clear 18 1015 59 9000 2.1 260 09:39 05.10.2019
749 Clear 17 1015 77 9000 2.6 240 09:20 05.10.2019
750 Clear 16 1015 82 9000 2.1 250 08:40 05.10.2019
751 Clear 16 1015 87 6000 0.5 0 08:20 05.10.2019
752 Clear 14 1016 87 6000 0.5 70 07:57 05.10.2019
753 Mist 13 1015 93 4500 1 80 07:35 05.10.2019
754 Mist 11 1015 100 5000 1 90 06:59 05.10.2019
755 Clear 11 1015 93 10000 1 110 06:28 05.10.2019
756 Clear 10 1016 100 10000 1 90 05:51 05.10.2019
757 Clear 11 1016 93 10000 2.1 120 04:21 05.10.2019
758 Clear 11 1017 87 10000 1 20 03:28 05.10.2019
759 Clear 11 1018 93 10000 2.1 30 01:52 05.10.2019
760 Clear 11 1018 93 10000 2.1 30 01:23 05.10.2019
761 Clear 12 1019 93 10000 1.5 60 00:44 05.10.2019
762 Clear 12 1019 93 10000 1.5 60 00:25 05.10.2019
763 Clear 12 1020 87 10000 1.5 90 23:45 04.10.2019
764 Clear 12 1020 87 10000 1.5 90 23:26 04.10.2019
765 Clear 12 1020 87 10000 1.5 90 23:26 04.10.2019
766 Clear 13 1020 82 10000 1.5 360 22:59 04.10.2019
767 Clear 14 1020 82 10000 1.5 360 22:40 04.10.2019
768 Clear 14 1020 82 10000 1.5 360 22:22 04.10.2019
769 Clear 14 1019 87 10000 2.6 10 21:57 04.10.2019
770 Clear 14 1019 87 10000 2.6 10 21:39 04.10.2019
771 Clear 14 1019 87 10000 2.6 10 21:20 04.10.2019
772 Clear 15 1019 77 10000 3.1 330 20:57 04.10.2019
773 Clear 15 1019 77 10000 3.1 330 20:38 04.10.2019
774 Clear 15 1019 77 10000 3.1 330 20:20 04.10.2019
775 Clear 16 1019 63 10000 3.1 320 19:48 04.10.2019
776 Clear 16 1019 63 10000 3.1 320 19:29 04.10.2019
777 Clouds 17 1019 59 10000 4.1 300 18:59 04.10.2019
778 Clouds 17 1019 59 10000 4.1 300 18:39 04.10.2019
779 Clouds 18 1019 59 10000 4.1 300 18:19 04.10.2019
780 Clouds 19 1018 55 10000 6.7 300 17:57 04.10.2019
781 Clouds 19 1018 55 10000 6.7 300 17:38 04.10.2019
782 Clouds 19 1018 55 10000 6.7 300 17:19 04.10.2019
783 Clouds 20 1018 48 10000 7.2 300 16:54 04.10.2019
784 Clouds 19 1018 48 10000 7.2 300 16:36 04.10.2019
785 Clouds 19 1018 48 10000 7.2 300 16:36 04.10.2019
786 Clouds 19 1018 48 10000 7.2 300 16:36 04.10.2019
787 Clouds 19 1018 48 10000 7.2 300 16:18 04.10.2019
788 Clouds 19 1019 48 10000 7.7 300 15:54 04.10.2019
789 Clouds 19 1019 48 10000 7.7 300 15:36 04.10.2019
790 Clouds 19 1019 48 10000 7.7 300 15:18 04.10.2019
791 Clouds 20 1019 52 10000 8.2 310 14:41 04.10.2019
792 Clouds 20 1019 52 10000 8.2 310 14:22 04.10.2019
793 Clouds 20 1019 52 10000 7.7 320 13:58 04.10.2019
794 Clouds 20 1019 52 10000 7.7 320 13:40 04.10.2019
795 Clouds 20 1019 52 10000 7.7 320 13:19 04.10.2019
796 Clouds 20 1019 48 10000 7.7 320 12:45 04.10.2019
797 Clouds 19 1019 48 10000 7.7 320 12:27 04.10.2019
798 Clouds 19 1019 48 10000 7.7 320 12:27 04.10.2019
799 Clouds 20 1019 49 10000 8.2 320 11:55 04.10.2019
800 Clouds 19 1019 49 10000 8.2 320 11:37 04.10.2019
801 Clouds 20 1019 49 10000 8.2 320 11:18 04.10.2019
802 Clouds 19 1019 52 10000 6.7 330 10:39 04.10.2019
803 Clouds 19 1019 52 10000 6.7 330 10:20 04.10.2019
804 Clouds 17 1019 67 10000 6.2 320 09:44 04.10.2019
805 Clouds 17 1019 67 10000 6.2 320 09:26 04.10.2019
806 Clouds 17 1018 77 10000 8.2 330 08:55 04.10.2019
807 Clouds 16 1018 77 10000 8.2 330 08:37 04.10.2019
808 Clouds 16 1018 77 10000 8.2 330 08:18 04.10.2019
809 Clouds 15 1019 77 10000 5.7 330 07:42 04.10.2019
810 Clouds 15 1019 77 10000 5.7 330 07:20 04.10.2019
811 Clouds 15 1017 77 10000 6.2 360 06:41 04.10.2019
812 Clouds 15 1017 77 10000 6.2 360 06:22 04.10.2019
813 Clouds 15 1018 77 10000 4.6 340 05:23 04.10.2019
814 Clouds 15 1017 87 10000 3.1 340 04:54 04.10.2019
815 Clouds 15 1018 82 10000 3.6 350 03:42 04.10.2019
816 Clouds 15 1019 93 10000 3.1 350 02:53 04.10.2019
817 Clouds 15 1019 93 10000 3.1 350 02:53 04.10.2019
818 Clouds 15 1019 87 10000 3.6 350 01:55 04.10.2019
819 Clouds 15 1019 87 10000 3.6 350 01:29 04.10.2019
820 Clouds 15 1019 93 10000 3.6 350 00:50 04.10.2019
821 Clouds 15 1019 93 10000 4.1 350 23:55 03.10.2019
822 Clouds 15 1019 93 10000 4.1 350 23:36 03.10.2019
823 Clouds 15 1019 93 10000 4.1 350 23:18 03.10.2019
824 Clouds 16 1019 93 10000 3.6 310 22:55 03.10.2019
825 Clouds 15 1019 93 10000 3.6 310 22:36 03.10.2019
826 Clouds 15 1019 93 10000 3.6 310 22:18 03.10.2019
827 Clouds 16 1018 82 10000 3.6 330 21:54 03.10.2019
828 Clouds 16 1018 82 10000 3.6 330 21:36 03.10.2019
829 Clouds 16 1018 82 10000 3.6 330 21:18 03.10.2019
830 Clear 16 1017 82 10000 2.6 340 20:41 03.10.2019
831 Clear 16 1017 82 10000 2.6 340 20:23 03.10.2019
832 Clear 16 1017 72 10000 3.6 320 19:59 03.10.2019
833 Clear 16 1017 72 10000 3.6 320 19:41 03.10.2019
834 Clear 17 1017 72 10000 3.6 320 19:22 03.10.2019
835 Clear 17 1017 68 10000 5.7 320 18:58 03.10.2019
836 Clear 18 1017 68 10000 5.7 320 18:38 03.10.2019
837 Clear 18 1017 68 10000 5.7 320 18:38 03.10.2019
838 Clear 18 1017 68 10000 5.7 320 18:19 03.10.2019
839 Clear 18 1017 68 10000 5.7 320 18:19 03.10.2019
840 Clouds 19 1016 63 10000 6.7 320 17:43 03.10.2019
841 Clouds 19 1016 63 10000 6.7 320 17:23 03.10.2019
842 Clouds 19 1016 63 10000 6.7 320 17:23 03.10.2019
843 Clouds 19 1016 56 10000 7.2 310 16:59 03.10.2019
844 Clouds 20 1016 56 10000 7.2 310 16:40 03.10.2019
845 Clouds 20 1016 56 10000 7.2 310 16:22 03.10.2019
846 Clouds 20 1017 56 10000 6.2 310 15:55 03.10.2019
847 Clouds 20 1017 56 10000 6.2 310 15:37 03.10.2019
848 Clouds 20 1017 56 10000 6.2 310 15:18 03.10.2019
849 Clouds 20 1018 60 10000 6.7 320 14:39 03.10.2019
850 Clouds 20 1018 60 10000 6.7 320 14:20 03.10.2019
851 Clouds 20 1018 56 10000 7.2 310 13:56 03.10.2019
852 Clouds 20 1018 56 10000 7.2 310 13:56 03.10.2019
853 Clouds 20 1018 56 10000 7.2 310 13:38 03.10.2019
854 Clouds 20 1018 56 10000 7.2 310 13:19 03.10.2019
855 Clouds 20 1018 63 10000 6.7 310 12:54 03.10.2019
856 Clouds 19 1018 63 10000 6.7 310 12:36 03.10.2019
857 Clouds 19 1018 63 10000 6.7 310 12:18 03.10.2019
858 Clouds 19 1018 59 10000 6.7 300 11:40 03.10.2019
859 Clouds 19 1018 59 10000 6.7 300 11:40 03.10.2019
860 Clouds 19 1018 59 10000 6.7 300 11:22 03.10.2019
861 Clouds 20 1018 59 10000 4.6 310 10:58 03.10.2019
862 Clouds 20 1018 59 10000 4.6 310 10:39 03.10.2019
863 Clouds 20 1018 59 10000 4.6 310 10:39 03.10.2019
864 Clouds 19 1018 59 10000 4.6 310 10:18 03.10.2019
865 Clouds 19 1017 63 10000 1 0 09:57 03.10.2019
866 Clouds 19 1017 63 10000 1 0 09:38 03.10.2019
867 Clouds 18 1017 63 10000 1 0 09:19 03.10.2019
868 Clear 17 1017 82 10000 2.6 40 08:43 03.10.2019
869 Clear 17 1017 82 10000 2.6 40 08:25 03.10.2019
870 Clear 15 1017 93 10000 2.6 50 07:56 03.10.2019
871 Clear 14 1017 93 10000 2.6 40 07:37 03.10.2019
872 Clear 13 1017 93 10000 2.6 40 07:19 03.10.2019
873 Clouds 12 1017 93 10000 1 20 06:35 03.10.2019
874 Clouds 12 1016 93 10000 1.5 60 05:55 03.10.2019
875 Clouds 12 1016 93 10000 1.5 60 05:37 03.10.2019
876 Clouds 14 1016 77 10000 1.5 0 04:50 03.10.2019
877 Clouds 14 1016 77 10000 1.5 0 04:25 03.10.2019
878 Clouds 15 1016 82 10000 2.6 220 03:20 03.10.2019
879 Clouds 15 1016 87 10000 1 250 02:33 03.10.2019
880 Clouds 15 1016 87 10000 2.1 230 01:50 03.10.2019
881 Clouds 15 1016 87 10000 2.1 230 01:31 03.10.2019
882 Clouds 15 1016 87 10000 2.1 190 00:45 03.10.2019
883 Clouds 15 1016 87 10000 2.1 190 00:18 03.10.2019
884 Clouds 15 1015 87 10000 3.6 190 23:43 02.10.2019
885 Clouds 15 1015 87 10000 3.6 190 23:21 02.10.2019
886 Clouds 16 1015 87 10000 4.1 200 22:43 02.10.2019
887 Clouds 16 1015 87 10000 4.1 200 22:21 02.10.2019
888 Clouds 16 1015 87 10000 3.6 190 21:56 02.10.2019
889 Clouds 16 1015 87 10000 3.6 190 21:38 02.10.2019
890 Clouds 16 1015 87 10000 3.6 190 21:20 02.10.2019
891 Clear 17 1014 82 10000 5.7 190 20:56 02.10.2019
892 Clear 17 1014 82 10000 5.7 190 20:38 02.10.2019
893 Clear 17 1014 82 10000 5.7 190 20:20 02.10.2019
894 Clouds 17 1012 82 0 2.24 158 19:54 02.10.2019
895 Clouds 17 1012 82 0 2.24 158 19:54 02.10.2019
896 Clouds 17 1013 77 10000 7.7 160 19:36 02.10.2019
897 Clouds 17 1013 77 10000 7.7 160 19:36 02.10.2019
898 Clouds 17 1013 77 10000 7.7 160 19:18 02.10.2019
899 -273 0 0 0 0 0 18:55 02.10.2019
900 Clouds 18 1013 77 10000 7.7 160 18:36 02.10.2019
901 Clouds 18 1013 77 10000 7.7 160 18:18 02.10.2019
902 Clear 19 1012 72 10000 7.2 170 17:42 02.10.2019
903 Clear 19 1012 72 10000 7.2 170 17:21 02.10.2019
904 Clear 19 1012 64 10000 6.2 170 16:58 02.10.2019
905 Clouds 19 1012 64 0 5.81 170 16:38 02.10.2019
906 Clear 20 1011 33 10000 3.1 0 16:20 02.10.2019
907 Clear 22 1011 33 10000 3.1 0 15:56 02.10.2019
908 Clear 22 1011 33 10000 3.1 0 15:37 02.10.2019
909 Clear 22 1011 33 10000 3.1 0 15:18 02.10.2019
910 Clear 22 1012 49 10000 2.6 140 14:45 02.10.2019
911 Clear 22 1012 49 10000 2.6 140 14:27 02.10.2019
912 Clear 23 1013 44 10000 3.1 170 13:58 02.10.2019
913 Clear 23 1013 44 10000 3.1 170 13:40 02.10.2019
914 Clear 23 1013 44 10000 3.1 170 13:21 02.10.2019
915 Clear 23 1013 36 10000 3.6 340 12:41 02.10.2019
916 Clear 23 1013 36 10000 3.6 340 12:22 02.10.2019
917 Clear 23 1014 36 10000 2.6 310 11:59 02.10.2019
918 Clear 24 1014 36 10000 2.6 310 11:41 02.10.2019
919 Clear 23 1014 36 10000 2.6 310 11:21 02.10.2019
920 Clear 23 1014 43 10000 1.5 0 10:40 02.10.2019
921 Clear 24 1014 43 10000 1.5 0 10:19 02.10.2019
922 Clear 21 1014 49 10000 1.5 0 09:42 02.10.2019
923 Clear 19 1014 59 10000 1 0 09:20 02.10.2019
924 Clear 18 1015 67 10000 1 0 08:57 02.10.2019
925 Clear 18 1015 67 10000 1 0 08:39 02.10.2019
926 Clear 17 1015 82 10000 1 0 08:20 02.10.2019
927 Clear 16 1015 87 10000 1 0 07:55 02.10.2019
928 Clear 14 1015 87 10000 1 0 07:36 02.10.2019
929 Clear 14 1015 87 10000 1 0 07:36 02.10.2019
930 Clear 14 1014 93 10000 2.1 60 07:18 02.10.2019
931 Clear 13 1015 93 10000 1.5 80 06:28 02.10.2019
932 Clear 13 1014 93 10000 1 0 05:51 02.10.2019
933 Clear 13 1014 93 10000 1 0 05:22 02.10.2019
934 Clear 13 1015 93 10000 1 130 04:18 02.10.2019
935 Clear 13 1015 93 10000 1.5 170 03:45 02.10.2019
936 Clear 14 1016 87 10000 1 160 02:38 02.10.2019
937 Clear 14 1016 87 10000 1 160 02:20 02.10.2019
938 Clear 15 1018 77 10000 3.6 170 00:55 02.10.2019
939 Clear 15 1018 77 10000 3.6 170 00:30 02.10.2019
940 Clear 16 1019 72 10000 2.1 210 23:59 01.10.2019
941 Clear 16 1019 72 10000 2.1 210 23:41 01.10.2019
942 Clear 16 1019 72 10000 2.1 210 23:22 01.10.2019
943 Clear 17 1019 77 10000 3.6 230 22:58 01.10.2019
944 Clear 17 1019 77 10000 3.6 230 22:58 01.10.2019
945 Clear 17 1019 77 10000 3.6 230 22:38 01.10.2019
946 Clear 17 1019 77 10000 3.6 230 22:18 01.10.2019
947 Clear 17 1019 77 10000 4.1 240 21:43 01.10.2019
948 Clear 17 1019 77 10000 4.1 240 21:43 01.10.2019
949 Clear 17 1019 77 10000 4.1 240 21:24 01.10.2019
950 Clear 17 1019 87 10000 4.6 240 20:59 01.10.2019
951 Clear 17 1019 87 10000 4.6 240 20:39 01.10.2019
952 Clear 17 1019 87 10000 4.6 240 20:21 01.10.2019
953 Clear 17 1020 77 10000 4.6 240 19:59 01.10.2019
954 Clear 17 1020 77 10000 4.6 240 19:41 01.10.2019
955 Clear 17 1020 77 10000 4.6 240 19:23 01.10.2019
956 Clear 18 1020 63 10000 5.7 210 18:56 01.10.2019
957 Clear 18 1020 63 10000 5.7 210 18:38 01.10.2019
958 Clear 19 1020 63 10000 5.7 210 18:19 01.10.2019
959 Clear 21 1020 52 10000 6.7 190 17:54 01.10.2019
960 Clear 22 1020 52 10000 6.7 190 17:36 01.10.2019
961 Clear 20 1020 52 10000 6.7 190 17:18 01.10.2019
962 Clear 21 1020 46 10000 6.7 190 16:41 01.10.2019
963 Clear 21 1020 46 10000 6.7 190 16:41 01.10.2019
964 Clear 22 1020 46 10000 6.7 190 16:22 01.10.2019
965 Clear 21 1020 46 10000 7.7 190 15:59 01.10.2019
966 Clear 21 1021 43 10000 6.7 190 15:40 01.10.2019
967 Clear 22 1021 43 10000 6.7 190 15:21 01.10.2019
968 Clear 22 1021 43 10000 6.7 190 14:40 01.10.2019
969 Clear 22 1021 43 10000 6.7 190 14:20 01.10.2019
970 Clear 22 1022 40 10000 5.7 220 13:57 01.10.2019
971 Clear 22 1022 40 10000 5.7 220 13:38 01.10.2019
972 Clear 21 1022 40 10000 5.7 220 13:18 01.10.2019
973 Clear 21 1022 33 10000 2.1 0 12:56 01.10.2019
974 Clear 22 1022 33 10000 2.1 0 12:38 01.10.2019
975 Clear 22 1022 33 10000 2.1 0 12:18 01.10.2019
976 Clear 21 1023 35 10000 2.6 10 11:57 01.10.2019
977 Clear 21 1023 35 10000 2.6 10 11:57 01.10.2019
978 Clear 21 1023 35 10000 2.6 10 11:37 01.10.2019
979 Clear 21 1023 35 10000 2.6 10 11:18 01.10.2019
980 Clear 21 1024 40 10000 1 0 10:48 01.10.2019
981 Clear 21 1024 40 10000 1 0 10:28 01.10.2019
982 Clear 19 1023 52 10000 4.1 160 09:47 01.10.2019
983 Clear 18 1023 52 10000 4.1 160 09:26 01.10.2019
984 Clear 17 1023 59 10000 4.1 140 08:46 01.10.2019
985 Clear 17 1023 59 10000 4.1 140 08:28 01.10.2019
986 Clear 15 1023 67 10000 3.6 150 07:59 01.10.2019
987 Clear 16 1023 67 10000 3.6 150 07:41 01.10.2019
988 Clear 14 1023 76 10000 4.1 160 07:20 01.10.2019
989 Clear 13 1022 76 10000 3.6 180 06:43 01.10.2019
990 Clear 13 1022 76 10000 3.6 180 06:18 01.10.2019
991 Clear 14 1022 71 10000 5.7 160 05:45 01.10.2019
992 Clear 14 1023 71 10000 6.2 170 04:46 01.10.2019
993 Clouds 14 1023 87 10000 5.7 170 03:58 01.10.2019
994 Clouds 14 1024 82 10000 4.6 180 02:24 01.10.2019
995 Clouds 14 1024 82 10000 5.7 190 01:57 01.10.2019
996 Clouds 15 1024 77 10000 5.1 180 00:53 01.10.2019
997 Clouds 15 1024 77 10000 5.1 180 00:26 01.10.2019
998 Clouds 14 1024 82 10000 3.1 160 23:55 30.09.2019
999 Clouds 14 1024 82 10000 3.1 160 23:37 30.09.2019
1000 Clouds 14 1024 82 10000 3.1 160 23:18 30.09.2019
1001 Clear 15 1024 72 10000 5.7 180 22:42 30.09.2019
1002 Clear 15 1024 72 10000 5.7 180 22:24 30.09.2019
1003 Clear 15 1024 72 10000 5.1 170 21:56 30.09.2019
1004 Clear 15 1024 72 10000 5.1 170 21:38 30.09.2019
1005 Clear 15 1024 72 10000 5.1 170 21:19 30.09.2019
1006 -273 0 0 0 0 0 20:55 30.09.2019
1007 Clear 15 1024 72 10000 5.7 170 20:55 30.09.2019
1008 Clear 15 1024 72 10000 5.7 170 20:55 30.09.2019
1009 Clear 15 1024 72 10000 5.7 170 20:37 30.09.2019
1010 Clear 16 1024 72 10000 5.7 170 20:19 30.09.2019
1011 Clear 16 1023 63 10000 6.2 180 19:56 30.09.2019
1012 Clear 16 1023 63 10000 6.2 180 19:56 30.09.2019
1013 Clear 16 1023 63 10000 6.2 180 19:38 30.09.2019
1014 Clear 16 1023 63 10000 6.2 180 19:18 30.09.2019
1015 Clouds 17 1023 55 10000 8.2 180 18:54 30.09.2019
1016 Clouds 17 1023 55 10000 8.2 180 18:36 30.09.2019
1017 Clouds 17 1023 55 10000 8.2 180 18:18 30.09.2019
1018 Clouds 18 1023 55 10000 8.7 190 17:40 30.09.2019
1019 Clouds 18 1023 55 10000 8.7 190 17:22 30.09.2019
1020 Clouds 18 1022 52 10000 8.7 190 16:56 30.09.2019
1021 Clouds 19 1022 52 10000 8.7 190 16:38 30.09.2019
1022 Clouds 19 1022 52 10000 8.7 190 16:19 30.09.2019
1023 Clouds 19 1022 52 10000 7.7 170 15:56 30.09.2019
1024 Clouds 19 1022 52 10000 7.7 170 15:37 30.09.2019
1025 Clouds 19 1022 52 10000 7.7 170 15:19 30.09.2019
1026 Clouds 19 1023 52 10000 7.2 190 14:57 30.09.2019
1027 Clouds 19 1023 52 10000 7.2 190 14:37 30.09.2019
1028 Clouds 19 1023 52 10000 7.2 190 14:18 30.09.2019
1029 Clouds 19 1023 52 10000 7.2 180 13:55 30.09.2019
1030 Clouds 20 1023 52 10000 7.2 180 13:36 30.09.2019
1031 Clouds 19 1023 52 10000 7.2 180 13:18 30.09.2019
1032 Clouds 19 1023 48 10000 7.7 180 12:41 30.09.2019
1033 Clouds 18 1023 48 10000 7.7 180 12:21 30.09.2019
1034 Clouds 18 1024 55 10000 6.7 170 11:44 30.09.2019
1035 Clouds 19 1024 55 10000 6.7 170 11:24 30.09.2019
1036 Clouds 19 1023 52 10000 6.7 180 10:59 30.09.2019
1037 Clouds 19 1023 52 10000 6.7 180 10:40 30.09.2019
1038 Clouds 18 1023 63 10000 4.6 140 10:19 30.09.2019
1039 Clouds 17 1023 77 10000 5.1 180 09:58 30.09.2019
1040 Clouds 17 1023 77 10000 5.1 180 09:58 30.09.2019
1041 Clouds 17 1023 77 10000 5.1 180 09:39 30.09.2019
1042 Clouds 17 1023 77 10000 5.1 180 09:20 30.09.2019
1043 Clouds 16 1023 77 10000 4.1 190 08:47 30.09.2019
1044 Clouds 16 1023 77 10000 4.1 190 08:28 30.09.2019
1045 Clouds 15 1022 82 10000 2.6 180 07:45 30.09.2019
1046 Clouds 14 1022 87 10000 1.5 0 07:27 30.09.2019
1047 Clouds 13 1022 93 10000 3.1 200 06:56 30.09.2019
1048 Clouds 13 1022 93 10000 3.1 200 06:34 30.09.2019
1049 Clouds 13 1021 87 10000 3.6 180 05:48 30.09.2019
1050 Clouds 13 1021 87 10000 3.6 180 05:48 30.09.2019
1051 Clouds 13 1022 87 10000 1.5 190 04:40 30.09.2019
1052 Clouds 14 1022 67 10000 3.6 190 02:48 30.09.2019
1053 Clouds 15 1022 77 10000 4.6 180 01:38 30.09.2019
1054 Clouds 15 1021 76 10000 4.6 170 00:43 30.09.2019
1055 Clouds 15 1021 76 10000 4.6 170 00:22 30.09.2019
1056 Clouds 15 1021 76 10000 5.1 170 23:55 29.09.2019
1057 Clouds 15 1021 76 10000 5.1 170 23:36 29.09.2019
1058 Clouds 15 1021 76 10000 5.1 170 23:18 29.09.2019
1059 Clouds 15 1020 76 10000 6.2 170 22:42 29.09.2019
1060 Clouds 15 1020 76 10000 6.2 170 22:23 29.09.2019
1061 Clouds 15 1020 72 10000 6.2 160 21:58 29.09.2019
1062 Clouds 15 1020 72 10000 6.2 160 21:38 29.09.2019
1063 Clouds 15 1020 72 10000 6.2 160 21:19 29.09.2019
1064 Clouds 15 1020 72 10000 6.2 160 21:19 29.09.2019
1065 Clouds 15 1020 72 10000 6.2 160 21:19 29.09.2019
1066 Clouds 15 1019 72 10000 6.7 160 20:55 29.09.2019
1067 Clouds 15 1019 72 10000 6.7 160 20:55 29.09.2019
1068 Clouds 15 1019 72 10000 6.7 160 20:37 29.09.2019
1069 Clouds 16 1019 72 10000 6.7 160 20:19 29.09.2019
1070 Clouds 16 1019 63 10000 8.2 160 19:39 29.09.2019
1071 Clouds 16 1019 63 10000 8.2 160 19:19 29.09.2019
1072 Clouds 16 1018 59 10000 11.3 160 18:57 29.09.2019
1073 Clouds 16 1018 59 10000 11.3 160 18:57 29.09.2019
1074 Clouds 17 1018 59 10000 11.3 160 18:38 29.09.2019
1075 Clouds 17 1018 59 10000 11.3 160 18:20 29.09.2019
1076 Clouds 17 1017 55 10000 12.3 160 17:59 29.09.2019
1077 Clouds 18 1017 55 10000 12.3 160 17:41 29.09.2019
1078 Clouds 18 1017 55 10000 12.3 160 17:20 29.09.2019
1079 Clouds 18 1016 63 10000 14.4 170 17:00 29.09.2019
1080 Clouds 18 1016 63 10000 14.4 170 17:00 29.09.2019
1081 Clouds 18 1016 63 10000 14.4 170 17:00 29.09.2019
1082 Clouds 18 1016 63 10000 14.4 170 16:41 29.09.2019
1083 Clouds 18 1016 63 10000 14.4 170 16:20 29.09.2019
1084 Rain 18 1016 68 10000 12.9 170 15:58 29.09.2019
1085 Rain 18 1016 68 10000 12.9 170 15:37 29.09.2019
1086 Rain 18 1016 68 10000 12.9 170 15:18 29.09.2019
1087 Rain 18 1016 68 10000 12.9 170 15:18 29.09.2019
1088 Clouds 18 1015 68 10000 13.9 170 14:57 29.09.2019
1089 Clouds 18 1015 77 10000 11.3 170 14:37 29.09.2019
1090 Clouds 17 1015 77 10000 11.3 170 14:19 29.09.2019
1091 Clouds 18 1015 72 10000 9.3 160 13:55 29.09.2019
1092 Clouds 17 1015 72 10000 9.3 160 13:36 29.09.2019
1093 Clouds 17 1015 72 10000 9.3 160 13:18 29.09.2019
1094 Clouds 16 1015 72 10000 7.7 170 12:55 29.09.2019
1095 Clouds 16 1015 72 10000 7.7 170 12:55 29.09.2019
1096 Clouds 16 1015 72 10000 7.7 170 12:55 29.09.2019
1097 Clouds 16 1015 72 10000 7.7 170 12:37 29.09.2019
1098 Clouds 16 1015 72 10000 7.7 170 12:19 29.09.2019
1099 Clouds 16 1014 77 10000 8.7 160 11:41 29.09.2019
1100 Clouds 16 1014 77 10000 8.7 160 11:20 29.09.2019
1101 Rain 15 1014 82 10000 8.2 160 10:58 29.09.2019
1102 Rain 15 1014 82 10000 8.2 160 10:39 29.09.2019
1103 Rain 15 1014 82 10000 8.2 160 10:20 29.09.2019
1104 Rain 15 1014 82 10000 8.2 160 10:20 29.09.2019
1105 Rain 15 1014 77 10000 7.7 170 09:57 29.09.2019
1106 Rain 15 1014 77 10000 7.7 170 09:39 29.09.2019
1107 Clouds 15 1014 82 10000 11.3 180 09:19 29.09.2019
1108 Rain 15 1013 87 10000 12.3 170 08:43 29.09.2019
1109 Rain 15 1013 87 10000 12.3 170 08:22 29.09.2019
1110 Clouds 16 1011 87 10000 12.9 170 07:45 29.09.2019
1111 Clouds 16 1011 87 10000 12.9 170 07:27 29.09.2019
1112 Clouds 16 1010 93 10000 11.8 170 06:55 29.09.2019
1113 Clouds 16 1010 93 10000 10.3 170 06:32 29.09.2019
1114 Clouds 16 1009 87 10000 3.1 210 04:52 29.09.2019
1115 Clouds 17 1009 87 10000 3.1 210 04:24 29.09.2019
1116 Clouds 16 1010 87 10000 1 0 03:42 29.09.2019
1117 Clouds 17 1011 88 10000 5.1 330 02:19 29.09.2019
1118 Clear 17 1010 88 10000 5.7 310 01:45 29.09.2019
1119 Clear 17 1010 88 10000 5.7 310 01:20 29.09.2019
1120 Clear 18 1010 82 10000 1.5 10 00:41 29.09.2019
1121 Clear 18 1010 82 10000 1.5 10 00:19 29.09.2019
1122 Clear 19 1009 72 10000 1 0 23:39 28.09.2019
1123 Clear 19 1009 72 10000 1 0 23:21 28.09.2019
1124 Clouds 19 1009 68 10000 2.1 210 22:41 28.09.2019
1125 Clouds 19 1009 68 10000 2.1 210 22:23 28.09.2019
1126 Clouds 19 1008 77 10000 3.6 220 21:59 28.09.2019
1127 Clouds 19 1008 77 10000 3.6 220 21:40 28.09.2019
1128 Clouds 19 1008 77 10000 3.6 220 21:21 28.09.2019
1129 Clear 19 1007 77 10000 5.1 200 20:59 28.09.2019
1130 Clear 20 1007 77 10000 5.1 200 20:40 28.09.2019
1131 Clear 20 1007 77 10000 5.1 200 20:20 28.09.2019
1132 Clear 20 1008 64 10000 5.1 220 19:58 28.09.2019
1133 Clear 20 1008 64 10000 5.1 220 19:39 28.09.2019
1134 Clear 20 1008 64 10000 5.1 220 19:21 28.09.2019
1135 Clear 20 1007 68 10000 4.1 230 18:58 28.09.2019
1136 Clear 20 1007 68 10000 4.1 230 18:40 28.09.2019
1137 Clear 20 1007 68 10000 4.1 230 18:21 28.09.2019
1138 Clear 20 1007 68 10000 4.1 230 18:21 28.09.2019
1139 Clear 20 1007 68 10000 4.1 230 18:21 28.09.2019
1140 Clear 21 1008 64 10000 6.2 250 17:57 28.09.2019
1141 Clear 21 1008 64 10000 6.2 250 17:57 28.09.2019
1142 Clear 21 1008 64 10000 6.2 250 17:38 28.09.2019
1143 Clear 21 1008 64 10000 6.2 250 17:20 28.09.2019
1144 Clear 21 1008 64 10000 5.1 230 16:48 28.09.2019
1145 Clear 22 1008 64 10000 5.1 230 16:28 28.09.2019
1146 Clear 24 1008 41 10000 5.7 190 15:57 28.09.2019
1147 Clear 25 1008 41 10000 5.7 190 15:38 28.09.2019
1148 Clear 26 1008 41 10000 5.7 190 15:20 28.09.2019
1149 Clear 28 1008 42 10000 7.2 190 14:54 28.09.2019
1150 Clear 27 1008 42 10000 7.2 190 14:36 28.09.2019
1151 Clear 27 1008 42 10000 7.2 190 14:18 28.09.2019
1152 Clear 30 1008 23 10000 4.6 20 13:42 28.09.2019
1153 Clear 30 1008 23 10000 4.6 20 13:20 28.09.2019
1154 Clear 29 1009 32 10000 3.6 30 12:55 28.09.2019
1155 Clear 28 1009 44 10000 1.5 0 12:36 28.09.2019
1156 Clear 26 1009 44 10000 1.5 0 12:18 28.09.2019
1157 Clear 26 1009 44 10000 1.5 0 12:18 28.09.2019
1158 Clear 26 1010 47 10000 1.5 0 11:40 28.09.2019
1159 Clear 24 1011 56 10000 3.1 120 11:20 28.09.2019
1160 Clear 22 1011 64 10000 5.7 150 10:44 28.09.2019
1161 Clear 21 1011 64 10000 5.7 150 10:21 28.09.2019
1162 Clear 20 1012 72 10000 3.1 120 09:59 28.09.2019
1163 Clear 20 1012 72 10000 3.1 120 09:59 28.09.2019
1164 Clear 20 1012 72 10000 3.1 120 09:40 28.09.2019
1165 Clear 20 1012 72 10000 3.1 120 09:19 28.09.2019
1166 Clear 20 1012 72 10000 3.1 120 09:19 28.09.2019
1167 Clear 19 1011 77 10000 3.1 200 08:48 28.09.2019
1168 Clear 18 1011 77 10000 3.1 200 08:29 28.09.2019
1169 Clear 18 1011 82 10000 1.5 0 07:57 28.09.2019
1170 Clear 17 1011 82 10000 1.5 0 07:38 28.09.2019
1171 Clear 17 1011 82 10000 1.5 0 07:19 28.09.2019
1172 Clear 16 1010 93 10000 1.5 220 06:40 28.09.2019
1173 Clear 16 1010 93 10000 1.5 220 06:21 28.09.2019
1174 Clear 17 1011 93 10000 1 240 05:25 28.09.2019
1175 Clear 17 1011 88 10000 2.6 200 04:56 28.09.2019
1176 Clear 17 1011 88 10000 2.6 200 04:30 28.09.2019
1177 Clear 17 1011 82 10000 2.1 200 03:42 28.09.2019
1178 Clear 16 1012 87 10000 1.5 110 02:59 28.09.2019
1179 Clear 17 1012 87 10000 1.5 110 02:40 28.09.2019
1180 Clear 17 1012 87 10000 1.5 110 02:22 28.09.2019
1181 Clear 16 1012 87 10000 2.1 150 01:43 28.09.2019
1182 Clear 17 1012 87 10000 2.1 150 01:19 28.09.2019
1183 Clear 17 1012 77 10000 3.1 180 00:46 28.09.2019
1184 Clear 17 1012 77 10000 3.1 180 00:28 28.09.2019
1185 Clear 18 1013 82 10000 4.1 170 23:39 27.09.2019
1186 Clear 18 1013 82 10000 4.1 170 23:21 27.09.2019
1187 Clear 18 1014 93 10000 5.1 230 22:56 27.09.2019
1188 Clear 18 1014 93 10000 5.1 230 22:37 27.09.2019
1189 Clear 18 1014 93 10000 5.1 230 22:18 27.09.2019
1190 Clear 18 1014 93 10000 6.2 240 21:41 27.09.2019
1191 Clear 18 1014 93 10000 6.2 240 21:21 27.09.2019
1192 Clouds 18 1014 88 10000 7.7 230 20:59 27.09.2019
1193 Clouds 18 1014 88 10000 7.7 230 20:59 27.09.2019
1194 Clouds 18 1014 88 10000 7.7 230 20:40 27.09.2019
1195 Clouds 19 1014 88 10000 7.7 230 20:20 27.09.2019
1196 Clouds 19 1014 88 10000 6.2 220 19:58 27.09.2019
1197 Clouds 19 1014 88 10000 6.2 220 19:39 27.09.2019
1198 Clouds 19 1014 88 10000 6.2 220 19:21 27.09.2019
1199 Clouds 19 1015 82 10000 7.2 220 18:43 27.09.2019
1200 Clouds 19 1015 82 10000 7.2 220 18:25 27.09.2019
1201 Clear 20 1015 68 10000 4.6 210 17:58 27.09.2019
1202 Clear 21 1015 68 10000 4.6 210 17:40 27.09.2019
1203 Clear 21 1015 68 10000 4.6 210 17:20 27.09.2019
1204 Clear 22 1015 64 10000 5.1 200 16:58 27.09.2019
1205 Clear 22 1015 64 10000 5.1 200 16:40 27.09.2019
1206 Clear 23 1015 64 10000 5.1 200 16:19 27.09.2019
1207 Clear 24 1015 57 10000 5.7 210 15:55 27.09.2019
1208 Clear 24 1015 57 10000 5.7 210 15:37 27.09.2019
1209 Clear 25 1015 57 10000 5.7 210 15:19 27.09.2019
1210 Clear 25 1016 47 10000 4.6 190 14:55 27.09.2019
1211 Clear 24 1016 47 10000 4.6 190 14:37 27.09.2019
1212 Clear 25 1016 47 10000 4.6 190 14:18 27.09.2019
1213 Clear 23 1016 60 10000 4.6 200 13:41 27.09.2019
1214 Clear 23 1016 60 10000 4.6 200 13:21 27.09.2019
1215 Clear 25 1017 53 10000 4.1 200 12:57 27.09.2019
1216 Clear 24 1017 53 10000 4.1 200 12:38 27.09.2019
1217 Clear 25 1017 53 10000 4.1 200 12:20 27.09.2019
1218 Clear 24 1017 64 10000 3.6 210 11:39 27.09.2019
1219 Clear 24 1017 64 10000 3.6 210 11:21 27.09.2019
1220 Clear 24 1017 64 10000 2.1 200 10:57 27.09.2019
1221 Clear 23 1017 64 10000 2.1 200 10:39 27.09.2019
1222 Clear 23 1017 64 10000 2.1 200 10:39 27.09.2019
1223 Clear 23 1017 64 10000 2.1 200 10:20 27.09.2019
1224 Clear 21 1017 82 10000 1.5 0 09:42 27.09.2019
1225 Clear 21 1017 82 10000 1.5 0 09:21 27.09.2019
1226 Clear 20 1017 93 10000 1.5 200 08:57 27.09.2019
1227 Clear 19 1017 93 10000 1.5 200 08:38 27.09.2019
1228 Clear 18 1017 93 10000 1.5 200 08:19 27.09.2019
1229 Clear 17 1017 100 10000 2.1 160 07:45 27.09.2019
1230 Mist 17 1016 100 5000 1.5 0 07:23 27.09.2019
1231 Mist 16 1016 93 5000 2.6 160 06:43 27.09.2019
1232 Clear 16 1016 100 10000 3.1 180 06:23 27.09.2019
1233 Clear 16 1016 93 10000 1 0 05:50 27.09.2019
1234 Clear 16 1016 87 10000 1 0 05:32 27.09.2019
1235 Clear 17 1017 67 10000 2.1 190 03:56 27.09.2019
1236 Clear 17 1017 67 10000 1 0 02:59 27.09.2019
1237 Clear 18 1017 72 10000 1 80 01:47 27.09.2019
1238 Clear 16 1017 72 10000 1 80 01:27 27.09.2019
1239 Clear 17 1018 72 10000 1 0 00:22 27.09.2019
1240 Clear 17 1018 72 10000 1.5 100 23:56 26.09.2019
1241 Clear 18 1018 72 10000 1.5 100 23:38 26.09.2019
1242 Clear 18 1018 72 10000 1.5 100 23:18 26.09.2019
1243 Clear 18 1018 72 10000 1.5 100 23:18 26.09.2019
1244 Clear 19 1018 63 10000 2.1 170 22:56 26.09.2019
1245 Clear 19 1018 63 10000 2.1 170 22:56 26.09.2019
1246 Clear 19 1018 63 10000 2.1 170 22:38 26.09.2019
1247 Clear 19 1018 63 10000 2.1 170 22:18 26.09.2019
1248 Clear 19 1018 63 10000 2.1 170 22:18 26.09.2019
1249 Clear 21 1018 43 10000 3.1 200 21:55 26.09.2019
1250 Clear 21 1018 43 10000 3.1 200 21:37 26.09.2019
1251 Clear 21 1018 43 10000 3.1 200 21:18 26.09.2019
1252 Clear 21 1019 43 10000 3.1 220 20:57 26.09.2019
1253 Clear 21 1019 43 10000 3.1 220 20:39 26.09.2019
1254 Clear 22 1019 43 10000 3.1 220 20:20 26.09.2019
1255 Clear 22 1019 43 10000 3.1 220 20:20 26.09.2019
1256 Clear 22 1018 43 10000 2.6 210 19:40 26.09.2019
1257 Clear 23 1018 43 10000 2.6 210 19:19 26.09.2019
1258 Clear 24 1019 33 10000 3.6 180 18:59 26.09.2019
1259 Clear 24 1019 33 10000 3.6 180 18:40 26.09.2019
1260 Clear 26 1019 33 10000 3.6 180 18:22 26.09.2019
1261 Clear 28 1018 24 10000 5.1 200 17:57 26.09.2019
1262 Clear 28 1018 24 10000 5.1 200 17:37 26.09.2019
1263 Clear 29 1018 24 10000 5.1 200 17:18 26.09.2019
1264 Clear 31 1018 19 10000 4.6 210 16:40 26.09.2019
1265 Clear 31 1018 19 10000 4.6 210 16:21 26.09.2019
1266 Clear 33 1018 15 10000 4.1 170 16:00 26.09.2019
1267 Clear 33 1018 15 10000 4.1 170 15:40 26.09.2019
1268 Clear 32 1018 15 10000 4.1 170 15:22 26.09.2019
1269 Clear 32 1019 13 10000 5.1 180 14:57 26.09.2019
1270 Clear 31 1019 13 10000 5.1 180 14:39 26.09.2019
1271 Clear 31 1019 13 10000 5.1 180 14:20 26.09.2019
1272 Clear 32 1019 11 10000 5.1 360 13:55 26.09.2019
1273 Clear 32 1019 11 10000 5.1 360 13:37 26.09.2019
1274 Clear 34 1019 11 10000 5.1 360 13:18 26.09.2019
1275 Clear 34 1020 15 10000 2.1 50 12:41 26.09.2019
1276 Clear 34 1020 15 10000 2.1 50 12:22 26.09.2019
1277 Clear 31 1021 19 10000 1.5 0 11:55 26.09.2019
1278 Clear 31 1021 19 10000 1.5 0 11:37 26.09.2019
1279 Clear 31 1021 19 10000 1.5 0 11:37 26.09.2019
1280 Clear 32 1021 19 10000 1.5 0 11:19 26.09.2019
1281 Clear 28 1021 20 10000 2.1 100 10:42 26.09.2019
1282 Clear 29 1021 20 10000 2.1 100 10:42 26.09.2019
1283 Clear 28 1021 20 10000 2.1 100 10:23 26.09.2019
1284 Clear 27 1021 24 10000 1 0 09:57 26.09.2019
1285 Clear 27 1021 24 10000 1 0 09:39 26.09.2019
1286 Clear 25 1021 38 10000 2.1 110 09:18 26.09.2019
1287 Clear 21 1021 56 10000 2.1 140 08:48 26.09.2019
1288 Clear 19 1021 67 10000 2.1 150 08:30 26.09.2019
1289 Clear 18 1020 62 10000 1 0 07:47 26.09.2019
1290 Clear 19 1020 62 10000 1 0 07:22 26.09.2019
1291 Clear 18 1021 66 10000 1.5 100 06:52 26.09.2019
1292 Clear 16 1021 66 10000 1.5 100 06:28 26.09.2019
1293 Clear 17 1021 51 10000 3.6 60 05:52 26.09.2019
1294 Clear 17 1021 51 10000 3.6 60 05:29 26.09.2019
1295 Clear 15 1022 87 10000 2.6 60 03:33 26.09.2019
1296 Clear 16 1023 87 10000 2.1 70 02:25 26.09.2019
1297 Clear 15 1023 87 10000 2.1 70 01:48 26.09.2019
1298 Clear 15 1023 87 10000 2.1 70 01:22 26.09.2019
1299 Clear 16 1023 82 10000 2.1 120 00:45 26.09.2019
1300 Clear 16 1023 82 10000 2.1 120 00:25 26.09.2019
1301 Clear 17 1024 77 10000 3.1 210 23:43 25.09.2019
1302 Clear 17 1024 77 10000 3.1 210 23:22 25.09.2019
1303 Clear 17 1024 72 10000 5.1 200 22:55 25.09.2019
1304 Clear 17 1024 72 10000 5.1 200 22:37 25.09.2019
1305 Clear 18 1024 72 10000 5.1 200 22:18 25.09.2019
1306 Clear 18 1024 77 10000 4.1 210 21:55 25.09.2019
1307 Clear 18 1024 77 10000 4.1 210 21:37 25.09.2019
1308 Clear 18 1024 77 10000 4.1 210 21:18 25.09.2019
1309 Clear 19 1024 72 10000 3.6 210 20:55 25.09.2019
1310 Clear 19 1024 72 10000 3.6 210 20:37 25.09.2019
1311 Clear 19 1024 72 10000 3.6 210 20:18 25.09.2019
1312 Clear 20 1024 68 10000 3.6 200 19:40 25.09.2019
1313 Clear 20 1024 68 10000 3.6 200 19:21 25.09.2019
1314 Clear 22 1024 53 10000 4.1 200 18:56 25.09.2019
1315 Clear 22 1024 53 10000 4.1 200 18:38 25.09.2019
1316 Clear 22 1024 53 10000 4.1 200 18:19 25.09.2019
1317 Clear 26 1024 33 10000 4.6 180 17:40 25.09.2019
1318 Clear 26 1024 33 10000 4.6 180 17:22 25.09.2019
1319 Clear 27 1024 24 10000 5.7 180 16:59 25.09.2019
1320 Clear 27 1024 24 10000 5.7 180 16:41 25.09.2019
1321 Clear 27 1024 24 10000 5.7 180 16:23 25.09.2019
1322 Clear 27 1024 24 10000 4.6 170 15:56 25.09.2019
1323 Clear 27 1024 24 10000 4.6 170 15:56 25.09.2019
1324 Clear 27 1024 24 10000 4.6 170 15:38 25.09.2019
1325 Clear 28 1024 24 10000 4.6 170 15:19 25.09.2019
1326 Clear 28 1025 26 10000 5.1 180 14:42 25.09.2019
1327 Clear 28 1025 26 10000 5.1 180 14:22 25.09.2019
1328 Clear 28 1025 28 10000 4.1 190 13:58 25.09.2019
1329 Clear 27 1025 28 10000 4.1 190 13:40 25.09.2019
1330 Clear 27 1025 28 10000 4.1 190 13:20 25.09.2019
1331 Clear 26 1026 31 10000 2.1 0 12:57 25.09.2019
1332 Clear 26 1026 31 10000 2.1 0 12:37 25.09.2019
1333 Clear 25 1026 31 10000 2.1 0 12:19 25.09.2019
1334 Clear 25 1027 36 10000 2.1 180 11:41 25.09.2019
1335 Clear 24 1027 36 10000 2.1 180 11:20 25.09.2019
1336 Clear 23 1027 40 10000 2.6 180 10:48 25.09.2019
1337 Clear 22 1027 49 10000 2.6 200 10:27 25.09.2019
1338 Clear 21 1027 59 10000 2.1 220 09:59 25.09.2019
1339 Clear 20 1027 59 10000 2.1 220 09:41 25.09.2019
1340 Clear 19 1027 59 10000 2.1 220 09:23 25.09.2019
1341 Clear 18 1027 72 10000 1.5 0 08:59 25.09.2019
1342 Clear 18 1027 72 10000 1.5 0 08:41 25.09.2019
1343 Clear 17 1027 76 10000 1 0 08:20 25.09.2019
1344 Clear 15 1026 87 10000 1 0 07:42 25.09.2019
1345 Clear 14 1026 87 10000 1 0 07:23 25.09.2019
1346 Clear 14 1026 82 10000 1 0 06:58 25.09.2019
1347 Clear 13 1026 82 10000 1 0 06:37 25.09.2019
1348 Clear 13 1026 82 10000 1 0 06:37 25.09.2019
1349 Clear 13 1026 81 10000 1.5 0 05:47 25.09.2019
1350 Clear 14 1026 81 10000 1.5 0 05:26 25.09.2019
1351 Clear 15 1027 76 10000 3.1 240 03:21 25.09.2019
1352 Clear 15 1027 72 10000 2.6 230 01:44 25.09.2019
1353 Clear 16 1027 72 10000 3.1 240 00:42 25.09.2019
1354 Clear 16 1027 72 10000 3.1 240 00:23 25.09.2019
1355 Clear 16 1027 67 10000 3.6 240 23:45 24.09.2019
1356 Clear 16 1027 67 10000 3.6 240 23:23 24.09.2019
1357 Clear 17 1027 59 10000 2.6 250 22:59 24.09.2019
1358 Clear 17 1027 59 10000 2.6 250 22:38 24.09.2019
1359 Clear 17 1027 59 10000 2.6 250 22:20 24.09.2019
1360 Clear 17 1027 63 10000 1.5 160 21:56 24.09.2019
1361 Clear 17 1027 63 10000 1.5 160 21:37 24.09.2019
1362 Clear 17 1027 63 10000 1.5 160 21:37 24.09.2019
1363 Clear 17 1027 63 10000 1.5 160 21:19 24.09.2019
1364 Clear 18 1027 59 10000 6.7 130 20:57 24.09.2019
1365 Clear 18 1027 59 10000 6.7 130 20:38 24.09.2019
1366 Clear 18 1027 59 10000 6.7 130 20:19 24.09.2019
1367 Clouds 18 1027 59 10000 8.2 140 19:43 24.09.2019
1368 Clouds 19 1027 59 10000 8.2 140 19:21 24.09.2019
1369 Clouds 20 1026 52 10000 6.7 150 18:59 24.09.2019
1370 Clouds 20 1026 52 10000 6.7 150 18:40 24.09.2019
1371 Clouds 20 1026 52 10000 6.7 150 18:21 24.09.2019
1372 Clouds 21 1026 53 10000 9.8 150 17:57 24.09.2019
1373 Clouds 21 1026 53 10000 9.8 150 17:38 24.09.2019
1374 Clouds 21 1026 53 10000 9.8 150 17:20 24.09.2019
1375 Clouds 22 1026 53 10000 9.3 170 16:57 24.09.2019
1376 Clouds 22 1026 53 10000 9.3 170 16:38 24.09.2019
1377 Clouds 23 1026 53 10000 9.3 170 16:18 24.09.2019
1378 Clouds 23 1027 53 10000 10.3 160 15:41 24.09.2019
1379 Clouds 23 1027 53 10000 10.3 160 15:41 24.09.2019
1380 Clouds 22 1027 53 10000 10.3 160 15:23 24.09.2019
1381 Clouds 23 1027 47 10000 8.2 160 14:43 24.09.2019
1382 Clouds 23 1027 47 10000 8.2 160 14:20 24.09.2019
1383 Clouds 22 1028 53 10000 9.3 150 13:56 24.09.2019
1384 Clouds 22 1028 53 10000 9.3 150 13:38 24.09.2019
1385 Clouds 22 1028 53 10000 9.3 150 13:20 24.09.2019
1386 Clouds 22 1028 53 10000 9.3 140 12:40 24.09.2019
1387 Clouds 22 1028 53 10000 9.3 140 12:21 24.09.2019
1388 Clouds 21 1029 56 10000 10.3 150 11:54 24.09.2019
1389 Clouds 21 1029 56 10000 10.3 150 11:36 24.09.2019
1390 Clouds 21 1029 56 10000 10.3 150 11:18 24.09.2019
1391 Clouds 20 1029 56 10000 9.8 150 10:39 24.09.2019
1392 Clouds 20 1029 56 10000 9.8 150 10:21 24.09.2019
1393 Clouds 20 1029 55 10000 11.3 160 09:55 24.09.2019
1394 Clouds 19 1029 55 10000 11.3 160 09:37 24.09.2019
1395 Clouds 19 1029 55 10000 11.3 160 09:18 24.09.2019
1396 Clouds 18 1029 63 10000 9.8 160 08:41 24.09.2019
1397 Clouds 18 1029 63 10000 9.8 160 08:23 24.09.2019
1398 Clear 16 1029 67 10000 6.7 180 07:58 24.09.2019
1399 Clear 16 1029 67 10000 6.7 180 07:39 24.09.2019
1400 Clear 16 1029 67 10000 6.7 180 07:21 24.09.2019
1401 Clear 15 1028 67 10000 5.7 170 06:38 24.09.2019
1402 Clear 15 1028 67 10000 5.7 170 06:19 24.09.2019
1403 Clear 15 1028 58 10000 7.2 180 05:22 24.09.2019
1404 Clear 15 1028 67 10000 5.1 210 03:46 24.09.2019
1405 Clear 15 1028 67 10000 5.1 210 03:25 24.09.2019
1406 Clear 15 1029 67 10000 5.7 210 02:44 24.09.2019
1407 Clear 15 1029 72 10000 6.2 200 01:41 24.09.2019
1408 Clear 15 1029 77 10000 5.1 200 00:41 24.09.2019
1409 Clear 15 1029 77 10000 5.1 200 00:22 24.09.2019
1410 Clear 15 1029 77 10000 6.2 180 23:43 23.09.2019
1411 Clear 15 1029 77 10000 6.2 180 23:23 23.09.2019
1412 Clear 15 1029 77 10000 6.7 180 22:41 23.09.2019
1413 Clear 15 1029 77 10000 6.7 180 22:41 23.09.2019
1414 Clear 15 1029 77 10000 6.7 180 22:22 23.09.2019
1415 Clear 15 1029 77 10000 6.7 180 22:22 23.09.2019
1416 Clear 15 1029 77 10000 8.2 180 21:59 23.09.2019
1417 Clear 15 1029 77 10000 8.2 180 21:41 23.09.2019
1418 Clear 15 1029 77 10000 8.2 180 21:41 23.09.2019
1419 Clear 15 1029 77 10000 8.2 180 21:22 23.09.2019
1420 Clear 15 1029 77 10000 7.7 190 20:59 23.09.2019
1421 Clear 15 1029 77 10000 7.7 190 20:40 23.09.2019
1422 Clear 15 1029 77 10000 7.7 190 20:19 23.09.2019
1423 Clear 15 1029 77 10000 7.7 190 20:19 23.09.2019
1424 Clear 16 1028 72 10000 9.8 190 19:55 23.09.2019
1425 Clear 16 1028 72 10000 9.8 190 19:55 23.09.2019
1426 Clear 16 1028 72 10000 9.8 190 19:36 23.09.2019
1427 Clear 16 1028 72 10000 9.8 190 19:18 23.09.2019
1428 Clear 17 1028 59 10000 9.8 190 18:42 23.09.2019
1429 Clear 17 1028 59 10000 9.8 190 18:19 23.09.2019
1430 Clear 17 1028 59 10000 9.8 190 18:19 23.09.2019
1431 Clear 17 1028 59 10000 10.8 190 17:58 23.09.2019
1432 Clear 17 1028 59 10000 10.8 190 17:39 23.09.2019
1433 Clear 18 1028 59 10000 10.8 190 17:20 23.09.2019
1434 Clear 18 1028 55 10000 11.3 180 16:57 23.09.2019
1435 Clear 18 1028 55 10000 11.3 180 16:37 23.09.2019
1436 Clear 19 1028 55 10000 11.3 180 16:18 23.09.2019
1437 Clear 19 1028 52 10000 11.3 190 15:56 23.09.2019
1438 Clear 19 1028 52 10000 11.3 190 15:38 23.09.2019
1439 Clear 19 1028 52 10000 11.3 190 15:18 23.09.2019
1440 Clear 19 1028 48 10000 9.3 180 14:40 23.09.2019
1441 Clear 19 1028 48 10000 9.3 180 14:21 23.09.2019
1442 Clear 20 1029 48 10000 8.7 190 13:59 23.09.2019
1443 Clear 20 1029 48 10000 8.7 190 13:59 23.09.2019
1444 Clear 19 1029 48 10000 8.7 190 13:39 23.09.2019
1445 Clear 19 1029 48 10000 8.7 190 13:18 23.09.2019
1446 Clear 18 1029 52 10000 10.3 190 12:55 23.09.2019
1447 Clear 19 1029 52 10000 10.3 190 12:36 23.09.2019
1448 Clear 19 1029 52 10000 10.3 190 12:18 23.09.2019
1449 Clear 18 1029 48 10000 7.7 180 11:43 23.09.2019
1450 Clear 18 1029 48 10000 7.7 180 11:25 23.09.2019
1451 Clear 18 1030 51 10000 8.2 190 10:55 23.09.2019
1452 Clear 18 1030 51 10000 8.2 190 10:36 23.09.2019
1453 Clear 18 1030 51 10000 8.2 190 10:18 23.09.2019
1454 Clear 17 1030 51 10000 6.2 180 09:38 23.09.2019
1455 Clear 16 1030 51 10000 6.2 180 09:20 23.09.2019
1456 Clear 15 1029 62 10000 5.1 170 08:50 23.09.2019
1457 Clear 15 1029 62 10000 5.1 170 08:30 23.09.2019
1458 Clear 13 1029 71 10000 3.1 160 07:58 23.09.2019
1459 Clear 12 1029 71 10000 3.1 160 07:33 23.09.2019
1460 Clear 11 1029 71 10000 3.6 160 06:44 23.09.2019
1461 Clear 11 1029 71 10000 3.6 160 06:18 23.09.2019
1462 Clear 12 1029 62 10000 5.1 190 05:22 23.09.2019
1463 Clear 12 1029 71 10000 4.6 180 04:55 23.09.2019
1464 Clear 13 1029 66 10000 5.1 180 03:56 23.09.2019
1465 Clear 13 1028 71 0 0.89 180 01:22 23.09.2019
1466 Clear 13 1026 64 0 9.55 147.505 00:23 23.09.2019
1467 Clouds 12 1030 71 10000 2.6 140 23:57 22.09.2019
1468 Clouds 13 1030 71 10000 2.6 140 23:33 22.09.2019
1469 Clouds 13 1029 71 10000 3.1 160 22:59 22.09.2019
1470 Clouds 13 1029 71 10000 3.1 160 22:41 22.09.2019
1471 Clouds 13 1029 71 10000 3.1 160 22:41 22.09.2019
1472 Clouds 13 1029 71 10000 3.1 160 22:23 22.09.2019
1473 Clouds 13 1029 71 10000 3.1 160 22:23 22.09.2019
1474 Clear 13 1029 66 10000 4.6 150 21:59 22.09.2019
1475 Clear 13 1029 66 10000 4.6 150 21:39 22.09.2019
1476 Clear 13 1029 66 10000 4.6 150 21:19 22.09.2019
1477 Clouds 14 1028 66 10000 5.7 160 20:43 22.09.2019
1478 Clouds 14 1028 66 10000 5.7 160 20:24 22.09.2019
1479 Clouds 14 1027 62 10000 7.2 170 19:56 22.09.2019
1480 Clouds 14 1027 62 10000 7.2 170 19:38 22.09.2019
1481 Clouds 15 1027 62 10000 7.2 170 19:20 22.09.2019
1482 Clouds 15 1027 58 10000 8.2 180 18:57 22.09.2019
1483 Clouds 15 1027 58 10000 8.2 180 18:37 22.09.2019
1484 Clouds 15 1027 58 10000 8.2 180 18:18 22.09.2019
1485 Clouds 16 1026 51 10000 8.7 160 17:42 22.09.2019
1486 Clouds 16 1026 51 10000 8.7 160 17:24 22.09.2019
1487 Clouds 16 1027 55 10000 8.7 160 16:56 22.09.2019
1488 Clouds 17 1027 55 10000 8.7 160 16:37 22.09.2019
1489 Clouds 17 1027 55 10000 8.7 160 16:18 22.09.2019
1490 Clouds 17 1026 51 10000 8.7 170 15:43 22.09.2019
1491 Clouds 17 1026 51 10000 8.7 170 15:24 22.09.2019
1492 Clouds 17 1026 45 10000 9.8 160 14:47 22.09.2019
1493 Clouds 17 1026 45 10000 9.8 160 14:47 22.09.2019
1494 Clouds 17 1026 45 10000 9.8 160 14:27 22.09.2019
1495 Clouds 18 1026 48 10000 10.3 170 13:59 22.09.2019
1496 Clouds 18 1026 48 10000 10.3 170 13:41 22.09.2019
1497 Clouds 18 1026 48 10000 10.3 170 13:41 22.09.2019
1498 Clouds 18 1026 48 10000 10.3 170 13:23 22.09.2019
1499 Clouds 18 1026 51 10000 10.8 180 12:56 22.09.2019
1500 Clouds 18 1026 51 10000 10.8 180 12:38 22.09.2019
1501 Clouds 17 1026 51 10000 10.8 180 12:18 22.09.2019
1502 Clouds 17 1025 55 10000 9.3 170 11:43 22.09.2019
1503 Clouds 16 1025 72 10000 8.2 180 11:25 22.09.2019
1504 Clouds 17 1025 72 10000 8.2 180 10:57 22.09.2019
1505 Clouds 17 1025 72 10000 8.2 180 10:39 22.09.2019
1506 Clouds 17 1024 59 10000 6.7 200 10:19 22.09.2019
1507 Clouds 17 1024 59 10000 6.7 200 09:43 22.09.2019
1508 Clouds 17 1024 59 10000 6.7 200 09:21 22.09.2019
1509 Clouds 15 1024 67 10000 1 0 08:55 22.09.2019
1510 Clouds 15 1024 67 10000 1 0 08:37 22.09.2019
1511 Clouds 15 1024 67 10000 1 0 08:18 22.09.2019
1512 Clouds 14 1023 71 10000 3.6 170 07:41 22.09.2019
1513 Clouds 14 1023 71 10000 3.6 170 07:23 22.09.2019
1514 Clouds 14 1023 76 10000 4.1 160 06:57 22.09.2019
1515 Clouds 14 1023 76 10000 4.1 160 06:31 22.09.2019
1516 Clouds 14 1021 87 10000 1.5 220 03:54 22.09.2019
1517 Clouds 13 1021 82 10000 2.1 220 02:44 22.09.2019
1518 Clouds 13 1021 82 10000 2.1 220 02:24 22.09.2019
1519 Clouds 13 1021 76 10000 1.5 240 01:36 22.09.2019
1520 Clouds 13 1021 82 10000 1.5 240 00:44 22.09.2019
1521 Clouds 13 1021 82 10000 1.5 240 00:26 22.09.2019
1522 Clouds 13 1021 87 10000 1 280 23:47 21.09.2019
1523 Clouds 13 1021 87 10000 1 280 23:27 21.09.2019
1524 Clouds 14 1020 71 10000 1.5 0 22:43 21.09.2019
1525 Clouds 14 1020 71 10000 1.5 0 22:23 21.09.2019
1526 Clouds 14 1020 71 10000 3.1 210 21:58 21.09.2019
1527 Clouds 14 1020 71 10000 3.1 210 21:40 21.09.2019
1528 Clouds 14 1020 71 10000 3.1 210 21:19 21.09.2019
1529 Clouds 14 1019 87 10000 1.5 0 20:41 21.09.2019
1530 Clouds 14 1019 87 10000 1.5 0 20:41 21.09.2019
1531 Clouds 14 1019 87 10000 1.5 0 20:23 21.09.2019
1532 Clouds 15 1018 82 10000 4.6 220 19:58 21.09.2019
1533 Clouds 15 1018 82 10000 4.6 220 19:39 21.09.2019
1534 Clouds 15 1018 82 10000 4.6 220 19:18 21.09.2019
1535 Clouds 15 1017 87 10000 3.1 200 18:40 21.09.2019
1536 Clouds 15 1017 87 10000 3.1 200 18:21 21.09.2019
1537 Rain 16 1016 72 10000 2.6 260 17:42 21.09.2019
1538 Rain 16 1016 72 10000 2.6 260 17:42 21.09.2019
1539 Rain 16 1016 72 10000 2.6 260 17:23 21.09.2019
1540 Clouds 16 1016 67 10000 3.1 240 16:56 21.09.2019
1541 Clouds 17 1016 67 10000 3.1 240 16:37 21.09.2019
1542 Clouds 17 1016 67 10000 3.1 240 16:19 21.09.2019
1543 Clouds 17 1016 72 10000 2.6 270 15:42 21.09.2019
1544 Clouds 16 1016 72 10000 2.6 270 15:21 21.09.2019
1545 Drizzle 16 1016 87 10000 2.6 220 14:47 21.09.2019
1546 Drizzle 16 1016 87 10000 2.6 220 14:28 21.09.2019
1547 Clouds 16 1016 93 10000 1.5 0 13:45 21.09.2019
1548 Clouds 16 1016 93 10000 1.5 0 13:26 21.09.2019
1549 Drizzle 15 1017 93 10000 3.6 350 12:59 21.09.2019
1550 Drizzle 15 1017 93 10000 3.6 350 12:41 21.09.2019
1551 Rain 15 1017 100 3500 4.1 330 12:21 21.09.2019
1552 Rain 15 1017 100 3500 4.1 330 11:58 21.09.2019
1553 Rain 15 1017 100 3500 4.1 330 11:39 21.09.2019
1554 Rain 15 1017 93 3700 5.7 340 11:19 21.09.2019
1555 Rain 15 1017 93 4500 5.1 340 10:41 21.09.2019
1556 Rain 15 1016 93 4000 5.1 320 10:22 21.09.2019
1557 Clouds 15 1016 87 10000 6.2 360 09:57 21.09.2019
1558 Clouds 15 1016 87 10000 6.2 360 09:38 21.09.2019
1559 Clouds 15 1016 87 10000 6.2 360 09:20 21.09.2019
1560 Clouds 15 1015 72 10000 6.2 350 08:51 21.09.2019
1561 Clouds 15 1015 72 10000 6.2 350 08:26 21.09.2019
1562 Clouds 14 1015 76 10000 5.1 360 07:41 21.09.2019
1563 Clouds 14 1015 76 10000 5.1 360 07:21 21.09.2019
1564 Clouds 14 1015 82 10000 3.6 10 06:47 21.09.2019
1565 Clouds 14 1015 82 10000 3.6 10 06:26 21.09.2019
1566 Clouds 15 1015 82 10000 2.6 330 04:49 21.09.2019
1567 Clouds 15 1015 82 10000 2.6 330 04:49 21.09.2019
1568 Clouds 15 1015 82 10000 2.6 330 04:31 21.09.2019
1569 Clouds 15 1015 87 10000 2.6 340 02:30 21.09.2019
1570 Clouds 15 1012 77 0 4.59 286.202 01:53 21.09.2019
1571 Clouds 15 1010 66 0 4.59 286.202 01:34 21.09.2019
1572 Clouds 15 1016 82 10000 3.6 360 00:39 21.09.2019
1573 Clouds 15 1017 87 10000 3.6 350 00:18 21.09.2019
1574 Clouds 15 1017 87 10000 3.6 350 23:42 20.09.2019
1575 Clouds 15 1017 87 10000 3.6 350 23:23 20.09.2019
1576 Clouds 15 1017 87 10000 3.1 350 22:41 20.09.2019
1577 Clouds 15 1017 87 10000 3.1 350 22:23 20.09.2019
1578 Clouds 15 1017 87 10000 4.1 340 21:56 20.09.2019
1579 Clouds 15 1017 87 10000 4.1 340 21:37 20.09.2019
1580 Clouds 15 1017 87 10000 4.1 340 21:18 20.09.2019
1581 Clouds 15 1017 82 10000 4.1 340 20:55 20.09.2019
1582 Clouds 15 1017 82 10000 4.1 340 20:37 20.09.2019
1583 Clouds 16 1017 82 10000 4.1 340 20:18 20.09.2019
1584 Clouds 16 1017 82 10000 4.6 320 19:43 20.09.2019
1585 Clouds 16 1017 82 10000 4.6 320 19:21 20.09.2019
1586 Clouds 17 1017 77 10000 6.7 320 18:58 20.09.2019
1587 Clouds 17 1017 77 10000 6.7 320 18:38 20.09.2019
1588 Clouds 18 1017 77 10000 6.7 320 18:18 20.09.2019
1589 Clouds 19 1016 63 10000 6.7 310 17:45 20.09.2019
1590 Clouds 19 1016 63 10000 6.7 310 17:26 20.09.2019
1591 Clouds 19 1016 68 10000 7.2 300 16:43 20.09.2019
1592 Clouds 19 1016 68 10000 7.2 300 16:22 20.09.2019
1593 Clouds 19 1016 72 10000 9.8 300 15:59 20.09.2019
1594 Clouds 19 1015 72 10000 11.3 300 15:40 20.09.2019
1595 Clouds 19 1015 72 10000 11.3 300 15:22 20.09.2019
1596 Clouds 20 1015 72 10000 11.3 300 14:44 20.09.2019
1597 Clouds 20 1015 72 10000 11.3 300 14:20 20.09.2019
1598 Clouds 20 1015 72 10000 11.3 300 14:20 20.09.2019
1599 Clouds 20 1016 77 10000 9.8 300 13:57 20.09.2019
1600 Clouds 20 1016 77 10000 9.8 300 13:38 20.09.2019
1601 Clouds 20 1016 77 10000 9.8 300 13:20 20.09.2019
1602 Clouds 20 1016 72 10000 10.3 320 12:40 20.09.2019
1603 Clouds 20 1016 72 10000 10.3 320 12:22 20.09.2019
1604 Clouds 20 1016 72 10000 9.3 320 11:50 20.09.2019
1605 Clouds 19 1016 72 10000 9.3 320 11:25 20.09.2019
1606 Clouds 19 1016 77 10000 7.7 310 10:58 20.09.2019
1607 Clouds 19 1016 77 10000 7.7 310 10:58 20.09.2019
1608 Clouds 19 1016 77 10000 7.7 310 10:40 20.09.2019
1609 Clouds 18 1016 82 10000 6.2 330 10:21 20.09.2019
1610 Clouds 18 1016 93 10000 5.7 330 09:38 20.09.2019
1611 Clouds 18 1016 93 10000 5.7 330 09:19 20.09.2019
1612 Clouds 17 1016 93 10000 5.7 330 09:19 20.09.2019
1613 Clouds 17 1016 93 10000 6.2 340 08:47 20.09.2019
1614 Clouds 17 1016 93 10000 6.2 340 08:28 20.09.2019
1615 Clouds 16 1016 93 10000 5.7 340 07:51 20.09.2019
1616 Clouds 16 1015 93 6000 6.2 350 07:29 20.09.2019
1617 Drizzle 16 1015 93 2500 6.2 350 06:59 20.09.2019
1618 Drizzle 16 1015 93 2500 6.2 350 06:40 20.09.2019
1619 Drizzle 16 1015 93 2500 6.2 350 06:40 20.09.2019
1620 Drizzle 16 1014 93 2000 5.7 350 06:18 20.09.2019
1621 Drizzle 16 1013 87 10000 7.7 40 04:31 20.09.2019
1622 Drizzle 16 1013 87 10000 7.7 40 04:31 20.09.2019
1623 Drizzle 17 1013 82 10000 8.2 30 03:27 20.09.2019
1624 Drizzle 17 1013 77 10000 7.2 360 02:18 20.09.2019
1625 Clouds 17 1012 77 10000 7.7 20 01:39 20.09.2019
1626 Clouds 17 1012 77 10000 8.7 360 00:36 20.09.2019
1627 Drizzle 17 1012 82 10000 7.7 350 23:50 19.09.2019
1628 Drizzle 17 1012 82 10000 7.7 350 23:28 19.09.2019
1629 Clouds 17 1012 82 10000 9.3 350 22:59 19.09.2019
1630 Clouds 17 1012 82 10000 9.3 350 22:40 19.09.2019
1631 Clouds 17 1012 82 10000 9.3 350 22:21 19.09.2019
1632 Clouds 17 1011 82 10000 7.7 360 21:57 19.09.2019
1633 Clouds 17 1011 82 10000 7.7 360 21:38 19.09.2019
1634 Clouds 17 1011 82 10000 7.7 360 21:19 19.09.2019
1635 Clouds 17 1011 82 10000 7.2 350 20:55 19.09.2019
1636 Clouds 17 1011 82 10000 7.2 350 20:55 19.09.2019
1637 Clouds 17 1011 82 10000 7.2 350 20:37 19.09.2019
1638 Clouds 17 1011 82 10000 7.2 350 20:18 19.09.2019
1639 Clouds 18 1010 77 10000 9.3 350 19:40 19.09.2019
1640 Clouds 18 1010 77 10000 9.3 350 19:22 19.09.2019
1641 Clear 19 1009 72 10000 9.8 330 18:59 19.09.2019
1642 Clear 19 1009 72 10000 9.8 330 18:41 19.09.2019
1643 Clear 19 1009 72 10000 9.8 330 18:21 19.09.2019
1644 Clear 20 1009 72 10000 5.7 340 17:43 19.09.2019
1645 Clear 20 1009 72 10000 5.7 340 17:24 19.09.2019
1646 Clear 20 1010 77 10000 9.3 320 16:59 19.09.2019
1647 Clear 20 1010 77 10000 9.3 320 16:40 19.09.2019
1648 Clear 20 1010 77 10000 9.3 320 16:20 19.09.2019
1649 Clear 23 1008 53 10000 7.7 310 15:40 19.09.2019
1650 Clear 22 1008 53 10000 7.7 310 15:21 19.09.2019
1651 Clear 26 1008 35 10000 7.2 310 14:58 19.09.2019
1652 Clear 30 1008 35 10000 7.2 310 14:38 19.09.2019
1653 Clear 30 1008 35 10000 7.2 310 14:20 19.09.2019
1654 Clear 29 1008 35 10000 1 0 13:40 19.09.2019
1655 Clear 29 1008 35 10000 1 0 13:22 19.09.2019
1656 Clear 28 1009 39 10000 2.1 150 12:59 19.09.2019
1657 Clear 28 1009 39 10000 2.1 150 12:36 19.09.2019
1658 Clear 28 1009 39 10000 2.1 150 12:18 19.09.2019
1659 Clear 25 1009 47 10000 3.1 140 11:41 19.09.2019
1660 Clear 25 1009 53 10000 1 0 11:21 19.09.2019
1661 Clear 24 1009 50 10000 3.6 220 10:58 19.09.2019
1662 Clear 23 1009 50 10000 3.6 220 10:58 19.09.2019
1663 Clear 23 1009 50 10000 3.6 220 10:38 19.09.2019
1664 Clear 24 1009 50 10000 3.6 220 10:20 19.09.2019
1665 Clear 22 1009 60 10000 2.1 0 09:55 19.09.2019
1666 Clear 22 1009 60 10000 2.1 0 09:55 19.09.2019
1667 Clear 21 1009 77 10000 1 0 09:37 19.09.2019
1668 Clear 19 1009 77 10000 1 0 09:18 19.09.2019
1669 Clear 19 1009 87 10000 1 0 08:48 19.09.2019
1670 Clear 18 1009 87 10000 1 0 08:22 19.09.2019
1671 Clear 17 1009 87 10000 0.5 0 07:43 19.09.2019
1672 Clear 17 1009 87 10000 0.5 0 07:22 19.09.2019
1673 Clear 16 1010 87 10000 1.5 180 06:49 19.09.2019
1674 Clear 16 1010 87 10000 1.5 180 06:29 19.09.2019
1675 Clear 17 1010 87 10000 2.6 160 05:53 19.09.2019
1676 Clear 17 1010 87 10000 2.6 160 05:33 19.09.2019
1677 Clear 18 1011 77 10000 5.1 190 03:54 19.09.2019
1678 Clear 18 1011 77 10000 5.1 190 03:18 19.09.2019
1679 Clear 18 1013 72 10000 5.7 190 01:34 19.09.2019
1680 Clear 18 1014 82 10000 5.1 210 00:51 19.09.2019
1681 Clear 18 1014 82 10000 5.1 210 00:26 19.09.2019
1682 Clear 18 1014 82 10000 5.1 210 00:26 19.09.2019
1683 Clear 18 1015 82 10000 5.7 160 23:43 18.09.2019
1684 Clear 18 1015 82 10000 5.7 160 23:23 18.09.2019
1685 Clear 18 1015 82 10000 5.7 160 23:23 18.09.2019
1686 Clear 18 1016 82 10000 5.7 220 22:55 18.09.2019
1687 Clear 18 1016 82 10000 5.7 220 22:37 18.09.2019
1688 Clear 18 1016 82 10000 5.7 220 22:18 18.09.2019
1689 Clear 18 1016 93 10000 5.1 230 21:56 18.09.2019
1690 Clear 18 1016 93 10000 5.1 230 21:37 18.09.2019
1691 Clear 18 1016 93 10000 5.1 230 21:18 18.09.2019
1692 Clear 18 1016 93 10000 6.2 240 20:56 18.09.2019
1693 Clear 18 1016 93 10000 6.2 240 20:37 18.09.2019
1694 Clear 18 1016 93 10000 6.2 240 20:19 18.09.2019
1695 Clear 18 1016 93 10000 6.7 240 19:54 18.09.2019
1696 Clear 18 1016 93 10000 6.7 240 19:36 18.09.2019
1697 Clear 18 1016 93 10000 6.7 240 19:18 18.09.2019
1698 Clear 19 1016 88 10000 7.2 230 18:54 18.09.2019
1699 Clear 19 1016 88 10000 7.2 230 18:36 18.09.2019
1700 Clear 19 1016 88 10000 7.2 230 18:18 18.09.2019
1701 Clear 19 1015 88 10000 7.2 230 17:40 18.09.2019
1702 Clear 19 1015 88 10000 7.2 230 17:19 18.09.2019
1703 Clear 20 1016 82 10000 6.2 220 16:58 18.09.2019
1704 Clear 20 1016 82 10000 6.2 220 16:39 18.09.2019
1705 Clear 20 1016 82 10000 6.2 220 16:21 18.09.2019
1706 Clouds 20 1017 82 10000 6.2 200 15:56 18.09.2019
1707 Clouds 20 1017 82 10000 6.2 200 15:38 18.09.2019
1708 Clouds 20 1017 82 10000 6.2 200 15:20 18.09.2019
1709 Clear 20 1018 72 10000 6.2 200 14:58 18.09.2019
1710 Clear 21 1018 72 10000 6.2 200 14:39 18.09.2019
1711 Clear 20 1018 72 10000 6.2 200 14:21 18.09.2019
1712 Clear 20 1018 77 10000 6.2 200 13:57 18.09.2019
1713 Clear 20 1018 77 10000 6.2 200 13:37 18.09.2019
1714 Clear 21 1018 77 10000 6.2 200 13:18 18.09.2019
1715 Clear 21 1018 68 10000 3.6 210 12:41 18.09.2019
1716 Clear 21 1018 68 10000 3.6 210 12:22 18.09.2019
1717 Clear 20 1018 77 10000 3.6 190 11:40 18.09.2019
1718 Clear 20 1018 77 10000 3.6 190 11:20 18.09.2019
1719 Clear 18 1019 82 10000 5.1 210 10:57 18.09.2019
1720 Clear 19 1019 82 10000 5.1 210 10:39 18.09.2019
1721 Clear 18 1019 82 10000 5.1 210 10:19 18.09.2019
1722 Clear 18 1018 88 10000 4.1 200 09:54 18.09.2019
1723 Clear 18 1018 88 10000 4.1 200 09:36 18.09.2019
1724 Clear 17 1018 88 10000 4.1 200 09:18 18.09.2019
1725 Clouds 16 1019 93 8000 4.1 210 08:41 18.09.2019
1726 Clouds 16 1018 100 6000 1.5 0 08:21 18.09.2019
1727 Fog 14 1018 93 10000 0.5 0 07:44 18.09.2019
1728 Mist 14 1018 100 4500 1.5 0 07:23 18.09.2019
1729 Mist 14 1018 100 4500 1.5 0 06:49 18.09.2019
1730 Clear 14 1018 93 10000 1 0 06:26 18.09.2019
1731 Clear 14 1017 93 10000 1 0 05:33 18.09.2019
1732 Clear 15 1018 93 10000 3.6 220 03:42 18.09.2019
1733 Clear 16 1018 87 10000 3.6 230 02:40 18.09.2019
1734 Clear 16 1018 93 10000 4.6 220 01:50 18.09.2019
1735 Clouds 16 1018 93 10000 4.6 210 00:56 18.09.2019
1736 Clouds 17 1018 93 10000 4.6 210 00:33 18.09.2019
1737 Clouds 17 1019 88 10000 6.7 210 23:48 17.09.2019
1738 Clouds 17 1019 88 10000 6.7 210 23:48 17.09.2019
1739 Clouds 17 1019 88 10000 6.7 210 23:25 17.09.2019
1740 Clouds 17 1019 88 10000 6.7 210 23:25 17.09.2019
1741 Clouds 17 1019 88 10000 5.7 210 22:59 17.09.2019
1742 Clouds 17 1019 88 10000 5.7 210 22:41 17.09.2019
1743 Clouds 17 1019 88 10000 5.7 210 22:22 17.09.2019
1744 Clouds 17 1019 88 10000 5.7 210 22:22 17.09.2019
1745 Clouds 17 1019 88 10000 5.7 200 21:54 17.09.2019
1746 Clouds 17 1019 88 10000 5.7 200 21:36 17.09.2019
1747 Clouds 17 1019 88 10000 5.7 200 21:18 17.09.2019
1748 Clouds 17 1019 88 10000 5.7 200 21:18 17.09.2019
1749 Clouds 17 1018 88 10000 5.7 200 20:56 17.09.2019
1750 Clouds 17 1018 88 10000 5.7 200 20:38 17.09.2019
1751 Clouds 17 1018 88 10000 5.7 200 20:19 17.09.2019
1752 Clouds 17 1018 88 10000 6.2 190 19:57 17.09.2019
1753 Clouds 17 1018 88 10000 6.2 190 19:38 17.09.2019
1754 Clouds 17 1018 88 10000 6.2 190 19:18 17.09.2019
1755 Clear 18 1017 82 10000 7.7 190 18:43 17.09.2019
1756 Clear 19 1017 82 10000 7.7 190 18:22 17.09.2019
1757 Clear 20 1017 68 10000 6.2 180 17:56 17.09.2019
1758 Clear 21 1017 68 10000 6.2 180 17:37 17.09.2019
1759 Clear 20 1017 68 10000 6.2 180 17:19 17.09.2019
1760 Clear 21 1016 64 10000 6.2 170 16:42 17.09.2019
1761 Clear 21 1016 64 10000 6.2 170 16:22 17.09.2019
1762 Clear 21 1017 60 10000 6.2 180 15:59 17.09.2019
1763 Clear 22 1017 60 10000 6.2 180 15:38 17.09.2019
1764 Clear 21 1017 60 10000 6.2 180 15:19 17.09.2019
1765 Clear 21 1017 60 10000 6.2 180 15:19 17.09.2019
1766 Clear 21 1017 68 10000 6.2 170 14:56 17.09.2019
1767 Clear 21 1017 68 10000 6.2 170 14:56 17.09.2019
1768 Clear 21 1017 68 10000 6.2 170 14:37 17.09.2019
1769 Clear 21 1017 68 10000 6.2 170 14:19 17.09.2019
1770 Clear 22 1018 60 10000 7.2 170 13:43 17.09.2019
1771 Clear 22 1018 60 10000 7.2 170 13:23 17.09.2019
1772 Clear 21 1018 60 10000 5.7 190 12:56 17.09.2019
1773 Clear 21 1018 60 10000 5.7 190 12:37 17.09.2019
1774 Clear 21 1018 60 10000 5.7 190 12:18 17.09.2019
1775 Clear 21 1018 60 10000 4.6 190 11:42 17.09.2019
1776 Clear 21 1018 60 10000 4.6 190 11:24 17.09.2019
1777 Clear 20 1018 64 10000 3.6 210 10:56 17.09.2019
1778 Clear 20 1018 64 10000 3.6 210 10:37 17.09.2019
1779 Clear 20 1018 64 10000 3.6 210 10:19 17.09.2019
1780 Clear 19 1018 77 10000 3.1 220 09:41 17.09.2019
1781 Clear 18 1018 77 10000 3.1 220 09:23 17.09.2019
1782 Clear 17 1018 87 10000 3.6 220 08:51 17.09.2019
1783 Clear 17 1018 87 10000 3.6 220 08:51 17.09.2019
1784 Clear 17 1018 87 10000 3.6 220 08:33 17.09.2019
1785 Clear 15 1018 87 10000 3.6 230 07:59 17.09.2019
1786 Clear 15 1018 87 10000 3.6 230 07:41 17.09.2019
1787 Clear 15 1018 87 10000 3.6 230 07:23 17.09.2019
1788 Clear 14 1018 93 10000 4.6 220 06:47 17.09.2019
1789 Clear 14 1018 93 10000 4.6 220 06:23 17.09.2019
1790 Clear 14 1017 93 10000 3.1 210 05:50 17.09.2019
1791 Clear 14 1018 93 10000 2.6 200 04:32 17.09.2019
1792 Clear 13 1019 93 10000 1.5 130 02:59 17.09.2019
1793 Clear 13 1019 93 10000 1.5 130 02:39 17.09.2019
1794 Clear 14 1019 87 10000 2.1 190 01:29 17.09.2019
1795 Clear 15 1019 87 10000 2.6 190 00:43 17.09.2019
1796 Clear 14 1019 93 10000 3.1 120 23:40 16.09.2019
1797 Clear 15 1019 93 10000 3.1 120 23:19 16.09.2019
1798 Clear 15 1020 93 10000 3.6 120 22:56 16.09.2019
1799 Clear 15 1020 93 10000 3.6 120 22:38 16.09.2019
1800 Clear 15 1020 93 10000 3.6 120 22:20 16.09.2019
1801 Clear 16 1019 93 10000 2.6 150 21:55 16.09.2019
1802 Clear 16 1019 93 10000 2.6 150 21:55 16.09.2019
1803 Clear 15 1019 93 10000 2.6 150 21:36 16.09.2019
1804 Clear 16 1019 93 10000 2.6 150 21:18 16.09.2019
1805 Clear 16 1019 82 10000 1 0 20:40 16.09.2019
1806 Clear 17 1019 82 10000 1 0 20:21 16.09.2019
1807 Clear 17 1018 77 10000 4.6 340 19:57 16.09.2019
1808 Clear 17 1018 77 10000 4.6 340 19:39 16.09.2019
1809 Clear 17 1018 77 10000 4.6 340 19:19 16.09.2019
1810 Clear 18 1018 68 10000 4.6 330 18:47 16.09.2019
1811 Clear 19 1018 68 10000 4.6 330 18:28 16.09.2019
1812 Clear 20 1018 64 10000 5.7 320 17:58 16.09.2019
1813 Clear 20 1018 64 10000 5.7 320 17:39 16.09.2019
1814 Clear 20 1018 64 10000 5.7 320 17:21 16.09.2019
1815 -273 0 0 0 0 0 16:55 16.09.2019
1816 Clear 20 1017 60 10000 5.1 320 16:36 16.09.2019
1817 Clear 20 1017 60 10000 5.1 320 16:18 16.09.2019
1818 Clear 21 1018 60 10000 5.7 320 15:54 16.09.2019
1819 Clear 21 1018 60 10000 5.7 320 15:36 16.09.2019
1820 Clear 22 1018 60 10000 5.7 320 15:18 16.09.2019
1821 Clouds 21 1018 64 10000 6.2 310 14:42 16.09.2019
1822 Clouds 21 1018 64 10000 6.2 310 14:22 16.09.2019
1823 Clouds 21 1019 64 10000 5.7 320 13:57 16.09.2019
1824 Clouds 21 1019 64 10000 5.7 320 13:38 16.09.2019
1825 Clouds 21 1019 64 10000 5.7 320 13:19 16.09.2019
1826 Clouds 21 1019 64 10000 5.1 310 12:42 16.09.2019
1827 Clouds 20 1019 64 10000 5.1 310 12:24 16.09.2019
1828 Clouds 20 1019 68 10000 5.7 310 11:54 16.09.2019
1829 Clouds 19 1019 77 10000 4.6 300 11:36 16.09.2019
1830 Clouds 19 1019 77 10000 4.6 300 11:18 16.09.2019
1831 Clouds 19 1020 82 10000 4.6 30 10:38 16.09.2019
1832 Clouds 18 1020 82 10000 4.6 30 10:19 16.09.2019
1833 Clouds 18 1019 88 10000 5.1 10 09:57 16.09.2019
1834 Clouds 18 1019 88 10000 5.1 10 09:38 16.09.2019
1835 Clouds 18 1019 88 10000 5.1 10 09:18 16.09.2019
1836 Clouds 16 1019 93 10000 5.1 40 08:42 16.09.2019
1837 Clouds 16 1019 93 10000 5.1 40 08:24 16.09.2019
1838 Clouds 16 1019 93 10000 3.1 60 07:56 16.09.2019
1839 Clouds 15 1019 93 10000 3.1 60 07:37 16.09.2019
1840 Clouds 15 1019 93 10000 3.1 60 07:18 16.09.2019
1841 Drizzle 15 1018 100 7000 2.6 360 06:43 16.09.2019
1842 Drizzle 15 1018 100 7000 2.6 360 06:25 16.09.2019
1843 Drizzle 15 1018 100 7000 4.1 350 05:44 16.09.2019
1844 Drizzle 15 1017 100 3000 4.1 350 05:25 16.09.2019
1845 Clouds 16 1014 94 0 3.63 299.461 03:52 16.09.2019
1846 Clouds 16 1018 93 10000 3.6 360 01:57 16.09.2019
1847 Clouds 16 1018 87 10000 3.6 340 00:40 16.09.2019
1848 Clouds 16 1018 87 10000 3.6 340 00:22 16.09.2019
1849 Clouds 16 1018 87 10000 4.1 330 23:39 15.09.2019
1850 Clouds 16 1018 87 10000 4.1 330 23:20 15.09.2019
1851 Clouds 16 1018 87 10000 4.6 330 22:42 15.09.2019
1852 Clouds 15 1018 87 10000 4.6 330 22:23 15.09.2019
1853 Clouds 16 1018 82 10000 5.1 330 21:58 15.09.2019
1854 Clouds 16 1018 82 10000 5.1 330 21:40 15.09.2019
1855 Clouds 16 1018 82 10000 5.1 330 21:40 15.09.2019
1856 Clouds 16 1018 82 10000 5.1 330 21:22 15.09.2019
1857 Clouds 16 1018 82 10000 4.6 330 20:59 15.09.2019
1858 Clouds 16 1018 82 10000 4.6 330 20:59 15.09.2019
1859 Clouds 16 1018 82 10000 4.6 330 20:41 15.09.2019
1860 Clouds 16 1018 82 10000 4.6 330 20:23 15.09.2019
1861 Clouds 16 1018 82 10000 4.6 330 20:23 15.09.2019
1862 Clouds 16 1017 82 10000 5.1 320 19:45 15.09.2019
1863 Clouds 16 1017 82 10000 5.1 320 19:23 15.09.2019
1864 Clouds 17 1017 72 10000 8.2 300 18:55 15.09.2019
1865 Clouds 17 1017 72 10000 8.2 300 18:36 15.09.2019
1866 Clouds 17 1017 72 10000 8.2 300 18:18 15.09.2019
1867 Clouds 18 1017 63 10000 7.7 310 17:40 15.09.2019
1868 Clouds 18 1017 63 10000 7.7 310 17:21 15.09.2019
1869 Clouds 20 1016 52 10000 8.7 310 16:44 15.09.2019
1870 Clouds 20 1016 52 10000 8.7 310 16:26 15.09.2019
1871 Clear 20 1016 43 10000 8.7 330 15:59 15.09.2019
1872 Clear 20 1016 43 10000 8.7 330 15:41 15.09.2019
1873 Clear 21 1016 43 10000 8.7 330 15:21 15.09.2019
1874 Clouds 20 1017 52 10000 8.2 320 14:58 15.09.2019
1875 Clouds 20 1017 52 10000 8.2 320 14:40 15.09.2019
1876 Clouds 20 1017 52 10000 8.2 320 14:20 15.09.2019
1877 Clouds 20 1017 52 10000 7.7 320 13:47 15.09.2019
1878 Clear 19 1017 59 10000 8.2 320 13:24 15.09.2019
1879 Clouds 19 1018 45 10000 8.2 310 12:57 15.09.2019
1880 Clouds 20 1018 45 10000 8.2 310 12:39 15.09.2019
1881 Clouds 19 1018 59 10000 8.7 330 12:18 15.09.2019
1882 Clouds 18 1018 59 10000 8.7 330 11:42 15.09.2019
1883 Clouds 18 1018 59 10000 8.7 330 11:22 15.09.2019
1884 Clouds 17 1018 72 10000 7.7 330 10:58 15.09.2019
1885 Clouds 17 1018 72 10000 7.7 330 10:40 15.09.2019
1886 Clouds 17 1018 72 10000 7.7 330 10:21 15.09.2019
1887 Clouds 16 1018 63 10000 7.7 350 09:42 15.09.2019
1888 Clouds 16 1018 67 10000 6.7 340 09:42 15.09.2019
1889 Clouds 15 1018 67 10000 6.7 340 09:20 15.09.2019
1890 Clouds 15 1018 62 10000 5.1 340 08:58 15.09.2019
1891 Clouds 15 1018 62 10000 5.1 340 08:39 15.09.2019
1892 Clouds 14 1018 62 10000 5.1 340 08:18 15.09.2019
1893 Clouds 14 1018 62 10000 5.1 340 08:18 15.09.2019
1894 Clear 14 1017 62 10000 3.6 360 07:41 15.09.2019
1895 Clear 13 1016 71 10000 3.6 60 06:44 15.09.2019
1896 Clear 13 1016 71 10000 3.1 70 05:35 15.09.2019
1897 Clear 14 1016 76 10000 2.6 30 03:19 15.09.2019
1898 Clear 13 1017 81 10000 2.6 30 02:18 15.09.2019
1899 Clear 13 1017 76 10000 3.1 50 01:36 15.09.2019
1900 Clear 13 1017 71 10000 3.1 350 00:57 15.09.2019
1901 Clear 13 1017 71 10000 3.1 350 00:37 15.09.2019
1902 Clear 13 1017 71 10000 3.1 350 00:18 15.09.2019
1903 Clear 13 1018 71 10000 2.1 30 23:55 14.09.2019
1904 Clear 13 1018 71 10000 2.1 30 23:37 14.09.2019
1905 Clear 13 1018 71 10000 2.1 30 23:19 14.09.2019
1906 Clear 13 1018 76 10000 3.1 10 22:55 14.09.2019
1907 Clear 13 1018 76 10000 3.1 10 22:37 14.09.2019
1908 Clear 13 1018 76 10000 3.1 10 22:18 14.09.2019
1909 Clear 13 1017 71 10000 3.1 340 21:40 14.09.2019
1910 Clear 14 1017 71 10000 3.1 340 21:20 14.09.2019
1911 Clear 14 1017 62 10000 2.1 40 20:58 14.09.2019
1912 Clear 14 1017 62 10000 2.1 40 20:38 14.09.2019
1913 Clear 14 1017 62 10000 2.1 40 20:20 14.09.2019
1914 Clear 15 1018 47 10000 2.6 10 19:46 14.09.2019
1915 Clear 15 1018 47 10000 2.6 10 19:22 14.09.2019
1916 Clear 16 1017 36 10000 2.6 330 18:58 14.09.2019
1917 Clear 17 1017 36 10000 2.6 330 18:38 14.09.2019
1918 Clear 17 1017 36 10000 2.6 330 18:20 14.09.2019
1919 Clear 17 1017 39 10000 4.1 310 17:44 14.09.2019
1920 Clear 18 1017 39 10000 4.1 310 17:24 14.09.2019
1921 Clear 19 1016 30 10000 4.1 320 16:56 14.09.2019
1922 Clear 19 1016 30 10000 4.1 320 16:38 14.09.2019
1923 Clear 20 1016 30 10000 4.1 320 16:18 14.09.2019
1924 Clear 19 1017 37 10000 5.1 300 15:42 14.09.2019
1925 Clear 19 1017 37 10000 5.1 300 15:23 14.09.2019
1926 Clear 20 1018 34 10000 3.6 310 14:57 14.09.2019
1927 Clear 20 1018 34 10000 3.6 310 14:39 14.09.2019
1928 Clear 20 1018 34 10000 3.6 310 14:18 14.09.2019
1929 Clear 20 1018 32 10000 3.6 310 13:47 14.09.2019
1930 Clear 20 1018 32 10000 3.6 310 13:22 14.09.2019
1931 Clear 20 1018 34 10000 3.6 320 12:46 14.09.2019
1932 Clear 19 1018 34 10000 3.6 320 12:24 14.09.2019
1933 Clear 18 1019 42 10000 2.1 0 11:41 14.09.2019
1934 Clear 18 1019 42 10000 2.1 0 11:20 14.09.2019
1935 Clear 17 1019 48 10000 2.6 20 10:55 14.09.2019
1936 Clear 17 1019 48 10000 2.6 20 10:36 14.09.2019
1937 Clear 16 1020 58 10000 3.6 340 10:18 14.09.2019
1938 -273 0 0 0 0 0 09:55 14.09.2019
1939 Clear 14 1020 71 10000 2.6 320 09:36 14.09.2019
1940 Clear 14 1020 71 10000 2.6 320 09:18 14.09.2019
1941 Clear 12 1020 87 10000 1 0 08:41 14.09.2019
1942 Clear 11 1020 87 10000 1 0 08:22 14.09.2019
1943 Clear 11 1020 87 10000 1 30 07:43 14.09.2019
1944 Clear 11 1020 87 10000 1 30 07:23 14.09.2019
1945 Clear 10 1019 93 10000 1.5 70 06:36 14.09.2019
1946 Clear 10 1020 87 10000 0.5 80 05:55 14.09.2019
1947 Clear 10 1020 87 10000 0.5 0 04:43 14.09.2019
1948 Clear 11 1020 71 10000 2.6 210 03:33 14.09.2019
1949 Clear 12 1021 71 10000 3.1 240 02:51 14.09.2019
1950 Clear 11 1022 71 10000 3.1 230 01:46 14.09.2019
1951 Clear 11 1022 71 10000 3.1 230 01:21 14.09.2019
1952 Clear 11 1022 71 10000 2.1 200 00:55 14.09.2019
1953 Clear 11 1022 71 10000 2.1 200 00:36 14.09.2019
1954 Clear 11 1022 71 10000 2.1 200 00:18 14.09.2019
1955 Clear 11 1022 71 10000 2.1 200 00:18 14.09.2019
1956 Clear 11 1022 76 10000 1 0 23:37 13.09.2019
1957 Clear 11 1022 76 10000 1 0 23:18 13.09.2019
1958 Clear 11 1023 71 10000 1.5 130 22:56 13.09.2019
1959 Clear 11 1023 71 10000 1.5 130 22:37 13.09.2019
1960 Clear 11 1023 71 10000 1.5 130 22:37 13.09.2019
1961 Clear 11 1023 71 10000 1.5 130 22:19 13.09.2019
1962 Clear 11 1023 76 10000 1.5 150 21:40 13.09.2019
1963 Clear 11 1023 76 10000 1.5 150 21:19 13.09.2019
1964 Clear 12 1023 66 10000 2.1 130 20:58 13.09.2019
1965 Clear 12 1023 66 10000 2.1 130 20:38 13.09.2019
1966 Clear 12 1023 66 10000 2.1 130 20:20 13.09.2019
1967 -273 0 0 0 0 0 19:56 13.09.2019
1968 Clouds 13 1022 58 10000 1.5 0 19:37 13.09.2019
1969 Clouds 13 1022 58 10000 1.5 0 19:18 13.09.2019
1970 Clouds 14 1022 50 10000 1.5 0 18:54 13.09.2019
1971 Clouds 14 1022 50 10000 1.5 0 18:36 13.09.2019
1972 Clouds 15 1022 50 10000 1.5 0 18:18 13.09.2019
1973 Clouds 16 1023 51 10000 1.5 150 17:37 13.09.2019
1974 Clouds 16 1023 51 10000 1.5 150 17:37 13.09.2019
1975 Clouds 16 1023 51 10000 1.5 150 17:18 13.09.2019
1976 Clouds 16 1022 48 10000 2.6 130 16:41 13.09.2019
1977 Clouds 16 1022 48 10000 2.6 130 16:20 13.09.2019
1978 Clouds 16 1022 48 10000 2.6 200 15:46 13.09.2019
1979 Clouds 17 1022 48 10000 2.6 200 15:27 13.09.2019
1980 Clouds 17 1023 44 10000 2.1 0 14:58 13.09.2019
1981 Clouds 17 1023 44 10000 2.1 0 14:39 13.09.2019
1982 Clouds 17 1023 44 10000 2.1 0 14:19 13.09.2019
1983 Clouds 17 1023 48 10000 2.6 230 14:19 13.09.2019
1984 Clouds 17 1023 48 10000 2.6 230 13:46 13.09.2019
1985 Clouds 16 1023 48 10000 2.6 230 13:24 13.09.2019
1986 Clouds 16 1024 48 10000 2.6 220 12:58 13.09.2019
1987 Clouds 16 1024 48 10000 2.6 220 12:39 13.09.2019
1988 Clouds 16 1024 48 10000 2.6 220 12:39 13.09.2019
1989 Clouds 16 1024 48 10000 2.6 220 12:21 13.09.2019
1990 Clouds 16 1024 51 10000 2.6 0 11:55 13.09.2019
1991 Clouds 16 1024 51 10000 2.6 0 11:19 13.09.2019
1992 Clouds 16 1024 51 10000 2.6 0 11:19 13.09.2019
1993 Clouds 16 1025 51 10000 2.1 270 10:39 13.09.2019
1994 Clouds 16 1025 51 10000 2.1 270 10:19 13.09.2019
1995 Clouds 15 1024 76 10000 2.6 40 09:45 13.09.2019
1996 Clouds 14 1024 76 10000 2.6 40 09:24 13.09.2019
1997 Clouds 13 1024 87 10000 3.1 50 08:59 13.09.2019
1998 Clouds 13 1024 87 10000 3.1 50 08:40 13.09.2019
1999 Clouds 12 1024 100 10000 2.6 50 08:20 13.09.2019
2000 Clouds 11 1023 93 10000 3.1 50 07:46 13.09.2019
2001 Clouds 11 1023 93 10000 3.1 50 07:27 13.09.2019
2002 Clouds 11 1022 93 10000 3.6 50 06:48 13.09.2019
2003 Clouds 10 1022 100 10000 2.6 50 05:49 13.09.2019
2004 Clouds 11 1022 100 10000 2.6 60 04:57 13.09.2019
2005 Rain 11 1022 93 7000 3.6 0 03:40 13.09.2019
2006 Clouds 11 1022 93 10000 2.6 20 02:20 13.09.2019
2007 Clouds 11 1022 93 10000 2.6 30 01:59 13.09.2019
2008 Clouds 11 1022 93 10000 2.6 30 01:34 13.09.2019
2009 Clouds 11 1022 93 10000 2.6 30 01:34 13.09.2019
2010 Rain 12 1022 81 10000 3.1 250 00:58 13.09.2019
2011 Rain 12 1022 81 10000 3.1 250 00:23 13.09.2019
2012 Rain 12 1021 87 7000 3.1 310 23:39 12.09.2019
2013 Rain 12 1021 87 7000 3.1 310 23:20 12.09.2019
2014 Clouds 12 1021 87 10000 2.6 10 22:42 12.09.2019
2015 Clouds 12 1021 87 10000 2.6 10 22:24 12.09.2019
2016 Rain 12 1020 93 6000 4.1 0 21:57 12.09.2019
2017 Rain 12 1020 93 6000 4.1 0 21:38 12.09.2019
2018 Rain 13 1020 93 6000 4.1 0 21:20 12.09.2019
2019 Clouds 12 1019 81 10000 3.1 320 20:56 12.09.2019
2020 Clouds 12 1019 81 10000 3.1 320 20:38 12.09.2019
2021 Clouds 12 1019 81 10000 3.1 320 20:20 12.09.2019
2022 Clouds 13 1019 82 10000 1.5 0 19:54 12.09.2019
2023 Clouds 13 1019 82 10000 1.5 0 19:36 12.09.2019
2024 Clouds 13 1019 82 10000 1.5 0 19:18 12.09.2019
2025 Rain 13 1019 81 4000 4.6 310 18:38 12.09.2019
2026 Clouds 14 1019 66 10000 7.7 310 18:20 12.09.2019
2027 Clouds 14 1019 66 10000 7.7 310 18:20 12.09.2019
2028 Clouds 15 1018 54 10000 8.2 310 17:57 12.09.2019
2029 Clouds 15 1018 54 10000 8.2 310 17:38 12.09.2019
2030 Clouds 15 1018 54 10000 8.2 310 17:19 12.09.2019
2031 Clouds 15 1017 44 10000 8.7 290 16:42 12.09.2019
2032 Clouds 15 1017 44 10000 8.7 290 16:22 12.09.2019
2033 Clouds 16 1016 51 10000 9.8 290 15:58 12.09.2019
2034 Clouds 16 1016 51 10000 9.8 290 15:38 12.09.2019
2035 Clouds 16 1016 51 10000 9.8 290 15:20 12.09.2019
2036 Clouds 16 1016 55 10000 8.7 280 14:44 12.09.2019
2037 Clouds 16 1016 55 10000 8.7 280 14:21 12.09.2019
2038 Clouds 16 1016 59 10000 5.7 270 13:41 12.09.2019
2039 Clouds 16 1016 59 10000 5.7 270 13:23 12.09.2019
2040 Clouds 15 1016 76 10000 3.1 280 12:57 12.09.2019
2041 Clouds 15 1016 76 10000 3.1 280 12:38 12.09.2019
2042 Clouds 15 1016 76 10000 3.1 280 12:18 12.09.2019
2043 Clouds 14 1015 82 10000 6.7 320 11:54 12.09.2019
2044 Clouds 14 1015 82 10000 6.7 320 11:36 12.09.2019
2045 Clouds 14 1015 82 10000 6.7 320 11:18 12.09.2019
2046 Rain 14 1015 87 10000 7.7 320 10:42 12.09.2019
2047 Clouds 14 1015 77 10000 6.2 320 10:23 12.09.2019
2048 Clouds 13 1015 82 10000 4.6 290 09:44 12.09.2019
2049 Clouds 13 1015 82 10000 4.6 290 09:20 12.09.2019
2050 Rain 12 1015 100 10000 3.1 340 08:57 12.09.2019
2051 Rain 12 1015 100 10000 3.1 340 08:38 12.09.2019
2052 Rain 12 1015 100 10000 3.1 340 08:20 12.09.2019
2053 Rain 12 1014 87 6000 4.6 300 07:38 12.09.2019
2054 Rain 12 1014 87 6000 4.6 300 07:18 12.09.2019
2055 Clouds 13 1014 82 10000 4.6 330 06:49 12.09.2019
2056 Clouds 13 1014 82 10000 4.6 330 06:49 12.09.2019
2057 Clouds 14 1014 82 10000 4.6 330 06:19 12.09.2019
2058 Clouds 14 1014 82 10000 3.6 340 05:48 12.09.2019
2059 Clouds 14 1014 82 10000 3.6 340 05:27 12.09.2019
2060 Clouds 14 1014 82 10000 3.6 340 04:31 12.09.2019
2061 Clouds 14 1014 82 10000 3.6 340 04:31 12.09.2019
2062 Clouds 14 1015 87 10000 2.6 350 01:48 12.09.2019
2063 Clouds 14 1015 87 10000 2.6 350 01:30 12.09.2019
2064 Clouds 14 1015 87 10000 3.1 350 00:51 12.09.2019
2065 Clouds 14 1015 87 10000 3.1 350 00:31 12.09.2019
2066 Clouds 14 1015 87 10000 3.6 350 23:57 11.09.2019
2067 Clouds 14 1015 87 10000 3.6 350 23:37 11.09.2019
2068 Clouds 14 1015 87 10000 3.6 350 23:19 11.09.2019
2069 Clouds 14 1015 87 10000 3.1 340 22:55 11.09.2019
2070 Clouds 14 1015 87 10000 3.1 340 22:37 11.09.2019
2071 Clouds 14 1015 87 10000 3.1 340 22:18 11.09.2019
2072 Clouds 14 1015 87 10000 3.1 340 22:18 11.09.2019
2073 Clouds 15 1014 87 10000 4.1 320 21:41 11.09.2019
2074 Clouds 15 1014 87 10000 4.1 320 21:23 11.09.2019
2075 Clouds 15 1014 87 10000 4.1 320 20:57 11.09.2019
2076 Clouds 15 1014 87 10000 4.1 320 20:38 11.09.2019
2077 Clouds 15 1014 87 10000 4.1 320 20:19 11.09.2019
2078 Clouds 15 1014 87 10000 4.1 320 20:19 11.09.2019
2079 Clouds 15 1014 87 10000 4.1 330 19:57 11.09.2019
2080 Clouds 15 1014 87 10000 4.1 330 19:39 11.09.2019
2081 Clouds 15 1014 87 10000 4.1 330 19:39 11.09.2019
2082 Clouds 15 1014 87 10000 4.1 330 19:19 11.09.2019
2083 Clouds 16 1014 82 10000 5.1 320 18:56 11.09.2019
2084 Clouds 16 1014 82 10000 5.1 320 18:37 11.09.2019
2085 Clouds 16 1014 82 10000 5.1 320 18:19 11.09.2019
2086 Clouds 17 1013 72 10000 7.2 310 17:41 11.09.2019
2087 Clouds 17 1013 72 10000 7.2 310 17:22 11.09.2019
2088 Clouds 18 1013 72 10000 7.7 300 16:59 11.09.2019
2089 Clouds 18 1013 72 10000 7.7 300 16:40 11.09.2019
2090 Clouds 18 1013 72 10000 7.7 300 16:21 11.09.2019
2091 Clouds 19 1013 59 10000 6.2 310 15:47 11.09.2019
2092 Clouds 19 1013 59 10000 6.2 310 15:24 11.09.2019
2093 Clouds 19 1014 59 10000 6.7 300 14:59 11.09.2019
2094 Clouds 19 1014 59 10000 6.7 300 14:40 11.09.2019
2095 Clouds 19 1014 59 10000 6.7 300 14:20 11.09.2019
2096 Clouds 19 1014 63 10000 5.1 320 13:59 11.09.2019
2097 Clouds 19 1014 63 10000 5.1 320 13:37 11.09.2019
2098 Clouds 19 1014 63 10000 5.1 320 13:19 11.09.2019
2099 Clouds 18 1015 67 10000 4.6 320 12:42 11.09.2019
2100 Clouds 18 1015 67 10000 4.6 320 12:22 11.09.2019
2101 Clouds 17 1015 67 10000 3.6 10 11:58 11.09.2019
2102 Clouds 17 1015 67 10000 3.6 10 11:38 11.09.2019
2103 Clouds 17 1015 67 10000 3.6 10 11:20 11.09.2019
2104 -273 0 0 0 0 0 10:55 11.09.2019
2105 Clouds 17 1015 67 10000 5.1 20 10:37 11.09.2019
2106 Clouds 17 1015 67 10000 5.1 20 10:18 11.09.2019
2107 Clouds 16 1015 72 10000 5.7 10 09:37 11.09.2019
2108 Clouds 16 1015 72 10000 5.7 10 09:19 11.09.2019
2109 Clouds 16 1015 72 10000 5.1 30 08:42 11.09.2019
2110 Clouds 15 1015 82 10000 4.1 20 08:22 11.09.2019
2111 Clouds 14 1015 82 10000 4.1 20 07:57 11.09.2019
2112 Clouds 14 1015 82 10000 4.1 20 07:39 11.09.2019
2113 Clouds 14 1015 82 10000 4.1 20 07:39 11.09.2019
2114 Clouds 14 1015 82 10000 4.1 20 07:20 11.09.2019
2115 Clouds 14 1015 82 10000 4.1 20 07:20 11.09.2019
2116 Clouds 14 1015 82 10000 3.6 10 06:44 11.09.2019
2117 Clouds 14 1015 82 10000 3.6 10 06:21 11.09.2019
2118 Clouds 14 1015 82 10000 3.1 340 05:35 11.09.2019
2119 Clouds 14 1014 82 10000 3.6 340 04:53 11.09.2019
2120 Clouds 14 1014 82 10000 3.6 340 04:21 11.09.2019
2121 Clouds 14 1013 76 10000 3.1 300 03:29 11.09.2019
2122 Clear 14 1013 76 10000 3.6 350 02:32 11.09.2019
2123 Clear 14 1014 76 10000 4.6 30 01:33 11.09.2019
2124 Clear 15 1016 82 10000 4.6 350 00:37 11.09.2019
2125 Clouds 15 1016 82 10000 5.1 330 00:19 11.09.2019
2126 Clouds 15 1016 82 10000 5.1 330 23:40 10.09.2019
2127 Clouds 15 1016 82 10000 5.1 330 23:22 10.09.2019
2128 Clouds 15 1016 82 10000 3.1 330 22:57 10.09.2019
2129 Clouds 15 1016 82 10000 3.1 330 22:37 10.09.2019
2130 Clouds 15 1016 82 10000 3.1 330 22:18 10.09.2019
2131 Clouds 15 1016 77 10000 5.7 320 21:55 10.09.2019
2132 Clouds 15 1016 77 10000 5.7 320 21:36 10.09.2019
2133 Clouds 15 1016 77 10000 5.7 320 21:18 10.09.2019
2134 Clouds 15 1015 77 10000 4.1 310 20:56 10.09.2019
2135 Clouds 15 1015 77 10000 4.1 310 20:37 10.09.2019
2136 Clouds 15 1015 77 10000 4.1 310 20:18 10.09.2019
2137 Clouds 16 1014 72 10000 5.7 310 19:55 10.09.2019
2138 Clouds 16 1014 72 10000 5.7 310 19:55 10.09.2019
2139 Clouds 16 1014 72 10000 5.7 310 19:36 10.09.2019
2140 Clouds 16 1014 72 10000 5.7 310 19:36 10.09.2019
2141 Clouds 16 1014 72 10000 5.7 310 19:18 10.09.2019
2142 Clouds 16 1014 82 10000 6.2 300 18:45 10.09.2019
2143 Clouds 17 1014 82 10000 6.2 300 18:22 10.09.2019
2144 Clouds 17 1014 72 10000 8.2 300 17:57 10.09.2019
2145 Clouds 17 1014 72 10000 8.2 300 17:39 10.09.2019
2146 Clouds 17 1014 72 10000 8.2 300 17:20 10.09.2019
2147 Clouds 18 1013 55 10000 9.8 290 16:57 10.09.2019
2148 Clouds 18 1013 55 10000 9.8 290 16:38 10.09.2019
2149 Clouds 18 1013 55 10000 9.8 290 16:38 10.09.2019
2150 Clouds 19 1013 55 10000 9.8 290 16:19 10.09.2019
2151 Clouds 19 1013 59 10000 11.8 310 15:44 10.09.2019
2152 Clouds 19 1013 59 10000 11.8 310 15:23 10.09.2019
2153 Clouds 19 1014 68 10000 9.8 320 14:58 10.09.2019
2154 Clouds 19 1014 68 10000 9.8 320 14:39 10.09.2019
2155 Clouds 19 1014 68 10000 9.8 320 14:21 10.09.2019
2156 Clouds 20 1014 60 10000 7.7 320 13:48 10.09.2019
2157 Clouds 20 1014 63 10000 6.7 320 13:24 10.09.2019
2158 Clouds 19 1014 63 10000 6.7 320 12:55 10.09.2019
2159 Clouds 19 1014 63 10000 6.7 320 12:37 10.09.2019
2160 Clouds 19 1014 63 10000 6.7 320 12:18 10.09.2019
2161 Clouds 20 1014 60 10000 6.2 360 11:42 10.09.2019
2162 Clouds 20 1014 60 10000 6.2 360 11:22 10.09.2019
2163 Clouds 19 1014 72 10000 6.7 30 10:59 10.09.2019
2164 Clouds 18 1014 72 10000 6.7 30 10:37 10.09.2019
2165 Clouds 18 1014 72 10000 6.7 30 10:18 10.09.2019
2166 Clouds 17 1015 87 10000 5.7 30 09:44 10.09.2019
2167 Clouds 16 1015 87 10000 5.7 30 09:20 10.09.2019
2168 Clouds 15 1015 93 8000 4.1 20 08:57 10.09.2019
2169 Clouds 15 1015 93 8000 4.1 20 08:38 10.09.2019
2170 Clouds 14 1015 93 8000 4.1 20 08:20 10.09.2019
2171 Clouds 14 1014 93 7000 4.6 30 07:44 10.09.2019
2172 Clouds 14 1014 93 7000 4.6 30 07:25 10.09.2019
2173 Clouds 14 1014 93 10000 6.2 30 06:46 10.09.2019
2174 Clouds 14 1014 93 10000 6.2 30 06:28 10.09.2019
2175 Clear 14 1014 93 10000 2.1 10 04:41 10.09.2019
2176 Clouds 15 1015 93 9000 3.1 30 02:44 10.09.2019
2177 Clouds 15 1015 93 9000 3.1 30 02:22 10.09.2019
2178 Clouds 15 1015 100 10000 1.5 0 01:52 10.09.2019
2179 Clouds 15 1015 100 10000 1.5 0 01:52 10.09.2019
2180 Clouds 15 1015 100 10000 1.5 0 01:24 10.09.2019
2181 Clouds 16 1015 93 10000 2.6 220 00:44 10.09.2019
2182 Clouds 16 1015 93 10000 2.6 220 00:44 10.09.2019
2183 Clouds 16 1015 93 10000 2.6 220 00:23 10.09.2019
2184 Clouds 16 1015 93 10000 3.6 220 23:41 09.09.2019
2185 Clouds 16 1015 93 10000 3.6 220 23:19 09.09.2019
2186 Clouds 16 1015 87 10000 4.1 220 22:56 09.09.2019
2187 Clouds 16 1015 87 10000 4.1 220 22:37 09.09.2019
2188 Clouds 16 1015 87 10000 4.1 220 22:19 09.09.2019
2189 Clear 16 1015 87 10000 4.6 210 21:56 09.09.2019
2190 Clear 16 1015 87 10000 4.6 210 21:37 09.09.2019
2191 Clear 16 1015 87 10000 4.6 210 21:19 09.09.2019
2192 Clear 16 1016 87 10000 4.6 190 20:55 09.09.2019
2193 Clear 16 1016 87 10000 4.6 190 20:37 09.09.2019
2194 Clear 16 1016 87 10000 4.6 190 20:18 09.09.2019
2195 Clear 16 1016 87 10000 4.6 190 20:18 09.09.2019
2196 Clear 16 1016 82 10000 4.6 180 19:56 09.09.2019
2197 Clear 16 1016 82 10000 4.6 180 19:56 09.09.2019
2198 Clear 17 1016 82 10000 4.6 180 19:38 09.09.2019
2199 Clear 17 1016 82 10000 4.6 180 19:19 09.09.2019
2200 Clear 17 1016 72 10000 4.6 170 18:56 09.09.2019
2201 Clear 17 1016 72 10000 4.6 170 18:38 09.09.2019
2202 Clear 17 1016 72 10000 4.6 170 18:19 09.09.2019
2203 Clear 19 1016 63 10000 4.1 170 17:56 09.09.2019
2204 Clear 19 1016 63 10000 4.1 170 17:38 09.09.2019
2205 Clear 19 1016 63 10000 4.1 170 17:38 09.09.2019
2206 Clear 19 1016 63 10000 4.1 170 17:20 09.09.2019
2207 Clear 20 1016 64 10000 3.6 180 16:55 09.09.2019
2208 Clear 20 1016 64 10000 3.6 180 16:37 09.09.2019
2209 Clear 20 1016 64 10000 3.6 180 16:18 09.09.2019
2210 Clear 20 1016 60 10000 3.6 180 15:44 09.09.2019
2211 Clear 20 1016 60 10000 3.6 180 15:24 09.09.2019
2212 Clear 20 1017 64 10000 4.1 160 14:58 09.09.2019
2213 Clear 20 1017 64 10000 4.1 160 14:40 09.09.2019
2214 Clear 20 1017 64 10000 4.1 160 14:21 09.09.2019
2215 Clear 20 1017 60 10000 1.5 0 13:57 09.09.2019
2216 Clear 20 1017 60 10000 1.5 0 13:39 09.09.2019
2217 Clear 20 1017 60 10000 1.5 0 13:18 09.09.2019
2218 Clouds 20 1018 64 10000 1 0 12:54 09.09.2019
2219 Clouds 20 1018 64 10000 1 0 12:36 09.09.2019
2220 Clouds 19 1018 68 10000 2.1 10 12:18 09.09.2019
2221 Clouds 19 1018 68 10000 2.1 10 11:43 09.09.2019
2222 Clouds 19 1018 68 10000 2.1 10 11:20 09.09.2019
2223 Clouds 17 1018 77 10000 3.1 20 10:54 09.09.2019
2224 Clouds 17 1018 77 10000 3.1 20 10:36 09.09.2019
2225 Clouds 17 1019 77 10000 3.1 20 10:18 09.09.2019
2226 Clouds 17 1019 77 10000 3.1 20 09:46 09.09.2019
2227 Clouds 17 1019 77 10000 3.1 20 09:27 09.09.2019
2228 Clouds 16 1019 82 10000 3.1 350 08:56 09.09.2019
2229 Clouds 16 1019 82 10000 3.1 350 08:38 09.09.2019
2230 Clouds 16 1019 82 10000 3.1 350 08:19 09.09.2019
2231 Clouds 16 1017 86 0 0.89 315 07:41 09.09.2019
2232 Clouds 16 1018 82 10000 2.6 360 07:21 09.09.2019
2233 Clouds 16 1018 82 10000 2.6 360 06:54 09.09.2019
2234 Clouds 16 1018 82 10000 2.6 360 06:54 09.09.2019
2235 Clouds 16 1018 82 10000 2.6 360 06:27 09.09.2019
2236 Clouds 16 1017 82 10000 3.1 360 03:21 09.09.2019
2237 Clouds 16 1018 87 10000 3.6 360 02:42 09.09.2019
2238 Clouds 16 1018 93 10000 6.2 330 01:25 09.09.2019
2239 Clouds 16 1018 87 10000 7.2 330 00:24 09.09.2019
2240 Clouds 16 1018 93 10000 6.7 330 23:58 08.09.2019
2241 Clouds 16 1018 93 10000 6.7 330 23:39 08.09.2019
2242 Clouds 16 1018 93 10000 6.7 330 23:21 08.09.2019
2243 Clouds 17 1017 93 10000 7.2 320 22:41 08.09.2019
2244 Clouds 17 1017 93 10000 7.2 320 22:23 08.09.2019
2245 Clear 17 1017 87 10000 7.2 320 21:59 08.09.2019
2246 Clear 16 1017 87 10000 7.2 320 21:40 08.09.2019
2247 Clear 16 1017 87 10000 7.2 320 21:22 08.09.2019
2248 Clouds 17 1017 77 10000 7.2 320 20:56 08.09.2019
2249 Clouds 17 1017 77 10000 7.2 320 20:37 08.09.2019
2250 Clouds 17 1017 77 10000 7.2 320 20:37 08.09.2019
2251 Clouds 17 1017 77 10000 7.2 320 20:19 08.09.2019
2252 Clear 18 1017 68 10000 6.7 330 19:56 08.09.2019
2253 Clear 18 1017 68 10000 6.7 330 19:37 08.09.2019
2254 Clear 18 1017 68 10000 6.7 330 19:18 08.09.2019
2255 Clear 18 1017 68 10000 6.7 330 19:18 08.09.2019
2256 Clear 19 1016 60 10000 7.2 350 18:55 08.09.2019
2257 Clear 20 1016 60 10000 7.2 350 18:37 08.09.2019
2258 Clear 21 1015 64 10000 5.1 360 18:18 08.09.2019
2259 Clear 21 1015 64 10000 5.1 360 17:38 08.09.2019
2260 Clear 21 1015 64 10000 5.1 360 17:19 08.09.2019
2261 Clear 20 1015 72 10000 6.2 330 16:58 08.09.2019
2262 Clear 19 1015 72 10000 6.2 330 16:40 08.09.2019
2263 Clear 19 1015 72 10000 6.2 330 16:20 08.09.2019
2264 Clear 19 1015 72 10000 6.2 330 16:20 08.09.2019
2265 Clear 19 1015 68 10000 6.7 330 15:57 08.09.2019
2266 Clear 19 1015 68 10000 6.7 330 15:39 08.09.2019
2267 Clear 21 1015 68 10000 6.7 330 15:20 08.09.2019
2268 Clear 22 1015 53 10000 8.7 330 14:41 08.09.2019
2269 Clear 22 1015 53 10000 8.7 330 14:41 08.09.2019
2270 Clear 22 1015 53 10000 8.7 330 14:22 08.09.2019
2271 Clear 22 1015 60 10000 10.8 330 13:59 08.09.2019
2272 Clear 22 1015 60 10000 10.8 330 13:40 08.09.2019
2273 Clear 21 1015 50 10000 9.3 330 13:22 08.09.2019
2274 Clear 21 1015 50 10000 9.3 330 12:59 08.09.2019
2275 Clear 21 1015 50 10000 9.3 330 12:41 08.09.2019
2276 Clear 24 1015 50 10000 9.3 330 12:22 08.09.2019
2277 Clear 25 1015 39 10000 9.3 330 11:58 08.09.2019
2278 Clear 24 1015 39 10000 9.3 330 11:38 08.09.2019
2279 Clear 24 1015 39 10000 9.3 330 11:19 08.09.2019
2280 Clear 29 1015 32 10000 6.7 330 10:55 08.09.2019
2281 Clear 29 1015 32 10000 6.7 330 10:37 08.09.2019
2282 Clear 29 1015 32 10000 6.7 330 10:18 08.09.2019
2283 Clear 28 1015 30 10000 5.1 10 09:38 08.09.2019
2284 Clear 26 1015 30 10000 5.1 10 09:20 08.09.2019
2285 Clear 24 1015 36 10000 6.2 30 08:56 08.09.2019
2286 Clear 23 1015 36 10000 6.2 30 08:37 08.09.2019
2287 Clear 22 1015 43 10000 6.2 30 08:18 08.09.2019
2288 Clear 19 1015 67 10000 3.6 360 07:38 08.09.2019
2289 Clear 18 1015 67 10000 5.1 340 07:20 08.09.2019
2290 Clear 18 1015 67 10000 5.1 340 06:47 08.09.2019
2291 Clear 18 1015 67 10000 5.1 340 06:18 08.09.2019
2292 Clear 20 1015 52 10000 6.2 340 05:36 08.09.2019
2293 Clear 23 1015 31 10000 4.6 20 03:54 08.09.2019
2294 Clear 24 1015 31 10000 4.1 30 02:55 08.09.2019
2295 Clear 25 1015 31 10000 4.1 30 02:26 08.09.2019
2296 Clear 20 1015 49 10000 4.6 50 01:45 08.09.2019
2297 Clear 20 1015 49 10000 4.6 50 01:19 08.09.2019
2298 Clear 19 1016 59 10000 2.6 60 00:44 08.09.2019
2299 Clear 19 1016 59 10000 2.6 60 00:26 08.09.2019
2300 Clear 20 1016 59 10000 2.1 50 23:38 07.09.2019
2301 Clear 20 1016 59 10000 2.1 50 23:20 07.09.2019
2302 Clear 21 1017 55 10000 0.5 0 22:57 07.09.2019
2303 Clear 20 1017 55 10000 0.5 0 22:39 07.09.2019
2304 Clear 20 1017 55 10000 0.5 0 22:20 07.09.2019
2305 Clear 20 1017 55 10000 0.5 0 22:20 07.09.2019
2306 Clear 21 1017 52 10000 2.1 230 21:42 07.09.2019
2307 Clear 21 1017 52 10000 2.1 230 21:24 07.09.2019
2308 Clear 22 1017 52 10000 1.5 170 20:57 07.09.2019
2309 Clear 22 1016 51 0 0.45 293 20:38 07.09.2019
2310 Clear 24 1017 36 10000 2.1 150 20:19 07.09.2019
2311 Clear 24 1017 36 10000 2.1 150 19:55 07.09.2019
2312 Clear 25 1017 36 10000 2.1 150 19:37 07.09.2019
2313 Clear 25 1017 36 10000 2.1 150 19:18 07.09.2019
2314 -273 0 0 0 0 0 18:55 07.09.2019
2315 Clear 29 1017 30 10000 2.1 180 18:36 07.09.2019
2316 Clear 29 1017 30 10000 2.1 180 18:18 07.09.2019
2317 Clear 32 1017 21 10000 2.1 240 17:55 07.09.2019
2318 Clear 32 1017 21 10000 2.1 240 17:55 07.09.2019
2319 Clear 32 1017 21 10000 2.1 240 17:36 07.09.2019
2320 Clear 33 1017 17 10000 5.1 350 17:18 07.09.2019
2321 Clear 34 1017 17 10000 5.1 350 16:43 07.09.2019
2322 Clear 35 1017 17 10000 5.1 350 16:21 07.09.2019
2323 Clear 35 1017 17 10000 7.2 10 15:50 07.09.2019
2324 Clear 34 1017 17 10000 7.2 10 15:27 07.09.2019
2325 Clear 34 1017 15 10000 5.7 20 14:58 07.09.2019
2326 Clear 33 1016 21 0 2.89 21.331 14:38 07.09.2019
2327 Clear 33 1018 13 10000 3.6 20 14:20 07.09.2019
2328 Clear 33 1018 13 10000 3.6 20 14:20 07.09.2019
2329 Clear 33 1018 13 10000 3.6 20 13:59 07.09.2019
2330 Clear 33 1018 13 10000 3.6 20 13:41 07.09.2019
2331 Clear 33 1018 13 10000 3.6 20 13:23 07.09.2019
2332 Clear 33 1019 17 10000 1 0 12:46 07.09.2019
2333 Clear 31 1019 22 10000 3.1 90 12:26 07.09.2019
2334 Clear 30 1020 20 10000 2.6 90 11:59 07.09.2019
2335 Clear 30 1020 20 10000 2.6 90 11:40 07.09.2019
2336 Clear 30 1020 20 10000 2.6 90 11:20 07.09.2019
2337 Clear 28 1020 24 10000 1.5 0 10:41 07.09.2019
2338 Clear 27 1020 24 10000 1.5 0 10:41 07.09.2019
2339 Clear 25 1020 40 10000 1 0 10:22 07.09.2019
2340 Clear 24 1020 40 10000 1 0 09:57 07.09.2019
2341 Clear 22 1020 42 10000 2.1 90 09:39 07.09.2019
2342 Clear 21 1020 42 10000 2.1 90 09:20 07.09.2019
2343 Clear 21 1020 42 10000 2.1 90 09:20 07.09.2019
2344 Clear 21 1020 42 10000 2.1 90 09:20 07.09.2019
2345 Clear 20 1020 77 10000 2.6 100 08:44 07.09.2019
2346 Clear 16 1020 76 10000 0.5 0 08:26 07.09.2019
2347 Clear 16 1020 66 10000 3.1 80 07:48 07.09.2019
2348 Clear 16 1020 66 10000 3.1 80 07:28 07.09.2019
2349 Clear 16 1020 76 10000 2.1 110 06:53 07.09.2019
2350 Clear 15 1020 76 10000 2.1 110 06:21 07.09.2019
2351 Clear 15 1020 76 10000 1 80 05:32 07.09.2019
2352 Clear 15 1020 81 10000 2.6 70 04:23 07.09.2019
2353 Clear 14 1021 93 10000 1.5 100 02:52 07.09.2019
2354 Clear 15 1021 93 10000 1.5 100 02:21 07.09.2019
2355 Clear 15 1021 100 10000 1 150 01:26 07.09.2019
2356 Clear 15 1021 87 10000 1.5 60 00:44 07.09.2019
2357 Clear 15 1021 87 10000 1.5 60 00:21 07.09.2019
2358 Clear 15 1022 93 10000 0.5 0 23:43 06.09.2019
2359 Clear 15 1022 93 10000 0.5 0 23:23 06.09.2019
2360 Clear 15 1022 93 10000 1 0 22:59 06.09.2019
2361 Clear 15 1022 93 10000 1 0 22:40 06.09.2019
2362 Clear 15 1022 93 10000 1 0 22:19 06.09.2019
2363 Clear 16 1023 82 10000 1.5 0 21:58 06.09.2019
2364 Clear 16 1023 82 10000 1.5 0 21:39 06.09.2019
2365 Clear 16 1023 82 10000 1.5 0 21:21 06.09.2019
2366 Clear 17 1023 82 10000 2.6 230 20:59 06.09.2019
2367 Clear 17 1023 82 10000 2.6 230 20:40 06.09.2019
2368 Clear 17 1023 82 10000 2.6 230 20:21 06.09.2019
2369 Clear 17 1023 77 10000 3.1 220 19:58 06.09.2019
2370 Clear 18 1023 77 10000 3.1 220 19:39 06.09.2019
2371 Clear 18 1023 77 10000 3.1 220 19:20 06.09.2019
2372 Clear 18 1023 77 10000 3.1 220 19:20 06.09.2019
2373 Clear 19 1023 68 10000 3.6 210 18:47 06.09.2019
2374 Clear 20 1023 68 10000 3.6 210 18:28 06.09.2019
2375 Clear 21 1023 49 10000 4.6 200 17:59 06.09.2019
2376 Clear 21 1023 49 10000 4.6 200 17:38 06.09.2019
2377 Clear 22 1023 49 10000 4.6 200 17:19 06.09.2019
2378 Clear 24 1023 43 10000 4.6 200 16:42 06.09.2019
2379 Clear 24 1023 43 10000 4.6 200 16:19 06.09.2019
2380 Clear 25 1023 33 10000 3.6 190 15:59 06.09.2019
2381 Clear 24 1023 33 10000 3.6 190 15:39 06.09.2019
2382 Clear 24 1023 33 10000 3.6 190 15:21 06.09.2019
2383 Clear 25 1024 36 10000 4.1 220 14:40 06.09.2019
2384 Clear 25 1024 36 10000 4.1 220 14:18 06.09.2019
2385 Clear 23 1024 40 10000 3.1 200 13:43 06.09.2019
2386 Clear 23 1024 40 10000 3.1 200 13:22 06.09.2019
2387 Clear 23 1024 40 10000 3.1 200 13:22 06.09.2019
2388 Clear 22 1025 37 10000 3.1 210 12:41 06.09.2019
2389 Clear 23 1025 37 10000 3.1 210 12:23 06.09.2019
2390 Clear 21 1026 49 10000 3.6 180 11:59 06.09.2019
2391 Clear 21 1026 49 10000 3.6 180 11:40 06.09.2019
2392 Clear 21 1026 49 10000 3.6 180 11:22 06.09.2019
2393 Clear 19 1025 59 10000 2.6 200 10:54 06.09.2019
2394 Clear 19 1025 59 10000 2.6 200 10:54 06.09.2019
2395 Clear 19 1025 59 10000 2.6 200 10:36 06.09.2019
2396 Clear 19 1025 72 10000 2.6 190 10:18 06.09.2019
2397 Clear 18 1025 72 10000 2.6 190 09:38 06.09.2019
2398 Clear 16 1025 93 10000 0.5 0 09:19 06.09.2019
2399 Clear 15 1025 93 10000 0.5 0 08:54 06.09.2019
2400 Clear 14 1025 93 10000 0.5 0 08:36 06.09.2019
2401 Clear 13 1025 87 10000 1 0 08:18 06.09.2019
2402 Clear 12 1025 87 10000 1 0 07:41 06.09.2019
2403 Clear 13 1025 87 10000 1 0 07:22 06.09.2019
2404 Clear 12 1024 87 10000 1.5 0 06:41 06.09.2019
2405 Clear 12 1024 87 10000 0.5 0 05:58 06.09.2019
2406 Clear 13 1024 82 10000 3.1 200 04:57 06.09.2019
2407 Clear 13 1024 82 10000 3.1 200 04:26 06.09.2019
2408 Clear 14 1024 82 10000 3.1 240 03:29 06.09.2019
2409 Clear 14 1025 71 10000 3.6 230 01:47 06.09.2019
2410 Clear 15 1025 76 10000 4.1 230 00:23 06.09.2019
2411 Clear 15 1025 76 10000 4.1 230 00:23 06.09.2019
2412 Clear 15 1025 76 10000 3.6 230 23:44 05.09.2019
2413 Clear 15 1025 76 10000 3.6 230 23:24 05.09.2019
2414 Clear 15 1025 72 10000 4.6 230 22:47 05.09.2019
2415 Clear 15 1025 72 10000 4.6 230 22:28 05.09.2019
2416 Clear 15 1024 67 10000 3.6 230 21:58 05.09.2019
2417 Clear 15 1024 67 10000 3.6 230 21:40 05.09.2019
2418 Clear 16 1024 67 10000 3.6 230 21:21 05.09.2019
2419 Clear 16 1024 67 10000 4.1 140 20:58 05.09.2019
2420 Clear 16 1024 67 10000 4.1 140 20:40 05.09.2019
2421 Clear 16 1024 67 10000 4.1 140 20:22 05.09.2019
2422 Clear 16 1023 67 10000 4.6 130 20:00 05.09.2019
2423 Clear 16 1023 67 10000 4.6 130 19:41 05.09.2019
2424 Clear 16 1023 67 10000 4.6 130 19:22 05.09.2019
2425 Clouds 18 1023 59 10000 6.2 140 18:57 05.09.2019
2426 Clouds 18 1023 59 10000 6.2 140 18:38 05.09.2019
2427 Clouds 18 1023 59 10000 6.2 140 18:19 05.09.2019
2428 Clouds 21 1022 49 10000 6.2 140 17:41 05.09.2019
2429 Clouds 21 1022 49 10000 6.2 140 17:22 05.09.2019
2430 Clear 22 1022 40 10000 6.7 150 16:58 05.09.2019
2431 Clear 22 1022 40 10000 6.7 150 16:40 05.09.2019
2432 Clear 22 1022 40 10000 6.7 150 16:20 05.09.2019
2433 Clear 23 1022 38 10000 5.1 150 15:55 05.09.2019
2434 Clear 23 1022 38 10000 5.1 150 15:37 05.09.2019
2435 Clear 21 1023 37 10000 4.6 150 15:18 05.09.2019
2436 Clear 21 1023 37 10000 4.6 150 14:42 05.09.2019
2437 Clear 21 1023 37 10000 4.6 150 14:21 05.09.2019
2438 Clouds 21 1023 40 10000 3.6 160 13:44 05.09.2019
2439 Clouds 21 1023 40 10000 3.6 160 13:23 05.09.2019
2440 Clouds 21 1024 40 10000 5.7 180 12:58 05.09.2019
2441 Clouds 20 1024 40 10000 5.7 180 12:40 05.09.2019
2442 Clouds 19 1024 45 10000 1.5 0 12:21 05.09.2019
2443 Clouds 19 1024 45 10000 1.5 0 11:43 05.09.2019
2444 Clouds 19 1024 45 10000 1.5 0 11:20 05.09.2019
2445 Clouds 18 1024 52 10000 2.6 140 10:43 05.09.2019
2446 Clouds 17 1024 55 10000 4.6 160 10:23 05.09.2019
2447 Clouds 17 1024 55 10000 4.6 160 10:23 05.09.2019
2448 Clouds 18 1024 52 10000 2.6 140 10:23 05.09.2019
2449 Clouds 17 1024 55 10000 4.6 160 10:23 05.09.2019
2450 Clouds 17 1024 55 10000 4.6 160 09:59 05.09.2019
2451 Clouds 16 1024 58 10000 1.5 0 09:40 05.09.2019
2452 Clouds 16 1024 58 10000 1.5 0 09:40 05.09.2019
2453 Clouds 16 1024 58 10000 1.5 0 09:20 05.09.2019
2454 Clouds 15 1024 67 10000 9.3 150 08:46 05.09.2019
2455 Clouds 14 1024 67 10000 9.3 150 08:28 05.09.2019
2456 Clouds 14 1024 67 10000 9.3 150 08:28 05.09.2019
2457 Clear 13 1023 66 10000 11.8 160 07:56 05.09.2019
2458 Clear 14 1023 66 10000 11.8 160 07:37 05.09.2019
2459 Clear 14 1023 66 10000 11.8 160 07:19 05.09.2019
2460 Clear 13 1023 71 10000 12.9 160 06:39 05.09.2019
2461 Clear 14 1023 62 10000 11.8 170 06:18 05.09.2019
2462 Clear 14 1023 62 10000 11.8 170 05:41 05.09.2019
2463 Clear 14 1023 62 10000 11.8 170 05:22 05.09.2019
2464 Clear 14 1023 62 10000 10.8 170 04:29 05.09.2019
2465 Clear 14 1023 67 10000 9.8 170 03:46 05.09.2019
2466 Clear 14 1024 67 10000 9.8 170 02:56 05.09.2019
2467 Clear 14 1024 67 10000 9.8 170 02:28 05.09.2019
2468 Clear 14 1024 67 10000 9.8 170 02:28 05.09.2019
2469 Clear 14 1025 67 10000 9.8 160 01:48 05.09.2019
2470 Clear 14 1024 71 10000 8.7 160 00:52 05.09.2019
2471 Clear 14 1024 71 10000 8.7 160 00:27 05.09.2019
2472 Clear 14 1024 71 10000 10.3 170 23:59 04.09.2019
2473 Clear 14 1024 71 10000 10.3 170 23:39 04.09.2019
2474 Clear 14 1024 71 10000 10.3 170 23:21 04.09.2019
2475 Clear 15 1024 67 10000 7.7 170 22:47 04.09.2019
2476 Clear 15 1024 67 10000 10.3 170 22:20 04.09.2019
2477 Clear 15 1024 67 10000 10.3 170 21:55 04.09.2019
2478 Clear 15 1024 67 10000 10.3 170 21:55 04.09.2019
2479 Clear 15 1024 67 10000 10.3 170 21:55 04.09.2019
2480 Clear 15 1024 67 10000 10.3 170 21:37 04.09.2019
2481 Clear 15 1023 67 10000 11.3 170 21:18 04.09.2019
2482 Clear 15 1023 67 10000 11.3 170 20:54 04.09.2019
2483 Clear 15 1023 67 10000 11.3 170 20:36 04.09.2019
2484 Clear 15 1023 67 10000 11.3 170 20:18 04.09.2019
2485 Clouds 15 1023 77 10000 10.3 170 19:40 04.09.2019
2486 Clouds 15 1023 77 10000 10.3 170 19:21 04.09.2019
2487 Clouds 16 1022 67 10000 10.8 180 18:42 04.09.2019
2488 Clouds 16 1022 67 10000 10.8 180 18:24 04.09.2019
2489 Clouds 16 1022 67 10000 10.8 180 18:24 04.09.2019
2490 Clouds 17 1021 63 10000 11.3 180 17:59 04.09.2019
2491 Clouds 17 1021 63 10000 11.3 180 17:40 04.09.2019
2492 Clouds 18 1021 55 10000 11.3 180 17:21 04.09.2019
2493 Clouds 17 1021 63 10000 11.3 180 17:21 04.09.2019
2494 Clouds 17 1021 55 10000 11.3 180 16:56 04.09.2019
2495 Clouds 17 1021 55 10000 11.3 180 16:37 04.09.2019
2496 Clouds 18 1021 55 10000 11.3 180 16:19 04.09.2019
2497 Clouds 18 1021 55 10000 11.3 170 15:40 04.09.2019
2498 Clouds 18 1021 55 10000 11.3 170 15:22 04.09.2019
2499 Clouds 19 1022 52 10000 10.3 180 14:58 04.09.2019
2500 Clouds 19 1022 52 10000 10.3 180 14:38 04.09.2019
2501 Clouds 19 1022 52 10000 10.3 180 14:20 04.09.2019
2502 Clear 19 1022 55 10000 11.8 170 13:58 04.09.2019
2503 Clear 19 1022 55 10000 11.8 170 13:39 04.09.2019
2504 Clear 19 1022 55 10000 11.8 170 13:20 04.09.2019
2505 Clouds 18 1023 63 10000 10.3 170 12:44 04.09.2019
2506 Clouds 18 1023 63 10000 10.3 170 12:26 04.09.2019
2507 Clouds 18 1023 63 10000 10.3 170 11:58 04.09.2019
2508 Clouds 18 1023 63 10000 10.3 170 11:38 04.09.2019
2509 Clouds 18 1023 63 10000 10.3 170 11:19 04.09.2019
2510 Clouds 17 1023 72 10000 10.8 170 10:55 04.09.2019
2511 Clouds 17 1023 72 10000 10.8 170 10:36 04.09.2019
2512 Clouds 17 1022 77 10000 10.3 180 10:18 04.09.2019
2513 Clouds 16 1022 77 10000 10.3 180 09:42 04.09.2019
2514 Clouds 16 1022 77 10000 10.3 180 09:20 04.09.2019
2515 Clouds 15 1022 82 10000 7.2 170 08:42 04.09.2019
2516 Clouds 15 1022 82 10000 7.2 170 08:24 04.09.2019
2517 Clouds 14 1022 93 10000 5.7 160 07:58 04.09.2019
2518 Clouds 14 1022 93 10000 6.7 180 07:35 04.09.2019
2519 Clouds 14 1022 93 10000 6.7 180 07:35 04.09.2019
2520 Clouds 14 1021 93 10000 4.6 160 06:53 04.09.2019
2521 Clouds 14 1021 93 10000 4.6 160 06:32 04.09.2019
2522 Clouds 15 1021 87 10000 5.1 180 04:54 04.09.2019
2523 Clouds 15 1021 87 10000 5.1 180 04:22 04.09.2019
2524 Clouds 14 1022 93 10000 4.6 180 02:46 04.09.2019
2525 Clouds 15 1022 82 10000 5.1 180 01:18 04.09.2019
2526 Clouds 15 1022 82 10000 5.7 170 00:41 04.09.2019
2527 Clouds 15 1022 82 10000 5.7 170 00:22 04.09.2019
2528 Clouds 15 1022 77 10000 7.2 180 23:48 03.09.2019
2529 Clouds 15 1022 77 10000 7.2 180 23:26 03.09.2019
2530 Clouds 15 1022 72 10000 7.2 180 22:41 03.09.2019
2531 Clouds 15 1022 72 10000 6.7 190 22:23 03.09.2019
2532 Clouds 15 1022 72 10000 6.7 190 21:57 03.09.2019
2533 Clouds 15 1022 72 10000 6.7 190 21:38 03.09.2019
2534 Clouds 15 1022 72 10000 6.7 190 21:20 03.09.2019
2535 Clouds 14 1021 76 10000 6.2 190 20:56 03.09.2019
2536 Clouds 14 1021 76 10000 6.2 190 20:38 03.09.2019
2537 Clouds 14 1021 76 10000 6.2 190 20:20 03.09.2019
2538 Clear 14 1021 82 10000 5.1 180 19:55 03.09.2019
2539 Clear 14 1021 82 10000 5.1 180 19:36 03.09.2019
2540 Clear 15 1021 82 10000 5.1 180 19:18 03.09.2019
2541 Clear 16 1021 72 10000 5.7 170 18:41 03.09.2019
2542 Clear 16 1021 72 10000 5.7 170 18:23 03.09.2019
2543 Clear 17 1020 63 10000 6.7 190 17:56 03.09.2019
2544 Clear 17 1020 63 10000 6.7 190 17:38 03.09.2019
2545 Clouds 17 1020 67 10000 8.2 180 17:19 03.09.2019
2546 Clouds 17 1020 67 10000 8.2 180 16:43 03.09.2019
2547 Clouds 17 1020 67 10000 8.2 180 16:43 03.09.2019
2548 Clouds 17 1020 67 10000 8.2 180 16:23 03.09.2019
2549 Clear 17 1021 67 10000 6.7 160 15:57 03.09.2019
2550 Clear 17 1021 67 10000 6.7 160 15:38 03.09.2019
2551 Clear 18 1021 67 10000 6.2 150 15:20 03.09.2019
2552 Clear 18 1021 67 10000 6.2 150 14:56 03.09.2019
2553 Clear 18 1021 67 10000 6.2 150 14:37 03.09.2019
2554 Clear 18 1021 67 10000 5.7 170 14:18 03.09.2019
2555 Clear 18 1021 67 10000 5.7 170 13:55 03.09.2019
2556 Clear 18 1021 67 10000 5.7 170 13:37 03.09.2019
2557 Clouds 18 1022 67 10000 6.7 160 13:18 03.09.2019
2558 Clouds 17 1022 67 10000 6.7 160 12:47 03.09.2019
2559 Clouds 17 1022 67 10000 6.7 160 12:29 03.09.2019
2560 Clouds 17 1022 72 10000 6.2 170 11:44 03.09.2019
2561 Clouds 17 1022 72 10000 6.2 170 11:25 03.09.2019
2562 Clear 16 1021 82 10000 3.1 160 10:59 03.09.2019
2563 Clear 16 1021 82 10000 3.1 160 10:59 03.09.2019
2564 Clear 16 1021 82 10000 3.1 160 10:40 03.09.2019
2565 Clear 16 1021 82 10000 3.1 160 10:22 03.09.2019
2566 Clouds 15 1021 100 10000 0.5 0 09:51 03.09.2019
2567 Clouds 14 1021 100 10000 0.5 0 09:33 03.09.2019
2568 Clouds 13 1021 100 10000 1 360 08:58 03.09.2019
2569 Mist 12 1021 100 4000 1.5 40 08:38 03.09.2019
2570 Mist 12 1021 100 4000 1.5 40 08:19 03.09.2019
2571 Fog 11 1020 93 200 2.1 120 07:43 03.09.2019
2572 Fog 11 1020 93 200 2.1 120 07:24 03.09.2019
2573 Fog 11 1020 93 800 2.1 130 06:54 03.09.2019
2574 Fog 11 1020 93 800 2.1 130 06:36 03.09.2019
2575 Fog 11 1022 93 250 2.1 140 03:44 03.09.2019
2576 Clear 12 1022 93 10000 1.5 210 02:49 03.09.2019
2577 Clear 12 1022 93 10000 1.5 210 02:30 03.09.2019
2578 Clear 11 1022 100 10000 1 220 01:58 03.09.2019
2579 Clear 11 1022 100 10000 1 220 01:40 03.09.2019
2580 Clear 12 1022 100 10000 1 220 01:21 03.09.2019
2581 Clear 13 1022 87 10000 2.1 230 00:28 03.09.2019
2582 Clear 13 1023 87 10000 2.1 200 23:56 02.09.2019
2583 Clear 13 1023 87 10000 2.1 200 23:36 02.09.2019
2584 Clear 13 1023 87 10000 3.1 210 23:18 02.09.2019
2585 Clear 13 1023 87 10000 3.1 210 22:55 02.09.2019
2586 Clear 13 1023 87 10000 3.1 210 22:36 02.09.2019
2587 Clear 13 1023 87 10000 3.1 210 22:18 02.09.2019
2588 Clouds 14 1023 87 10000 4.1 200 21:55 02.09.2019
2589 Clouds 14 1023 87 10000 4.1 200 21:37 02.09.2019
2590 Clouds 14 1023 87 10000 4.1 200 21:18 02.09.2019
2591 Clouds 14 1023 87 10000 5.1 190 20:42 02.09.2019
2592 Clouds 14 1023 87 10000 5.1 190 20:42 02.09.2019
2593 Clouds 14 1023 87 10000 5.1 190 20:23 02.09.2019
2594 Clouds 15 1023 82 10000 5.1 180 19:59 02.09.2019
2595 Clouds 15 1023 82 10000 5.1 180 19:40 02.09.2019
2596 Clouds 15 1023 82 10000 5.1 180 19:22 02.09.2019
2597 Clear 15 1023 77 10000 6.2 170 18:57 02.09.2019
2598 Clear 16 1023 77 10000 6.2 170 18:37 02.09.2019
2599 Clear 17 1022 67 10000 5.7 160 18:18 02.09.2019
2600 Clear 17 1022 67 10000 5.7 160 17:54 02.09.2019
2601 Clear 18 1022 67 10000 5.7 160 17:36 02.09.2019
2602 Clear 18 1022 67 10000 5.7 160 17:18 02.09.2019
2603 Clear 18 1022 63 10000 4.6 160 17:18 02.09.2019
2604 Clear 19 1022 63 10000 4.6 160 16:40 02.09.2019
2605 Clear 19 1022 63 10000 4.6 160 16:20 02.09.2019
2606 Clear 19 1022 63 10000 4.1 180 15:52 02.09.2019
2607 Clear 19 1022 63 10000 4.1 180 15:31 02.09.2019
2608 Clear 19 1023 63 10000 3.6 180 14:59 02.09.2019
2609 Clear 19 1023 63 10000 3.6 180 14:41 02.09.2019
2610 Clear 19 1024 63 10000 4.1 170 14:22 02.09.2019
2611 Clear 19 1024 63 10000 4.1 170 13:59 02.09.2019
2612 Clear 19 1024 63 10000 4.1 170 13:41 02.09.2019
2613 Clear 19 1024 63 10000 4.1 170 13:22 02.09.2019
2614 Clear 19 1024 59 10000 4.1 190 12:45 02.09.2019
2615 Clear 19 1024 59 10000 4.1 190 12:26 02.09.2019
2616 Clouds 18 1025 63 10000 3.1 140 11:59 02.09.2019
2617 Clouds 18 1025 63 10000 3.1 140 11:40 02.09.2019
2618 Clouds 18 1025 63 10000 3.1 140 11:21 02.09.2019
2619 Clouds 17 1025 67 10000 3.6 160 10:58 02.09.2019
2620 Clouds 17 1025 67 10000 3.6 160 10:39 02.09.2019
2621 Clouds 17 1025 67 10000 3.6 160 10:20 02.09.2019
2622 Clouds 16 1025 82 10000 1.5 0 09:58 02.09.2019
2623 Clouds 15 1025 93 10000 1 110 09:37 02.09.2019
2624 Clouds 14 1025 93 10000 1 110 09:18 02.09.2019
2625 Clouds 11 1025 93 7000 0.5 0 08:39 02.09.2019
2626 Clouds 11 1025 93 7000 0.5 0 08:18 02.09.2019
2627 Clouds 11 1025 93 7000 0.5 0 08:18 02.09.2019
2628 Mist 9 1024 100 5000 1.5 40 07:41 02.09.2019
2629 Mist 10 1024 100 5000 1.5 40 07:21 02.09.2019
2630 Clouds 11 1024 100 10000 1.5 30 06:58 02.09.2019
2631 Clouds 11 1024 100 10000 1.5 30 06:39 02.09.2019
2632 Clouds 11 1024 93 10000 0.5 0 05:50 02.09.2019
2633 Clouds 11 1024 93 10000 0.5 0 05:20 02.09.2019
2634 Clouds 11 1024 93 10000 1 0 04:45 02.09.2019
2635 Clouds 12 1024 93 10000 1.5 30 01:59 02.09.2019
2636 Clouds 12 1024 93 10000 2.6 50 00:58 02.09.2019
2637 Clouds 12 1024 93 10000 2.6 50 00:32 02.09.2019
2638 Clouds 12 1024 87 10000 2.6 50 23:59 01.09.2019
2639 Clouds 12 1024 87 10000 2.6 50 23:38 01.09.2019
2640 Clouds 12 1024 87 10000 2.6 50 23:18 01.09.2019
2641 Clouds 13 1024 87 10000 2.6 350 22:54 01.09.2019
2642 Clouds 13 1024 87 10000 2.6 350 22:36 01.09.2019
2643 Clouds 13 1024 87 10000 2.6 350 22:18 01.09.2019
2644 Clouds 13 1024 82 10000 2.1 340 21:41 01.09.2019
2645 Clouds 14 1023 76 10000 2.1 320 21:23 01.09.2019
2646 Clouds 14 1024 82 10000 2.1 340 21:23 01.09.2019
2647 Clouds 14 1023 76 10000 2.1 320 20:57 01.09.2019
2648 Clouds 14 1023 76 10000 2.1 320 20:39 01.09.2019
2649 Clouds 15 1023 63 10000 2.1 330 20:19 01.09.2019
2650 Clouds 15 1023 63 10000 2.1 330 19:58 01.09.2019
2651 Clouds 15 1023 63 10000 2.1 330 19:39 01.09.2019
2652 Clouds 16 1023 63 10000 2.1 330 19:21 01.09.2019
2653 Clouds 16 1023 63 10000 4.6 300 18:44 01.09.2019
2654 Clouds 16 1023 63 10000 4.6 300 18:44 01.09.2019
2655 Clouds 17 1023 63 10000 4.6 300 18:26 01.09.2019
2656 Clouds 18 1022 59 10000 5.1 300 17:58 01.09.2019
2657 Clouds 18 1022 59 10000 5.1 300 17:39 01.09.2019
2658 Clouds 18 1022 59 10000 7.2 300 17:19 01.09.2019
2659 Clouds 18 1022 59 10000 7.2 300 16:41 01.09.2019
2660 Clouds 18 1022 59 10000 7.2 300 16:21 01.09.2019
2661 Clouds 18 1022 63 10000 7.7 300 15:58 01.09.2019
2662 Clouds 18 1022 63 10000 7.7 310 15:39 01.09.2019
2663 Clouds 18 1022 63 10000 7.7 310 15:20 01.09.2019
2664 Clouds 18 1022 68 10000 8.2 310 14:42 01.09.2019
2665 Clouds 18 1022 68 10000 8.2 310 14:22 01.09.2019
2666 Clouds 17 1023 72 10000 8.2 320 13:59 01.09.2019
2667 Clouds 18 1023 72 10000 8.2 320 13:40 01.09.2019
2668 Clouds 17 1023 72 10000 5.7 360 13:21 01.09.2019
2669 Clouds 17 1023 72 10000 5.7 360 12:43 01.09.2019
2670 Clouds 17 1023 72 10000 5.7 360 12:25 01.09.2019
2671 Clouds 17 1023 72 10000 5.7 360 12:25 01.09.2019
2672 Clouds 16 1024 77 10000 6.2 350 11:56 01.09.2019
2673 Clouds 15 1024 82 10000 2.1 300 11:38 01.09.2019
2674 Clouds 15 1024 82 10000 2.1 300 11:18 01.09.2019
2675 Rain 14 1024 82 10000 3.6 20 10:44 01.09.2019
2676 Rain 14 1024 82 10000 3.6 20 10:23 01.09.2019
2677 Rain 13 1024 87 10000 2.6 20 09:47 01.09.2019
2678 Rain 13 1024 87 10000 2.6 20 09:26 01.09.2019
2679 Clouds 13 1024 81 10000 4.6 30 08:56 01.09.2019
2680 Clouds 12 1024 81 10000 4.6 30 08:37 01.09.2019
2681 Clouds 12 1024 81 10000 4.6 30 08:19 01.09.2019
2682 Drizzle 12 1023 93 7000 5.1 20 07:41 01.09.2019
2683 Drizzle 12 1023 93 7000 5.1 20 07:41 01.09.2019
2684 Drizzle 12 1023 93 7000 5.1 20 07:19 01.09.2019
2685 Drizzle 12 1023 93 10000 6.2 30 06:38 01.09.2019
2686 Drizzle 12 1023 93 6000 3.6 30 05:58 01.09.2019
2687 Drizzle 12 1023 93 6000 3.6 30 05:58 01.09.2019
2688 Drizzle 12 1023 93 3000 5.1 30 04:40 01.09.2019
2689 Drizzle 12 1024 93 6000 4.6 30 03:45 01.09.2019
2690 Drizzle 12 1024 93 6000 4.6 30 03:19 01.09.2019
2691 Drizzle 12 1024 81 10000 4.1 40 02:37 01.09.2019
2692 Drizzle 13 1024 81 10000 4.1 40 02:18 01.09.2019
2693 Drizzle 13 1024 81 10000 4.6 30 01:27 01.09.2019
2694 Clouds 13 1025 76 10000 4.1 350 00:48 01.09.2019
2695 Clouds 13 1025 76 10000 4.1 350 00:25 01.09.2019
2696 Rain 13 1025 76 10000 4.6 10 23:59 31.08.2019
2697 Rain 13 1025 76 10000 4.6 10 23:39 31.08.2019
2698 Rain 13 1025 76 10000 4.6 10 23:19 31.08.2019
2699 Rain 13 1025 76 10000 6.2 360 22:54 31.08.2019
2700 Rain 13 1025 76 10000 6.2 360 22:36 31.08.2019
2701 Rain 13 1025 76 10000 6.2 360 22:36 31.08.2019
2702 Clouds 13 1025 67 10000 5.1 350 22:18 31.08.2019
2703 Clouds 14 1025 67 10000 5.1 350 21:42 31.08.2019
2704 Clouds 14 1025 67 10000 4.6 360 21:21 31.08.2019
2705 Clouds 14 1025 67 10000 5.1 350 21:21 31.08.2019
2706 Clouds 14 1025 67 10000 4.6 360 20:59 31.08.2019
2707 Clouds 14 1025 67 10000 4.6 360 20:40 31.08.2019
2708 Clouds 14 1025 67 10000 4.6 360 20:22 31.08.2019
2709 Clouds 14 1024 62 10000 4.1 340 19:41 31.08.2019
2710 Clouds 14 1024 62 10000 4.1 340 19:22 31.08.2019
2711 Clouds 14 1024 58 10000 5.1 310 18:55 31.08.2019
2712 Clouds 14 1024 58 10000 5.1 310 18:55 31.08.2019
2713 Clouds 14 1024 58 10000 5.1 310 18:36 31.08.2019
2714 Clouds 15 1024 58 10000 5.1 310 18:18 31.08.2019
2715 Clouds 15 1024 54 10000 7.2 310 17:54 31.08.2019
2716 Clouds 15 1024 54 10000 7.2 310 17:36 31.08.2019
2717 Clouds 16 1024 54 10000 7.2 310 17:18 31.08.2019
2718 Clouds 16 1023 51 10000 6.2 310 16:41 31.08.2019
2719 Clouds 16 1023 51 10000 6.2 310 16:23 31.08.2019
2720 Clouds 16 1023 51 10000 6.7 310 15:59 31.08.2019
2721 Clouds 16 1023 51 10000 6.7 310 15:38 31.08.2019
2722 Clouds 16 1023 51 10000 6.7 310 15:38 31.08.2019
2723 Clouds 16 1023 51 10000 6.7 310 15:18 31.08.2019
2724 Clouds 16 1023 55 10000 5.7 300 14:42 31.08.2019
2725 Clouds 16 1023 55 10000 5.7 300 14:24 31.08.2019
2726 Clouds 16 1023 51 10000 5.7 300 13:57 31.08.2019
2727 Clouds 16 1023 51 10000 5.7 300 13:37 31.08.2019
2728 Clouds 16 1023 51 10000 5.7 300 13:18 31.08.2019
2729 Clouds 16 1024 48 10000 3.6 310 12:42 31.08.2019
2730 Clouds 16 1024 48 10000 3.6 310 12:42 31.08.2019
2731 Clouds 16 1024 48 10000 3.6 310 12:21 31.08.2019
2732 Clouds 15 1024 62 10000 1.5 0 11:59 31.08.2019
2733 Clouds 15 1024 62 10000 1.5 0 11:40 31.08.2019
2734 Clouds 15 1024 62 10000 1.5 0 11:22 31.08.2019
2735 Clouds 14 1023 76 10000 3.1 50 10:55 31.08.2019
2736 Clouds 14 1023 76 10000 3.1 50 10:36 31.08.2019
2737 Clouds 14 1023 76 10000 3.1 50 10:18 31.08.2019
2738 Clouds 13 1023 81 10000 3.1 50 09:40 31.08.2019
2739 Clouds 13 1023 81 10000 3.1 50 09:21 31.08.2019
2740 Clouds 10 1022 87 10000 2.6 60 08:45 31.08.2019
2741 Clouds 10 1022 87 10000 2.6 60 08:27 31.08.2019
2742 Clouds 9 1021 87 10000 2.6 40 07:58 31.08.2019
2743 Clouds 9 1021 87 10000 2.6 40 07:37 31.08.2019
2744 Clouds 9 1021 87 10000 2.6 40 07:18 31.08.2019
2745 Clouds 10 1021 71 10000 1.5 0 06:26 31.08.2019
2746 Clouds 10 1021 71 10000 1.5 0 06:26 31.08.2019
2747 Clouds 11 1021 71 10000 1 280 05:50 31.08.2019
2748 Clouds 10 1021 81 10000 2.6 290 05:27 31.08.2019
2749 Clouds 11 1021 71 10000 1.5 0 04:28 31.08.2019
2750 Drizzle 11 1021 71 10000 3.1 230 03:42 31.08.2019
2751 Clouds 12 1021 66 10000 2.6 230 02:22 31.08.2019
2752 Clouds 11 1020 81 10000 2.6 230 01:47 31.08.2019
2753 Clouds 11 1020 81 10000 2.6 230 01:28 31.08.2019
2754 Clouds 12 1020 87 10000 1 0 00:46 31.08.2019
2755 Clouds 12 1020 87 10000 1 0 00:46 31.08.2019
2756 Clouds 12 1020 87 10000 1 0 00:27 31.08.2019
2757 Clouds 12 1020 87 10000 1 0 23:50 30.08.2019
2758 Clouds 12 1020 87 10000 1 0 23:19 30.08.2019
2759 Clouds 12 1020 81 10000 2.6 220 22:58 30.08.2019
2760 Clouds 12 1020 81 10000 2.6 220 22:38 30.08.2019
2761 Clouds 12 1020 81 10000 2.6 220 22:19 30.08.2019
2762 Clouds 12 1019 93 10000 1.5 0 21:57 30.08.2019
2763 Rain 12 1019 87 5000 1.5 340 21:36 30.08.2019
2764 Rain 12 1019 87 5000 1.5 340 21:18 30.08.2019
2765 Clouds 12 1019 87 10000 2.1 270 21:18 30.08.2019
2766 -273 0 0 0 0 0 20:56 30.08.2019
2767 Rain 13 1019 82 5000 4.6 330 20:37 30.08.2019
2768 Rain 13 1019 82 5000 4.6 330 20:18 30.08.2019
2769 Clouds 13 1018 87 10000 4.6 360 19:55 30.08.2019
2770 Clouds 12 1018 87 10000 4.6 360 19:36 30.08.2019
2771 Clouds 13 1019 82 10000 4.1 320 19:18 30.08.2019
2772 Clouds 13 1019 82 10000 4.1 320 18:44 30.08.2019
2773 Clouds 13 1019 82 10000 4.1 320 18:24 30.08.2019
2774 Clouds 14 1018 82 10000 4.1 330 17:56 30.08.2019
2775 Clouds 14 1018 82 10000 4.1 330 17:56 30.08.2019
2776 Clouds 14 1018 82 10000 4.1 330 17:38 30.08.2019
2777 Clouds 14 1018 82 10000 4.1 330 17:19 30.08.2019
2778 Clouds 13 1019 82 10000 5.7 320 16:49 30.08.2019
2779 Clouds 13 1019 87 10000 4.1 270 16:29 30.08.2019
2780 Rain 13 1019 87 10000 7.2 320 15:59 30.08.2019
2781 Rain 14 1019 76 4000 7.2 310 15:39 30.08.2019
2782 Rain 14 1019 76 4000 7.2 310 15:20 30.08.2019
2783 Clouds 15 1019 72 10000 7.2 330 14:45 30.08.2019
2784 Clouds 14 1019 72 10000 7.2 330 14:25 30.08.2019
2785 Clouds 15 1020 59 10000 4.1 290 13:56 30.08.2019
2786 Clouds 15 1020 59 10000 4.1 290 13:38 30.08.2019
2787 Clouds 16 1020 59 10000 4.1 290 13:20 30.08.2019
2788 Clouds 15 1020 72 10000 3.6 350 12:44 30.08.2019
2789 Clouds 15 1020 72 10000 3.6 350 12:25 30.08.2019
2790 Clouds 13 1021 93 10000 3.6 350 11:57 30.08.2019
2791 Clouds 13 1021 93 10000 3.6 350 11:39 30.08.2019
2792 Clouds 13 1021 93 10000 3.6 350 11:20 30.08.2019
2793 Drizzle 12 1021 87 5000 1 0 10:37 30.08.2019
2794 Drizzle 12 1021 87 5000 1 0 10:19 30.08.2019
2795 Rain 12 1021 81 4000 2.1 320 09:55 30.08.2019
2796 Clouds 12 1021 76 10000 1.5 50 09:36 30.08.2019
2797 Clouds 11 1021 76 10000 1.5 50 09:18 30.08.2019
2798 Clouds 10 1020 81 10000 3.1 30 08:42 30.08.2019
2799 Clouds 10 1020 81 10000 3.1 30 08:23 30.08.2019
2800 Clouds 8 1020 93 10000 2.1 350 07:46 30.08.2019
2801 Clouds 8 1020 93 10000 2.1 350 07:25 30.08.2019
2802 Clear 8 1020 93 10000 3.6 60 06:58 30.08.2019
2803 Clear 8 1020 93 10000 3.6 60 06:39 30.08.2019
2804 Clear 8 1020 93 10000 3.6 50 06:20 30.08.2019
2805 Clear 8 1020 93 10000 3.6 50 05:24 30.08.2019
2806 Clear 9 1021 93 10000 2.6 40 03:56 30.08.2019
2807 Clear 9 1021 93 10000 2.6 40 03:37 30.08.2019
2808 Clear 9 1021 93 10000 2.6 40 03:37 30.08.2019
2809 Clouds 10 1022 81 10000 2.1 20 02:37 30.08.2019
2810 Clouds 10 1022 87 10000 3.1 40 01:40 30.08.2019
2811 Clouds 10 1022 87 10000 3.1 50 00:53 30.08.2019
2812 Clear 9 1022 81 10000 2.1 40 00:19 30.08.2019
2813 Clear 9 1022 81 10000 2.1 40 23:47 29.08.2019
2814 Clear 10 1022 81 10000 2.1 40 23:22 29.08.2019
2815 Clouds 12 1023 62 10000 2.1 310 22:56 29.08.2019
2816 Clouds 12 1023 62 10000 2.1 310 22:37 29.08.2019
2817 Clouds 12 1023 62 10000 2.1 310 22:19 29.08.2019
2818 Clouds 12 1022 62 10000 1 350 21:41 29.08.2019
2819 Clouds 12 1022 62 10000 1 350 21:21 29.08.2019
2820 Clouds 13 1022 62 10000 1.5 0 20:59 29.08.2019
2821 Clouds 13 1022 62 10000 1.5 0 20:40 29.08.2019
2822 Clouds 13 1022 62 10000 1.5 0 20:19 29.08.2019
2823 Clouds 14 1022 58 10000 2.6 280 19:56 29.08.2019
2824 Clouds 14 1022 58 10000 2.6 280 19:38 29.08.2019
2825 Clouds 14 1022 58 10000 2.6 280 19:19 29.08.2019
2826 Clouds 15 1021 47 10000 2.6 240 18:41 29.08.2019
2827 Clouds 15 1021 47 10000 2.6 240 18:20 29.08.2019
2828 Clouds 16 1021 51 10000 4.1 250 17:56 29.08.2019
2829 Clouds 16 1021 51 10000 4.1 250 17:37 29.08.2019
2830 Clouds 15 1021 51 10000 4.1 250 17:19 29.08.2019
2831 Clouds 15 1021 47 10000 4.1 270 16:43 29.08.2019
2832 Clouds 16 1021 44 10000 1.5 0 16:24 29.08.2019
2833 Clouds 16 1021 44 10000 1.5 0 15:58 29.08.2019
2834 Clouds 16 1021 44 10000 1.5 0 15:38 29.08.2019
2835 Clouds 16 1021 44 10000 1.5 0 15:19 29.08.2019
2836 Clouds 16 1021 44 10000 3.1 0 14:49 29.08.2019
2837 Clouds 16 1021 44 10000 3.1 0 14:22 29.08.2019
2838 Clouds 16 1022 41 10000 1.5 0 13:58 29.08.2019
2839 Clouds 16 1022 44 10000 1.5 0 13:39 29.08.2019
2840 Clouds 16 1022 44 10000 1.5 0 13:20 29.08.2019
2841 Clouds 16 1023 41 10000 2.6 280 12:58 29.08.2019
2842 Clouds 16 1023 41 10000 2.6 280 12:39 29.08.2019
2843 Clouds 16 1023 41 10000 2.6 280 12:21 29.08.2019
2844 Clouds 16 1023 44 10000 1.5 0 11:58 29.08.2019
2845 Clouds 15 1023 44 10000 1.5 0 11:37 29.08.2019
2846 Clouds 15 1023 44 10000 1.5 0 11:18 29.08.2019
2847 Clouds 15 1023 58 10000 2.6 30 10:43 29.08.2019
2848 Clouds 14 1023 58 10000 2.6 30 10:24 29.08.2019
2849 Clouds 12 1023 71 0 1.79 50 09:42 29.08.2019
2850 Clouds 12 1023 81 10000 1 0 09:21 29.08.2019
2851 Clouds 10 1023 81 10000 1 0 08:59 29.08.2019
2852 Clouds 9 1023 87 10000 2.6 40 08:40 29.08.2019
2853 Clouds 8 1023 87 10000 2.6 40 08:21 29.08.2019
2854 Clouds 8 1023 86 10000 2.1 40 07:49 29.08.2019
2855 Clouds 7 1023 86 10000 2.1 40 07:26 29.08.2019
2856 Clouds 6 1022 86 10000 2.6 50 06:48 29.08.2019
2857 Clouds 6 1022 86 10000 2.6 50 06:30 29.08.2019
2858 Clear 6 1022 80 10000 0.5 80 05:43 29.08.2019
2859 Clear 7 1022 80 10000 0.5 130 04:51 29.08.2019
2860 Clear 7 1022 80 10000 0.5 130 04:29 29.08.2019
2861 Clear 7 1023 86 10000 0.5 0 03:35 29.08.2019
2862 Clear 8 1024 75 10000 1 0 01:50 29.08.2019
2863 Clear 9 1024 75 10000 1 0 01:30 29.08.2019
2864 Clear 10 1024 66 10000 1.5 200 00:45 29.08.2019
2865 Clear 10 1024 66 10000 1.5 200 00:21 29.08.2019
2866 Clear 9 1025 75 10000 1.5 0 23:44 28.08.2019
2867 Clear 9 1025 75 10000 1.5 0 23:25 28.08.2019
2868 Clear 9 1025 70 10000 2.1 190 22:59 28.08.2019
2869 Clear 9 1025 70 10000 2.1 190 22:39 28.08.2019
2870 Clear 10 1025 76 10000 2.6 180 22:18 28.08.2019
2871 Clear 10 1025 76 10000 2.6 180 21:58 28.08.2019
2872 Clear 10 1025 76 10000 2.6 180 21:39 28.08.2019
2873 Clear 10 1025 76 10000 2.6 180 21:20 28.08.2019
2874 Clear 11 1025 66 10000 3.1 180 20:45 28.08.2019
2875 Clear 11 1025 66 10000 3.1 180 20:27 28.08.2019
2876 Clear 12 1025 62 10000 3.6 180 19:59 28.08.2019
2877 Clear 12 1025 62 10000 3.6 180 19:39 28.08.2019
2878 Clear 12 1025 62 10000 3.6 180 19:21 28.08.2019
2879 Clouds 14 1025 54 10000 4.6 170 18:42 28.08.2019
2880 Clouds 14 1025 54 10000 4.6 170 18:22 28.08.2019
2881 Clouds 15 1025 51 10000 4.6 180 17:57 28.08.2019
2882 Clouds 15 1025 51 10000 4.6 180 17:37 28.08.2019
2883 Clouds 15 1025 51 10000 4.6 180 17:19 28.08.2019
2884 Clouds 15 1025 54 10000 4.6 180 16:43 28.08.2019
2885 Clouds 15 1025 54 10000 4.6 180 16:19 28.08.2019
2886 Clouds 16 1026 48 10000 3.6 200 15:58 28.08.2019
2887 Clouds 16 1026 48 10000 3.6 200 15:37 28.08.2019
2888 Clouds 16 1026 48 10000 3.6 200 15:19 28.08.2019
2889 Clouds 17 1026 45 10000 2.1 180 14:56 28.08.2019
2890 Clouds 16 1026 45 10000 2.1 180 14:37 28.08.2019
2891 Clouds 16 1026 45 10000 2.1 180 14:19 28.08.2019
2892 Clouds 16 1027 51 10000 3.6 100 13:56 28.08.2019
2893 Clouds 16 1027 51 10000 3.6 100 13:37 28.08.2019
2894 Clouds 16 1027 51 10000 3.6 100 13:18 28.08.2019
2895 Clouds 15 1027 54 10000 3.6 110 12:41 28.08.2019
2896 Clouds 15 1028 58 10000 2.1 180 12:23 28.08.2019
2897 Clouds 15 1028 58 10000 2.1 180 12:23 28.08.2019
2898 Clouds 15 1028 58 10000 2.1 180 11:42 28.08.2019
2899 Clouds 14 1028 62 10000 2.1 300 11:23 28.08.2019
2900 Clouds 14 1028 62 10000 2.1 300 10:59 28.08.2019
2901 Clouds 14 1028 62 10000 2.1 300 10:41 28.08.2019
2902 Clouds 13 1028 62 10000 2.1 300 10:21 28.08.2019
2903 Clouds 13 1028 62 10000 3.1 10 09:58 28.08.2019
2904 Clouds 13 1028 71 10000 2.6 40 09:39 28.08.2019
2905 Clouds 12 1028 71 10000 2.6 40 09:18 28.08.2019
2906 Clouds 10 1027 87 10000 3.1 70 08:39 28.08.2019
2907 Clouds 8 1027 87 10000 3.1 70 08:20 28.08.2019
2908 Clouds 8 1027 87 10000 3.6 50 07:40 28.08.2019
2909 Clouds 7 1027 87 10000 3.6 50 07:22 28.08.2019
2910 Clouds 7 1027 93 10000 2.6 40 06:51 28.08.2019
2911 Clouds 7 1027 93 10000 2.6 40 06:32 28.08.2019
2912 Clouds 8 1026 93 10000 0.5 0 05:32 28.08.2019
2913 Clouds 8 1027 87 10000 5.79 226.042 02:48 28.08.2019
2914 Clouds 10 1027 66 10000 2.1 250 01:32 28.08.2019
2915 Clouds 9 1027 81 10000 0.5 0 00:55 28.08.2019
2916 Clouds 9 1027 81 10000 0.5 0 00:37 28.08.2019
2917 Clear 11 1027 66 10000 2.1 250 23:58 27.08.2019
2918 Clear 11 1027 66 10000 2.1 250 23:39 27.08.2019
2919 Clear 11 1027 66 10000 2.1 250 23:20 27.08.2019
2920 Clouds 12 1027 66 10000 3.1 220 22:42 27.08.2019
2921 Clouds 12 1027 66 10000 3.1 220 22:23 27.08.2019
2922 Clouds 12 1027 58 10000 2.6 230 21:57 27.08.2019
2923 Clouds 12 1027 58 10000 2.6 230 21:39 27.08.2019
2924 Clouds 12 1027 54 10000 2.1 240 21:21 27.08.2019
2925 Clouds 13 1027 54 10000 2.1 240 20:59 27.08.2019
2926 Clouds 13 1027 54 10000 2.1 240 20:40 27.08.2019
2927 Clouds 13 1027 54 10000 2.1 240 20:20 27.08.2019
2928 Clouds 13 1026 50 10000 3.6 230 19:55 27.08.2019
2929 Clouds 14 1026 50 10000 3.6 230 19:37 27.08.2019
2930 Clouds 14 1026 50 10000 3.6 230 19:18 27.08.2019
2931 Clouds 15 1026 44 10000 5.7 210 18:41 27.08.2019
2932 Clouds 15 1026 44 10000 5.7 210 18:18 27.08.2019
2933 Clouds 15 1026 54 10000 5.1 190 17:56 27.08.2019
2934 Clouds 16 1026 54 10000 5.1 190 17:37 27.08.2019
2935 Clouds 16 1026 54 10000 5.1 190 17:18 27.08.2019
2936 Clouds 16 1025 44 10000 4.6 230 16:43 27.08.2019
2937 Clouds 16 1025 44 10000 4.6 230 16:24 27.08.2019
2938 Clouds 16 1025 54 10000 4.1 200 15:57 27.08.2019
2939 Clouds 16 1025 54 10000 4.1 200 15:38 27.08.2019
2940 Clouds 16 1025 54 10000 4.1 200 15:20 27.08.2019
2941 Clouds 17 1025 48 10000 6.2 200 14:43 27.08.2019
2942 Clouds 17 1025 48 10000 6.2 200 14:24 27.08.2019
2943 Clouds 16 1026 55 10000 5.7 170 13:57 27.08.2019
2944 Clouds 16 1026 55 10000 5.7 170 13:38 27.08.2019
2945 Clouds 16 1026 55 10000 5.7 170 13:20 27.08.2019
2946 Rain 16 1015 58 0 2.24 280 12:41 27.08.2019
2947 Clouds 15 1027 71 10000 2.6 310 12:20 27.08.2019
2948 Clouds 15 1027 71 10000 2.6 310 11:56 27.08.2019
2949 Clouds 14 1027 71 10000 2.6 310 11:37 27.08.2019
2950 Clouds 15 1027 71 10000 2.6 310 11:18 27.08.2019
2951 Clear 14 1026 79 0 0.45 23 10:40 27.08.2019
2952 Clouds 13 1026 87 10000 2.6 50 10:19 27.08.2019
2953 Clouds 12 1026 87 10000 2.6 50 09:55 27.08.2019
2954 Clouds 12 1026 87 10000 2.6 50 09:36 27.08.2019
2955 Clouds 12 1026 87 10000 2.6 50 09:18 27.08.2019
2956 Clouds 11 1026 93 10000 3.6 50 08:42 27.08.2019
2957 Clouds 11 1026 93 10000 3.6 50 08:23 27.08.2019
2958 Clouds 10 1025 93 10000 3.1 50 07:43 27.08.2019
2959 Clouds 11 1025 93 10000 3.1 50 07:20 27.08.2019
2960 Clouds 11 1025 93 10000 2.6 40 06:59 27.08.2019
2961 Clouds 11 1025 93 10000 2.6 40 06:40 27.08.2019
2962 Clouds 11 1025 93 10000 2.6 40 06:19 27.08.2019
2963 Clouds 11 1025 100 10000 3.1 40 05:24 27.08.2019
2964 Clouds 11 1025 87 10000 2.6 30 03:43 27.08.2019
2965 Clouds 11 1025 87 10000 2.6 330 02:28 27.08.2019
2966 Clouds 12 1026 81 10000 2.6 320 01:45 27.08.2019
2967 Clouds 12 1026 81 10000 2.6 320 01:24 27.08.2019
2968 Clouds 11 1026 81 10000 0.5 0 00:48 27.08.2019
2969 Clouds 12 1026 81 10000 0.5 0 00:26 27.08.2019
2970 Clouds 11 1026 87 10000 2.6 40 23:40 26.08.2019
2971 Clouds 11 1026 87 10000 2.6 40 23:21 26.08.2019
2972 Clouds 10 1026 87 10000 1.5 40 22:58 26.08.2019
2973 Clouds 11 1026 87 10000 1.5 40 22:36 26.08.2019
2974 Clouds 11 1026 87 10000 1.5 40 22:18 26.08.2019
2975 Clouds 11 1025 87 10000 1.5 30 21:39 26.08.2019
2976 Clouds 11 1025 87 10000 1.5 30 21:21 26.08.2019
2977 Clouds 12 1025 71 10000 1.5 0 20:58 26.08.2019
2978 Clouds 12 1025 71 10000 1.5 0 20:39 26.08.2019
2979 Clouds 12 1025 71 10000 1.5 0 20:19 26.08.2019
2980 Clouds 13 1025 66 10000 1.5 0 19:56 26.08.2019
2981 Clouds 13 1025 66 10000 1.5 0 19:38 26.08.2019
2982 Clouds 14 1024 67 10000 2.1 320 19:18 26.08.2019
2983 Clouds 14 1024 67 10000 2.1 320 18:39 26.08.2019
2984 Clouds 14 1024 67 10000 2.1 320 18:20 26.08.2019
2985 Clouds 15 1024 67 10000 4.6 300 17:56 26.08.2019
2986 Clouds 14 1024 67 10000 4.6 300 17:38 26.08.2019
2987 Clouds 14 1024 67 10000 4.6 300 17:18 26.08.2019
2988 Clouds 15 1024 58 10000 3.6 250 16:56 26.08.2019
2989 Clouds 15 1024 58 10000 3.6 250 16:38 26.08.2019
2990 Clouds 15 1024 58 10000 3.6 250 16:18 26.08.2019
2991 Clouds 15 1024 58 10000 5.7 280 15:42 26.08.2019
2992 Clouds 15 1024 58 10000 5.7 280 15:21 26.08.2019
2993 Clouds 15 1024 76 10000 4.1 260 14:46 26.08.2019
2994 Clouds 15 1024 76 10000 4.1 260 14:23 26.08.2019
2995 Clouds 15 1024 54 10000 5.1 300 13:59 26.08.2019
2996 Clouds 15 1024 54 10000 5.1 300 13:39 26.08.2019
2997 Clouds 16 1024 51 10000 3.6 290 13:20 26.08.2019
2998 Clouds 16 1024 51 10000 3.6 290 12:43 26.08.2019
2999 Clouds 16 1024 51 10000 3.6 290 12:43 26.08.2019
3000 Clouds 15 1024 51 10000 3.6 290 12:25 26.08.2019
3001 Clouds 15 1024 54 10000 4.1 240 11:56 26.08.2019
3002 Clouds 15 1024 54 10000 4.1 240 11:36 26.08.2019
3003 Clouds 15 1024 54 10000 4.1 240 11:18 26.08.2019
3004 Clouds 13 1023 76 0 0.89 0 10:44 26.08.2019
3005 Clouds 13 1024 71 10000 4.1 310 10:22 26.08.2019
3006 Clouds 13 1024 71 10000 4.1 310 10:22 26.08.2019
3007 Clouds 13 1024 71 10000 4.1 310 09:57 26.08.2019
3008 Clouds 13 1024 71 10000 4.1 310 09:39 26.08.2019
3009 Clouds 13 1024 71 10000 4.1 310 09:19 26.08.2019
3010 Clouds 12 1024 87 10000 2.1 20 08:55 26.08.2019
3011 Clouds 12 1024 87 10000 2.1 20 08:36 26.08.2019
3012 Clouds 12 1024 87 10000 2.1 20 08:18 26.08.2019
3013 Clouds 12 1023 71 10000 1 0 07:41 26.08.2019
3014 Clouds 12 1023 71 10000 1 0 07:23 26.08.2019
3015 Clouds 12 1023 76 10000 2.1 10 06:48 26.08.2019
3016 Clouds 12 1023 76 10000 2.1 10 06:25 26.08.2019
3017 Clouds 13 1023 66 10000 3.1 260 05:49 26.08.2019
3018 Clouds 13 1022 87 10000 1 0 04:31 26.08.2019
3019 Clouds 13 1023 87 10000 1 0 03:19 26.08.2019
3020 Clouds 14 1023 67 10000 1.5 0 01:40 26.08.2019
3021 Clouds 14 1023 67 10000 1.5 0 01:21 26.08.2019
3022 Clouds 14 1023 76 10000 1 0 00:42 26.08.2019
3023 Clouds 14 1022 76 10000 2.1 220 00:23 26.08.2019
3024 Clouds 14 1022 76 10000 2.1 220 23:43 25.08.2019
3025 Clouds 13 1023 87 10000 2.1 190 23:19 25.08.2019
3026 Clouds 13 1023 87 10000 2.1 190 22:57 25.08.2019
3027 Clouds 13 1023 87 10000 2.1 190 22:57 25.08.2019
3028 Clouds 13 1023 87 10000 2.1 190 22:39 25.08.2019
3029 Clouds 13 1023 87 10000 2.1 190 22:20 25.08.2019
3030 Clouds 14 1022 87 10000 3.1 210 21:57 25.08.2019
3031 Clouds 14 1022 87 10000 3.1 210 21:38 25.08.2019
3032 Clouds 14 1022 87 10000 3.1 210 21:18 25.08.2019
3033 Clouds 14 1022 87 10000 4.1 210 20:40 25.08.2019
3034 Clouds 14 1021 93 10000 3.6 190 20:20 25.08.2019
3035 Clouds 14 1021 93 10000 3.6 190 19:58 25.08.2019
3036 Clouds 14 1021 93 10000 3.6 190 19:39 25.08.2019
3037 Clouds 14 1021 93 10000 3.6 190 19:20 25.08.2019
3038 Rain 14 1021 93 2000 4.1 220 18:58 25.08.2019
3039 Rain 15 1021 93 2000 4.1 220 18:39 25.08.2019
3040 Rain 15 1021 93 2000 4.1 220 18:21 25.08.2019
3041 Rain 15 1020 93 2000 2.1 310 17:45 25.08.2019
3042 Rain 15 1020 93 2000 2.1 310 17:25 25.08.2019
3043 Rain 16 1020 93 2000 4.6 320 16:59 25.08.2019
3044 Rain 16 1020 93 2000 7.2 320 16:37 25.08.2019
3045 Drizzle 17 1020 82 4000 7.2 310 16:18 25.08.2019
3046 Rain 18 1019 74 0 3.13 293 15:43 25.08.2019
3047 Clouds 18 1020 68 10000 9.3 310 15:25 25.08.2019
3048 Clouds 18 1020 68 10000 8.7 310 14:43 25.08.2019
3049 Clouds 18 1020 68 10000 8.7 310 14:25 25.08.2019
3050 Clouds 18 1020 63 10000 8.2 310 13:57 25.08.2019
3051 Clouds 18 1020 63 10000 8.2 310 13:37 25.08.2019
3052 Clouds 18 1021 68 10000 6.7 340 13:18 25.08.2019
3053 Clouds 18 1021 68 10000 6.7 340 12:44 25.08.2019
3054 Clouds 18 1021 68 10000 6.7 340 12:25 25.08.2019
3055 Clouds 18 1021 68 10000 6.7 340 11:59 25.08.2019
3056 Clouds 17 1021 77 10000 6.7 330 11:40 25.08.2019
3057 Clouds 17 1021 77 10000 6.7 330 11:21 25.08.2019
3058 Clouds 16 1021 82 10000 6.2 350 10:57 25.08.2019
3059 Clouds 16 1021 82 10000 6.2 350 10:39 25.08.2019
3060 Clouds 16 1021 82 10000 6.2 350 10:19 25.08.2019
3061 Clouds 15 1021 82 10000 4.6 340 09:44 25.08.2019
3062 Clouds 14 1021 82 10000 4.6 340 09:24 25.08.2019
3063 Clouds 14 1020 87 10000 3.6 50 08:48 25.08.2019
3064 Clouds 14 1020 87 10000 3.6 50 08:29 25.08.2019
3065 Clouds 14 1020 82 10000 5.1 50 07:55 25.08.2019
3066 Clouds 14 1020 82 10000 5.1 50 07:34 25.08.2019
3067 Clouds 13 1019 93 10000 4.6 30 06:40 25.08.2019
3068 Clouds 13 1019 93 10000 4.1 30 05:35 25.08.2019
3069 Clouds 13 1019 93 10000 3.6 40 04:23 25.08.2019
3070 Clouds 14 1020 93 10000 2.6 30 02:55 25.08.2019
3071 Clouds 14 1020 93 10000 2.6 30 02:36 25.08.2019
3072 Clouds 14 1020 93 10000 2.1 340 01:18 25.08.2019
3073 Clouds 14 1019 87 10000 6.2 340 00:37 25.08.2019
3074 Clouds 14 1019 87 10000 6.2 340 00:18 25.08.2019
3075 Clear 14 1019 87 10000 5.7 330 23:45 24.08.2019
3076 Clear 14 1019 87 10000 5.7 330 23:22 24.08.2019
3077 Clouds 14 1019 93 10000 8.2 340 22:55 24.08.2019
3078 Clouds 14 1019 93 10000 8.2 340 22:36 24.08.2019
3079 Clouds 15 1019 93 10000 8.2 340 22:18 24.08.2019
3080 Clouds 15 1019 93 8000 7.7 340 21:55 24.08.2019
3081 Clouds 15 1019 93 8000 7.7 340 21:36 24.08.2019
3082 Clouds 15 1018 93 10000 7.7 330 21:18 24.08.2019
3083 Clouds 15 1018 93 10000 7.7 330 20:41 24.08.2019
3084 Clouds 15 1018 100 8000 7.7 330 20:20 24.08.2019
3085 Clouds 15 1018 100 8000 7.7 330 19:59 24.08.2019
3086 Clouds 15 1018 100 8000 7.7 330 19:40 24.08.2019
3087 Clouds 15 1018 100 8000 7.7 330 19:22 24.08.2019
3088 Clear 17 1017 68 10000 6.7 330 18:57 24.08.2019
3089 Clear 17 1017 68 10000 6.7 330 18:37 24.08.2019
3090 Clear 18 1017 68 10000 6.7 330 18:19 24.08.2019
3091 Clear 20 1017 32 10000 8.2 330 17:43 24.08.2019
3092 Clear 20 1017 32 10000 8.2 330 17:24 24.08.2019
3093 Clear 21 1017 28 10000 7.7 320 16:44 24.08.2019
3094 Clear 21 1017 28 10000 7.7 320 16:20 24.08.2019
3095 Clear 21 1018 35 10000 6.7 330 15:58 24.08.2019
3096 Clear 21 1018 35 10000 6.7 330 15:40 24.08.2019
3097 Clear 22 1018 40 10000 5.1 330 15:21 24.08.2019
3098 Clear 22 1018 40 10000 5.1 330 14:42 24.08.2019
3099 Clear 22 1020 33 10000 4.6 330 14:22 24.08.2019
3100 Clear 22 1020 33 10000 4.6 330 13:56 24.08.2019
3101 Clear 22 1020 33 10000 4.6 330 13:37 24.08.2019
3102 Clear 23 1020 33 10000 4.6 330 13:18 24.08.2019
3103 Clear 23 1020 37 10000 4.6 320 12:42 24.08.2019
3104 Clear 22 1020 37 10000 4.6 320 12:24 24.08.2019
3105 Clear 21 1021 56 10000 3.6 330 11:57 24.08.2019
3106 Clear 21 1021 56 10000 3.6 330 11:39 24.08.2019
3107 Clear 20 1021 56 10000 3.6 330 11:20 24.08.2019
3108 Clear 20 1021 40 10000 4.6 340 10:44 24.08.2019
3109 Clear 19 1021 40 10000 4.6 340 10:23 24.08.2019
3110 Clear 17 1021 42 10000 2.6 20 09:44 24.08.2019
3111 Clear 17 1021 42 10000 2.6 20 09:21 24.08.2019
3112 Clear 16 1021 48 10000 3.1 10 08:58 24.08.2019
3113 Clear 14 1020 66 10000 4.6 10 08:39 24.08.2019
3114 Clear 11 1020 66 10000 4.6 10 08:21 24.08.2019
3115 Clear 9 1020 66 10000 2.6 360 07:47 24.08.2019
3116 Clear 9 1020 66 10000 2.6 360 07:26 24.08.2019
3117 Clear 11 1020 75 10000 2.1 10 06:28 24.08.2019
3118 Clear 11 1020 76 10000 2.1 20 05:41 24.08.2019
3119 Clear 10 1020 70 10000 2.6 10 04:36 24.08.2019
3120 Clear 10 1021 75 10000 3.1 30 03:36 24.08.2019
3121 Clear 12 1021 76 10000 2.1 30 02:26 24.08.2019
3122 Clear 12 1021 76 10000 1 0 01:31 24.08.2019
3123 Clear 11 1021 81 8000 2.1 50 00:53 24.08.2019
3124 Clear 13 1021 81 8000 2.1 50 00:26 24.08.2019
3125 Fog 11 1022 93 4500 1 130 23:59 23.08.2019
3126 Fog 11 1022 93 4500 1 130 23:39 23.08.2019
3127 Fog 13 1022 93 4500 1 130 23:19 23.08.2019
3128 Clear 14 1022 87 9000 1 80 22:42 23.08.2019
3129 Clear 14 1022 87 9000 1 80 22:24 23.08.2019
3130 Clear 16 1022 82 8000 1 70 21:41 23.08.2019
3131 Clear 16 1022 82 8000 1 70 21:23 23.08.2019
3132 Clear 15 1022 82 10000 1.5 130 20:59 23.08.2019
3133 Clear 15 1022 82 10000 1.5 130 20:40 23.08.2019
3134 Clear 15 1022 82 10000 1.5 130 20:21 23.08.2019
3135 Clear 15 1021 77 10000 2.6 170 19:44 23.08.2019
3136 Clear 16 1021 77 10000 2.6 170 19:19 23.08.2019
3137 Clear 19 1021 59 10000 2.1 150 18:49 23.08.2019
3138 Clear 19 1021 59 10000 2.1 150 18:31 23.08.2019
3139 Clear 21 1021 40 10000 2.6 180 17:58 23.08.2019
3140 Clear 21 1021 40 10000 2.6 180 17:39 23.08.2019
3141 Clear 21 1021 33 10000 2.6 180 17:20 23.08.2019
3142 Clear 22 1021 33 10000 2.6 180 16:48 23.08.2019
3143 Clear 22 1021 33 10000 2.6 180 16:29 23.08.2019
3144 Clear 22 1021 36 10000 2.1 190 15:58 23.08.2019
3145 Clear 22 1021 36 10000 2.1 190 15:38 23.08.2019
3146 Clear 22 1021 36 10000 2.1 190 15:20 23.08.2019
3147 Clear 23 1022 40 10000 2.6 200 14:43 23.08.2019
3148 Clear 22 1022 40 10000 2.6 200 14:21 23.08.2019
3149 Clear 21 1023 52 10000 3.1 180 13:58 23.08.2019
3150 Clear 22 1023 52 10000 3.1 180 13:58 23.08.2019
3151 Clear 21 1023 52 10000 3.1 180 13:40 23.08.2019
3152 Clear 21 1023 52 10000 3.1 180 13:22 23.08.2019
3153 Clear 21 1023 63 10000 2.1 200 12:58 23.08.2019
3154 Clear 19 1023 63 10000 2.1 200 12:40 23.08.2019
3155 Clear 20 1023 63 10000 2.1 200 12:21 23.08.2019
3156 Clear 19 1024 72 10000 3.6 210 11:56 23.08.2019
3157 Clear 19 1024 72 10000 3.6 210 11:38 23.08.2019
3158 Clear 17 1024 87 10000 3.1 210 11:18 23.08.2019
3159 Clear 18 1024 72 10000 3.6 210 11:18 23.08.2019
3160 Clear 17 1024 87 10000 3.1 210 10:45 23.08.2019
3161 Clear 15 1024 93 6000 3.1 210 10:23 23.08.2019
3162 Clear 15 1024 93 6000 3.1 210 09:58 23.08.2019
3163 Clear 14 1024 93 6000 3.1 210 09:40 23.08.2019
3164 Clear 14 1024 93 6000 3.1 210 09:20 23.08.2019
3165 Fog 13 1024 100 2500 1.5 0 08:44 23.08.2019
3166 Fog 12 1024 93 100 1.5 0 08:20 23.08.2019
3167 Fog 11 1024 93 100 1.5 0 07:44 23.08.2019
3168 Fog 12 1024 93 100 1.5 0 07:24 23.08.2019
3169 Fog 11 1023 100 100 0.5 0 06:59 23.08.2019
3170 Fog 11 1023 100 100 1.5 100 06:40 23.08.2019
3171 Fog 12 1023 100 100 1.5 100 06:21 23.08.2019
3172 Fog 11 1022 93 100 1.5 0 05:43 23.08.2019
3173 Fog 12 1022 93 300 1 0 05:23 23.08.2019
3174 Clear 13 1023 93 10000 3.1 210 03:36 23.08.2019
3175 Clear 13 1023 93 10000 3.1 210 02:37 23.08.2019
3176 Clear 13 1023 93 10000 3.1 210 02:18 23.08.2019
3177 Clear 14 1023 93 10000 5.1 220 00:46 23.08.2019
3178 Clear 14 1023 93 10000 5.1 220 00:23 23.08.2019
3179 Clear 14 1023 93 10000 5.1 210 23:59 22.08.2019
3180 Clear 14 1023 93 10000 5.1 210 23:40 22.08.2019
3181 Clear 14 1023 93 10000 5.1 210 23:20 22.08.2019
3182 Clouds 14 1022 92 0 1.34 158 22:42 22.08.2019
3183 Clear 14 1023 93 10000 4.1 200 22:23 22.08.2019
3184 Clear 14 1023 93 10000 4.1 200 21:58 22.08.2019
3185 Clear 14 1023 93 10000 4.1 200 21:40 22.08.2019
3186 Clear 15 1023 93 10000 4.1 200 21:21 22.08.2019
3187 Clear 15 1023 87 10000 4.6 180 20:58 22.08.2019
3188 Clear 15 1023 87 10000 4.6 180 20:39 22.08.2019
3189 Clear 15 1023 87 10000 4.6 180 20:20 22.08.2019
3190 Clear 15 1023 87 10000 4.1 180 19:56 22.08.2019
3191 Clear 16 1023 87 10000 4.1 180 19:38 22.08.2019
3192 Clear 16 1023 87 10000 4.1 180 19:38 22.08.2019
3193 Clear 16 1023 87 10000 4.1 180 19:20 22.08.2019
3194 Clear 17 1023 82 10000 5.1 180 18:57 22.08.2019
3195 Clear 17 1023 82 10000 5.1 180 18:39 22.08.2019
3196 Clear 17 1023 82 10000 5.1 180 18:18 22.08.2019
3197 Clear 18 1022 77 10000 4.1 170 17:43 22.08.2019
3198 Clear 19 1022 77 10000 4.1 170 17:24 22.08.2019
3199 Clear 19 1021 72 10000 4.6 170 16:59 22.08.2019
3200 Clear 19 1021 72 10000 4.6 170 16:40 22.08.2019
3201 Clear 19 1021 72 10000 4.6 170 16:22 22.08.2019
3202 Clear 19 1021 72 10000 4.6 170 16:22 22.08.2019
3203 Clear 19 1022 72 10000 5.1 170 16:22 22.08.2019
3204 Clear 19 1021 72 10000 4.6 170 16:22 22.08.2019
3205 Clear 19 1022 72 10000 5.1 170 16:00 22.08.2019
3206 Clear 19 1022 72 10000 5.1 170 15:40 22.08.2019
3207 Clear 19 1022 72 10000 5.1 170 15:40 22.08.2019
3208 Clear 20 1022 72 10000 5.1 170 15:22 22.08.2019
3209 Clear 20 1022 72 10000 5.1 170 15:21 22.08.2019
3210 Clear 20 1021 68 10000 4.1 180 14:57 22.08.2019
3211 Clear 21 1021 68 10000 4.1 180 14:39 22.08.2019
3212 Clear 21 1021 68 10000 4.1 180 14:18 22.08.2019
3213 Clear 20 1021 72 10000 3.6 180 13:56 22.08.2019
3214 Clear 20 1021 72 10000 3.6 180 13:37 22.08.2019
3215 Clear 20 1021 72 10000 3.6 180 13:18 22.08.2019
3216 Clouds 20 1022 72 0 3.58 170 12:40 22.08.2019
3217 Clouds 20 1022 82 10000 3.1 140 12:22 22.08.2019
3218 Clouds 19 1023 77 10000 4.1 160 11:57 22.08.2019
3219 Clouds 19 1023 77 10000 4.1 160 11:39 22.08.2019
3220 Clouds 19 1023 77 10000 4.1 160 11:19 22.08.2019
3221 Clear 19 1022 45 10000 3.1 180 10:57 22.08.2019
3222 Clear 19 1022 45 10000 3.1 180 10:37 22.08.2019
3223 Clear 19 1022 45 10000 3.1 180 10:19 22.08.2019
3224 Clear 18 1021 55 10000 1.5 0 09:54 22.08.2019
3225 Clear 17 1021 58 10000 1.5 0 09:36 22.08.2019
3226 Clear 15 1021 62 10000 0.5 0 09:18 22.08.2019
3227 Clear 12 1021 71 10000 2.1 40 08:41 22.08.2019
3228 Clear 10 1021 71 10000 2.1 40 08:21 22.08.2019
3229 Clear 11 1021 76 10000 1.5 70 07:56 22.08.2019
3230 Clear 11 1021 76 10000 1.5 70 07:38 22.08.2019
3231 Clear 11 1020 75 10000 3.1 50 07:18 22.08.2019
3232 Clear 12 1020 75 10000 3.1 50 06:45 22.08.2019
3233 Clear 11 1020 75 10000 3.1 50 06:21 22.08.2019
3234 Clear 10 1020 70 10000 1 40 05:26 22.08.2019
3235 Clear 12 1020 76 10000 1 110 03:22 22.08.2019
3236 Clear 12 1020 76 10000 1 110 02:36 22.08.2019
3237 Clear 13 1020 81 10000 1.5 60 01:36 22.08.2019
3238 Clear 13 1020 76 10000 1.5 100 00:52 22.08.2019
3239 Clear 13 1020 76 10000 1.5 100 00:30 22.08.2019
3240 Clear 13 1020 76 10000 0.5 60 23:59 21.08.2019
3241 Clear 13 1020 76 10000 0.5 60 23:40 21.08.2019
3242 Clear 13 1020 76 10000 0.5 60 23:21 21.08.2019
3243 Clear 14 1020 76 10000 0.5 0 22:58 21.08.2019
3244 Clear 14 1020 76 10000 0.5 0 22:39 21.08.2019
3245 Clear 14 1020 76 10000 0.5 0 22:20 21.08.2019
3246 Clear 15 1020 71 10000 0.5 0 21:56 21.08.2019
3247 Clear 15 1020 71 10000 0.5 0 21:37 21.08.2019
3248 Clear 16 1020 71 10000 0.5 0 21:19 21.08.2019
3249 -273 0 0 0 0 0 20:55 21.08.2019
3250 Clear 16 1021 58 10000 1.5 130 20:37 21.08.2019
3251 Clear 16 1021 58 10000 1.5 130 20:19 21.08.2019
3252 Clear 16 1021 51 10000 3.1 160 19:42 21.08.2019
3253 Clear 16 1021 51 10000 3.1 160 19:23 21.08.2019
3254 Clear 18 1020 42 10000 3.6 150 18:57 21.08.2019
3255 Clear 18 1020 42 10000 3.6 150 18:38 21.08.2019
3256 Clear 20 1020 37 10000 3.1 170 18:20 21.08.2019
3257 Clear 22 1020 37 10000 3.1 170 17:44 21.08.2019
3258 Clear 23 1020 38 10000 3.6 160 17:22 21.08.2019
3259 Clear 23 1020 38 10000 3.6 160 16:58 21.08.2019
3260 Clear 22 1020 38 10000 3.6 160 16:39 21.08.2019
3261 Clear 24 1020 38 10000 3.6 160 16:20 21.08.2019
3262 Clear 26 1020 34 10000 3.6 180 15:56 21.08.2019
3263 Clear 27 1020 34 10000 3.6 180 15:38 21.08.2019
3264 Clear 27 1020 34 10000 3.6 180 15:19 21.08.2019
3265 Clear 26 1021 20 10000 1.5 0 15:19 21.08.2019
3266 Clear 26 1021 20 10000 1.5 0 15:19 21.08.2019
3267 Clear 26 1021 20 10000 1.5 0 14:55 21.08.2019
3268 Clear 27 1021 20 10000 1.5 0 14:37 21.08.2019
3269 Clear 27 1021 20 10000 1.5 0 14:18 21.08.2019
3270 Clear 28 1022 24 10000 2.6 320 13:43 21.08.2019
3271 Clear 27 1022 24 10000 2.6 320 13:20 21.08.2019
3272 Clear 26 1022 23 10000 3.1 10 12:58 21.08.2019
3273 Clear 25 1023 26 10000 3.1 20 12:40 21.08.2019
3274 Clear 25 1023 26 10000 3.1 20 12:40 21.08.2019
3275 Clear 26 1023 26 10000 3.1 20 12:20 21.08.2019
3276 Clear 24 1023 29 10000 3.1 30 11:54 21.08.2019
3277 Clear 23 1023 43 10000 1 0 11:36 21.08.2019
3278 Clear 22 1023 43 10000 1 0 11:18 21.08.2019
3279 Clear 21 1024 46 10000 0.5 0 10:55 21.08.2019
3280 Clear 20 1024 55 10000 1 0 10:37 21.08.2019
3281 Clear 17 1024 77 10000 1.5 0 10:18 21.08.2019
3282 Clear 16 1024 87 10000 1 80 09:41 21.08.2019
3283 Clear 14 1024 93 10000 1.5 90 09:22 21.08.2019
3284 Clear 12 1024 93 10000 1.5 90 08:55 21.08.2019
3285 Clear 11 1024 93 10000 1.5 0 08:37 21.08.2019
3286 Clear 10 1024 100 6000 1.5 80 08:18 21.08.2019
3287 Clear 10 1024 100 6000 1.5 80 07:38 21.08.2019
3288 Fog 9 1024 100 700 0.5 0 07:19 21.08.2019
3289 Fog 9 1024 100 700 0.5 0 06:46 21.08.2019
3290 Fog 10 1024 100 700 0.5 0 06:20 21.08.2019
3291 Fog 10 1024 93 600 1 80 05:30 21.08.2019
3292 Fog 11 1024 93 5000 1 0 04:58 21.08.2019
3293 Clear 12 1026 93 10000 1 0 02:45 21.08.2019
3294 Clear 12 1026 93 10000 4.1 230 01:42 21.08.2019
3295 Clear 13 1026 82 10000 5.1 230 00:43 21.08.2019
3296 Clear 13 1027 71 10000 6.7 200 00:22 21.08.2019
3297 Clear 13 1027 71 10000 6.7 200 23:55 20.08.2019
3298 Clear 13 1027 71 10000 6.7 200 23:36 20.08.2019
3299 Clear 14 1027 71 10000 6.7 200 23:18 20.08.2019
3300 Clear 14 1027 82 10000 6.2 230 22:54 20.08.2019
3301 Clear 14 1027 82 10000 6.2 230 22:36 20.08.2019
3302 Clear 14 1027 82 10000 6.2 230 22:18 20.08.2019
3303 Clear 14 1027 87 10000 6.2 230 21:56 20.08.2019
3304 Clear 14 1027 87 10000 6.2 230 21:37 20.08.2019
3305 Clear 14 1027 87 10000 6.2 230 21:18 20.08.2019
3306 Clear 14 1027 82 10000 5.7 230 20:42 20.08.2019
3307 Clear 14 1027 82 10000 5.7 230 20:23 20.08.2019
3308 Clear 15 1027 82 10000 5.1 220 19:42 20.08.2019
3309 Clear 15 1027 82 10000 5.1 220 19:23 20.08.2019
3310 Clear 15 1027 77 10000 6.7 220 18:59 20.08.2019
3311 Clear 15 1027 77 10000 6.7 220 18:41 20.08.2019
3312 Clear 16 1027 72 10000 7.2 200 18:20 20.08.2019
3313 Clear 16 1027 72 10000 7.2 200 17:59 20.08.2019
3314 Clear 16 1027 72 10000 7.2 200 17:39 20.08.2019
3315 Clear 17 1027 72 10000 7.2 200 17:20 20.08.2019
3316 Clear 17 1028 67 10000 7.7 200 16:47 20.08.2019
3317 Clear 17 1028 67 10000 7.7 200 16:28 20.08.2019
3318 Clear 18 1028 63 10000 10.3 190 15:59 20.08.2019
3319 Clear 18 1028 63 10000 10.3 190 15:40 20.08.2019
3320 Clear 19 1029 59 10000 8.7 190 15:18 20.08.2019
3321 Clear 19 1029 59 10000 8.7 190 14:44 20.08.2019
3322 Clear 19 1029 59 10000 8.7 190 14:22 20.08.2019
3323 Clear 19 1029 59 10000 8.7 190 14:22 20.08.2019
3324 Clear 19 1029 59 10000 8.2 190 13:59 20.08.2019
3325 Clear 18 1029 59 10000 8.2 190 13:40 20.08.2019
3326 Clear 19 1029 59 10000 8.2 190 13:21 20.08.2019
3327 Clear 19 1030 52 10000 6.7 200 12:55 20.08.2019
3328 Clear 18 1030 52 10000 6.7 200 12:37 20.08.2019
3329 Clear 18 1030 55 10000 4.1 220 12:18 20.08.2019
3330 Clear 18 1030 55 10000 4.1 220 11:42 20.08.2019
3331 Clear 18 1030 55 10000 4.1 220 11:22 20.08.2019
3332 Clear 17 1030 63 10000 2.6 190 10:58 20.08.2019
3333 Clear 17 1030 63 10000 2.6 190 10:40 20.08.2019
3334 Clear 16 1030 63 10000 2.6 190 10:22 20.08.2019
3335 Clear 15 1030 76 10000 1.5 0 09:59 20.08.2019
3336 Clear 15 1030 76 10000 1.5 0 09:40 20.08.2019
3337 Clear 14 1030 76 10000 1.5 0 09:21 20.08.2019
3338 Clear 13 1030 87 10000 2.1 160 08:42 20.08.2019
3339 Clear 12 1030 87 10000 2.1 160 08:24 20.08.2019
3340 Clear 13 1029 81 10000 4.1 220 07:58 20.08.2019
3341 Clear 12 1029 81 10000 4.1 220 07:39 20.08.2019
3342 Clear 13 1030 81 10000 3.6 220 07:20 20.08.2019
3343 Clear 13 1030 81 10000 3.6 220 06:46 20.08.2019
3344 Clear 13 1030 81 10000 3.6 220 06:46 20.08.2019
3345 Clear 13 1030 76 10000 5.1 190 06:21 20.08.2019
3346 Clear 13 1030 76 10000 5.1 190 05:47 20.08.2019
3347 Clear 13 1030 76 10000 6.7 190 04:30 20.08.2019
3348 Clear 13 1031 76 10000 5.7 200 02:51 20.08.2019
3349 Clear 13 1031 76 10000 5.7 200 02:18 20.08.2019
3350 Clear 13 1031 87 10000 4.1 220 01:21 20.08.2019
3351 Clear 13 1031 82 10000 4.6 200 00:45 20.08.2019
3352 Clear 13 1031 82 10000 4.6 200 00:25 20.08.2019
3353 Clear 13 1031 87 10000 4.6 210 23:50 19.08.2019
3354 Clear 13 1031 87 10000 4.6 210 23:19 19.08.2019
3355 Clear 13 1031 82 10000 3.6 180 22:59 19.08.2019
3356 Clear 13 1031 82 10000 3.6 180 22:41 19.08.2019
3357 Clear 13 1031 76 10000 3.6 180 22:21 19.08.2019
3358 Clear 13 1031 76 10000 3.6 180 21:58 19.08.2019
3359 Clear 13 1031 76 10000 3.6 180 21:39 19.08.2019
3360 Clear 13 1031 76 10000 3.6 180 21:39 19.08.2019
3361 Clear 13 1031 76 10000 3.6 180 21:20 19.08.2019
3362 Clear 13 1031 76 10000 5.7 180 20:57 19.08.2019
3363 Clear 13 1031 76 10000 5.7 180 20:38 19.08.2019
3364 Clear 14 1031 76 10000 5.7 180 20:19 19.08.2019
3365 Clear 14 1031 67 10000 5.7 190 19:55 19.08.2019
3366 Clear 14 1031 67 10000 5.7 190 19:36 19.08.2019
3367 Clouds 15 1030 58 10000 6.7 180 19:18 19.08.2019
3368 Clouds 15 1030 58 10000 6.7 180 18:42 19.08.2019
3369 Clouds 15 1030 58 10000 6.7 180 18:24 19.08.2019
3370 Clouds 16 1030 51 10000 5.7 190 17:58 19.08.2019
3371 Clouds 17 1030 51 10000 5.7 190 17:40 19.08.2019
3372 Clouds 17 1030 51 10000 5.7 190 17:19 19.08.2019
3373 Clouds 17 1030 51 10000 6.7 170 16:56 19.08.2019
3374 Clouds 17 1030 51 10000 6.7 170 16:37 19.08.2019
3375 Clouds 17 1030 45 10000 5.7 170 16:18 19.08.2019
3376 Clouds 18 1030 45 10000 5.7 170 15:45 19.08.2019
3377 Clouds 18 1030 45 10000 3.6 160 15:20 19.08.2019
3378 Clouds 18 1030 45 10000 3.6 160 14:57 19.08.2019
3379 Clouds 18 1030 45 10000 3.6 160 14:37 19.08.2019
3380 Clouds 17 1030 51 10000 3.6 160 14:19 19.08.2019
3381 Clouds 17 1030 51 10000 3.6 160 13:56 19.08.2019
3382 Clouds 17 1030 51 10000 3.6 160 13:36 19.08.2019
3383 Clouds 17 1030 51 10000 3.6 160 13:18 19.08.2019
3384 Clouds 18 1031 48 10000 4.1 210 12:43 19.08.2019
3385 Clouds 18 1031 48 10000 4.1 210 12:43 19.08.2019
3386 Clouds 17 1031 48 10000 4.1 210 12:23 19.08.2019
3387 Clouds 17 1031 51 10000 4.6 180 11:57 19.08.2019
3388 Clouds 17 1031 51 10000 4.6 180 11:37 19.08.2019
3389 Clouds 17 1030 55 10000 3.1 190 11:18 19.08.2019
3390 Clouds 17 1030 55 10000 3.1 190 10:40 19.08.2019
3391 Clouds 17 1030 55 10000 3.1 190 10:40 19.08.2019
3392 Clouds 16 1030 55 10000 3.1 190 10:19 19.08.2019
3393 Clouds 17 1030 55 10000 1.5 0 09:59 19.08.2019
3394 Clouds 16 1029 71 10000 0.5 0 09:41 19.08.2019
3395 Clouds 15 1029 71 10000 0.5 0 09:21 19.08.2019
3396 Clouds 13 1029 81 10000 0.5 0 08:54 19.08.2019
3397 Clouds 12 1028 81 10000 1 0 08:36 19.08.2019
3398 Clouds 11 1028 81 10000 1 0 08:18 19.08.2019
3399 Clouds 12 1028 66 10000 2.1 220 07:42 19.08.2019
3400 Clouds 12 1028 66 10000 2.1 220 07:23 19.08.2019
3401 Clouds 12 1027 81 10000 1 60 06:43 19.08.2019
3402 Clouds 12 1027 81 10000 1 60 06:18 19.08.2019
3403 Clouds 13 1027 71 10000 4.1 220 04:46 19.08.2019
3404 Clouds 13 1027 71 10000 4.1 220 04:22 19.08.2019
3405 Clouds 13 1026 76 10000 3.1 220 03:20 19.08.2019
3406 Clouds 14 1025 93 10000 1.5 0 01:47 19.08.2019
3407 Clouds 14 1025 93 10000 1.5 0 01:21 19.08.2019
3408 Clouds 14 1024 87 10000 2.1 10 00:43 19.08.2019
3409 Clouds 14 1024 87 10000 2.1 10 00:20 19.08.2019
3410 Clouds 14 1024 82 10000 0.5 0 23:41 18.08.2019
3411 Clouds 14 1023 87 10000 0.5 0 23:21 18.08.2019
3412 Clouds 14 1023 87 10000 0.5 0 22:40 18.08.2019
3413 Clouds 14 1023 87 10000 0.5 0 22:22 18.08.2019
3414 Clouds 15 1022 77 10000 1 0 21:58 18.08.2019
3415 Clouds 15 1022 77 10000 1 0 21:40 18.08.2019
3416 Clouds 15 1022 77 10000 1 0 21:21 18.08.2019
3417 Clouds 15 1022 77 10000 1 0 21:21 18.08.2019
3418 Clouds 15 1022 77 10000 1 0 20:59 18.08.2019
3419 Clouds 15 1022 77 10000 1 0 20:41 18.08.2019
3420 Clouds 15 1022 77 10000 1 0 20:23 18.08.2019
3421 Clouds 16 1021 72 10000 5.1 220 19:43 18.08.2019
3422 Clouds 16 1021 72 10000 5.1 220 19:25 18.08.2019
3423 Clouds 17 1020 67 10000 4.1 230 18:59 18.08.2019
3424 Clouds 17 1020 67 10000 4.1 230 18:40 18.08.2019
3425 Clouds 17 1020 67 10000 4.1 230 18:22 18.08.2019
3426 Clouds 18 1019 68 10000 4.6 240 17:55 18.08.2019
3427 Clouds 18 1019 68 10000 4.6 240 17:37 18.08.2019
3428 Clouds 18 1019 68 10000 4.6 240 17:18 18.08.2019
3429 Clouds 18 1019 77 10000 4.6 310 16:55 18.08.2019
3430 Clouds 18 1019 77 10000 4.6 310 16:37 18.08.2019
3431 Clouds 18 1019 77 10000 4.6 310 16:18 18.08.2019
3432 Clouds 18 1018 72 10000 6.2 310 15:40 18.08.2019
3433 Clouds 19 1018 72 10000 6.2 310 15:20 18.08.2019
3434 Clouds 19 1018 72 10000 6.2 310 14:59 18.08.2019
3435 Clouds 19 1018 72 10000 6.2 310 14:40 18.08.2019
3436 Clouds 19 1018 72 10000 6.2 310 14:20 18.08.2019
3437 Clouds 19 1018 72 10000 6.2 320 13:58 18.08.2019
3438 Clouds 18 1018 72 10000 6.2 320 13:40 18.08.2019
3439 Clouds 18 1017 77 10000 6.7 320 13:21 18.08.2019
3440 Clouds 18 1017 77 10000 6.7 320 12:54 18.08.2019
3441 Clouds 18 1017 77 10000 6.7 320 12:36 18.08.2019
3442 Clouds 18 1017 77 10000 6.7 320 12:18 18.08.2019
3443 Clouds 18 1017 77 10000 6.7 320 12:18 18.08.2019
3444 Clouds 17 1017 82 10000 6.7 330 11:41 18.08.2019
3445 Clouds 16 1017 82 10000 6.7 340 11:22 18.08.2019
3446 Clouds 16 1017 82 10000 6.7 340 10:56 18.08.2019
3447 Clouds 16 1017 82 10000 6.7 340 10:38 18.08.2019
3448 Clouds 16 1017 82 10000 6.7 340 10:18 18.08.2019
3449 Clouds 15 1016 82 10000 6.2 350 09:42 18.08.2019
3450 Clear 16 1015 72 10000 5.1 10 09:19 18.08.2019
3451 Clear 14 1015 76 10000 5.1 360 08:43 18.08.2019
3452 Clear 14 1015 76 10000 5.1 360 08:25 18.08.2019
3453 Clear 13 1014 71 10000 2.1 20 07:53 18.08.2019
3454 Clear 13 1014 71 10000 2.1 20 07:29 18.08.2019
3455 Clear 14 1013 67 10000 2.6 40 06:32 18.08.2019
3456 Clear 13 1013 71 10000 1 0 05:42 18.08.2019
3457 Clear 10 1014 93 10000 2.1 80 03:51 18.08.2019
3458 Clear 11 1014 87 10000 2.1 60 02:52 18.08.2019
3459 Clear 11 1014 87 10000 2.1 60 02:34 18.08.2019
3460 Clear 11 1014 87 10000 0.5 0 01:57 18.08.2019
3461 Clear 11 1014 87 10000 0.5 0 01:26 18.08.2019
3462 Clear 12 1015 87 10000 1 140 00:42 18.08.2019
3463 Clear 12 1015 87 10000 1 140 00:22 18.08.2019
3464 Clear 12 1015 87 10000 0.5 0 23:58 17.08.2019
3465 Clear 12 1015 87 10000 0.5 0 23:38 17.08.2019
3466 Clear 12 1015 87 10000 0.5 0 23:38 17.08.2019
3467 Clear 12 1015 87 10000 0.5 0 23:19 17.08.2019
3468 Clear 14 1015 82 10000 1 0 22:57 17.08.2019
3469 Clear 14 1015 82 10000 1 0 22:39 17.08.2019
3470 Clear 14 1015 82 10000 1 0 22:20 17.08.2019
3471 Clear 14 1015 82 10000 1 0 22:20 17.08.2019
3472 Clear 16 1016 77 10000 2.1 210 21:54 17.08.2019
3473 Clear 16 1016 77 10000 2.1 210 21:36 17.08.2019
3474 Clear 16 1016 77 10000 2.1 210 21:18 17.08.2019
3475 Clear 16 1016 77 10000 3.1 200 20:38 17.08.2019
3476 Clear 17 1016 77 10000 3.1 200 20:19 17.08.2019
3477 Clear 17 1016 77 10000 3.6 220 19:44 17.08.2019
3478 Clear 17 1016 77 10000 3.6 220 19:24 17.08.2019
3479 Clear 19 1016 77 10000 3.6 230 18:59 17.08.2019
3480 Clear 18 1016 77 10000 3.6 230 18:39 17.08.2019
3481 Clear 20 1017 60 10000 4.1 230 18:18 17.08.2019
3482 Clear 21 1017 60 10000 4.1 230 17:55 17.08.2019
3483 Clear 21 1017 60 10000 4.1 230 17:37 17.08.2019
3484 Clear 22 1017 60 10000 4.1 230 17:18 17.08.2019
3485 Clear 22 1017 49 10000 4.1 210 16:43 17.08.2019
3486 Clear 22 1017 49 10000 4.1 210 16:25 17.08.2019
3487 Clear 23 1017 38 10000 3.6 180 15:57 17.08.2019
3488 Clear 24 1017 38 10000 3.6 180 15:38 17.08.2019
3489 Clear 24 1017 38 10000 3.6 180 15:20 17.08.2019
3490 Clear 24 1017 38 10000 3.6 180 15:20 17.08.2019
3491 Clear 24 1018 38 10000 3.1 220 14:41 17.08.2019
3492 Clear 23 1018 38 10000 3.1 220 14:22 17.08.2019
3493 Clear 23 1019 40 10000 2.1 250 13:47 17.08.2019
3494 Clear 22 1020 45 10000 2.1 240 13:23 17.08.2019
3495 Clear 21 1020 45 10000 2.1 240 12:58 17.08.2019
3496 Clear 21 1020 45 10000 2.1 240 12:39 17.08.2019
3497 Clear 20 1020 49 10000 2.6 230 12:19 17.08.2019
3498 Clear 20 1020 55 10000 2.6 250 11:44 17.08.2019
3499 Clear 19 1021 55 10000 2.1 250 11:21 17.08.2019
3500 Clear 19 1021 55 10000 2.1 250 10:57 17.08.2019
3501 Clear 19 1021 55 10000 2.1 250 10:57 17.08.2019
3502 Clear 18 1021 67 10000 1.5 0 10:39 17.08.2019
3503 Clear 17 1021 67 10000 1.5 0 10:19 17.08.2019
3504 Clear 16 1021 82 10000 0.5 0 09:48 17.08.2019
3505 Clear 16 1021 82 10000 0.5 0 09:29 17.08.2019
3506 Clear 14 1021 87 10000 1 0 08:54 17.08.2019
3507 Clear 13 1021 87 10000 1 0 08:25 17.08.2019
3508 Clear 12 1021 93 10000 1 0 07:51 17.08.2019
3509 Clear 13 1021 87 10000 2.1 270 07:21 17.08.2019
3510 Clear 13 1021 87 10000 2.1 270 06:53 17.08.2019
3511 Clear 13 1021 93 10000 1 0 05:35 17.08.2019
3512 Clear 13 1021 76 10000 3.1 170 04:29 17.08.2019
3513 Clear 14 1022 76 10000 2.1 150 03:33 17.08.2019
3514 Clear 15 1023 67 10000 7.2 150 01:48 17.08.2019
3515 Clear 15 1023 67 10000 7.2 150 01:28 17.08.2019
3516 Clear 16 1023 63 10000 10.3 160 00:55 17.08.2019
3517 Clear 16 1023 63 10000 10.3 160 00:31 17.08.2019
3518 Clear 16 1024 67 10000 10.8 160 23:52 16.08.2019
3519 Clear 16 1024 67 10000 10.8 160 23:27 16.08.2019
3520 Clear 16 1024 67 10000 10.3 180 22:57 16.08.2019
3521 Clear 16 1024 67 10000 10.3 180 22:39 16.08.2019
3522 Clear 15 1024 77 10000 8.2 180 22:19 16.08.2019
3523 Clear 16 1024 67 10000 10.3 180 22:19 16.08.2019
3524 Clear 15 1024 77 10000 8.2 180 21:41 16.08.2019
3525 Clear 16 1025 77 10000 9.3 180 21:20 16.08.2019
3526 Clear 16 1025 77 10000 9.3 180 20:56 16.08.2019
3527 Clear 16 1025 77 10000 9.3 180 20:38 16.08.2019
3528 Clear 16 1025 77 10000 9.3 180 20:19 16.08.2019
3529 Clouds 16 1025 72 10000 9.3 180 19:44 16.08.2019
3530 Clouds 16 1025 72 10000 9.3 180 19:23 16.08.2019
3531 Clouds 16 1024 67 10000 9.3 190 18:55 16.08.2019
3532 Clouds 17 1024 67 10000 9.3 190 18:36 16.08.2019
3533 Clouds 17 1024 67 10000 9.3 190 18:18 16.08.2019
3534 Clouds 18 1025 63 10000 9.3 180 17:44 16.08.2019
3535 Clouds 18 1025 63 10000 9.3 180 17:25 16.08.2019
3536 Clouds 18 1025 63 10000 9.8 180 16:56 16.08.2019
3537 Clouds 18 1025 63 10000 9.8 180 16:38 16.08.2019
3538 Clouds 18 1025 63 10000 9.8 180 16:18 16.08.2019
3539 Clouds 19 1025 59 10000 9.3 170 15:41 16.08.2019
3540 Clouds 19 1025 63 10000 9.3 180 15:22 16.08.2019
3541 Clouds 19 1025 63 10000 9.3 180 14:58 16.08.2019
3542 Clouds 19 1025 63 10000 9.3 180 14:40 16.08.2019
3543 Clouds 19 1025 63 10000 9.3 180 14:19 16.08.2019
3544 Clouds 19 1026 63 10000 8.7 180 13:58 16.08.2019
3545 Clouds 19 1026 63 10000 8.7 180 13:38 16.08.2019
3546 Clouds 19 1026 63 10000 8.7 180 13:19 16.08.2019
3547 Clear 19 1026 68 10000 8.7 180 12:39 16.08.2019
3548 Clear 19 1026 68 10000 8.7 180 12:20 16.08.2019
3549 Clouds 18 1026 72 10000 7.2 180 11:43 16.08.2019
3550 Clouds 18 1026 72 10000 7.2 180 11:24 16.08.2019
3551 Clear 17 1026 77 10000 5.7 170 10:55 16.08.2019
3552 -273 0 0 0 0 0 10:55 16.08.2019
3553 Clear 17 1026 77 10000 5.7 170 10:36 16.08.2019
3554 Clear 16 1026 77 10000 5.7 170 10:18 16.08.2019
3555 Clouds 15 1026 77 10000 5.7 180 09:38 16.08.2019
3556 Clouds 15 1026 77 10000 5.7 180 09:19 16.08.2019
3557 Clouds 14 1025 82 10000 5.7 180 08:56 16.08.2019
3558 Clouds 13 1025 93 10000 4.1 190 08:38 16.08.2019
3559 Clouds 12 1025 93 10000 4.1 190 08:19 16.08.2019
3560 Clouds 12 1025 93 10000 4.6 180 07:44 16.08.2019
3561 Clouds 12 1025 93 10000 4.6 180 07:25 16.08.2019
3562 Clear 12 1024 87 10000 5.1 190 06:38 16.08.2019
3563 Clear 12 1024 93 10000 4.1 190 05:58 16.08.2019
3564 Clear 12 1024 93 10000 4.1 190 05:33 16.08.2019
3565 Clear 13 1024 87 10000 4.6 200 03:19 16.08.2019
3566 Clouds 13 1024 93 10000 7.2 200 01:50 16.08.2019
3567 Clouds 14 1024 93 10000 7.2 200 01:25 16.08.2019
3568 Clouds 14 1024 93 10000 6.7 200 00:48 16.08.2019
3569 Clouds 14 1024 93 10000 6.7 200 00:23 16.08.2019
3570 Clear 14 1024 93 10000 7.7 220 23:55 15.08.2019
3571 Clear 14 1024 93 10000 7.7 220 23:37 15.08.2019
3572 Clear 14 1024 87 10000 6.2 220 23:18 15.08.2019
3573 Clear 14 1024 87 10000 6.2 220 22:41 15.08.2019
3574 Clear 14 1024 87 10000 6.2 220 22:22 15.08.2019
3575 Clear 14 1025 87 10000 5.7 200 21:58 15.08.2019
3576 Clear 14 1025 87 10000 5.7 200 21:39 15.08.2019
3577 Clear 14 1024 87 10000 5.7 200 21:19 15.08.2019
3578 Clear 14 1024 87 10000 5.7 200 20:56 15.08.2019
3579 Clear 14 1024 87 10000 5.7 200 20:38 15.08.2019
3580 Clear 14 1024 87 10000 5.7 200 20:19 15.08.2019
3581 Clouds 14 1024 93 10000 5.7 200 19:39 15.08.2019
3582 Clouds 14 1024 93 10000 5.7 200 19:39 15.08.2019
3583 Clouds 15 1024 87 10000 6.2 190 19:21 15.08.2019
3584 Clouds 15 1024 87 10000 6.2 190 18:55 15.08.2019
3585 Clouds 16 1024 87 10000 6.2 190 18:37 15.08.2019
3586 Clouds 16 1024 87 10000 6.2 190 18:18 15.08.2019
3587 Clear 17 1024 72 10000 6.7 180 17:54 15.08.2019
3588 Clear 18 1024 72 10000 6.7 180 17:36 15.08.2019
3589 Clear 18 1024 72 10000 6.7 180 17:18 15.08.2019
3590 Clear 18 1025 72 10000 6.2 180 16:42 15.08.2019
3591 Clear 19 1025 72 10000 6.2 180 16:23 15.08.2019
3592 Clear 19 1025 63 10000 5.7 180 15:55 15.08.2019
3593 Clear 19 1025 63 10000 5.7 180 15:37 15.08.2019
3594 Clear 19 1025 59 10000 4.6 170 15:18 15.08.2019
3595 Clear 20 1025 59 10000 4.6 170 14:42 15.08.2019
3596 Clear 19 1025 59 10000 4.6 170 14:23 15.08.2019
3597 Clear 19 1026 63 10000 4.1 190 13:57 15.08.2019
3598 Clear 19 1026 63 10000 4.1 190 13:39 15.08.2019
3599 Clear 19 1027 68 10000 4.6 190 13:20 15.08.2019
3600 Clear 19 1027 68 10000 4.6 190 12:56 15.08.2019
3601 Clear 19 1027 68 10000 4.6 190 12:37 15.08.2019
3602 Clear 18 1027 68 10000 4.6 190 12:18 15.08.2019
3603 Clear 18 1028 77 10000 3.1 180 11:57 15.08.2019
3604 Clear 18 1028 77 10000 3.1 180 11:36 15.08.2019
3605 Clear 17 1028 77 10000 2.6 180 11:18 15.08.2019
3606 Clear 17 1028 87 8000 2.6 170 10:39 15.08.2019
3607 Clear 17 1028 87 8000 2.6 170 10:39 15.08.2019
3608 Clear 16 1028 93 8000 2.6 190 10:20 15.08.2019
3609 Clear 15 1028 93 8000 2.6 190 09:55 15.08.2019
3610 Clear 14 1027 100 8000 0.5 0 09:37 15.08.2019
3611 Clear 14 1027 100 8000 0.5 0 09:18 15.08.2019
3612 Clear 11 1027 93 6000 0.5 0 08:37 15.08.2019
3613 Mist 10 1027 100 2000 1 30 08:19 15.08.2019
3614 Fog 9 1027 100 200 2.1 80 07:45 15.08.2019
3615 Fog 9 1027 100 200 2.1 80 07:27 15.08.2019
3616 Fog 10 1026 100 200 1 0 06:55 15.08.2019
3617 Fog 10 1026 100 200 1 0 06:33 15.08.2019
3618 Fog 10 1026 100 300 4.44 160.831 05:51 15.08.2019
3619 Mist 10 1026 100 5000 4.44 160.831 05:29 15.08.2019
3620 Clear 10 1026 100 10000 1.5 70 04:35 15.08.2019
3621 Fog 10 1027 93 1200 1 110 03:48 15.08.2019
3622 Clear 11 1027 100 10000 1.5 60 02:46 15.08.2019
3623 Clear 11 1028 93 10000 0.5 0 01:54 15.08.2019
3624 Clear 12 1028 93 10000 0.5 0 01:36 15.08.2019
3625 Clear 13 1028 93 10000 4.1 230 00:42 15.08.2019
3626 Clear 13 1028 93 10000 4.1 230 00:22 15.08.2019
3627 Clear 13 1029 93 10000 4.6 230 23:59 14.08.2019
3628 Clear 13 1029 93 10000 4.6 230 23:40 14.08.2019
3629 Clear 13 1029 93 10000 4.6 230 23:20 14.08.2019
3630 Clear 14 1029 87 10000 4.1 230 22:57 14.08.2019
3631 Clear 14 1029 87 10000 4.1 230 22:57 14.08.2019
3632 Clear 14 1029 87 10000 4.1 230 22:39 14.08.2019
3633 Clear 14 1029 87 10000 4.1 230 22:21 14.08.2019
3634 Clear 14 1029 87 10000 4.6 220 21:56 14.08.2019
3635 Clear 14 1029 87 10000 4.6 220 21:37 14.08.2019
3636 Clear 14 1029 87 10000 4.6 220 21:18 14.08.2019
3637 Clouds 14 1029 87 10000 4.1 210 20:42 14.08.2019
3638 Clouds 14 1029 87 10000 4.1 210 20:22 14.08.2019
3639 Clouds 15 1029 77 10000 5.1 190 19:59 14.08.2019
3640 Clouds 15 1029 77 10000 5.1 190 19:39 14.08.2019
3641 Clouds 15 1029 77 10000 5.1 190 19:21 14.08.2019
3642 Clouds 16 1029 72 10000 5.7 170 18:57 14.08.2019
3643 Clouds 16 1029 72 10000 5.7 170 18:38 14.08.2019
3644 Clouds 17 1029 72 10000 6.7 170 18:20 14.08.2019
3645 Clouds 17 1029 72 10000 6.7 170 17:56 14.08.2019
3646 Clouds 17 1029 72 10000 6.7 170 17:37 14.08.2019
3647 Clouds 17 1029 72 10000 6.7 170 17:19 14.08.2019
3648 Clouds 17 1029 72 10000 6.7 170 17:19 14.08.2019
3649 Clouds 18 1029 72 10000 6.7 170 16:54 14.08.2019
3650 Clouds 18 1029 72 10000 6.7 170 16:36 14.08.2019
3651 Clouds 20 1029 60 10000 3.1 190 16:18 14.08.2019
3652 Clouds 20 1029 60 10000 3.1 190 15:42 14.08.2019
3653 Clouds 20 1029 60 10000 3.1 190 15:18 14.08.2019
3654 Clouds 19 1029 63 10000 1.5 0 14:54 14.08.2019
3655 Clouds 19 1029 63 10000 1.5 0 14:36 14.08.2019
3656 Clouds 19 1029 63 10000 1.5 0 14:18 14.08.2019
3657 Clouds 19 1030 68 10000 1.5 0 13:43 14.08.2019
3658 Clouds 19 1030 68 10000 1.5 0 13:23 14.08.2019
3659 Clouds 17 1031 77 10000 2.6 40 12:56 14.08.2019
3660 Clouds 17 1031 77 10000 2.6 40 12:38 14.08.2019
3661 Clouds 17 1031 77 10000 2.6 40 12:20 14.08.2019
3662 Clouds 16 1031 87 10000 4.1 40 11:48 14.08.2019
3663 Clouds 16 1031 87 10000 4.1 40 11:23 14.08.2019
3664 Clouds 16 1031 87 10000 4.1 40 11:23 14.08.2019
3665 Clouds 15 1031 93 10000 3.1 40 10:59 14.08.2019
3666 Clouds 15 1031 93 10000 3.1 40 10:40 14.08.2019
3667 Drizzle 14 1030 93 8000 3.1 60 10:22 14.08.2019
3668 Drizzle 14 1030 93 8000 3.1 60 09:55 14.08.2019
3669 Drizzle 14 1030 93 8000 3.1 60 09:36 14.08.2019
3670 Drizzle 14 1030 93 8000 3.1 60 09:18 14.08.2019
3671 Clouds 13 1029 100 10000 2.6 50 08:36 14.08.2019
3672 Drizzle 13 1029 100 9000 3.1 40 08:18 14.08.2019
3673 Drizzle 13 1029 100 9000 3.1 40 07:45 14.08.2019
3674 Drizzle 13 1029 100 9000 3.1 40 07:27 14.08.2019
3675 Clouds 14 1028 93 10000 3.1 30 06:44 14.08.2019
3676 Drizzle 14 1027 100 8000 3.6 340 05:48 14.08.2019
3677 Rain 14 1028 100 7000 3.1 340 04:45 14.08.2019
3678 Drizzle 14 1027 93 5000 4.1 350 02:56 14.08.2019
3679 Drizzle 14 1027 93 5000 4.1 350 02:26 14.08.2019
3680 Clouds 14 1027 93 10000 3.1 350 01:38 14.08.2019
3681 Drizzle 14 1027 93 8000 5.1 340 00:54 14.08.2019
3682 Clouds 14 1027 100 10000 4.1 340 23:50 13.08.2019
3683 Drizzle 14 1027 93 3000 5.1 330 23:25 13.08.2019
3684 Drizzle 14 1027 87 7000 5.1 340 22:58 13.08.2019
3685 Drizzle 14 1027 87 7000 5.1 340 22:39 13.08.2019
3686 Drizzle 14 1027 87 7000 5.1 340 22:39 13.08.2019
3687 Drizzle 14 1027 87 7000 5.1 340 22:21 13.08.2019
3688 Clouds 14 1026 87 10000 6.7 330 21:58 13.08.2019
3689 Clouds 14 1026 87 10000 6.7 330 21:37 13.08.2019
3690 Clouds 14 1026 87 10000 6.7 330 21:19 13.08.2019
3691 Clouds 14 1026 93 10000 4.1 360 20:56 13.08.2019
3692 Clouds 14 1026 93 10000 4.1 360 20:36 13.08.2019
3693 Drizzle 14 1025 82 10000 6.2 340 20:18 13.08.2019
3694 Drizzle 15 1025 82 10000 6.2 340 19:43 13.08.2019
3695 Drizzle 15 1025 82 10000 6.2 340 19:21 13.08.2019
3696 Clouds 15 1025 72 10000 6.2 330 18:57 13.08.2019
3697 Clouds 15 1025 72 10000 6.2 330 18:38 13.08.2019
3698 Clouds 15 1025 72 10000 5.7 320 18:19 13.08.2019
3699 Clouds 15 1025 72 10000 5.7 320 17:42 13.08.2019
3700 Clouds 15 1025 72 10000 5.7 320 17:21 13.08.2019
3701 Clouds 16 1024 67 10000 6.2 310 16:57 13.08.2019
3702 Clouds 16 1024 67 10000 6.2 310 16:39 13.08.2019
3703 Clouds 16 1024 67 10000 6.2 310 16:20 13.08.2019
3704 Clouds 16 1024 67 10000 6.2 310 15:58 13.08.2019
3705 Clouds 16 1024 67 10000 6.2 310 15:36 13.08.2019
3706 Clouds 16 1024 67 10000 6.2 310 15:18 13.08.2019
3707 Clouds 16 1025 67 10000 7.7 340 14:41 13.08.2019
3708 Clouds 16 1025 63 10000 7.7 340 14:19 13.08.2019
3709 Clouds 16 1025 63 10000 7.7 340 13:55 13.08.2019
3710 Clouds 16 1025 63 10000 7.7 340 13:37 13.08.2019
3711 Clouds 17 1025 63 10000 7.7 340 13:18 13.08.2019
3712 Clouds 16 1026 67 10000 6.7 330 12:41 13.08.2019
3713 Clouds 16 1026 67 10000 6.7 330 12:23 13.08.2019
3714 Clouds 15 1026 76 10000 6.2 340 11:59 13.08.2019
3715 Clouds 15 1026 76 10000 6.2 340 11:40 13.08.2019
3716 Clouds 15 1026 76 10000 6.7 30 11:21 13.08.2019
3717 Clouds 15 1026 76 10000 6.7 30 11:21 13.08.2019
3718 Clouds 15 1026 76 10000 6.7 30 10:56 13.08.2019
3719 Clouds 14 1026 76 10000 6.7 30 10:37 13.08.2019
3720 Clouds 14 1026 76 10000 5.7 40 10:19 13.08.2019
3721 Clouds 13 1026 87 10000 5.1 40 09:44 13.08.2019
3722 Clouds 12 1025 81 10000 4.6 50 09:23 13.08.2019
3723 Clouds 13 1026 87 10000 5.1 40 09:23 13.08.2019
3724 Clouds 12 1025 93 10000 4.1 40 08:44 13.08.2019
3725 Clouds 11 1025 93 10000 4.1 40 08:23 13.08.2019
3726 Clouds 10 1025 93 10000 4.1 40 07:58 13.08.2019
3727 Clouds 10 1025 93 10000 4.1 40 07:38 13.08.2019
3728 Clouds 10 1025 93 10000 4.1 40 07:38 13.08.2019
3729 Clouds 10 1025 93 10000 4.1 40 07:20 13.08.2019
3730 Clouds 10 1024 87 10000 4.6 40 06:42 13.08.2019
3731 Clouds 10 1024 93 10000 4.6 50 05:46 13.08.2019
3732 Clouds 10 1024 93 10000 4.1 40 03:45 13.08.2019
3733 Clouds 11 1024 87 10000 3.6 40 02:22 13.08.2019
3734 Clouds 10 1025 87 10000 3.6 50 01:26 13.08.2019
3735 Clouds 10 1025 93 10000 2.6 30 00:47 13.08.2019
3736 Clouds 10 1025 93 10000 3.1 30 00:18 13.08.2019
3737 Clouds 10 1025 93 10000 3.1 30 23:41 12.08.2019
3738 Clouds 10 1025 93 10000 3.1 30 23:20 12.08.2019
3739 Clouds 11 1025 87 10000 2.6 40 22:40 12.08.2019
3740 Clouds 11 1025 87 10000 2.6 40 22:20 12.08.2019
3741 Clouds 11 1025 87 10000 2.6 20 21:57 12.08.2019
3742 Clouds 11 1025 87 10000 2.6 20 21:38 12.08.2019
3743 Clouds 11 1025 87 10000 2.6 20 21:19 12.08.2019
3744 Clouds 11 1025 81 10000 3.1 310 20:58 12.08.2019
3745 Rain 12 1025 81 0 2.68 310 20:39 12.08.2019
3746 Clouds 12 1025 76 10000 2.6 310 20:20 12.08.2019
3747 Clouds 13 1025 76 10000 2.6 310 19:57 12.08.2019
3748 Clouds 13 1025 76 10000 2.6 310 19:38 12.08.2019
3749 Clouds 13 1024 67 10000 4.6 310 19:20 12.08.2019
3750 Clouds 14 1024 67 10000 4.6 310 18:56 12.08.2019
3751 Clouds 14 1024 67 10000 4.6 310 18:37 12.08.2019
3752 Clouds 14 1024 67 10000 4.6 310 18:19 12.08.2019
3753 Clouds 15 1024 58 10000 5.1 300 17:47 12.08.2019
3754 Clouds 15 1024 58 10000 5.1 300 17:29 12.08.2019
3755 Clouds 15 1024 58 10000 5.1 310 16:58 12.08.2019
3756 Clouds 15 1024 58 10000 5.1 310 16:39 12.08.2019
3757 Clouds 15 1024 58 10000 5.1 310 16:20 12.08.2019
3758 Clouds 16 1023 54 10000 6.2 310 15:59 12.08.2019
3759 Clouds 16 1023 54 10000 6.2 310 15:41 12.08.2019
3760 Clouds 16 1023 54 10000 6.2 310 15:41 12.08.2019
3761 Clouds 16 1023 54 10000 6.2 310 15:21 12.08.2019
3762 Clouds 16 1024 55 10000 5.7 290 14:57 12.08.2019
3763 Clouds 16 1024 55 10000 5.7 290 14:39 12.08.2019
3764 Clouds 16 1024 55 10000 5.7 290 14:20 12.08.2019
3765 Drizzle 15 1024 62 10000 5.1 260 13:47 12.08.2019
3766 Drizzle 15 1024 62 10000 5.1 260 13:24 12.08.2019
3767 Clouds 16 1024 62 10000 4.6 300 12:59 12.08.2019
3768 Clouds 16 1024 62 10000 4.6 300 12:41 12.08.2019
3769 Clouds 15 1024 62 10000 4.6 300 12:19 12.08.2019
3770 -273 0 0 0 0 0 11:43 12.08.2019
3771 Clouds 15 1024 62 10000 1.5 0 11:25 12.08.2019
3772 Clouds 14 1024 82 10000 3.1 60 10:54 12.08.2019
3773 Clouds 14 1024 82 10000 3.1 60 10:36 12.08.2019
3774 Clouds 14 1024 82 10000 3.1 60 10:18 12.08.2019
3775 Clouds 14 1024 93 10000 4.1 50 09:42 12.08.2019
3776 Clouds 13 1024 93 10000 4.1 50 09:20 12.08.2019
3777 Clouds 11 1023 93 10000 1.5 40 08:58 12.08.2019
3778 Clouds 11 1023 93 10000 1.5 40 08:39 12.08.2019
3779 Clouds 10 1023 93 10000 2.1 40 08:21 12.08.2019
3780 Clouds 10 1023 93 10000 2.1 40 07:55 12.08.2019
3781 Clouds 10 1023 93 10000 2.1 40 07:33 12.08.2019
3782 Clouds 12 1023 66 10000 4.1 280 06:53 12.08.2019
3783 Clouds 12 1022 76 10000 2.6 270 05:41 12.08.2019
3784 Clouds 12 1022 87 10000 0.5 0 03:25 12.08.2019
3785 Clouds 12 1022 87 10000 4.1 320 02:41 12.08.2019
3786 Rain 12 1022 87 9000 1.5 330 01:23 12.08.2019
3787 Drizzle 12 1022 87 10000 5.1 340 00:58 12.08.2019
3788 Drizzle 12 1022 87 10000 5.1 340 00:58 12.08.2019
3789 Drizzle 12 1022 87 10000 5.1 340 00:58 12.08.2019
3790 Drizzle 12 1022 87 10000 5.1 340 00:40 12.08.2019
3791 Drizzle 12 1022 87 10000 5.1 340 00:40 12.08.2019
3792 Drizzle 12 1022 87 10000 5.1 340 00:20 12.08.2019
3793 Clouds 12 1022 87 10000 3.1 10 23:57 11.08.2019
3794 Clouds 12 1022 87 10000 3.1 10 23:38 11.08.2019
3795 Clouds 12 1022 87 10000 3.1 10 23:19 11.08.2019
3796 Clouds 12 1022 81 10000 1.5 0 22:55 11.08.2019
3797 Clouds 12 1022 81 10000 1.5 0 22:36 11.08.2019
3798 Clouds 12 1022 81 10000 1.5 0 22:18 11.08.2019
3799 Clouds 12 1022 87 10000 3.1 350 21:54 11.08.2019
3800 Clouds 12 1022 87 10000 3.1 350 21:36 11.08.2019
3801 Clouds 12 1022 87 10000 3.1 350 21:36 11.08.2019
3802 Clouds 12 1022 87 10000 3.1 350 21:18 11.08.2019
3803 Clouds 12 1021 87 10000 4.1 280 20:41 11.08.2019
3804 Clouds 12 1020 81 10000 6.7 310 20:22 11.08.2019
3805 Clouds 12 1020 81 10000 6.7 310 19:54 11.08.2019
3806 Clouds 12 1020 81 10000 6.7 310 19:36 11.08.2019
3807 Clouds 13 1020 81 10000 6.7 310 19:18 11.08.2019
3808 Rain 14 1020 62 7000 6.7 310 18:38 11.08.2019
3809 Rain 14 1020 62 7000 6.7 310 18:19 11.08.2019
3810 Clouds 15 1019 58 10000 10.3 310 17:42 11.08.2019
3811 Clouds 15 1019 51 10000 9.8 300 17:20 11.08.2019
3812 Clouds 16 1019 51 10000 9.8 300 16:59 11.08.2019
3813 Clouds 16 1019 51 10000 9.8 300 16:40 11.08.2019
3814 Clouds 16 1019 51 10000 9.8 300 16:22 11.08.2019
3815 Clouds 16 1019 59 10000 9.3 300 15:57 11.08.2019
3816 Clouds 16 1019 59 10000 9.3 300 15:38 11.08.2019
3817 Clouds 16 1019 59 10000 9.3 300 15:20 11.08.2019
3818 Clouds 16 1019 51 10000 8.7 310 14:54 11.08.2019
3819 Clouds 16 1019 51 10000 8.7 310 14:36 11.08.2019
3820 Clouds 17 1019 51 10000 8.7 310 14:18 11.08.2019
3821 Clouds 16 1020 62 10000 8.2 280 13:41 11.08.2019
3822 Clouds 16 1020 62 10000 8.2 280 13:22 11.08.2019
3823 Clouds 16 1020 67 10000 6.7 290 12:41 11.08.2019
3824 Clouds 16 1020 67 10000 6.7 290 12:22 11.08.2019
3825 Rain 15 1020 87 10000 5.7 330 11:41 11.08.2019
3826 Rain 15 1020 87 10000 5.7 330 11:23 11.08.2019
3827 Clouds 15 1020 87 10000 6.2 340 10:57 11.08.2019
3828 Clouds 14 1020 87 10000 6.2 340 10:39 11.08.2019
3829 Clouds 14 1019 87 10000 7.2 360 10:21 11.08.2019
3830 Clouds 14 1019 87 10000 7.2 360 09:55 11.08.2019
3831 Clouds 13 1019 87 10000 7.2 360 09:37 11.08.2019
3832 Clouds 13 1019 87 10000 7.2 360 09:18 11.08.2019
3833 Clouds 13 1019 87 10000 7.2 350 08:41 11.08.2019
3834 Clouds 13 1019 87 10000 7.2 350 08:23 11.08.2019
3835 Clouds 13 1019 87 10000 6.7 340 07:49 11.08.2019
3836 Clouds 13 1019 87 10000 6.7 340 07:21 11.08.2019
3837 Drizzle 13 1019 100 7000 4.6 10 06:39 11.08.2019
3838 Rain 13 1019 87 10000 4.6 20 05:34 11.08.2019
3839 Clouds 14 1019 76 10000 9.3 340 03:36 11.08.2019
3840 Clouds 14 1019 76 10000 9.3 340 02:45 11.08.2019
3841 Clouds 14 1020 76 10000 8.2 350 01:35 11.08.2019
3842 Clouds 14 1020 71 10000 6.2 350 00:59 11.08.2019
3843 Clouds 14 1020 71 10000 6.2 350 00:40 11.08.2019
3844 Clouds 14 1020 71 10000 6.2 350 00:22 11.08.2019
3845 Clouds 13 1020 76 10000 4.6 60 23:39 10.08.2019
3846 Clouds 13 1020 76 10000 4.6 60 23:20 10.08.2019
3847 Clouds 13 1020 82 10000 5.7 360 22:43 10.08.2019
3848 Clouds 13 1020 82 10000 5.7 360 22:24 10.08.2019
3849 Clouds 13 1020 93 10000 2.6 10 21:57 10.08.2019
3850 Clouds 13 1020 93 10000 2.6 10 21:38 10.08.2019
3851 Clouds 13 1020 87 10000 4.6 330 21:18 10.08.2019
3852 Clouds 14 1020 87 10000 4.6 330 20:42 10.08.2019
3853 Clouds 14 1020 87 10000 4.6 330 20:21 10.08.2019
3854 Clouds 14 1019 93 10000 7.2 340 19:57 10.08.2019
3855 Clouds 14 1019 93 10000 7.2 340 19:38 10.08.2019
3856 Clouds 14 1019 87 10000 7.7 320 19:19 10.08.2019
3857 Clouds 14 1019 87 10000 7.7 320 18:39 10.08.2019
3858 Clouds 15 1019 87 10000 7.7 320 18:21 10.08.2019
3859 Clouds 15 1019 77 10000 7.7 310 17:44 10.08.2019
3860 Clouds 16 1019 77 10000 7.7 310 17:25 10.08.2019
3861 Clear 16 1019 63 10000 7.7 310 16:47 10.08.2019
3862 Clear 17 1019 63 10000 7.7 310 16:28 10.08.2019
3863 Clear 17 1019 59 10000 7.2 320 15:55 10.08.2019
3864 Clear 17 1019 59 10000 7.2 320 15:26 10.08.2019
3865 Clear 17 1019 59 10000 6.7 320 14:45 10.08.2019
3866 Clear 17 1019 59 10000 6.7 320 14:45 10.08.2019
3867 Clear 18 1020 59 10000 5.7 330 14:23 10.08.2019
3868 Clear 18 1020 59 10000 5.7 330 13:59 10.08.2019
3869 Clear 18 1020 59 10000 5.7 330 13:39 10.08.2019
3870 Clear 18 1022 59 10000 5.1 310 13:18 10.08.2019
3871 Clear 18 1022 59 10000 5.1 310 12:42 10.08.2019
3872 Clear 17 1022 59 10000 5.1 310 12:22 10.08.2019
3873 Clear 16 1022 63 10000 4.1 340 11:57 10.08.2019
3874 Clear 16 1022 63 10000 4.1 340 11:38 10.08.2019
3875 Clear 16 1022 63 10000 4.1 340 11:20 10.08.2019
3876 Clear 15 1023 76 10000 2.1 330 10:39 10.08.2019
3877 Clear 15 1023 76 10000 2.1 330 10:20 10.08.2019
3878 Clear 14 1023 82 10000 0.5 0 09:59 10.08.2019
3879 Clear 13 1023 87 10000 2.1 40 09:38 10.08.2019
3880 Clear 11 1023 87 10000 2.1 40 09:20 10.08.2019
3881 Clear 9 1023 93 10000 2.6 50 08:38 10.08.2019
3882 Clear 9 1023 93 10000 1.5 30 08:19 10.08.2019
3883 Clear 8 1023 93 10000 1.5 30 07:51 10.08.2019
3884 Clear 8 1023 93 10000 1.5 30 07:27 10.08.2019
3885 Clear 8 1023 93 10000 2.1 10 06:48 10.08.2019
3886 Clear 8 1023 93 10000 2.6 50 06:21 10.08.2019
3887 Clear 9 1023 93 10000 2.6 50 05:24 10.08.2019
3888 Clear 9 1024 100 10000 3.6 50 04:21 10.08.2019
3889 Clear 10 1026 87 10000 2.1 10 02:53 10.08.2019
3890 Clear 10 1026 87 10000 1.5 310 01:57 10.08.2019
3891 Clear 11 1026 87 10000 1.5 310 01:39 10.08.2019
3892 Clear 10 1026 87 10000 1.5 310 01:20 10.08.2019
3893 Clear 10 1026 93 10000 2.6 40 00:43 10.08.2019
3894 Clear 10 1026 93 10000 2.6 40 00:21 10.08.2019
3895 Clear 11 1026 87 10000 3.6 10 23:42 09.08.2019
3896 Clear 11 1026 87 10000 3.6 10 23:22 09.08.2019
3897 Clouds 12 1027 81 10000 3.1 350 22:57 09.08.2019
3898 Clouds 12 1027 81 10000 3.1 350 22:38 09.08.2019
3899 Clouds 12 1027 81 10000 3.1 350 22:19 09.08.2019
3900 Clouds 13 1028 82 10000 2.6 350 21:41 09.08.2019
3901 Clouds 13 1028 82 10000 2.6 350 21:23 09.08.2019
3902 Clouds 14 1028 82 10000 3.6 330 20:59 09.08.2019
3903 Clouds 14 1028 82 10000 3.6 330 20:40 09.08.2019
3904 Clouds 14 1028 82 10000 3.6 330 20:21 09.08.2019
3905 Clouds 14 1028 82 10000 3.6 320 19:56 09.08.2019
3906 Clouds 14 1028 82 10000 3.6 320 19:38 09.08.2019
3907 Clouds 14 1028 82 10000 3.6 320 19:18 09.08.2019
3908 Clouds 14 1028 71 10000 4.1 350 18:41 09.08.2019
3909 Clouds 14 1028 71 10000 4.1 350 18:22 09.08.2019
3910 Clouds 16 1028 63 10000 4.1 320 17:57 09.08.2019
3911 Clouds 16 1028 63 10000 4.1 320 17:39 09.08.2019
3912 Clouds 16 1028 63 10000 4.1 320 17:20 09.08.2019
3913 Clouds 16 1028 55 10000 5.7 340 16:41 09.08.2019
3914 Clouds 16 1028 59 10000 6.2 330 16:23 09.08.2019
3915 Clouds 16 1028 59 10000 6.2 330 15:57 09.08.2019
3916 Clouds 16 1028 59 10000 6.2 330 15:39 09.08.2019
3917 Clouds 16 1028 59 10000 6.2 330 15:20 09.08.2019
3918 Clouds 16 1028 59 10000 6.2 330 15:20 09.08.2019
3919 Clouds 16 1029 63 10000 7.7 320 14:55 09.08.2019
3920 -273 0 0 0 0 0 14:55 09.08.2019
3921 Clouds 16 1029 63 10000 7.7 320 14:36 09.08.2019
3922 Clouds 16 1029 63 10000 7.7 320 14:18 09.08.2019
3923 Clouds 16 1030 67 10000 5.1 350 13:42 09.08.2019
3924 Clouds 16 1030 67 10000 5.1 350 13:20 09.08.2019
3925 Clouds 16 1031 67 10000 8.2 340 12:46 09.08.2019
3926 Clouds 15 1031 67 10000 8.2 340 12:24 09.08.2019
3927 Clouds 15 1031 67 10000 9.8 360 11:58 09.08.2019
3928 Clouds 15 1031 67 10000 9.8 360 11:37 09.08.2019
3929 Clouds 15 1031 67 10000 9.8 360 11:18 09.08.2019
3930 Clouds 14 1031 71 10000 6.2 20 10:40 09.08.2019
3931 Clouds 14 1031 71 10000 6.2 20 10:40 09.08.2019
3932 Clouds 13 1031 71 10000 6.2 20 10:22 09.08.2019
3933 Clouds 13 1030 81 10000 7.2 30 09:46 09.08.2019
3934 Clouds 12 1030 81 10000 6.7 30 09:20 09.08.2019
3935 Clouds 11 1030 81 10000 6.7 30 08:58 09.08.2019
3936 Clouds 11 1030 81 10000 6.7 30 08:40 09.08.2019
3937 Clouds 10 1030 81 10000 6.7 30 08:20 09.08.2019
3938 Clouds 10 1030 81 10000 5.1 40 07:44 09.08.2019
3939 Clouds 10 1030 81 10000 5.1 40 07:24 09.08.2019
3940 Clouds 10 1029 81 10000 7.2 30 06:56 09.08.2019
3941 Clouds 10 1029 81 10000 7.2 30 06:33 09.08.2019
3942 Clouds 11 1029 76 10000 5.7 20 05:58 09.08.2019
3943 Clouds 10 1029 87 10000 4.6 30 04:25 09.08.2019
3944 Clouds 11 1029 81 10000 4.6 40 02:18 09.08.2019
3945 Clouds 11 1029 81 10000 3.6 40 00:56 09.08.2019
3946 Clouds 11 1029 81 10000 3.6 40 00:38 09.08.2019
3947 Clouds 11 1029 81 10000 3.6 40 00:20 09.08.2019
3948 Clouds 12 1029 76 10000 5.1 350 23:38 08.08.2019
3949 Clouds 12 1028 76 10000 5.7 350 23:20 08.08.2019
3950 Clouds 12 1028 76 10000 5.7 350 22:59 08.08.2019
3951 Clouds 12 1028 76 10000 5.7 350 22:37 08.08.2019
3952 Clouds 12 1028 76 10000 5.7 350 22:19 08.08.2019
3953 Clouds 12 1028 76 10000 5.1 350 21:59 08.08.2019
3954 Clouds 12 1028 76 10000 5.1 350 21:40 08.08.2019
3955 Clouds 12 1028 76 10000 5.1 350 21:21 08.08.2019
3956 Rain 12 1027 66 10000 4.1 340 20:56 08.08.2019
3957 Rain 12 1027 66 10000 4.1 340 20:38 08.08.2019
3958 Rain 12 1027 66 10000 4.1 340 20:19 08.08.2019
3959 Clouds 12 1027 66 10000 4.1 340 19:43 08.08.2019
3960 Clouds 12 1027 66 10000 4.1 340 19:22 08.08.2019
3961 Clouds 13 1026 58 10000 4.6 310 18:44 08.08.2019
3962 Clouds 13 1026 58 10000 4.6 310 18:24 08.08.2019
3963 Clouds 14 1025 51 10000 5.7 310 17:58 08.08.2019
3964 Clouds 15 1025 51 10000 5.7 310 17:40 08.08.2019
3965 Clouds 15 1025 51 10000 5.7 310 17:22 08.08.2019
3966 Clouds 15 1025 54 10000 5.7 310 16:55 08.08.2019
3967 Clouds 15 1025 54 10000 5.7 310 16:37 08.08.2019
3968 Clouds 15 1025 54 10000 5.7 310 16:19 08.08.2019
3969 Clouds 15 1024 54 10000 5.7 310 15:42 08.08.2019
3970 Clouds 15 1024 54 10000 5.7 310 15:23 08.08.2019
3971 Clouds 14 1024 58 10000 4.1 280 14:59 08.08.2019
3972 Clouds 14 1024 58 10000 4.1 280 14:37 08.08.2019
3973 Clouds 14 1024 71 10000 5.1 340 14:18 08.08.2019
3974 Clouds 14 1024 71 10000 5.1 340 13:40 08.08.2019
3975 Clouds 14 1024 71 10000 5.1 340 13:22 08.08.2019
3976 Rain 13 1025 76 10000 4.6 340 12:57 08.08.2019
3977 Rain 13 1025 76 10000 4.6 340 12:37 08.08.2019
3978 Rain 13 1025 76 10000 4.6 340 12:37 08.08.2019
3979 Rain 13 1025 76 10000 4.6 340 12:18 08.08.2019
3980 Rain 13 1025 71 10000 3.1 310 11:41 08.08.2019
3981 Rain 13 1025 71 10000 3.1 310 11:23 08.08.2019
3982 Clouds 13 1024 81 10000 4.1 40 10:41 08.08.2019
3983 Clouds 13 1024 81 10000 4.1 40 10:22 08.08.2019
3984 Clouds 11 1024 93 10000 3.1 60 09:57 08.08.2019
3985 Clouds 11 1024 93 10000 3.1 60 09:39 08.08.2019
3986 Clouds 11 1023 93 10000 4.1 50 09:19 08.08.2019
3987 Clouds 10 1023 93 10000 4.1 50 08:40 08.08.2019
3988 Clouds 9 1022 100 10000 3.6 60 08:20 08.08.2019
3989 Clouds 9 1022 100 10000 3.6 60 07:42 08.08.2019
3990 Clouds 9 1022 100 10000 3.6 60 07:21 08.08.2019
3991 Clouds 9 1022 100 10000 3.6 60 06:58 08.08.2019
3992 Clouds 9 1022 100 10000 3.6 60 06:40 08.08.2019
3993 Clouds 10 1022 93 10000 2.1 160 05:54 08.08.2019
3994 Rain 10 1022 93 6000 2.6 70 05:27 08.08.2019
3995 Clouds 10 1022 93 10000 2.1 50 03:54 08.08.2019
3996 Clouds 10 1022 93 10000 2.1 50 03:35 08.08.2019
3997 Clouds 11 1021 87 10000 1 0 01:41 08.08.2019
3998 Clouds 12 1021 71 10000 4.1 310 00:46 08.08.2019
3999 Clouds 12 1021 71 10000 4.1 310 00:20 08.08.2019
4000 Clouds 12 1021 66 10000 2.6 300 23:23 07.08.2019
4001 Clouds 12 1021 66 10000 1.5 0 22:59 07.08.2019
4002 Clouds 12 1021 66 10000 1.5 0 22:41 07.08.2019
4003 Clouds 12 1020 66 10000 2.1 50 22:21 07.08.2019
4004 Clouds 12 1020 66 10000 2.1 50 21:57 07.08.2019
4005 Clouds 12 1020 66 10000 2.1 50 21:39 07.08.2019
4006 Clouds 12 1020 66 10000 2.1 50 21:39 07.08.2019
4007 Clouds 12 1020 66 10000 2.1 50 21:20 07.08.2019
4008 Clouds 13 1019 66 10000 5.7 280 20:59 07.08.2019
4009 Clouds 13 1019 66 10000 5.7 280 20:40 07.08.2019
4010 Clouds 13 1019 66 10000 5.7 280 20:20 07.08.2019
4011 Clouds 13 1019 66 10000 5.7 280 20:20 07.08.2019
4012 Clouds 13 1018 76 10000 4.6 280 19:55 07.08.2019
4013 Clouds 12 1018 76 10000 4.6 280 19:36 07.08.2019
4014 Clouds 13 1018 76 10000 4.6 280 19:18 07.08.2019
4015 Clouds 13 1017 71 10000 4.1 260 18:40 07.08.2019
4016 Clouds 13 1017 71 10000 4.1 260 18:20 07.08.2019
4017 Clouds 14 1016 62 10000 7.2 290 17:55 07.08.2019
4018 Clouds 14 1016 62 10000 7.2 290 17:55 07.08.2019
4019 Clouds 15 1016 62 10000 7.2 290 17:37 07.08.2019
4020 Clouds 15 1014 58 10000 8.7 270 17:19 07.08.2019
4021 Clouds 15 1014 58 10000 8.7 270 16:56 07.08.2019
4022 Clouds 15 1014 58 10000 8.7 270 16:56 07.08.2019
4023 Clouds 15 1014 58 10000 8.7 270 16:38 07.08.2019
4024 Clouds 15 1014 58 10000 8.7 270 16:19 07.08.2019
4025 Clouds 15 1012 54 10000 12.9 290 15:43 07.08.2019
4026 Clouds 15 1012 54 10000 12.9 290 15:21 07.08.2019
4027 Clouds 14 1011 62 10000 9.3 290 14:57 07.08.2019
4028 Clouds 14 1011 62 10000 9.3 290 14:38 07.08.2019
4029 Clouds 14 1011 62 10000 9.3 290 14:20 07.08.2019
4030 Clouds 14 1011 76 8000 9.8 300 13:40 07.08.2019
4031 Rain 13 1011 87 6000 11.3 300 13:19 07.08.2019
4032 Rain 13 1011 87 6000 11.3 300 12:58 07.08.2019
4033 Rain 13 1010 93 2000 10.8 310 12:39 07.08.2019
4034 Rain 13 1010 93 2000 10.8 310 12:20 07.08.2019
4035 Rain 14 1010 87 1000 12.9 340 11:58 07.08.2019
4036 Clouds 15 1009 77 10000 12.3 350 11:40 07.08.2019
4037 Clouds 15 1010 77 10000 8.7 360 11:18 07.08.2019
4038 Clouds 15 1010 77 10000 8.7 360 10:41 07.08.2019
4039 Clouds 15 1010 77 10000 8.7 360 10:20 07.08.2019
4040 Clouds 14 1011 87 10000 7.2 360 09:59 07.08.2019
4041 Clouds 14 1011 87 10000 7.2 360 09:41 07.08.2019
4042 Clouds 14 1011 87 10000 7.2 360 09:21 07.08.2019
4043 Clouds 13 1010 93 10000 6.7 360 08:45 07.08.2019
4044 Clouds 12 1010 93 10000 6.7 360 08:25 07.08.2019
4045 Clouds 12 1010 93 10000 7.2 360 07:51 07.08.2019
4046 Clouds 11 1010 93 10000 5.1 20 07:32 07.08.2019
4047 Clouds 12 1010 93 10000 6.2 360 06:50 07.08.2019
4048 Clouds 12 1009 93 10000 7.2 10 06:26 07.08.2019
4049 Clouds 13 1010 87 10000 5.1 10 05:43 07.08.2019
4050 Clouds 12 1011 93 10000 3.1 360 04:43 07.08.2019
4051 Clouds 13 1011 93 10000 4.1 10 03:20 07.08.2019
4052 Clouds 13 1012 93 10000 4.1 350 02:42 07.08.2019
4053 Clear 13 1013 87 10000 3.6 360 01:58 07.08.2019
4054 Clear 13 1013 87 10000 3.6 360 01:24 07.08.2019
4055 Clear 12 1014 93 10000 3.6 350 00:38 07.08.2019
4056 Clear 13 1014 93 10000 3.6 350 00:19 07.08.2019
4057 Clear 13 1014 87 10000 5.1 340 23:40 06.08.2019
4058 Clear 13 1014 87 10000 5.1 340 23:21 06.08.2019
4059 Clear 13 1014 87 10000 5.1 340 23:21 06.08.2019
4060 Clear 13 1015 87 10000 5.7 330 22:56 06.08.2019
4061 Clear 13 1015 87 10000 5.7 330 22:37 06.08.2019
4062 Clear 13 1015 87 10000 5.7 330 22:18 06.08.2019
4063 Clear 13 1016 82 10000 5.7 340 21:40 06.08.2019
4064 Clear 13 1016 82 10000 5.7 340 21:20 06.08.2019
4065 Clear 13 1016 82 10000 5.7 340 21:20 06.08.2019
4066 Clear 13 1016 82 10000 5.7 340 21:20 06.08.2019
4067 Clouds 13 1016 82 10000 6.2 350 20:48 06.08.2019
4068 Clouds 13 1016 82 10000 6.2 350 20:29 06.08.2019
4069 Clouds 14 1017 76 10000 6.7 340 19:59 06.08.2019
4070 Clouds 14 1017 76 10000 6.7 340 19:41 06.08.2019
4071 Clouds 14 1017 76 10000 6.7 340 19:22 06.08.2019
4072 Clouds 15 1017 67 10000 7.2 340 18:45 06.08.2019
4073 Clouds 15 1017 67 10000 7.2 340 18:26 06.08.2019
4074 Clouds 16 1016 67 10000 9.8 330 17:58 06.08.2019
4075 Clouds 16 1016 67 10000 9.8 330 17:38 06.08.2019
4076 Clouds 16 1016 67 10000 9.8 330 17:38 06.08.2019
4077 Clouds 17 1017 72 10000 8.2 330 17:20 06.08.2019
4078 Clouds 17 1017 72 10000 8.2 330 16:55 06.08.2019
4079 Clouds 17 1017 72 10000 8.2 330 16:37 06.08.2019
4080 Clouds 17 1017 72 10000 8.2 330 16:19 06.08.2019
4081 Clouds 17 1018 72 10000 7.2 320 15:56 06.08.2019
4082 Clouds 17 1018 72 10000 7.2 320 15:38 06.08.2019
4083 Clouds 17 1018 77 10000 6.2 350 15:18 06.08.2019
4084 Clouds 17 1018 77 10000 6.2 350 14:41 06.08.2019
4085 Clouds 17 1018 77 10000 6.2 350 14:41 06.08.2019
4086 Clouds 17 1018 77 10000 6.2 350 14:22 06.08.2019
4087 Clouds 17 1019 77 10000 6.7 10 13:57 06.08.2019
4088 Clouds 16 1019 77 10000 6.7 10 13:38 06.08.2019
4089 Clouds 16 1019 77 10000 6.7 10 13:19 06.08.2019
4090 Clouds 16 1020 82 10000 6.7 10 12:56 06.08.2019
4091 Clouds 16 1020 82 10000 6.7 10 12:38 06.08.2019
4092 Clouds 16 1020 82 10000 6.7 10 12:19 06.08.2019
4093 Clouds 16 1021 87 10000 7.7 360 11:41 06.08.2019
4094 Rain 15 1020 93 6000 6.2 10 11:19 06.08.2019
4095 Clouds 15 1021 87 10000 7.7 360 11:19 06.08.2019
4096 Rain 14 1020 93 6000 6.2 10 10:42 06.08.2019
4097 Rain 14 1020 93 6000 6.2 10 10:23 06.08.2019
4098 Clouds 14 1020 93 10000 6.7 360 09:57 06.08.2019
4099 Clouds 14 1020 93 10000 6.7 360 09:37 06.08.2019
4100 Clouds 14 1020 93 10000 6.7 360 09:19 06.08.2019
4101 Clouds 14 1020 93 10000 6.2 360 08:41 06.08.2019
4102 Rain 14 1020 93 10000 6.7 360 08:23 06.08.2019
4103 Clouds 15 1020 87 10000 6.7 350 07:36 06.08.2019
4104 Clouds 14 1020 93 10000 5.7 360 06:51 06.08.2019
4105 Clouds 14 1020 93 10000 5.7 360 06:32 06.08.2019
4106 Clouds 14 1020 93 10000 5.7 10 05:52 06.08.2019
4107 Drizzle 14 1020 100 7000 4.6 350 04:31 06.08.2019
4108 Clouds 15 1020 93 10000 6.7 350 01:53 06.08.2019
4109 Clouds 15 1021 87 10000 6.2 350 01:23 06.08.2019
4110 Clouds 15 1021 87 10000 6.2 350 00:29 06.08.2019
4111 Clouds 15 1021 87 10000 8.7 330 23:46 05.08.2019
4112 Drizzle 15 1021 87 7000 9.8 330 23:18 05.08.2019
4113 Drizzle 15 1021 87 7000 9.8 330 22:41 05.08.2019
4114 Drizzle 15 1021 87 7000 9.8 330 22:23 05.08.2019
4115 Drizzle 15 1021 93 4000 9.3 330 21:55 05.08.2019
4116 Drizzle 14 1021 93 4000 9.3 330 21:36 05.08.2019
4117 Rain 14 1021 93 2100 9.3 340 21:18 05.08.2019
4118 Rain 14 1021 93 2100 9.3 340 20:54 05.08.2019
4119 Rain 15 1020 93 6000 8.7 340 20:36 05.08.2019
4120 Rain 15 1020 93 6000 8.7 340 20:18 05.08.2019
4121 Rain 15 1020 87 5000 9.3 340 19:40 05.08.2019
4122 Rain 15 1020 87 5000 9.3 340 19:22 05.08.2019
4123 Clouds 16 1020 72 10000 10.3 330 18:57 05.08.2019
4124 Clouds 16 1020 72 10000 10.3 330 18:57 05.08.2019
4125 Clouds 16 1020 72 10000 10.3 330 18:39 05.08.2019
4126 Clouds 16 1020 67 10000 10.3 320 18:18 05.08.2019
4127 Clouds 16 1020 67 10000 10.3 320 17:41 05.08.2019
4128 Clouds 16 1020 67 10000 10.3 320 17:22 05.08.2019
4129 Rain 16 1020 67 10000 9.8 320 16:46 05.08.2019
4130 Rain 16 1020 67 10000 9.8 320 16:25 05.08.2019
4131 Clouds 16 1020 67 10000 10.8 320 15:45 05.08.2019
4132 Clouds 16 1020 67 10000 10.8 320 15:22 05.08.2019
4133 Clouds 16 1020 72 10000 10.3 320 14:58 05.08.2019
4134 Clouds 16 1020 72 10000 10.3 320 14:38 05.08.2019
4135 Clouds 17 1020 72 10000 9.8 330 14:19 05.08.2019
4136 Clouds 17 1021 77 10000 10.3 330 13:41 05.08.2019
4137 Clouds 16 1021 87 10000 8.7 340 13:21 05.08.2019
4138 Clouds 15 1021 87 10000 8.7 340 12:45 05.08.2019
4139 Clouds 15 1021 87 10000 8.7 340 12:20 05.08.2019
4140 Clouds 14 1022 87 10000 10.3 340 11:46 05.08.2019
4141 Clouds 14 1022 87 10000 10.3 340 11:27 05.08.2019
4142 Clouds 13 1021 93 7000 9.3 340 10:58 05.08.2019
4143 Clouds 13 1021 93 7000 9.3 340 10:40 05.08.2019
4144 -273 0 0 0 0 0 10:21 05.08.2019
4145 Drizzle 13 1021 93 6000 6.7 320 09:40 05.08.2019
4146 Drizzle 13 1021 93 6000 6.7 320 09:21 05.08.2019
4147 Drizzle 13 1021 93 4000 7.2 320 08:49 05.08.2019
4148 Drizzle 13 1021 93 7000 6.7 310 08:28 05.08.2019
4149 Drizzle 13 1020 93 4000 7.2 330 07:55 05.08.2019
4150 Drizzle 13 1020 93 7000 9.3 350 07:32 05.08.2019
4151 Clouds 13 1020 87 10000 10.8 350 06:59 05.08.2019
4152 Clouds 14 1020 76 10000 8.7 350 06:29 05.08.2019
4153 Clouds 14 1019 76 10000 10.3 350 05:41 05.08.2019
4154 Clouds 14 1019 76 10000 10.3 350 05:18 05.08.2019
4155 Clouds 13 1021 87 10000 7.7 30 03:58 05.08.2019
4156 Clouds 13 1021 87 10000 7.7 30 03:20 05.08.2019
4157 Clouds 13 1021 87 10000 10.3 20 02:26 05.08.2019
4158 Clouds 13 1021 82 10000 8.7 10 01:32 05.08.2019
4159 Clouds 14 1021 71 10000 9.8 350 00:41 05.08.2019
4160 Clouds 13 1022 87 10000 5.1 20 00:21 05.08.2019
4161 Clouds 13 1022 87 10000 5.1 20 23:55 04.08.2019
4162 Clouds 13 1022 87 10000 5.1 20 23:36 04.08.2019
4163 Clouds 13 1022 87 10000 5.1 20 23:18 04.08.2019
4164 Clouds 14 1022 76 10000 4.6 20 22:54 04.08.2019
4165 Clouds 14 1022 76 10000 4.6 20 22:36 04.08.2019
4166 Clouds 14 1022 82 10000 6.7 350 22:18 04.08.2019
4167 Clouds 13 1022 82 10000 6.7 350 21:41 04.08.2019
4168 Clouds 13 1022 87 10000 6.7 340 21:20 04.08.2019
4169 Clouds 13 1022 87 10000 6.7 340 20:43 04.08.2019
4170 Clouds 13 1022 87 10000 6.7 340 20:19 04.08.2019
4171 Clouds 13 1021 87 10000 5.7 350 19:57 04.08.2019
4172 Clouds 13 1021 87 10000 5.7 350 19:37 04.08.2019
4173 Clouds 13 1021 87 10000 5.7 350 19:19 04.08.2019
4174 Clouds 14 1021 87 10000 7.7 330 18:42 04.08.2019
4175 Clouds 14 1021 87 10000 7.7 330 18:20 04.08.2019
4176 Clouds 15 1021 82 10000 6.7 320 17:45 04.08.2019
4177 Clouds 15 1021 82 10000 6.7 320 17:25 04.08.2019
4178 Clouds 15 1021 82 10000 6.7 310 16:59 04.08.2019
4179 Clouds 15 1021 82 10000 6.7 310 16:38 04.08.2019
4180 Clouds 16 1020 77 10000 7.2 310 16:19 04.08.2019
4181 Clouds 16 1020 77 10000 7.2 310 15:42 04.08.2019
4182 Clouds 16 1020 77 10000 7.2 20 15:21 04.08.2019
4183 Clouds 16 1020 77 10000 7.2 20 14:45 04.08.2019
4184 Clouds 16 1020 77 10000 7.2 20 14:45 04.08.2019
4185 Clouds 16 1020 77 10000 7.2 20 14:26 04.08.2019
4186 Clouds 16 1021 82 10000 7.2 30 13:47 04.08.2019
4187 Clouds 16 1021 82 10000 7.2 30 13:28 04.08.2019
4188 Clouds 15 1022 87 10000 6.7 40 12:59 04.08.2019
4189 Clouds 15 1022 87 10000 6.7 40 12:40 04.08.2019
4190 Clouds 15 1022 87 10000 6.7 40 12:22 04.08.2019
4191 Clouds 14 1022 87 9000 6.2 40 11:55 04.08.2019
4192 Clouds 13 1022 87 9000 6.2 40 11:36 04.08.2019
4193 Clouds 13 1022 87 9000 6.2 40 11:18 04.08.2019
4194 Clouds 13 1022 87 7000 5.7 40 10:40 04.08.2019
4195 Clouds 12 1022 87 7000 5.7 40 10:19 04.08.2019
4196 Clouds 12 1021 100 6000 4.1 50 09:42 04.08.2019
4197 Clouds 11 1021 100 6000 4.1 50 09:21 04.08.2019
4198 Mist 10 1020 93 5000 4.6 30 08:41 04.08.2019
4199 Mist 11 1020 93 5000 4.6 30 08:20 04.08.2019
4200 Clouds 11 1019 93 6000 4.1 10 07:48 04.08.2019
4201 Clouds 10 1019 100 10000 4.6 340 06:47 04.08.2019
4202 Clouds 10 1019 100 10000 4.6 340 06:24 04.08.2019
4203 Fog 11 1018 100 200 3.1 340 03:44 04.08.2019
4204 Fog 11 1019 93 100 1.5 0 02:23 04.08.2019
4205 Fog 11 1018 100 150 2.6 40 01:33 04.08.2019
4206 Fog 12 1019 93 100 1 0 00:45 04.08.2019
4207 Fog 12 1019 93 100 1 0 00:26 04.08.2019
4208 Fog 12 1019 100 300 2.1 310 23:57 03.08.2019
4209 Fog 12 1019 100 300 2.1 310 23:39 03.08.2019
4210 Fog 12 1019 100 300 2.1 310 23:18 03.08.2019
4211 Fog 12 1019 100 200 2.1 330 22:44 03.08.2019
4212 Fog 12 1019 100 200 2.1 330 22:20 03.08.2019
4213 Fog 12 1019 100 100 2.1 320 21:40 03.08.2019
4214 Fog 12 1019 93 200 1.5 340 21:22 03.08.2019
4215 Fog 13 1019 93 200 1.5 340 20:57 03.08.2019
4216 Fog 13 1019 93 400 1.5 340 20:36 03.08.2019
4217 Fog 13 1019 93 400 1.5 340 20:18 03.08.2019
4218 Clouds 13 1019 93 10000 1 0 19:41 03.08.2019
4219 Clouds 14 1019 72 10000 0.5 0 19:22 03.08.2019
4220 Clouds 15 1019 72 10000 0.5 0 18:46 03.08.2019
4221 Clouds 15 1019 72 10000 0.5 0 18:26 03.08.2019
4222 Clouds 17 1018 63 10000 3.1 320 17:47 03.08.2019
4223 Clouds 17 1018 63 10000 3.1 320 17:21 03.08.2019
4224 Clouds 18 1018 59 10000 3.1 320 16:55 03.08.2019
4225 Clouds 18 1018 59 10000 3.1 320 16:37 03.08.2019
4226 Clouds 18 1018 59 10000 2.1 0 16:18 03.08.2019
4227 Clouds 18 1018 59 10000 2.1 0 15:42 03.08.2019
4228 Clouds 18 1018 59 10000 2.1 0 15:20 03.08.2019
4229 Clouds 18 1019 63 10000 2.6 300 14:38 03.08.2019
4230 Clouds 18 1019 67 10000 2.1 270 14:19 03.08.2019
4231 Clouds 18 1019 67 10000 2.1 270 13:50 03.08.2019
4232 Clouds 18 1019 67 10000 2.1 270 13:24 03.08.2019
4233 Clouds 18 1020 67 10000 1 0 12:57 03.08.2019
4234 Clouds 18 1020 67 10000 1 0 12:38 03.08.2019
4235 Clouds 17 1020 67 10000 1 0 12:20 03.08.2019
4236 Clouds 16 1021 77 10000 1.5 0 11:47 03.08.2019
4237 Clouds 15 1020 87 8000 0.5 0 11:25 03.08.2019
4238 Clouds 14 1020 87 8000 0.5 0 10:40 03.08.2019
4239 Clouds 14 1020 87 8000 0.5 0 10:21 03.08.2019
4240 Clouds 12 1020 100 6000 1 0 09:39 03.08.2019
4241 Clouds 11 1020 100 6000 1 0 09:19 03.08.2019
4242 Mist 10 1020 93 5000 1.5 50 08:46 03.08.2019
4243 Clouds 10 1019 93 8000 1.5 0 07:47 03.08.2019
4244 Clouds 10 1019 93 8000 1.5 0 07:28 03.08.2019
4245 Clouds 9 1019 100 10000 0.5 0 06:22 03.08.2019
4246 Clouds 10 1020 100 8000 0.5 320 03:58 03.08.2019
4247 Clouds 11 1020 100 8000 1.5 0 02:29 03.08.2019
4248 Clouds 10 1021 100 6000 3.1 50 01:34 03.08.2019
4249 Fog 11 1021 100 1000 1 20 00:33 03.08.2019
4250 Fog 11 1021 93 300 1.5 20 23:57 02.08.2019
4251 Fog 11 1021 93 300 1.5 20 23:57 02.08.2019
4252 Fog 11 1021 93 300 1.5 20 23:37 02.08.2019
4253 Fog 11 1021 93 300 1.5 20 23:18 02.08.2019
4254 Fog 12 1021 93 300 1 80 22:55 02.08.2019
4255 Fog 12 1021 93 300 1 80 22:36 02.08.2019
4256 Fog 12 1021 93 300 1 80 22:18 02.08.2019
4257 Rain 12 1020 93 9000 1.5 100 21:41 02.08.2019
4258 Clear 12 1020 93 9000 1.5 100 21:22 02.08.2019
4259 Clear 13 1019 87 10000 1.5 150 20:45 02.08.2019
4260 Clear 13 1019 87 10000 1.5 150 20:27 02.08.2019
4261 Clear 13 1019 76 10000 2.1 150 19:56 02.08.2019
4262 Clear 13 1019 76 10000 2.1 150 19:34 02.08.2019
4263 Clouds 15 1018 67 10000 1.5 140 18:57 02.08.2019
4264 Clouds 15 1018 67 10000 1.5 140 18:39 02.08.2019
4265 Clouds 16 1018 63 10000 3.6 170 18:20 02.08.2019
4266 Clouds 17 1018 63 10000 3.6 170 17:42 02.08.2019
4267 Clouds 17 1018 63 10000 3.6 170 17:22 02.08.2019
4268 Clouds 17 1017 72 10000 5.1 190 16:56 02.08.2019
4269 Clouds 17 1017 72 10000 5.1 190 16:37 02.08.2019
4270 Clouds 18 1017 68 10000 5.1 180 16:18 02.08.2019
4271 Clouds 18 1017 68 10000 5.1 180 15:38 02.08.2019
4272 Clouds 18 1017 67 0 4.92 180 15:18 02.08.2019
4273 Clouds 17 1017 72 10000 5.7 180 14:45 02.08.2019
4274 Clouds 17 1017 72 10000 5.7 180 14:45 02.08.2019
4275 Clouds 18 1017 72 10000 5.7 180 14:18 02.08.2019
4276 Clouds 18 1018 72 10000 5.7 170 13:47 02.08.2019
4277 Clouds 18 1018 72 10000 5.7 170 13:23 02.08.2019
4278 Clouds 17 1018 72 10000 4.6 180 12:44 02.08.2019
4279 Clouds 17 1018 72 10000 4.6 180 12:21 02.08.2019
4280 Clouds 17 1018 72 10000 3.6 210 11:48 02.08.2019
4281 Clouds 16 1018 72 10000 3.6 210 11:26 02.08.2019
4282 Clouds 15 1017 87 10000 2.6 220 10:55 02.08.2019
4283 Clouds 15 1017 87 10000 2.6 220 10:55 02.08.2019
4284 Clouds 14 1017 87 10000 2.6 220 10:37 02.08.2019
4285 Clouds 14 1017 87 10000 2.6 220 10:19 02.08.2019
4286 Clouds 13 1017 93 7000 2.1 220 09:48 02.08.2019
4287 Mist 12 1017 93 4000 2.1 240 09:24 02.08.2019
4288 Mist 11 1017 100 3000 1 0 08:46 02.08.2019
4289 Clear 10 1016 100 10000 1 0 08:21 02.08.2019
4290 Clear 9 1016 100 10000 1 0 07:48 02.08.2019
4291 Clear 9 1016 100 10000 1 0 07:29 02.08.2019
4292 Clear 9 1015 100 10000 2.1 40 06:44 02.08.2019
4293 Clear 9 1014 93 10000 2.1 340 05:52 02.08.2019
4294 Clear 10 1014 87 10000 0.5 0 04:19 02.08.2019
4295 Clear 11 1014 87 10000 0.5 0 03:25 02.08.2019
4296 Clear 11 1014 93 10000 4.1 230 01:46 02.08.2019
4297 Clear 11 1015 93 10000 3.1 220 00:35 02.08.2019
4298 Clear 12 1015 82 10000 3.6 210 23:46 01.08.2019
4299 Clear 12 1015 82 10000 3.6 210 23:28 01.08.2019
4300 Clear 13 1015 71 10000 4.1 210 22:56 01.08.2019
4301 Clear 13 1015 71 10000 4.1 210 22:37 01.08.2019
4302 Clear 13 1016 82 10000 4.1 170 22:19 01.08.2019
4303 Clear 13 1016 82 10000 4.1 170 21:43 01.08.2019
4304 Clear 13 1016 82 10000 4.1 170 21:23 01.08.2019
4305 Clear 13 1016 76 10000 3.6 210 20:55 01.08.2019
4306 Clear 14 1016 76 10000 3.6 210 20:36 01.08.2019
4307 Clear 14 1016 82 10000 3.6 210 20:18 01.08.2019
4308 Clear 14 1016 82 10000 3.6 210 19:40 01.08.2019
4309 Clear 15 1016 55 10000 4.1 210 19:19 01.08.2019
4310 Clear 16 1016 55 10000 4.1 210 18:44 01.08.2019
4311 Clear 16 1016 55 10000 4.1 210 18:24 01.08.2019
4312 Clear 18 1016 48 10000 4.6 200 17:52 01.08.2019
4313 Clear 18 1016 48 10000 4.6 200 17:33 01.08.2019
4314 Clear 19 1016 45 10000 3.6 170 16:59 01.08.2019
4315 Clear 19 1016 45 10000 3.6 170 16:40 01.08.2019
4316 Clear 19 1017 45 10000 3.6 170 16:20 01.08.2019
4317 Clear 19 1017 45 10000 3.6 170 15:41 01.08.2019
4318 Clear 19 1018 48 10000 3.6 190 15:19 01.08.2019
4319 Clear 19 1018 48 10000 3.6 190 14:43 01.08.2019
4320 Clear 19 1019 45 10000 2.1 200 14:20 01.08.2019
4321 Clear 19 1019 45 10000 2.1 200 13:58 01.08.2019
4322 Clear 19 1019 45 10000 2.1 200 13:40 01.08.2019
4323 Clear 19 1020 51 10000 1.5 0 13:21 01.08.2019
4324 Clear 18 1020 51 10000 1.5 0 12:48 01.08.2019
4325 Clear 17 1020 51 10000 1.5 0 12:27 01.08.2019
4326 Clear 16 1020 67 10000 2.6 220 11:44 01.08.2019
4327 Clear 16 1020 67 10000 2.6 220 11:25 01.08.2019
4328 Clear 15 1021 76 10000 2.1 240 10:57 01.08.2019
4329 Clear 15 1021 76 10000 2.1 240 10:39 01.08.2019
4330 Clear 15 1021 76 10000 2.1 240 10:21 01.08.2019
4331 Clear 13 1021 87 10000 0.5 0 09:47 01.08.2019
4332 Clear 12 1021 87 10000 0.5 0 09:23 01.08.2019
4333 Clear 10 1021 93 10000 1.5 280 08:49 01.08.2019
4334 Clear 9 1021 93 10000 1.5 280 08:21 01.08.2019
4335 Clear 9 1021 93 10000 1 0 07:53 01.08.2019
4336 Clear 9 1021 93 10000 1 0 07:29 01.08.2019
4337 Clouds 9 1021 93 8000 1 0 06:50 01.08.2019
4338 Clouds 9 1021 93 8000 1 0 06:31 01.08.2019
4339 Clouds 9 1021 93 10000 1.5 210 05:31 01.08.2019
4340 Mist 10 1023 93 4000 1.5 240 02:36 01.08.2019
4341 Clouds 11 1023 100 10000 3.1 220 01:25 01.08.2019
4342 Clouds 11 1023 93 10000 3.1 230 00:27 01.08.2019
4343 Clouds 11 1024 93 6000 1.5 0 23:57 31.07.2019
4344 Clouds 11 1024 93 6000 1.5 0 23:39 31.07.2019
4345 Clouds 12 1024 93 6000 3.1 220 23:19 31.07.2019
4346 Clouds 12 1024 93 6000 3.1 220 22:44 31.07.2019
4347 Clouds 12 1024 93 6000 3.1 220 22:24 31.07.2019
4348 Clouds 12 1024 100 6000 3.1 200 21:41 31.07.2019
4349 Clouds 11 1024 100 6000 3.1 200 21:23 31.07.2019
4350 Clouds 11 1024 87 10000 3.1 190 20:49 31.07.2019
4351 Clouds 12 1024 87 10000 3.1 190 20:24 31.07.2019
4352 Clouds 12 1023 87 10000 2.6 170 19:49 31.07.2019
4353 Clouds 12 1023 87 10000 2.6 170 19:31 31.07.2019
4354 Clouds 13 1023 82 10000 2.1 150 18:58 31.07.2019
4355 Clouds 13 1023 82 10000 2.1 150 18:39 31.07.2019
4356 Clouds 14 1023 82 10000 2.1 150 18:18 31.07.2019
4357 Clouds 15 1023 76 10000 2.6 150 17:45 31.07.2019
4358 Clouds 15 1023 76 10000 2.6 150 17:20 31.07.2019
4359 Clouds 15 1022 76 10000 3.6 150 16:54 31.07.2019
4360 Clouds 15 1022 76 10000 3.6 150 16:33 31.07.2019
4361 Clouds 16 1022 59 10000 3.1 310 15:58 31.07.2019
4362 Clouds 16 1022 59 10000 3.1 310 15:39 31.07.2019
4363 Clouds 16 1022 59 10000 3.1 310 15:20 31.07.2019
4364 Clouds 16 1022 59 10000 4.6 310 14:42 31.07.2019
4365 Clouds 16 1023 72 10000 3.6 350 14:20 31.07.2019
4366 Clouds 16 1023 72 10000 3.6 350 13:55 31.07.2019
4367 Clouds 16 1023 72 10000 3.6 350 13:37 31.07.2019
4368 Clouds 16 1023 72 10000 3.6 350 13:18 31.07.2019
4369 Clouds 15 1023 77 10000 2.6 10 12:41 31.07.2019
4370 Clouds 14 1023 77 10000 2.6 10 12:23 31.07.2019
4371 Clouds 14 1023 87 10000 2.6 10 11:40 31.07.2019
4372 Clouds 14 1023 87 10000 2.6 10 11:21 31.07.2019
4373 Rain 13 1022 93 6000 3.1 110 10:56 31.07.2019
4374 Rain 13 1022 93 6000 3.1 110 10:38 31.07.2019
4375 Rain 13 1022 93 6000 3.1 110 10:19 31.07.2019
4376 Clouds 12 1022 100 10000 3.1 50 09:42 31.07.2019
4377 Clouds 12 1022 100 10000 3.1 50 09:23 31.07.2019
4378 Clouds 11 1021 100 10000 1 60 08:44 31.07.2019
4379 Clouds 11 1021 100 10000 1 60 08:24 31.07.2019
4380 Clouds 12 1020 87 10000 1.5 340 07:48 31.07.2019
4381 Clouds 12 1020 87 10000 1.5 340 07:30 31.07.2019
4382 Clouds 12 1019 93 10000 5.1 340 05:23 31.07.2019
4383 Rain 12 1019 93 10000 2.6 0 04:19 31.07.2019
4384 Clouds 13 1019 93 10000 7.7 340 00:38 31.07.2019
4385 Clouds 13 1019 93 10000 6.7 350 23:51 30.07.2019
4386 Clouds 12 1019 93 10000 6.7 350 23:29 30.07.2019
4387 Clouds 13 1019 87 10000 5.7 330 22:49 30.07.2019
4388 Clouds 13 1019 87 10000 5.7 330 22:26 30.07.2019
4389 Rain 13 1018 87 6000 6.2 330 21:59 30.07.2019
4390 Rain 13 1018 87 6000 6.2 330 21:37 30.07.2019
4391 Rain 13 1018 87 6000 6.2 330 21:19 30.07.2019
4392 Rain 13 1018 87 8000 7.2 300 20:56 30.07.2019
4393 Rain 13 1018 87 8000 7.2 300 20:37 30.07.2019
4394 Rain 13 1018 87 8000 7.2 300 20:18 30.07.2019
4395 Clouds 13 1017 82 10000 7.2 320 19:44 30.07.2019
4396 Clouds 13 1017 82 10000 7.2 320 19:26 30.07.2019
4397 Rain 13 1017 93 6000 7.2 290 18:48 30.07.2019
4398 Rain 13 1016 93 2500 5.7 300 18:23 30.07.2019
4399 Rain 14 1016 76 4000 9.3 320 17:58 30.07.2019
4400 Clouds 15 1016 72 10000 7.7 330 17:39 30.07.2019
4401 Clouds 15 1016 72 10000 7.7 330 17:18 30.07.2019
4402 Clouds 16 1015 67 10000 6.2 320 16:42 30.07.2019
4403 Clouds 16 1015 67 10000 6.2 320 16:19 30.07.2019
4404 Clouds 16 1014 72 10000 9.3 320 15:39 30.07.2019
4405 Clouds 16 1014 72 10000 9.3 310 15:19 30.07.2019
4406 Clouds 16 1014 72 10000 9.3 320 15:19 30.07.2019
4407 Clouds 16 1014 72 10000 9.3 310 14:43 30.07.2019
4408 Clouds 16 1014 72 10000 9.3 310 14:43 30.07.2019
4409 Clouds 16 1014 77 9000 10.8 310 14:22 30.07.2019
4410 Clouds 15 1014 77 9000 10.8 310 13:56 30.07.2019
4411 Clouds 15 1014 87 10000 9.3 320 13:37 30.07.2019
4412 Clouds 15 1014 87 10000 12.3 310 13:19 30.07.2019
4413 Clouds 15 1014 87 10000 14.9 290 12:43 30.07.2019
4414 Rain 16 1010 75 0 1.34 321 12:24 30.07.2019
4415 Clouds 15 1013 87 10000 11.3 320 11:46 30.07.2019
4416 Clouds 14 1013 93 10000 11.8 320 11:26 30.07.2019
4417 Clouds 15 1012 77 10000 13.4 330 10:57 30.07.2019
4418 Clouds 15 1012 82 10000 12.9 330 10:38 30.07.2019
4419 Clouds 14 1012 82 10000 12.9 330 10:38 30.07.2019
4420 Clouds 14 1012 82 10000 12.9 330 10:20 30.07.2019
4421 Clouds 14 1012 82 10000 12.9 330 10:20 30.07.2019
4422 Clouds 15 1012 77 10000 13.9 330 09:48 30.07.2019
4423 Clouds 15 1012 82 10000 12.9 340 09:28 30.07.2019
4424 Clouds 14 1011 87 10000 11.8 340 08:41 30.07.2019
4425 Clouds 14 1011 87 10000 11.8 340 08:19 30.07.2019
4426 Clouds 14 1010 87 10000 12.3 340 07:43 30.07.2019
4427 Clouds 14 1010 87 10000 12.3 340 07:43 30.07.2019
4428 Clouds 15 1010 87 10000 12.3 340 07:23 30.07.2019
4429 Clouds 15 1009 87 10000 10.8 340 06:44 30.07.2019
4430 Clouds 14 1010 87 10000 11.8 340 05:36 30.07.2019
4431 Clouds 14 1009 87 10000 11.3 340 04:59 30.07.2019
4432 Rain 14 1010 87 4000 12.9 330 01:30 30.07.2019
4433 Clouds 15 1009 82 10000 11.8 350 00:28 30.07.2019
4434 Clouds 14 1010 87 10000 11.3 350 23:59 29.07.2019
4435 Clouds 14 1010 87 10000 11.3 350 23:41 29.07.2019
4436 Clouds 14 1010 87 10000 11.3 350 23:22 29.07.2019
4437 Drizzle 14 1010 87 10000 10.3 350 22:56 29.07.2019
4438 Drizzle 14 1010 87 10000 10.3 350 22:38 29.07.2019
4439 Rain 14 1010 87 10000 10.8 350 22:18 29.07.2019
4440 Rain 14 1010 87 10000 10.8 350 21:42 29.07.2019
4441 Rain 14 1010 87 10000 10.8 350 21:23 29.07.2019
4442 Rain 14 1010 87 10000 9.3 10 20:58 29.07.2019
4443 Rain 14 1010 87 10000 9.3 10 20:39 29.07.2019
4444 Rain 14 1010 87 10000 9.3 10 20:20 29.07.2019
4445 Rain 14 1010 93 4000 9.8 10 19:50 29.07.2019
4446 Rain 13 1010 93 4000 9.8 10 19:24 29.07.2019
4447 Rain 14 1010 87 3000 10.3 20 18:58 29.07.2019
4448 Clouds 14 1010 87 10000 10.8 10 18:40 29.07.2019
4449 Clouds 14 1010 87 10000 10.8 20 18:20 29.07.2019
4450 Clouds 14 1010 87 10000 10.8 20 17:47 29.07.2019
4451 Clouds 14 1010 87 10000 10.8 20 17:29 29.07.2019
4452 Clouds 15 1010 77 10000 11.8 20 16:55 29.07.2019
4453 Clouds 15 1010 77 10000 11.8 20 16:37 29.07.2019
4454 Clouds 15 1010 77 10000 11.8 20 16:18 29.07.2019
4455 Clouds 15 1011 77 10000 9.8 10 15:45 29.07.2019
4456 Clouds 15 1011 77 10000 9.8 10 15:27 29.07.2019
4457 Clouds 15 1011 76 10000 10.3 20 14:42 29.07.2019
4458 Clouds 15 1011 76 10000 10.3 20 14:21 29.07.2019
4459 Clouds 15 1012 76 10000 11.3 30 13:48 29.07.2019
4460 Clouds 15 1012 76 10000 11.3 30 13:24 29.07.2019
4461 Clouds 15 1013 82 10000 8.7 20 12:59 29.07.2019
4462 Clouds 15 1013 82 10000 8.7 20 12:40 29.07.2019
4463 Clouds 14 1013 82 10000 8.7 20 12:21 29.07.2019
4464 Clouds 14 1013 82 10000 9.3 20 11:42 29.07.2019
4465 Clouds 14 1013 82 10000 9.3 20 11:19 29.07.2019
4466 Clouds 14 1013 82 10000 8.2 30 10:44 29.07.2019
4467 Clouds 13 1013 87 10000 8.7 30 10:22 29.07.2019
4468 Clouds 13 1013 87 10000 8.7 30 09:44 29.07.2019
4469 Clouds 13 1012 87 10000 9.8 30 09:23 29.07.2019
4470 Clouds 13 1012 87 10000 9.8 30 08:49 29.07.2019
4471 Clouds 12 1012 87 10000 9.8 30 08:27 29.07.2019
4472 Clouds 12 1012 87 10000 6.7 10 07:50 29.07.2019
4473 Clouds 12 1012 87 10000 6.7 10 07:30 29.07.2019
4474 Clouds 12 1012 87 10000 6.7 10 07:30 29.07.2019
4475 Clouds 12 1011 87 10000 5.7 10 06:40 29.07.2019
4476 Clouds 11 1011 93 10000 7.2 360 05:37 29.07.2019
4477 Clouds 11 1012 100 10000 6.2 30 04:23 29.07.2019
4478 Clouds 11 1013 93 10000 5.7 20 01:52 29.07.2019
4479 Clouds 11 1013 93 10000 5.7 20 01:34 29.07.2019
4480 Clouds 11 1013 93 10000 4.6 20 00:59 29.07.2019
4481 Clouds 11 1013 93 10000 4.6 20 00:30 29.07.2019
4482 Clouds 12 1013 81 10000 4.6 360 23:45 28.07.2019
4483 Clouds 12 1013 81 10000 4.6 360 23:26 28.07.2019
4484 Clouds 12 1013 81 10000 5.1 360 22:57 28.07.2019
4485 Clouds 12 1013 81 10000 5.1 360 22:36 28.07.2019
4486 Clouds 12 1013 81 10000 5.1 360 22:18 28.07.2019
4487 Clouds 12 1014 87 10000 5.1 350 21:42 28.07.2019
4488 Clouds 11 1014 87 10000 5.1 350 21:18 28.07.2019
4489 Clouds 12 1013 87 10000 6.2 340 20:43 28.07.2019
4490 Clouds 12 1013 87 10000 6.2 340 20:24 28.07.2019
4491 Clouds 13 1013 82 10000 5.1 330 19:42 28.07.2019
4492 Clouds 13 1013 82 10000 5.1 330 19:21 28.07.2019
4493 Clouds 14 1013 76 10000 5.1 330 18:47 28.07.2019
4494 Clouds 14 1013 76 10000 5.1 330 18:29 28.07.2019
4495 Clouds 14 1013 76 10000 6.2 330 17:58 28.07.2019
4496 Clouds 14 1013 76 10000 6.2 330 17:58 28.07.2019
4497 Clouds 15 1013 76 10000 6.2 330 17:39 28.07.2019
4498 Clouds 15 1013 76 10000 7.2 320 17:19 28.07.2019
4499 Clouds 15 1013 76 10000 7.2 320 16:46 28.07.2019
4500 Clouds 15 1013 76 10000 7.2 320 16:26 28.07.2019
4501 Clouds 15 1013 76 10000 7.2 320 15:49 28.07.2019
4502 Clouds 15 1013 76 10000 7.2 320 15:28 28.07.2019
4503 Clouds 15 1013 76 10000 7.7 350 14:57 28.07.2019
4504 Clouds 15 1013 76 10000 7.7 350 14:37 28.07.2019
4505 Clouds 15 1014 76 10000 7.2 340 14:18 28.07.2019
4506 Clouds 16 1014 76 10000 7.2 340 13:40 28.07.2019
4507 Clouds 16 1014 76 10000 7.2 340 13:21 28.07.2019
4508 Clouds 15 1014 82 10000 6.7 350 12:58 28.07.2019
4509 Clouds 15 1014 87 10000 6.7 340 12:39 28.07.2019
4510 Clouds 13 1014 87 10000 6.7 340 12:19 28.07.2019
4511 Mist 12 1014 100 3500 3.1 30 11:44 28.07.2019
4512 Mist 13 1014 100 3500 3.1 30 11:26 28.07.2019
4513 Fog 12 1014 100 600 3.1 340 10:39 28.07.2019
4514 Fog 13 1014 100 600 3.1 340 10:39 28.07.2019
4515 Fog 12 1014 100 600 3.1 340 10:20 28.07.2019
4516 Fog 12 1014 100 200 1.5 0 09:41 28.07.2019
4517 Fog 12 1014 100 200 1.5 0 09:41 28.07.2019
4518 Fog 11 1014 100 300 0.5 0 09:23 28.07.2019
4519 Fog 11 1014 100 300 0.5 0 08:51 28.07.2019
4520 Fog 11 1014 93 300 1.5 50 08:28 28.07.2019
4521 Fog 11 1013 93 800 1.5 60 07:51 28.07.2019
4522 Fog 11 1013 93 900 1 360 07:32 28.07.2019
4523 Fog 11 1013 100 100 0.5 0 06:39 28.07.2019
4524 Fog 11 1013 93 100 1 0 05:25 28.07.2019
4525 Fog 12 1013 93 700 0.5 0 03:27 28.07.2019
4526 Fog 12 1014 93 900 1 0 02:19 28.07.2019
4527 Mist 12 1014 100 4000 2.1 190 01:19 28.07.2019
4528 Mist 13 1014 93 2500 2.6 200 00:44 28.07.2019
4529 Mist 13 1014 93 2500 2.6 200 00:18 28.07.2019
4530 Fog 13 1014 93 900 3.6 210 23:44 27.07.2019
4531 Fog 12 1014 93 900 3.6 210 23:19 27.07.2019
4532 Fog 12 1014 100 700 2.6 210 22:40 27.07.2019
4533 Fog 13 1014 100 700 2.6 210 22:19 27.07.2019
4534 Clouds 13 1014 93 8000 2.6 210 21:39 27.07.2019
4535 Clouds 13 1014 93 8000 2.6 210 21:20 27.07.2019
4536 Clouds 13 1014 93 10000 2.6 210 20:50 27.07.2019
4537 Clouds 13 1014 93 10000 2.6 210 20:23 27.07.2019
4538 Clouds 13 1013 93 10000 3.1 200 19:46 27.07.2019
4539 Clouds 14 1013 93 10000 3.1 200 19:26 27.07.2019
4540 Clouds 14 1013 93 10000 3.6 190 18:52 27.07.2019
4541 Clouds 14 1013 93 10000 4.1 180 18:34 27.07.2019
4542 Clouds 15 1013 87 10000 4.6 190 17:52 27.07.2019
4543 Clouds 15 1013 87 10000 4.6 190 17:33 27.07.2019
4544 Clouds 16 1013 82 10000 5.7 190 16:59 27.07.2019
4545 Clouds 16 1013 82 10000 5.7 190 16:59 27.07.2019
4546 Clouds 16 1013 77 10000 5.1 180 16:40 27.07.2019
4547 Clouds 16 1013 77 10000 5.1 180 16:21 27.07.2019
4548 Clear 17 1013 77 10000 4.1 190 15:48 27.07.2019
4549 Clear 17 1013 77 10000 4.1 190 15:20 27.07.2019
4550 Clouds 17 1014 77 10000 3.6 200 14:50 27.07.2019
4551 Clouds 17 1014 77 10000 3.6 200 14:31 27.07.2019
4552 Clouds 17 1014 82 10000 4.1 200 13:55 27.07.2019
4553 Clouds 16 1015 87 9000 4.1 190 13:25 27.07.2019
4554 Clouds 16 1015 93 9000 4.6 190 12:59 27.07.2019
4555 Clouds 16 1015 93 9000 4.6 190 12:41 27.07.2019
4556 Clouds 15 1015 93 9000 4.6 190 12:21 27.07.2019
4557 Clouds 15 1016 100 6000 5.1 190 11:41 27.07.2019
4558 Clouds 15 1016 100 6000 5.1 190 11:23 27.07.2019
4559 Mist 15 1016 100 2000 4.6 180 10:42 27.07.2019
4560 Mist 14 1016 100 2000 4.6 180 10:23 27.07.2019
4561 Mist 13 1016 93 2000 5.1 200 09:43 27.07.2019
4562 Mist 13 1016 93 2000 5.1 200 09:23 27.07.2019
4563 Mist 12 1016 100 1500 4.1 190 08:52 27.07.2019
4564 Mist 12 1016 100 1500 4.1 190 08:33 27.07.2019
4565 Mist 12 1016 93 1500 4.6 200 07:57 27.07.2019
4566 Mist 12 1016 93 1500 4.6 200 07:57 27.07.2019
4567 Fog 12 1016 100 200 3.6 200 07:38 27.07.2019
4568 Fog 12 1016 100 200 3.6 200 07:18 27.07.2019
4569 Fog 11 1016 93 800 1 0 06:49 27.07.2019
4570 Fog 11 1016 93 800 1 0 06:49 27.07.2019
4571 Fog 11 1016 93 200 0.5 0 06:20 27.07.2019
4572 Fog 11 1016 93 200 0.5 0 05:35 27.07.2019
4573 Fog 11 1016 100 100 0.5 0 04:41 27.07.2019
4574 Fog 11 1016 100 200 1 120 03:40 27.07.2019
4575 Fog 11 1017 100 200 1 140 02:43 27.07.2019
4576 Fog 11 1017 100 200 1.5 160 01:57 27.07.2019
4577 Fog 11 1017 100 200 1.5 160 01:32 27.07.2019
4578 Fog 12 1018 100 200 1.5 0 00:38 27.07.2019
4579 Fog 11 1018 100 200 1.5 0 00:19 27.07.2019
4580 Fog 11 1019 100 200 1 150 23:42 26.07.2019
4581 Fog 11 1019 100 200 1 150 23:23 26.07.2019
4582 Fog 11 1019 100 200 1.5 0 22:43 26.07.2019
4583 Fog 11 1019 100 200 1.5 0 22:24 26.07.2019
4584 Fog 12 1019 93 1500 1 170 21:51 26.07.2019
4585 Fog 12 1019 93 1500 1 170 21:20 26.07.2019
4586 Clear 12 1020 93 10000 1.5 150 20:51 26.07.2019
4587 Clear 13 1020 93 10000 1.5 150 20:32 26.07.2019
4588 Clear 13 1020 82 10000 2.1 170 19:55 26.07.2019
4589 Clear 13 1020 82 10000 2.1 170 19:36 26.07.2019
4590 Clear 14 1020 76 10000 2.1 140 19:18 26.07.2019
4591 Clear 15 1020 76 10000 2.1 140 18:41 26.07.2019
4592 Clear 16 1020 67 10000 3.1 160 18:21 26.07.2019
4593 Clear 17 1020 67 10000 3.1 160 17:56 26.07.2019
4594 Clear 17 1020 67 10000 3.1 160 17:37 26.07.2019
4595 Clear 18 1020 63 10000 3.6 170 17:18 26.07.2019
4596 Clear 18 1020 63 10000 3.6 170 16:54 26.07.2019
4597 Clear 18 1020 63 10000 3.6 170 16:36 26.07.2019
4598 Clear 19 1020 59 10000 3.1 170 16:18 26.07.2019
4599 Clear 19 1020 59 10000 3.1 170 15:43 26.07.2019
4600 Clear 19 1020 59 10000 3.1 170 15:21 26.07.2019
4601 Clear 19 1021 59 10000 1 0 14:45 26.07.2019
4602 Clear 19 1021 59 10000 1 0 14:25 26.07.2019
4603 Clear 19 1022 68 10000 1.5 0 13:48 26.07.2019
4604 Clear 19 1022 68 10000 1.5 0 13:29 26.07.2019
4605 Clear 18 1023 72 10000 1 0 12:54 26.07.2019
4606 Clear 18 1023 72 10000 1 0 12:36 26.07.2019
4607 Clear 17 1023 77 10000 1 0 12:18 26.07.2019
4608 Clear 16 1023 77 10000 1 0 11:38 26.07.2019
4609 Clear 16 1023 77 10000 1 0 11:18 26.07.2019
4610 Clear 14 1024 87 10000 1 0 10:46 26.07.2019
4611 Clear 14 1024 87 10000 1 0 10:28 26.07.2019
4612 Mist 12 1024 100 3000 1 130 09:50 26.07.2019
4613 Mist 12 1024 100 3000 1 130 09:31 26.07.2019
4614 Mist 11 1024 93 3000 0.5 0 08:42 26.07.2019
4615 Mist 11 1024 93 3000 0.5 0 08:21 26.07.2019
4616 Mist 10 1023 93 5000 1.5 170 07:54 26.07.2019
4617 Clouds 10 1023 93 10000 2.1 170 07:27 26.07.2019
4618 Clouds 11 1024 93 10000 2.6 200 06:41 26.07.2019
4619 Clouds 12 1024 93 8000 2.6 200 04:50 26.07.2019
4620 Clouds 13 1024 93 8000 2.6 200 04:21 26.07.2019
4621 Drizzle 13 1025 93 6000 0.5 0 02:25 26.07.2019
4622 Clouds 13 1025 93 10000 2.1 30 01:31 26.07.2019
4623 Clouds 13 1025 93 10000 3.1 40 00:33 26.07.2019
4624 Drizzle 13 1025 93 4000 4.1 40 23:55 25.07.2019
4625 Drizzle 13 1025 93 4000 4.1 40 23:23 25.07.2019
4626 Drizzle 13 1025 93 5000 4.1 30 22:55 25.07.2019
4627 Clouds 13 1024 93 10000 2.6 20 22:36 25.07.2019
4628 Clouds 13 1024 93 10000 2.6 20 22:18 25.07.2019
4629 Clouds 14 1024 87 10000 2.1 20 21:41 25.07.2019
4630 Drizzle 14 1024 87 10000 4.1 340 21:21 25.07.2019
4631 Drizzle 14 1024 87 10000 4.1 340 20:45 25.07.2019
4632 Drizzle 14 1024 87 10000 4.1 340 20:22 25.07.2019
4633 Clouds 13 1023 93 10000 4.6 350 19:44 25.07.2019
4634 Clouds 13 1023 93 10000 4.6 350 19:25 25.07.2019
4635 Clouds 13 1022 100 10000 4.1 340 18:56 25.07.2019
4636 Clouds 13 1022 100 10000 4.1 340 18:38 25.07.2019
4637 Clouds 13 1022 100 10000 6.7 330 18:19 25.07.2019
4638 Rain 14 1022 93 3000 5.7 320 17:40 25.07.2019
4639 Rain 14 1022 87 4000 3.6 320 17:22 25.07.2019
4640 Drizzle 15 1021 87 4000 4.6 320 16:43 25.07.2019
4641 Drizzle 15 1021 87 4000 4.6 320 16:25 25.07.2019
4642 Clouds 16 1020 63 10000 8.2 330 15:54 25.07.2019
4643 Drizzle 16 1020 72 10000 8.2 350 15:21 25.07.2019
4644 Drizzle 16 1020 72 10000 8.2 350 14:56 25.07.2019
4645 Drizzle 16 1020 72 10000 8.2 350 14:38 25.07.2019
4646 Rain 16 1021 67 10000 8.2 350 14:18 25.07.2019
4647 Rain 16 1021 67 10000 8.2 350 13:40 25.07.2019
4648 Rain 16 1021 67 10000 8.2 350 13:22 25.07.2019
4649 Clouds 16 1021 67 10000 7.2 340 12:38 25.07.2019
4650 Clouds 16 1021 67 10000 7.2 340 12:20 25.07.2019
4651 Clouds 16 1020 63 10000 8.7 350 11:41 25.07.2019
4652 Clouds 16 1020 63 10000 8.7 350 11:22 25.07.2019
4653 Clouds 14 1020 71 10000 8.2 350 10:45 25.07.2019
4654 Clouds 14 1020 71 10000 8.2 350 10:25 25.07.2019
4655 Clouds 13 1020 76 10000 6.2 10 09:47 25.07.2019
4656 Clouds 13 1020 76 10000 6.2 10 09:28 25.07.2019
4657 Clouds 12 1020 81 10000 5.7 350 08:53 25.07.2019
4658 Clouds 12 1020 81 10000 5.7 350 08:33 25.07.2019
4659 Clouds 11 1019 81 10000 6.7 10 07:41 25.07.2019
4660 Clouds 11 1017 87 10000 8.7 20 06:50 25.07.2019
4661 Clouds 11 1017 87 10000 8.7 20 06:31 25.07.2019
4662 Clouds 12 1018 87 10000 9.3 30 05:36 25.07.2019
4663 Clouds 12 1019 87 10000 8.2 30 04:50 25.07.2019
4664 Clouds 11 1019 87 10000 6.2 30 03:24 25.07.2019
4665 Clouds 12 1019 81 10000 8.7 350 01:21 25.07.2019
4666 Clouds 13 1019 67 10000 8.2 360 00:35 25.07.2019
4667 Clouds 13 1019 76 10000 8.7 360 23:59 24.07.2019
4668 Clouds 13 1019 76 10000 8.7 360 23:40 24.07.2019
4669 Clouds 13 1019 76 10000 8.7 360 23:22 24.07.2019
4670 Clouds 13 1019 76 10000 7.7 360 22:45 24.07.2019
4671 Clouds 13 1019 76 10000 7.7 360 22:22 24.07.2019
4672 -273 0 0 0 0 0 21:56 24.07.2019
4673 Clouds 13 1019 76 10000 8.2 350 21:38 24.07.2019
4674 Clouds 13 1019 76 10000 8.2 350 21:38 24.07.2019
4675 Clouds 13 1019 76 10000 8.2 350 21:19 24.07.2019
4676 Clouds 13 1020 76 10000 7.7 360 20:46 24.07.2019
4677 Clouds 13 1020 76 10000 7.7 360 20:28 24.07.2019
4678 Clouds 13 1019 76 10000 7.2 340 19:58 24.07.2019
4679 Clouds 13 1019 76 10000 7.2 340 19:40 24.07.2019
4680 Clouds 13 1019 76 10000 7.2 340 19:40 24.07.2019
4681 Clouds 13 1019 71 10000 10.3 340 19:20 24.07.2019
4682 Clouds 14 1019 71 10000 10.3 340 18:43 24.07.2019
4683 Clouds 14 1019 71 10000 10.3 340 18:24 24.07.2019
4684 Clouds 14 1019 72 10000 9.3 330 17:47 24.07.2019
4685 Clouds 15 1018 67 10000 9.8 330 17:22 24.07.2019
4686 Clouds 15 1018 67 10000 9.8 330 16:57 24.07.2019
4687 Clouds 15 1018 67 10000 9.8 330 16:39 24.07.2019
4688 Clouds 15 1018 67 10000 9.8 330 16:20 24.07.2019
4689 Clouds 15 1018 71 10000 8.7 310 15:37 24.07.2019
4690 Clouds 15 1018 72 10000 9.8 330 15:19 24.07.2019
4691 Clouds 15 1018 72 10000 9.8 330 14:45 24.07.2019
4692 Clouds 16 1018 72 10000 9.8 330 14:21 24.07.2019
4693 Clouds 16 1018 72 10000 9.3 320 13:40 24.07.2019
4694 Clouds 16 1018 72 10000 9.3 320 13:22 24.07.2019
4695 Clouds 16 1018 67 10000 9.3 330 12:53 24.07.2019
4696 Clouds 16 1018 67 10000 9.3 330 12:35 24.07.2019
4697 Clouds 15 1018 82 10000 7.7 340 11:55 24.07.2019
4698 Clouds 15 1018 82 10000 7.7 340 11:37 24.07.2019
4699 Clouds 14 1018 82 10000 7.7 340 11:18 24.07.2019
4700 Clouds 14 1018 82 10000 6.7 350 10:41 24.07.2019
4701 Clouds 14 1018 82 10000 6.7 350 10:23 24.07.2019
4702 Clouds 13 1017 87 10000 4.1 360 09:44 24.07.2019
4703 Clouds 12 1017 87 10000 4.1 360 09:22 24.07.2019
4704 Clouds 12 1016 87 10000 2.6 20 08:44 24.07.2019
4705 Clouds 12 1016 87 10000 2.6 20 08:26 24.07.2019
4706 Clouds 12 1016 93 10000 3.6 10 07:46 24.07.2019
4707 Clouds 11 1016 93 10000 3.6 10 07:20 24.07.2019
4708 Clouds 12 1015 87 10000 4.1 350 06:28 24.07.2019
4709 Clouds 12 1015 81 10000 4.6 320 05:24 24.07.2019
4710 Rain 12 1012 71 10000 4.6 270 01:56 24.07.2019
4711 Rain 12 1012 71 10000 4.6 270 01:22 24.07.2019
4712 Rain 12 1011 76 10000 4.6 270 00:50 24.07.2019
4713 Rain 12 1011 76 10000 4.6 270 00:19 24.07.2019
4714 Clouds 13 1010 58 10000 8.7 260 23:37 23.07.2019
4715 Clouds 13 1008 58 10000 8.7 270 23:19 23.07.2019
4716 Clouds 13 1008 58 10000 8.7 270 22:39 23.07.2019
4717 Clouds 12 1008 58 10000 8.7 270 22:19 23.07.2019
4718 Clouds 11 1007 58 10000 9.3 280 21:54 23.07.2019
4719 Clouds 11 1007 58 10000 9.3 280 21:36 23.07.2019
4720 Clouds 11 1006 76 10000 6.2 290 21:18 23.07.2019
4721 Clouds 11 1006 76 10000 6.2 290 20:41 23.07.2019
4722 Clouds 11 1006 76 10000 6.2 290 20:21 23.07.2019
4723 Clouds 11 1004 81 10000 7.7 310 19:40 23.07.2019
4724 Clouds 12 1003 71 10000 12.9 290 19:19 23.07.2019
4725 Clouds 12 1003 71 10000 12.9 290 18:43 23.07.2019
4726 Rain 13 1003 76 5000 9.8 310 18:22 23.07.2019
4727 Rain 13 1003 76 5000 9.8 310 17:44 23.07.2019
4728 Clouds 13 1002 71 10000 10.8 310 17:24 23.07.2019
4729 Clouds 14 1002 67 10000 10.8 290 16:50 23.07.2019
4730 Clouds 14 1002 67 10000 10.8 290 16:28 23.07.2019
4731 Rain 13 1001 76 8000 10.3 300 15:59 23.07.2019
4732 Rain 13 1001 76 8000 10.3 300 15:40 23.07.2019
4733 Rain 13 1001 76 8000 9.8 310 15:21 23.07.2019
4734 Rain 13 1001 76 8000 9.8 310 14:38 23.07.2019
4735 Rain 13 1001 76 8000 9.8 310 14:19 23.07.2019
4736 Clouds 13 1001 76 10000 8.2 320 13:56 23.07.2019
4737 Clouds 13 1001 76 10000 8.2 320 13:56 23.07.2019
4738 Clouds 13 1001 76 10000 8.2 320 13:38 23.07.2019
4739 Clouds 12 1001 76 10000 8.2 320 13:20 23.07.2019
4740 Rain 11 1002 81 8000 6.7 320 12:45 23.07.2019
4741 Rain 11 1002 81 8000 6.7 320 12:25 23.07.2019
4742 Rain 12 998 86 0 0.89 328 11:46 23.07.2019
4743 Rain 12 1001 93 8000 7.7 320 11:27 23.07.2019
4744 Rain 13 1001 93 8000 7.7 320 10:54 23.07.2019
4745 Rain 14 1001 93 8000 7.7 320 10:36 23.07.2019
4746 Clouds 14 1001 93 8000 7.2 330 10:18 23.07.2019
4747 Rain 14 1001 93 6000 8.2 330 09:40 23.07.2019
4748 Rain 14 1001 93 10000 9.3 330 09:18 23.07.2019
4749 Rain 13 1001 93 10000 9.8 330 08:40 23.07.2019
4750 Rain 13 1001 93 10000 11.3 340 08:19 23.07.2019
4751 Rain 13 1001 93 10000 11.3 340 07:51 23.07.2019
4752 Rain 13 1001 93 10000 11.3 340 07:33 23.07.2019
4753 Rain 13 1001 87 8000 12.3 10 06:38 23.07.2019
4754 Rain 13 1002 87 6000 12.9 10 05:51 23.07.2019
4755 Clouds 14 1006 82 10000 11.8 360 01:58 23.07.2019
4756 Clouds 14 1006 82 10000 11.8 360 01:27 23.07.2019
4757 Clouds 13 1007 87 10000 12.3 360 00:28 23.07.2019
4758 Clouds 14 1008 82 10000 12.9 360 23:41 22.07.2019
4759 Clouds 14 1008 82 10000 12.9 360 23:21 22.07.2019
4760 Clouds 13 1008 87 10000 11.3 350 22:58 22.07.2019
4761 Clouds 13 1008 87 10000 11.3 350 22:40 22.07.2019
4762 Clouds 13 1008 87 10000 11.3 350 22:20 22.07.2019
4763 Clouds 13 1008 87 10000 11.3 350 22:20 22.07.2019
4764 Clouds 14 1009 93 10000 11.8 350 21:42 22.07.2019
4765 Clouds 13 1009 93 10000 11.8 350 21:21 22.07.2019
4766 Rain 14 1009 87 4000 12.3 350 20:48 22.07.2019
4767 Rain 14 1009 87 4000 12.3 350 20:29 22.07.2019
4768 Clouds 14 1009 93 10000 11.3 350 19:54 22.07.2019
4769 Clouds 14 1009 93 10000 11.3 350 19:36 22.07.2019
4770 Clouds 14 1009 93 10000 11.3 350 19:18 22.07.2019
4771 Rain 14 1009 82 10000 10.8 350 18:40 22.07.2019
4772 Clouds 14 1009 77 10000 10.8 340 18:22 22.07.2019
4773 Clouds 15 1009 77 10000 10.8 340 17:42 22.07.2019
4774 Clouds 15 1009 77 10000 10.8 340 17:23 22.07.2019
4775 Clouds 15 1010 72 10000 9.8 330 16:42 22.07.2019
4776 Clouds 15 1010 72 10000 9.8 330 16:21 22.07.2019
4777 Clouds 16 1010 72 10000 8.2 330 15:59 22.07.2019
4778 Clouds 16 1010 72 10000 8.2 330 15:37 22.07.2019
4779 Clouds 16 1011 72 10000 9.8 350 15:18 22.07.2019
4780 Clouds 16 1011 72 10000 9.8 350 14:43 22.07.2019
4781 Clouds 16 1011 72 10000 9.8 350 14:21 22.07.2019
4782 Clouds 16 1011 72 10000 9.8 350 14:21 22.07.2019
4783 Clouds 16 1011 77 10000 11.3 350 13:48 22.07.2019
4784 Clouds 16 1011 77 10000 11.3 350 13:29 22.07.2019
4785 Clouds 15 1012 76 10000 8.7 10 12:47 22.07.2019
4786 Clouds 15 1012 76 10000 8.7 10 12:28 22.07.2019
4787 Clouds 14 1012 76 10000 8.2 10 11:45 22.07.2019
4788 Clouds 14 1012 76 10000 8.2 10 11:25 22.07.2019
4789 Clouds 13 1013 82 10000 7.7 10 10:59 22.07.2019
4790 Clouds 13 1013 82 10000 7.7 10 10:33 22.07.2019
4791 Clouds 13 1013 87 10000 8.7 350 09:45 22.07.2019
4792 Clouds 13 1013 87 10000 8.7 350 09:26 22.07.2019
4793 Clouds 13 1012 82 10000 8.2 10 08:57 22.07.2019
4794 Clouds 12 1012 82 10000 8.2 10 08:36 22.07.2019
4795 Clouds 12 1012 87 10000 7.2 350 08:18 22.07.2019
4796 Clouds 12 1012 87 10000 4.6 30 07:43 22.07.2019
4797 Clouds 11 1012 87 10000 4.6 30 07:24 22.07.2019
4798 Clear 13 1011 62 10000 5.7 40 04:53 22.07.2019
4799 Clear 11 1011 62 10000 1.5 0 02:57 22.07.2019
4800 Clear 9 1012 71 10000 2.6 70 00:58 22.07.2019
4801 Clear 11 1012 71 10000 2.6 70 00:38 22.07.2019
4802 Clear 11 1013 71 10000 1.5 130 00:18 22.07.2019
4803 Clear 10 1013 71 10000 1.5 130 23:43 21.07.2019
4804 Clear 12 1013 58 10000 1 0 22:57 21.07.2019
4805 Clear 11 1013 58 10000 1 0 22:38 21.07.2019
4806 Clear 12 1013 58 10000 1 0 22:20 21.07.2019
4807 Clear 13 1013 47 10000 1 0 21:48 21.07.2019
4808 Clear 13 1013 47 10000 1 0 21:25 21.07.2019
4809 Clear 13 1013 47 10000 1.5 0 20:57 21.07.2019
4810 Clear 12 1013 58 10000 0.5 0 20:38 21.07.2019
4811 Clear 13 1013 58 10000 0.5 0 20:20 21.07.2019
4812 Clear 15 1014 44 10000 2.1 310 19:47 21.07.2019
4813 Clear 15 1014 44 10000 2.1 310 19:28 21.07.2019
4814 Clear 16 1015 32 10000 3.1 310 18:48 21.07.2019
4815 Clear 18 1015 32 10000 3.1 310 18:26 21.07.2019
4816 Clear 18 1015 28 10000 4.1 320 17:54 21.07.2019
4817 Clear 20 1015 28 10000 4.1 320 17:36 21.07.2019
4818 Clear 19 1015 28 10000 4.1 320 17:18 21.07.2019
4819 Clear 20 1015 28 10000 6.2 350 16:40 21.07.2019
4820 Clear 20 1015 28 10000 6.2 350 16:21 21.07.2019
4821 Clear 20 1016 61 10000 4.6 10 15:39 21.07.2019
4822 Clear 22 1016 53 10000 4.6 10 15:20 21.07.2019
4823 Clear 22 1016 53 10000 4.6 10 15:20 21.07.2019
4824 Clear 21 1017 53 10000 3.6 20 14:42 21.07.2019
4825 Clear 20 1017 53 10000 3.6 20 14:23 21.07.2019
4826 Clear 20 1018 24 10000 3.6 10 13:53 21.07.2019
4827 Clear 20 1018 24 10000 3.6 10 13:32 21.07.2019
4828 Clear 19 1019 33 10000 1.5 0 12:46 21.07.2019
4829 Clear 17 1019 33 10000 1.5 0 12:28 21.07.2019
4830 Clear 16 1020 36 10000 1 0 11:56 21.07.2019
4831 Clear 16 1020 36 10000 1 0 11:56 21.07.2019
4832 Clear 15 1020 41 10000 1.5 0 11:38 21.07.2019
4833 Clear 14 1020 41 10000 1.5 0 11:19 21.07.2019
4834 Clear 14 1021 54 10000 0.5 0 10:41 21.07.2019
4835 Clear 13 1021 54 10000 0.5 0 10:23 21.07.2019
4836 Clear 11 1021 70 10000 0.5 0 09:49 21.07.2019
4837 Clear 10 1021 81 10000 1 0 09:30 21.07.2019
4838 Clear 6 1022 80 10000 2.1 70 08:45 21.07.2019
4839 Clear 5 1022 58 10000 2.1 60 08:27 21.07.2019
4840 Clear 5 1022 58 10000 2.1 60 08:27 21.07.2019
4841 Clear 5 1022 93 10000 1.5 80 07:39 21.07.2019
4842 Clear 5 1022 93 10000 2.1 80 06:54 21.07.2019
4843 Clear 5 1023 93 10000 1 0 05:45 21.07.2019
4844 Clear 7 1025 93 10000 0.5 0 02:58 21.07.2019
4845 Clear 6 1026 93 10000 2.6 60 01:24 21.07.2019
4846 Clear 8 1026 81 10000 2.6 240 00:42 21.07.2019
4847 Clear 9 1026 81 10000 2.6 260 00:19 21.07.2019
4848 Clear 8 1026 81 10000 2.6 260 23:42 20.07.2019
4849 Clear 9 1027 75 10000 2.6 260 23:21 20.07.2019
4850 Clear 9 1027 75 10000 2.6 260 22:46 20.07.2019
4851 Clear 9 1027 75 10000 2.6 260 22:22 20.07.2019
4852 Clouds 9 1024 68 0 0.45 117 21:57 20.07.2019
4853 Clouds 9 1026 79 0 5.61 109.42 21:38 20.07.2019
4854 Clear 8 1027 75 10000 2.1 140 21:20 20.07.2019
4855 Clear 9 1027 75 10000 2.1 140 20:41 20.07.2019
4856 Clear 10 1027 75 10000 2.1 140 20:19 20.07.2019
4857 Clouds 10 1027 70 10000 3.6 140 19:45 20.07.2019
4858 Clouds 11 1028 66 10000 4.1 150 19:20 20.07.2019
4859 Clouds 11 1028 66 10000 4.1 150 18:43 20.07.2019
4860 Clouds 12 1028 58 10000 7.2 170 18:20 20.07.2019
4861 Clouds 13 1028 58 10000 7.2 170 17:54 20.07.2019
4862 Clouds 13 1028 58 10000 7.2 170 17:23 20.07.2019
4863 Clouds 14 1028 58 10000 7.2 180 16:44 20.07.2019
4864 Clouds 14 1028 58 10000 7.2 180 16:26 20.07.2019
4865 Clouds 14 1029 50 10000 6.7 170 15:58 20.07.2019
4866 Clouds 14 1029 50 10000 6.7 170 15:38 20.07.2019
4867 Clouds 14 1029 50 10000 6.7 170 15:20 20.07.2019
4868 Clouds 14 1029 50 10000 6.2 170 14:47 20.07.2019
4869 Clouds 14 1029 50 10000 6.2 170 14:28 20.07.2019
4870 Clouds 14 1030 54 10000 6.7 170 13:39 20.07.2019
4871 Clouds 14 1030 54 10000 6.7 170 13:21 20.07.2019
4872 Clouds 13 1031 54 10000 6.2 140 12:59 20.07.2019
4873 Clouds 14 1031 54 10000 6.2 140 12:26 20.07.2019
4874 Clouds 13 1031 58 10000 5.1 130 11:59 20.07.2019
4875 Clouds 13 1031 58 10000 5.1 130 11:37 20.07.2019
4876 Clouds 12 1031 66 10000 4.1 130 11:19 20.07.2019
4877 Clouds 12 1031 66 10000 4.1 130 10:37 20.07.2019
4878 Clouds 11 1030 75 0 1.34 158 10:19 20.07.2019
4879 Clouds 10 1030 87 10000 1.5 140 09:45 20.07.2019
4880 Clouds 9 1030 87 10000 1.5 140 09:24 20.07.2019
4881 Clouds 8 1029 87 10000 1.5 130 08:48 20.07.2019
4882 Clouds 8 1029 87 10000 1.5 130 08:21 20.07.2019
4883 Clouds 8 1029 81 10000 3.1 110 07:28 20.07.2019
4884 Clouds 8 1028 93 10000 1.5 110 06:43 20.07.2019
4885 Rain 9 1028 87 10000 3.1 170 05:21 20.07.2019
4886 Rain 9 1028 81 10000 5.1 160 04:30 20.07.2019
4887 Clouds 9 1028 70 10000 4.1 190 01:22 20.07.2019
4888 Clouds 9 1028 76 10000 2.6 220 00:49 20.07.2019
4889 Clouds 9 1028 76 10000 2.6 220 00:26 20.07.2019
4890 Clouds 10 1028 87 10000 3.1 210 23:50 19.07.2019
4891 Clouds 9 1028 87 10000 3.1 210 23:29 19.07.2019
4892 Rain 10 1028 87 10000 3.1 200 22:59 19.07.2019
4893 Clouds 10 1027 71 10000 3.6 210 22:40 19.07.2019
4894 Clouds 11 1027 66 10000 6.2 200 22:19 19.07.2019
4895 Clouds 11 1027 66 10000 6.2 200 21:43 19.07.2019
4896 Clouds 11 1027 66 10000 6.2 200 21:24 19.07.2019
4897 Clouds 11 1026 66 10000 5.7 220 20:43 19.07.2019
4898 Clouds 11 1026 66 10000 5.7 220 20:25 19.07.2019
4899 Clouds 11 1025 71 10000 4.1 210 19:39 19.07.2019
4900 Clouds 12 1025 71 10000 4.1 220 19:18 19.07.2019
4901 Clouds 12 1025 71 10000 4.1 220 18:40 19.07.2019
4902 Clouds 12 1024 62 10000 6.7 220 18:19 19.07.2019
4903 Clouds 13 1024 62 10000 6.7 220 17:45 19.07.2019
4904 Rain 13 1024 66 10000 6.7 240 17:25 19.07.2019
4905 Rain 13 1024 66 10000 6.7 240 16:48 19.07.2019
4906 Rain 13 1024 66 10000 6.7 240 16:25 19.07.2019
4907 Rain 14 1023 66 8000 6.7 230 15:48 19.07.2019
4908 Rain 14 1023 66 8000 6.7 230 15:29 19.07.2019
4909 Clouds 14 1023 62 10000 6.7 240 14:56 19.07.2019
4910 Clouds 14 1023 62 10000 6.7 240 14:56 19.07.2019
4911 Clouds 14 1023 62 10000 6.7 240 14:38 19.07.2019
4912 Clouds 14 1023 62 10000 6.7 240 14:19 19.07.2019
4913 Clouds 14 1023 62 10000 7.7 230 13:43 19.07.2019
4914 Clouds 14 1023 76 10000 6.2 230 13:22 19.07.2019
4915 Clouds 14 1023 76 10000 6.2 230 12:49 19.07.2019
4916 Clouds 13 1023 76 10000 6.2 230 12:30 19.07.2019
4917 Clouds 14 1023 67 10000 5.1 260 11:47 19.07.2019
4918 Clouds 14 1023 67 10000 5.1 260 11:20 19.07.2019
4919 Clouds 13 1022 71 10000 4.6 250 10:58 19.07.2019
4920 Clouds 13 1022 71 10000 4.6 250 10:39 19.07.2019
4921 Rain 13 1022 81 10000 2.6 240 10:20 19.07.2019
4922 Drizzle 13 1021 71 10000 5.7 240 09:44 19.07.2019
4923 Drizzle 13 1021 71 10000 5.7 240 09:22 19.07.2019
4924 Drizzle 13 1021 71 10000 5.7 240 09:22 19.07.2019
4925 Clouds 12 1021 76 10000 4.6 240 08:50 19.07.2019
4926 Clouds 12 1021 76 10000 4.6 240 08:32 19.07.2019
4927 Clouds 13 1020 71 10000 4.6 260 07:42 19.07.2019
4928 Clouds 13 1020 71 10000 4.6 260 07:23 19.07.2019
4929 Clouds 13 1019 67 10000 6.2 240 05:39 19.07.2019
4930 Clouds 14 1017 93 10000 4.1 310 01:56 19.07.2019
4931 Rain 15 1017 100 3000 9.3 320 00:59 19.07.2019
4932 Rain 15 1017 100 3000 9.3 320 00:25 19.07.2019
4933 Clouds 15 1017 100 10000 10.3 300 23:42 18.07.2019
4934 Clouds 15 1017 100 10000 10.3 300 23:23 18.07.2019
4935 Rain 16 1016 93 5000 10.8 330 22:58 18.07.2019
4936 Drizzle 16 1016 87 10000 10.3 330 22:39 18.07.2019
4937 Rain 16 1016 87 10000 10.8 340 22:18 18.07.2019
4938 Rain 16 1016 87 10000 10.8 340 21:40 18.07.2019
4939 Rain 16 1016 87 10000 10.8 340 21:20 18.07.2019
4940 Clouds 16 1017 87 10000 10.8 340 20:49 18.07.2019
4941 Clouds 16 1017 87 10000 10.8 340 20:27 18.07.2019
4942 Clouds 16 1017 87 10000 11.3 340 19:52 18.07.2019
4943 Clouds 16 1017 87 10000 11.3 340 19:30 18.07.2019
4944 Clouds 17 1017 82 10000 6.7 340 18:57 18.07.2019
4945 Clouds 17 1017 82 10000 6.7 340 18:24 18.07.2019
4946 Clouds 17 1017 82 10000 9.3 340 17:58 18.07.2019
4947 Clouds 17 1018 82 10000 7.7 340 17:39 18.07.2019
4948 Clouds 17 1018 82 10000 7.7 340 17:19 18.07.2019
4949 Clouds 18 1018 82 10000 9.3 330 16:53 18.07.2019
4950 Clouds 18 1018 82 10000 9.3 330 16:29 18.07.2019
4951 Clouds 17 1018 88 10000 10.8 320 15:58 18.07.2019
4952 Clouds 17 1018 88 10000 10.3 330 15:37 18.07.2019
4953 Clouds 17 1018 82 10000 10.3 330 15:19 18.07.2019
4954 Clouds 17 1018 88 10000 11.3 330 14:42 18.07.2019
4955 Clouds 17 1018 88 10000 11.3 330 14:23 18.07.2019
4956 Drizzle 16 1019 93 7000 7.2 340 13:43 18.07.2019
4957 Drizzle 16 1019 93 7000 7.2 340 13:22 18.07.2019
4958 Clouds 16 1019 93 7000 7.7 350 12:48 18.07.2019
4959 Clouds 16 1019 93 10000 7.2 360 12:21 18.07.2019
4960 Clouds 16 1019 93 10000 7.2 360 11:52 18.07.2019
4961 Clouds 16 1019 93 10000 7.2 360 11:34 18.07.2019
4962 Clouds 16 1019 93 10000 8.7 360 10:58 18.07.2019
4963 Drizzle 15 1018 87 2500 8.7 360 10:38 18.07.2019
4964 Clouds 14 1018 87 10000 6.2 20 09:48 18.07.2019
4965 Clouds 14 1018 87 10000 6.2 20 09:25 18.07.2019
4966 Clouds 14 1018 87 10000 7.2 20 08:50 18.07.2019
4967 Clouds 14 1018 87 10000 7.2 20 08:21 18.07.2019
4968 Clouds 14 1017 87 10000 7.7 20 07:54 18.07.2019
4969 Clouds 14 1017 87 10000 7.7 20 07:34 18.07.2019
4970 Drizzle 14 1018 93 10000 7.7 30 06:43 18.07.2019
4971 Drizzle 14 1018 93 10000 8.2 20 05:57 18.07.2019
4972 Clouds 14 1019 82 10000 7.2 30 03:24 18.07.2019
4973 Clouds 14 1019 82 10000 8.7 10 01:52 18.07.2019
4974 Clouds 14 1019 77 10000 7.2 10 01:20 18.07.2019
4975 Clouds 14 1020 76 10000 7.2 10 23:57 17.07.2019
4976 Clouds 14 1019 76 10000 8.2 10 23:21 17.07.2019
4977 Clouds 14 1019 76 10000 8.2 10 22:58 17.07.2019
4978 Clouds 15 1019 76 10000 8.2 10 22:40 17.07.2019
4979 Clouds 15 1019 76 10000 8.2 10 22:20 17.07.2019
4980 Clouds 15 1020 72 10000 7.2 360 21:45 17.07.2019
4981 Clouds 15 1020 72 10000 7.2 360 21:27 17.07.2019
4982 Clouds 15 1019 77 10000 9.3 350 20:59 17.07.2019
4983 Clouds 15 1019 77 10000 9.3 350 20:40 17.07.2019
4984 Clouds 15 1019 72 10000 6.7 360 20:21 17.07.2019
4985 Clouds 15 1019 72 10000 6.7 360 19:57 17.07.2019
4986 Clouds 15 1019 72 10000 6.7 360 19:39 17.07.2019
4987 Clouds 15 1019 72 10000 6.7 360 19:18 17.07.2019
4988 Drizzle 15 1019 77 10000 7.2 350 18:41 17.07.2019
4989 Drizzle 15 1019 77 10000 7.2 350 18:20 17.07.2019
4990 Clouds 15 1019 77 10000 8.7 350 17:50 17.07.2019
4991 Clouds 15 1019 77 10000 8.7 350 17:27 17.07.2019
4992 Clouds 16 1018 67 10000 8.2 350 16:56 17.07.2019
4993 Clouds 16 1018 67 10000 8.2 350 16:38 17.07.2019
4994 Clouds 16 1019 67 10000 8.2 350 16:18 17.07.2019
4995 Clouds 16 1019 67 10000 8.2 350 15:50 17.07.2019
4996 Clouds 16 1019 67 10000 8.2 350 15:25 17.07.2019
4997 Drizzle 16 1019 67 10000 9.3 350 14:54 17.07.2019
4998 Drizzle 16 1019 67 10000 9.3 350 14:36 17.07.2019
4999 Drizzle 16 1019 67 10000 9.3 350 14:18 17.07.2019
5000 Clouds 16 1020 67 10000 9.8 350 13:41 17.07.2019
5001 Clouds 16 1020 67 10000 9.8 350 13:21 17.07.2019
5002 Clouds 15 1020 67 10000 11.3 350 12:40 17.07.2019
5003 Clouds 15 1020 67 10000 11.3 350 12:21 17.07.2019
5004 Clouds 15 1021 67 10000 10.3 360 11:45 17.07.2019
5005 Clouds 15 1021 67 10000 10.3 360 11:21 17.07.2019
5006 Clouds 14 1020 76 10000 8.2 10 10:51 17.07.2019
5007 Clouds 14 1020 76 10000 8.2 10 10:31 17.07.2019
5008 Clouds 14 1020 76 10000 8.2 10 10:31 17.07.2019
5009 Clouds 13 1020 82 10000 8.7 20 09:59 17.07.2019
5010 Clouds 13 1020 82 10000 8.7 20 09:40 17.07.2019
5011 Clouds 13 1020 82 10000 8.7 20 09:22 17.07.2019
5012 Clouds 13 1019 87 10000 8.7 10 08:43 17.07.2019
5013 Clouds 13 1019 87 10000 8.7 10 08:22 17.07.2019
5014 Clouds 13 1019 87 10000 7.7 20 07:50 17.07.2019
5015 Clouds 13 1019 87 10000 7.7 20 07:50 17.07.2019
5016 Clouds 13 1019 87 10000 7.7 20 07:24 17.07.2019
5017 Clouds 12 1019 87 10000 6.7 20 06:57 17.07.2019
5018 Clouds 12 1019 87 10000 6.7 20 06:30 17.07.2019
5019 Clouds 12 1019 87 10000 7.7 350 05:50 17.07.2019
5020 Clouds 12 1019 87 10000 7.7 350 05:30 17.07.2019
5021 Clouds 12 1019 93 10000 7.7 10 04:46 17.07.2019
5022 Clouds 11 1019 87 10000 7.2 360 03:32 17.07.2019
5023 Clouds 11 1019 93 10000 5.1 40 02:21 17.07.2019
5024 Clouds 11 1019 93 10000 4.6 30 01:27 17.07.2019
5025 Clouds 11 1018 93 9000 4.6 30 00:59 17.07.2019
5026 Clouds 12 1018 93 9000 4.6 30 00:37 17.07.2019
5027 Clouds 12 1018 93 9000 4.6 30 00:19 17.07.2019
5028 Clouds 13 1019 93 9000 4.6 20 23:40 16.07.2019
5029 Clouds 13 1019 93 9000 4.6 20 23:20 16.07.2019
5030 Clouds 12 1019 93 9000 4.1 330 22:43 16.07.2019
5031 Clouds 13 1019 93 9000 4.1 330 22:24 16.07.2019
5032 Clouds 13 1019 87 9000 4.6 320 21:47 16.07.2019
5033 Clouds 13 1019 87 9000 4.6 320 21:25 16.07.2019
5034 Clouds 13 1019 87 9000 4.6 320 21:25 16.07.2019
5035 Clear 12 1018 87 10000 2.6 10 20:59 16.07.2019
5036 Clear 12 1018 87 10000 2.6 10 20:40 16.07.2019
5037 Clear 13 1018 87 10000 2.6 10 20:22 16.07.2019
5038 Clouds 13 1018 82 10000 4.1 330 19:54 16.07.2019
5039 Clouds 14 1018 82 10000 4.1 330 19:30 16.07.2019
5040 Clouds 14 1018 82 10000 3.6 320 18:58 16.07.2019
5041 Clouds 15 1018 82 10000 3.6 320 18:39 16.07.2019
5042 Clouds 15 1018 82 10000 3.6 320 18:20 16.07.2019
5043 Clouds 15 1018 72 10000 4.6 320 18:20 16.07.2019
5044 Clouds 16 1018 72 10000 4.6 320 17:44 16.07.2019
5045 Clouds 16 1018 72 10000 4.6 320 17:26 16.07.2019
5046 Clouds 17 1018 67 10000 5.1 340 16:49 16.07.2019
5047 Clouds 17 1018 67 10000 5.1 340 16:25 16.07.2019
5048 Clear 17 1018 72 10000 4.6 330 15:57 16.07.2019
5049 Clear 17 1018 72 10000 4.6 330 15:38 16.07.2019
5050 Clear 17 1018 72 10000 4.6 330 15:38 16.07.2019
5051 Clear 17 1018 72 10000 4.6 330 15:38 16.07.2019
5052 Clear 17 1018 72 10000 4.6 330 15:19 16.07.2019
5053 Clouds 17 1018 77 10000 4.6 330 14:47 16.07.2019
5054 Clouds 17 1018 77 10000 4.6 330 14:28 16.07.2019
5055 Clear 17 1019 77 10000 5.7 340 13:57 16.07.2019
5056 Clear 17 1019 77 10000 5.7 340 13:37 16.07.2019
5057 Clouds 16 1020 82 10000 4.6 340 13:18 16.07.2019
5058 Clouds 16 1020 82 10000 4.6 340 12:43 16.07.2019
5059 Clouds 16 1020 82 10000 4.6 340 12:20 16.07.2019
5060 Clouds 15 1020 87 7000 4.1 360 11:54 16.07.2019
5061 Clouds 15 1020 87 7000 4.1 360 11:36 16.07.2019
5062 Clouds 15 1020 93 6000 5.1 360 11:18 16.07.2019
5063 Mist 13 1020 93 4000 5.1 340 10:43 16.07.2019
5064 Clouds 13 1019 93 7000 5.1 330 10:19 16.07.2019
5065 Clouds 12 1019 93 10000 2.1 30 09:43 16.07.2019
5066 Clouds 11 1019 93 10000 2.1 30 09:21 16.07.2019
5067 Fog 10 1018 100 5000 4.6 360 08:48 16.07.2019
5068 Fog 10 1018 100 5000 4.6 360 08:27 16.07.2019
5069 Fog 9 1017 100 3000 2.1 340 07:54 16.07.2019
5070 Fog 9 1017 100 3000 2.1 340 07:35 16.07.2019
5071 Fog 8 1017 100 1000 1 0 06:58 16.07.2019
5072 Mist 8 1017 100 1500 2.1 20 06:37 16.07.2019
5073 Fog 9 1017 93 200 1.5 0 05:52 16.07.2019
5074 Fog 9 1017 93 200 1.5 0 05:27 16.07.2019
5075 Fog 9 1018 100 200 2.1 60 04:34 16.07.2019
5076 Fog 9 1018 100 200 1.5 0 03:43 16.07.2019
5077 Fog 10 1019 100 500 0.5 0 02:44 16.07.2019
5078 Fog 10 1019 100 500 0.5 0 02:24 16.07.2019
5079 Mist 11 1019 93 2000 1 0 01:26 16.07.2019
5080 Clear 12 1020 93 9000 4.1 220 00:25 16.07.2019
5081 Clear 13 1020 93 9000 4.1 210 23:59 15.07.2019
5082 Clear 13 1020 93 9000 4.1 210 23:39 15.07.2019
5083 Clear 12 1020 93 9000 4.1 210 23:20 15.07.2019
5084 Clear 13 1020 93 10000 4.1 210 22:44 15.07.2019
5085 Clear 13 1020 93 10000 4.1 210 22:20 15.07.2019
5086 Clear 13 1020 93 10000 2.6 200 21:57 15.07.2019
5087 Clear 13 1020 93 10000 2.6 200 21:39 15.07.2019
5088 Clear 12 1020 93 10000 2.6 200 21:19 15.07.2019
5089 Clear 12 1020 93 10000 2.1 150 20:44 15.07.2019
5090 Clear 12 1020 93 10000 2.1 150 20:24 15.07.2019
5091 Clear 13 1020 87 10000 2.1 200 19:58 15.07.2019
5092 Clear 13 1020 87 10000 2.1 200 19:38 15.07.2019
5093 Clear 13 1020 87 10000 2.1 200 19:38 15.07.2019
5094 Clear 14 1020 87 10000 2.1 200 19:18 15.07.2019
5095 Clear 15 1020 82 10000 3.1 160 18:45 15.07.2019
5096 Clear 15 1020 82 10000 3.1 160 18:21 15.07.2019
5097 Clear 16 1020 67 10000 4.6 170 17:57 15.07.2019
5098 Clear 16 1020 67 10000 4.6 170 17:38 15.07.2019
5099 Clear 17 1020 67 10000 4.6 170 17:20 15.07.2019
5100 Clear 19 1020 59 10000 3.6 180 16:57 15.07.2019
5101 Clear 19 1020 59 10000 3.6 180 16:36 15.07.2019
5102 Clear 19 1020 59 10000 3.6 180 16:18 15.07.2019
5103 Clear 19 1020 56 10000 1.5 0 15:40 15.07.2019
5104 Clear 19 1020 56 10000 1.5 0 15:22 15.07.2019
5105 Clear 18 1021 59 10000 1 0 14:58 15.07.2019
5106 Clear 19 1021 59 10000 1 0 14:37 15.07.2019
5107 Clear 18 1021 59 10000 1 0 14:19 15.07.2019
5108 Clear 18 1022 63 10000 1 0 13:46 15.07.2019
5109 Clear 18 1022 63 10000 1 0 13:18 15.07.2019
5110 Clear 17 1023 67 10000 1.5 0 12:44 15.07.2019
5111 Clear 17 1023 67 10000 1.5 0 12:25 15.07.2019
5112 Clouds 16 1023 72 10000 1 310 11:45 15.07.2019
5113 Clouds 15 1023 72 10000 1 310 11:26 15.07.2019
5114 Clouds 14 1023 76 10000 1 10 10:59 15.07.2019
5115 Clouds 14 1023 76 10000 1 10 10:40 15.07.2019
5116 Clouds 14 1023 76 10000 1 10 10:22 15.07.2019
5117 Clouds 11 1022 93 10000 1.5 10 09:42 15.07.2019
5118 Clouds 11 1022 93 10000 1.5 10 09:19 15.07.2019
5119 Clear 9 1022 93 10000 4.1 40 08:45 15.07.2019
5120 Clear 9 1022 93 10000 4.1 40 08:24 15.07.2019
5121 Clear 9 1022 93 10000 3.6 30 07:43 15.07.2019
5122 Clear 9 1021 93 10000 2.6 30 07:21 15.07.2019
5123 Clear 9 1021 93 10000 2.6 30 06:40 15.07.2019
5124 Clouds 9 1021 87 10000 4.1 30 06:18 15.07.2019
5125 Clouds 10 1021 87 10000 4.1 30 05:42 15.07.2019
5126 Clouds 11 1021 93 10000 4.1 40 04:45 15.07.2019
5127 Clouds 11 1021 93 10000 4.1 40 04:23 15.07.2019
5128 Clouds 10 1021 93 10000 3.6 60 02:51 15.07.2019
5129 Clouds 10 1021 93 10000 3.6 60 02:18 15.07.2019
5130 Clear 9 1022 93 10000 2.1 20 01:34 15.07.2019
5131 Clear 11 1021 81 10000 3.6 350 00:53 15.07.2019
5132 Clear 11 1021 81 10000 3.6 350 00:28 15.07.2019
5133 Clear 11 1021 87 10000 2.6 340 23:58 14.07.2019
5134 Clear 10 1021 87 10000 2.6 340 23:40 14.07.2019
5135 Clear 11 1021 87 10000 2.6 340 23:20 14.07.2019
5136 Clear 10 1021 87 10000 3.6 350 22:57 14.07.2019
5137 Clear 10 1021 87 10000 3.6 350 22:38 14.07.2019
5138 Clear 11 1021 87 10000 3.6 350 22:20 14.07.2019
5139 Clear 12 1021 81 10000 4.1 330 21:42 14.07.2019
5140 Clear 11 1021 81 10000 4.1 330 21:19 14.07.2019
5141 Clear 12 1020 81 10000 3.6 350 20:57 14.07.2019
5142 Clear 12 1020 81 10000 3.6 350 20:38 14.07.2019
5143 Clear 12 1020 81 10000 3.6 350 20:19 14.07.2019
5144 Clear 13 1020 76 10000 3.1 320 19:46 14.07.2019
5145 Clear 13 1020 76 10000 3.1 320 19:28 14.07.2019
5146 Clear 14 1019 71 10000 4.6 310 18:58 14.07.2019
5147 Clear 14 1019 71 10000 4.6 310 18:39 14.07.2019
5148 Clear 14 1019 71 10000 4.6 310 18:21 14.07.2019
5149 Clear 15 1019 67 10000 5.7 310 17:54 14.07.2019
5150 Clear 15 1019 67 10000 5.7 310 17:22 14.07.2019
5151 Clear 15 1019 67 10000 5.7 310 17:22 14.07.2019
5152 Clouds 16 1019 67 10000 5.1 310 16:52 14.07.2019
5153 Clouds 16 1019 67 10000 5.1 310 16:25 14.07.2019
5154 Clouds 17 1019 67 10000 5.1 310 15:57 14.07.2019
5155 Clouds 17 1019 67 10000 5.1 310 15:35 14.07.2019
5156 Clouds 17 1020 63 10000 5.1 310 14:56 14.07.2019
5157 Clouds 17 1020 63 10000 5.1 310 14:37 14.07.2019
5158 Clouds 17 1020 67 10000 5.1 310 14:18 14.07.2019
5159 Clouds 17 1020 67 10000 5.1 310 13:44 14.07.2019
5160 Clouds 17 1020 67 10000 5.1 310 13:21 14.07.2019
5161 Clouds 16 1021 72 10000 3.6 320 12:43 14.07.2019
5162 Clouds 16 1021 72 10000 3.6 320 12:22 14.07.2019
5163 Clouds 15 1021 82 10000 3.1 60 11:57 14.07.2019
5164 Clouds 15 1021 82 10000 3.1 60 11:38 14.07.2019
5165 Clouds 15 1021 82 10000 3.1 60 11:19 14.07.2019
5166 Mist 13 1021 100 5000 4.1 50 10:42 14.07.2019
5167 Mist 14 1021 100 5000 4.1 50 10:19 14.07.2019
5168 Clouds 12 1020 100 6000 3.6 60 09:44 14.07.2019
5169 Mist 12 1020 100 5000 3.1 60 09:24 14.07.2019
5170 Mist 11 1020 100 5000 0.5 0 08:45 14.07.2019
5171 Fog 11 1020 93 100 2.1 40 08:20 14.07.2019
5172 Fog 11 1019 93 200 3.6 50 07:39 14.07.2019
5173 Fog 11 1019 100 700 4.1 40 06:59 14.07.2019
5174 Clouds 10 1019 93 10000 2.6 50 05:45 14.07.2019
5175 Clouds 11 1019 100 9000 3.6 40 03:50 14.07.2019
5176 Clouds 11 1019 100 9000 3.6 40 03:32 14.07.2019
5177 Clouds 10 1019 100 7000 1.5 20 02:50 14.07.2019
5178 Clouds 10 1019 100 7000 1.5 20 02:22 14.07.2019
5179 Mist 10 1019 93 4000 1.5 20 01:34 14.07.2019
5180 Mist 10 1019 100 1500 1.5 40 00:59 14.07.2019
5181 Fog 10 1019 100 300 2.1 50 00:40 14.07.2019
5182 Fog 10 1019 100 300 2.1 50 00:20 14.07.2019
5183 Fog 11 1019 100 200 1.5 50 23:45 13.07.2019
5184 Fog 11 1019 100 200 1.5 50 23:26 13.07.2019
5185 Fog 11 1019 93 500 2.1 30 22:59 13.07.2019
5186 Fog 12 1019 93 500 2.1 30 22:39 13.07.2019
5187 Mist 11 1019 100 1500 1.5 30 22:20 13.07.2019
5188 Mist 12 1019 100 5000 1 0 21:43 13.07.2019
5189 Mist 12 1019 93 5000 0.5 0 21:19 13.07.2019
5190 Mist 13 1019 100 5000 2.1 220 20:46 13.07.2019
5191 Mist 13 1019 100 5000 2.1 220 20:27 13.07.2019
5192 Clear 13 1020 93 10000 1.5 250 19:47 13.07.2019
5193 Clear 13 1020 93 10000 1.5 250 19:29 13.07.2019
5194 Clear 15 1020 82 10000 2.6 220 18:45 13.07.2019
5195 Clear 15 1020 82 10000 2.6 220 18:22 13.07.2019
5196 Clear 16 1020 63 10000 3.6 190 17:41 13.07.2019
5197 Clear 17 1020 63 10000 3.6 190 17:21 13.07.2019
5198 Clear 17 1020 59 10000 3.6 200 16:58 13.07.2019
5199 Clear 17 1020 59 10000 3.6 200 16:38 13.07.2019
5200 Clear 18 1020 59 10000 3.6 200 16:19 13.07.2019
5201 Clear 18 1020 59 10000 3.6 200 16:19 13.07.2019
5202 Clear 18 1020 52 10000 1.5 0 15:44 13.07.2019
5203 Clear 19 1020 52 10000 1.5 0 15:21 13.07.2019
5204 Clear 18 1021 55 10000 1 0 14:45 13.07.2019
5205 Clear 18 1021 55 10000 1 0 14:24 13.07.2019
5206 Clear 18 1021 55 10000 1 0 13:46 13.07.2019
5207 Clear 18 1021 55 10000 1 0 13:26 13.07.2019
5208 Clear 17 1022 67 10000 1 0 12:59 13.07.2019
5209 Clear 17 1022 67 10000 1 0 12:39 13.07.2019
5210 Clear 17 1022 67 10000 1 0 12:20 13.07.2019
5211 Clear 16 1023 72 10000 2.1 180 11:43 13.07.2019
5212 Clear 16 1023 72 10000 2.1 180 11:19 13.07.2019
5213 Clear 14 1023 76 8000 1 0 10:45 13.07.2019
5214 Clear 14 1023 76 8000 1 0 10:23 13.07.2019
5215 Clear 13 1022 87 7000 0.5 0 09:57 13.07.2019
5216 Clear 13 1022 100 7000 0.5 0 09:38 13.07.2019
5217 Clear 11 1022 100 7000 0.5 0 09:18 13.07.2019
5218 Clear 9 1022 93 6000 1.5 0 08:36 13.07.2019
5219 Clear 9 1022 93 6000 1.5 0 08:18 13.07.2019
5220 Clear 9 1022 93 10000 1 0 07:30 13.07.2019
5221 Fog 9 1021 100 7000 1.5 60 06:41 13.07.2019
5222 Fog 9 1021 93 8000 1 110 05:58 13.07.2019
5223 Fog 9 1021 93 8000 1 110 05:28 13.07.2019
5224 Clear 9 1022 93 10000 1.5 150 04:23 13.07.2019
5225 Clear 10 1021 100 10000 0.5 0 03:56 13.07.2019
5226 Clear 10 1021 100 10000 0.5 0 03:37 13.07.2019
5227 Clear 10 1021 93 10000 0.5 0 01:57 13.07.2019
5228 Clear 10 1020 93 0 9.58 148.246 01:39 13.07.2019
5229 Clear 11 1021 87 10000 2.6 260 01:18 13.07.2019
5230 Clear 11 1021 87 10000 2.6 260 00:51 13.07.2019
5231 Clear 11 1021 87 10000 8.15 149.497 00:19 13.07.2019
5232 Clear 11 1021 87 10000 8.15 149.497 23:48 12.07.2019
5233 Clear 11 1021 87 10000 8.15 149.497 23:29 12.07.2019
5234 Clear 12 1021 87 10000 1.5 0 22:46 12.07.2019
5235 Clear 12 1021 87 10000 1.5 0 22:24 12.07.2019
5236 Clear 12 1021 87 10000 2.1 260 21:43 12.07.2019
5237 Clear 12 1021 87 10000 2.1 260 21:22 12.07.2019
5238 Clear 13 1021 71 10000 2.1 220 20:57 12.07.2019
5239 Clear 13 1021 71 10000 2.1 220 20:38 12.07.2019
5240 Clear 13 1021 71 10000 2.1 220 20:20 12.07.2019
5241 Clear 14 1021 71 10000 2.1 200 19:42 12.07.2019
5242 Clear 14 1021 71 10000 2.1 200 19:23 12.07.2019
5243 Clear 15 1021 71 10000 3.1 140 18:46 12.07.2019
5244 Clear 15 1021 71 10000 3.1 140 18:21 12.07.2019
5245 Clear 16 1021 63 10000 3.1 140 17:53 12.07.2019
5246 Clear 17 1021 63 10000 3.1 140 17:29 12.07.2019
5247 Clear 18 1021 55 10000 4.6 170 16:51 12.07.2019
5248 Clear 18 1021 55 10000 4.6 170 16:23 12.07.2019
5249 Clouds 18 1021 52 10000 4.6 180 15:54 12.07.2019
5250 Clouds 18 1021 52 10000 4.6 180 15:36 12.07.2019
5251 Clouds 19 1021 52 10000 4.6 180 15:18 12.07.2019
5252 Clouds 18 1022 55 10000 5.7 180 14:43 12.07.2019
5253 Clouds 18 1022 55 10000 5.7 180 14:20 12.07.2019
5254 Clear 18 1023 63 10000 7.7 180 13:43 12.07.2019
5255 Clear 18 1023 63 10000 7.7 180 13:21 12.07.2019
5256 Clouds 17 1024 63 10000 9.8 180 12:41 12.07.2019
5257 Clouds 17 1024 63 10000 9.8 180 12:23 12.07.2019
5258 Clouds 16 1024 67 10000 8.7 160 11:46 12.07.2019
5259 Clouds 16 1024 67 10000 8.7 160 11:24 12.07.2019
5260 Clouds 16 1024 71 10000 8.2 150 10:55 12.07.2019
5261 Clouds 15 1024 71 10000 8.2 150 10:37 12.07.2019
5262 Clouds 15 1024 71 10000 8.2 150 10:19 12.07.2019
5263 Clouds 14 1024 82 10000 7.2 170 09:51 12.07.2019
5264 Clouds 13 1024 82 10000 7.2 170 09:24 12.07.2019
5265 Clouds 12 1024 81 10000 4.1 200 08:45 12.07.2019
5266 Clouds 12 1024 81 10000 4.1 200 08:23 12.07.2019
5267 Clouds 12 1024 87 10000 3.1 180 07:47 12.07.2019
5268 Clouds 12 1024 87 10000 3.1 180 07:29 12.07.2019
5269 Clouds 13 1024 82 10000 4.6 200 06:30 12.07.2019
5270 Clouds 12 1024 87 10000 5.1 180 05:51 12.07.2019
5271 Clouds 12 1024 93 10000 4.6 160 04:25 12.07.2019
5272 Drizzle 13 1024 100 3000 5.1 160 01:52 12.07.2019
5273 Drizzle 13 1024 100 3000 5.1 160 01:34 12.07.2019
5274 Clouds 14 1023 87 8000 4.1 180 00:36 12.07.2019
5275 Clouds 14 1023 87 8000 4.1 180 00:18 12.07.2019
5276 Clouds 14 1022 82 10000 2.1 50 23:41 11.07.2019
5277 Clouds 14 1022 82 10000 2.1 50 23:21 11.07.2019
5278 Clouds 14 1022 82 10000 2.1 320 22:45 11.07.2019
5279 Clouds 14 1022 82 10000 2.1 320 22:24 11.07.2019
5280 Clouds 13 1021 87 10000 2.6 30 21:44 11.07.2019
5281 Clouds 14 1021 87 10000 2.6 30 21:20 11.07.2019
5282 Clouds 13 1021 87 10000 1.5 30 20:59 11.07.2019
5283 Clouds 13 1021 87 10000 1.5 30 20:41 11.07.2019
5284 Clouds 14 1020 82 10000 1 0 20:22 11.07.2019
5285 Clouds 14 1020 82 10000 1 0 19:55 11.07.2019
5286 Clouds 14 1020 82 10000 1 0 19:37 11.07.2019
5287 Clouds 14 1020 77 10000 2.1 290 19:19 11.07.2019
5288 Clouds 15 1020 77 10000 2.1 290 18:40 11.07.2019
5289 Clouds 15 1020 77 10000 2.1 290 18:21 11.07.2019
5290 Clouds 16 1019 67 10000 4.6 320 17:47 11.07.2019
5291 Clouds 16 1019 67 10000 4.6 320 17:28 11.07.2019
5292 Clouds 17 1018 67 10000 5.7 320 16:52 11.07.2019
5293 Clouds 17 1018 67 10000 5.7 320 16:24 11.07.2019
5294 Clouds 17 1018 67 10000 5.7 320 15:57 11.07.2019
5295 Clouds 17 1018 67 10000 5.7 320 15:38 11.07.2019
5296 Clouds 17 1018 67 10000 3.6 340 15:19 11.07.2019
5297 Clouds 17 1018 67 10000 3.6 340 14:44 11.07.2019
5298 Clouds 17 1018 72 8000 1.5 0 14:23 11.07.2019
5299 Clouds 17 1018 72 8000 1.5 0 13:47 11.07.2019
5300 Clouds 17 1018 72 8000 1.5 0 13:29 11.07.2019
5301 Clouds 16 1018 77 10000 3.1 280 12:57 11.07.2019
5302 Clouds 16 1018 77 10000 3.1 280 12:37 11.07.2019
5303 Clouds 16 1018 77 10000 3.1 280 12:18 11.07.2019
5304 Clouds 15 1018 87 8000 4.1 330 11:41 11.07.2019
5305 Clouds 15 1018 87 8000 4.1 330 11:23 11.07.2019
5306 Mist 14 1018 100 4000 1.5 0 10:51 11.07.2019
5307 Mist 14 1018 93 3000 1.5 40 10:19 11.07.2019
5308 Fog 12 1017 100 200 1.5 330 09:49 11.07.2019
5309 Fog 13 1017 100 200 1.5 330 09:30 11.07.2019
5310 Fog 10 1017 100 200 1 360 08:56 11.07.2019
5311 Fog 10 1017 100 200 1.5 360 08:36 11.07.2019
5312 Fog 9 1017 100 200 1.5 360 08:18 11.07.2019
5313 Fog 9 1017 100 8000 0.5 0 07:41 11.07.2019
5314 Mist 9 1016 100 3000 2.1 40 06:42 11.07.2019
5315 Mist 9 1016 100 3000 2.1 40 06:18 11.07.2019
5316 Fog 9 1016 100 1500 2.1 40 05:31 11.07.2019
5317 Fog 10 1016 100 1000 1.5 50 04:56 11.07.2019
5318 Fog 10 1016 100 1000 1.5 30 02:43 11.07.2019
5319 Fog 10 1017 100 150 1 70 01:53 11.07.2019
5320 Fog 11 1017 100 800 0.5 40 00:32 11.07.2019
5321 Fog 11 1017 93 200 3.43 143.214 23:50 10.07.2019
5322 Fog 11 1017 93 200 3.43 143.214 23:24 10.07.2019
5323 Fog 11 1018 93 150 0.5 0 22:54 10.07.2019
5324 Clear 12 1018 93 10000 1.5 190 22:22 10.07.2019
5325 Clear 12 1019 100 10000 2.1 200 21:55 10.07.2019
5326 Clear 12 1019 100 10000 2.1 200 21:37 10.07.2019
5327 Clear 12 1019 100 10000 2.1 200 21:19 10.07.2019
5328 Clear 12 1018 93 10000 1.5 180 20:41 10.07.2019
5329 Clear 12 1018 93 10000 1.5 180 20:21 10.07.2019
5330 Clear 13 1018 87 10000 1.5 150 19:55 10.07.2019
5331 Clear 13 1018 87 10000 1.5 150 19:37 10.07.2019
5332 Clear 14 1018 87 10000 1.5 150 19:19 10.07.2019
5333 Clear 15 1018 82 10000 2.1 140 18:44 10.07.2019
5334 Clear 15 1018 82 10000 2.1 140 18:23 10.07.2019
5335 Clear 15 1018 82 10000 2.1 140 18:23 10.07.2019
5336 Clear 17 1018 67 10000 3.6 160 17:45 10.07.2019
5337 Clear 17 1018 67 10000 3.6 160 17:27 10.07.2019
5338 Clear 18 1018 63 10000 2.1 160 16:46 10.07.2019
5339 Clear 18 1018 63 10000 2.1 160 16:21 10.07.2019
5340 Clear 19 1018 59 10000 2.1 170 15:47 10.07.2019
5341 Clear 19 1018 59 10000 2.1 170 15:25 10.07.2019
5342 Clear 19 1018 63 10000 3.1 170 14:48 10.07.2019
5343 Clear 19 1018 63 10000 3.1 170 14:29 10.07.2019
5344 Clear 19 1019 59 10000 3.1 170 13:59 10.07.2019
5345 Clear 19 1019 59 10000 3.1 170 13:36 10.07.2019
5346 Clear 19 1019 59 10000 3.1 170 13:18 10.07.2019
5347 Clear 19 1019 59 10000 3.1 170 13:18 10.07.2019
5348 Clear 19 1020 63 10000 3.1 170 12:40 10.07.2019
5349 Clear 18 1020 63 10000 3.1 170 12:21 10.07.2019
5350 Clear 18 1021 72 10000 2.1 150 11:49 10.07.2019
5351 Clear 17 1021 72 10000 2.1 150 11:22 10.07.2019
5352 Clear 17 1021 77 10000 2.1 150 10:58 10.07.2019
5353 Clear 15 1021 100 10000 1.5 0 10:24 10.07.2019
5354 Clear 14 1021 100 6000 1 0 09:56 10.07.2019
5355 Fog 13 1022 100 1000 0.5 0 09:37 10.07.2019
5356 Fog 12 1022 100 500 1 110 09:19 10.07.2019
5357 Fog 13 1022 100 500 1 110 08:48 10.07.2019
5358 Fog 11 1022 100 500 2.65 160.209 08:23 10.07.2019
5359 Fog 11 1021 100 200 0.5 0 07:46 10.07.2019
5360 Fog 11 1021 100 200 0.5 0 07:23 10.07.2019
5361 Fog 11 1022 100 200 0.5 0 06:36 10.07.2019
5362 Fog 11 1022 100 200 0.5 40 05:40 10.07.2019
5363 Fog 12 1022 100 200 0.5 0 04:31 10.07.2019
5364 Fog 12 1022 100 200 1.5 0 02:18 10.07.2019
5365 Clear 12 1022 100 8000 0.5 0 00:44 10.07.2019
5366 Clear 11 1021 93 8000 2.6 340 23:42 09.07.2019
5367 Mist 12 1021 93 5000 2.6 10 23:24 09.07.2019
5368 Mist 12 1021 93 5000 2.6 10 22:57 09.07.2019
5369 Clear 12 1021 96 0 0.89 0 22:38 09.07.2019
5370 Clear 13 1021 87 10000 4.1 340 22:20 09.07.2019
5371 Clear 13 1021 87 10000 4.1 340 21:47 09.07.2019
5372 Clear 13 1021 87 10000 4.1 340 21:26 09.07.2019
5373 Clear 13 1016 50 0 2.41 319.778 20:55 09.07.2019
5374 Clear 13 1018 87 0 2.41 319.778 20:36 09.07.2019
5375 Clear 13 1021 94 0 1.34 0 20:18 09.07.2019
5376 Clear 14 1021 93 0 0.89 0 19:37 09.07.2019
5377 Clear 15 1022 67 10000 1 0 19:19 09.07.2019
5378 Clear 16 1022 67 10000 1 0 18:39 09.07.2019
5379 Clear 16 1022 67 10000 1 0 18:19 09.07.2019
5380 Clear 18 1022 63 10000 3.6 310 17:44 09.07.2019
5381 Clear 18 1022 63 10000 3.6 310 17:22 09.07.2019
5382 Clear 18 1022 63 10000 2.6 290 16:58 09.07.2019
5383 Clear 19 1022 63 10000 2.6 290 16:40 09.07.2019
5384 Clear 19 1022 63 10000 2.6 290 16:22 09.07.2019
5385 Clear 19 1022 63 10000 2.6 300 15:42 09.07.2019
5386 Clear 19 1022 63 10000 2.6 300 15:23 09.07.2019
5387 Clear 19 1023 63 10000 2.1 330 14:45 09.07.2019
5388 Clear 19 1023 63 10000 2.1 330 14:23 09.07.2019
5389 Clear 19 1024 63 10000 1.5 0 13:56 09.07.2019
5390 Clear 19 1024 63 10000 1.5 0 13:38 09.07.2019
5391 Clear 19 1024 63 10000 1.5 0 13:18 09.07.2019
5392 Clouds 18 1025 77 10000 2.1 320 12:39 09.07.2019
5393 Clouds 16 1026 100 10000 1 0 12:19 09.07.2019
5394 Clouds 16 1026 100 10000 1 0 11:56 09.07.2019
5395 Clouds 16 1026 100 10000 1 0 11:37 09.07.2019
5396 Clouds 15 1026 100 10000 1 0 11:19 09.07.2019
5397 Mist 15 1026 93 4000 1.5 0 10:47 09.07.2019
5398 Fog 13 1026 100 100 2.1 330 10:25 09.07.2019
5399 Fog 12 1026 100 100 1.5 0 09:38 09.07.2019
5400 Fog 12 1026 100 100 1.5 0 09:20 09.07.2019
5401 Fog 11 1026 100 200 1 0 08:44 09.07.2019
5402 Fog 11 1026 100 200 1 0 08:21 09.07.2019
5403 Clouds 11 1025 87 10000 4.1 160 03:52 05.07.2019
5404 Clouds 11 1025 100 10000 2.6 150 03:24 05.07.2019
5405 Clouds 12 1025 100 10000 2.6 150 02:53 05.07.2019
5406 Clouds 12 1025 100 10000 2.6 150 02:34 05.07.2019
5407 Clouds 12 1025 100 10000 2.6 180 01:37 05.07.2019
5408 Clouds 13 1025 100 10000 2.1 150 00:52 05.07.2019
5409 Clouds 13 1025 100 10000 2.1 150 00:33 05.07.2019
5410 Drizzle 13 1024 100 7000 2.6 110 23:47 04.07.2019
5411 Drizzle 13 1024 100 7000 2.6 110 23:19 04.07.2019
5412 Rain 13 1024 93 4000 3.6 140 22:43 04.07.2019
5413 Rain 13 1024 93 4000 3.6 140 22:24 04.07.2019
5414 Rain 14 1023 93 2500 4.6 180 21:55 04.07.2019
5415 Rain 14 1023 93 1000 6.2 210 21:36 04.07.2019
5416 Rain 14 1021 72 10000 9.8 330 21:18 04.07.2019
5417 Rain 15 1021 72 10000 9.8 330 20:38 04.07.2019
5418 Rain 15 1021 72 10000 9.8 330 20:20 04.07.2019
5419 Clouds 16 1021 67 10000 8.7 320 19:42 04.07.2019
5420 Clouds 16 1021 67 10000 8.7 320 19:22 04.07.2019
5421 Clouds 16 1021 67 10000 4.6 10 18:57 04.07.2019
5422 Clouds 16 1021 67 10000 4.6 10 18:39 04.07.2019
5423 Clouds 16 1021 67 10000 4.6 10 18:20 04.07.2019
5424 Clouds 16 1020 67 10000 8.2 330 17:43 04.07.2019
5425 Clouds 16 1020 67 10000 8.2 330 17:19 04.07.2019
5426 Clouds 17 1020 63 10000 8.2 330 15:57 04.07.2019
5427 Clouds 17 1020 63 10000 8.2 330 15:57 04.07.2019
5428 Clouds 17 1020 63 10000 8.2 330 15:39 04.07.2019
5429 Clouds 17 1020 63 10000 8.2 330 15:20 04.07.2019
5430 Clouds 18 1021 59 10000 8.2 330 14:44 04.07.2019
5431 Clouds 18 1021 59 10000 8.2 330 14:25 04.07.2019
5432 Clouds 18 1021 63 10000 8.7 320 13:59 04.07.2019
5433 Clouds 18 1021 63 10000 8.7 320 13:41 04.07.2019
5434 Clouds 18 1021 63 10000 8.7 320 13:22 04.07.2019
5435 Clouds 18 1022 77 10000 6.7 340 12:55 04.07.2019
5436 Clouds 17 1022 77 10000 6.7 340 12:36 04.07.2019
5437 Clouds 17 1022 77 10000 6.7 340 12:18 04.07.2019
5438 Clouds 16 1023 82 10000 5.1 340 11:39 04.07.2019
5439 Clouds 16 1023 82 10000 5.1 340 11:39 04.07.2019
5440 Clouds 16 1023 82 10000 5.1 340 11:19 04.07.2019
5441 Clouds 14 1022 87 10000 2.6 70 10:40 04.07.2019
5442 Clouds 14 1022 87 10000 2.6 70 10:21 04.07.2019
5443 Clouds 13 1022 93 10000 2.6 60 09:45 04.07.2019
5444 Clouds 13 1022 93 10000 2.6 60 09:26 04.07.2019
5445 Clouds 12 1022 93 10000 3.1 60 08:56 04.07.2019
5446 Clouds 12 1022 93 10000 3.1 60 08:56 04.07.2019
5447 Clouds 12 1022 100 10000 1.5 70 08:25 04.07.2019
5448 Clouds 12 1021 93 10000 1 0 07:46 04.07.2019
5449 Clouds 12 1021 93 10000 1 0 07:23 04.07.2019
5450 Clouds 12 1021 93 10000 2.1 60 06:55 04.07.2019
5451 Clouds 12 1021 93 10000 3.1 30 05:55 04.07.2019
5452 Clouds 12 1021 93 10000 3.1 30 05:36 04.07.2019
5453 Clouds 11 1022 93 10000 3.6 40 02:51 04.07.2019
5454 Clouds 13 1022 93 10000 3.6 40 01:42 04.07.2019
5455 Clouds 13 1022 93 10000 3.6 40 01:22 04.07.2019
5456 Clouds 13 1022 87 10000 4.6 40 00:28 04.07.2019
5457 Clouds 13 1022 93 10000 3.1 30 23:47 03.07.2019
5458 Clouds 13 1022 93 10000 3.1 30 23:20 03.07.2019
5459 Clouds 13 1022 93 10000 3.1 20 22:55 03.07.2019
5460 Clouds 13 1022 93 10000 3.1 20 22:36 03.07.2019
5461 Clouds 13 1022 93 10000 3.1 20 22:18 03.07.2019
5462 Clouds 13 1022 87 10000 3.6 10 21:46 03.07.2019
5463 Clouds 14 1022 87 10000 3.6 10 21:28 03.07.2019
5464 Clouds 14 1022 87 10000 3.1 350 20:46 03.07.2019
5465 Clouds 14 1022 87 10000 3.1 350 20:27 03.07.2019
5466 Clouds 14 1022 87 10000 2.1 360 19:53 03.07.2019
5467 Clouds 14 1022 87 10000 2.1 360 19:33 03.07.2019
5468 Clouds 16 1022 77 10000 2.6 330 18:54 03.07.2019
5469 Clouds 16 1022 77 10000 2.6 330 18:36 03.07.2019
5470 Clouds 16 1022 77 10000 2.6 330 18:18 03.07.2019
5471 Clouds 16 1022 77 10000 3.1 360 17:41 03.07.2019
5472 Clouds 16 1022 77 10000 3.1 360 17:18 03.07.2019
5473 Clouds 16 1022 82 10000 5.7 330 16:44 03.07.2019
5474 Clouds 16 1022 82 10000 5.7 330 16:23 03.07.2019
5475 Clouds 16 1022 82 10000 5.7 310 15:50 03.07.2019
5476 Clouds 16 1022 82 10000 5.7 310 15:31 03.07.2019
5477 Clouds 17 1023 82 10000 5.1 310 14:58 03.07.2019
5478 Clouds 17 1023 82 10000 7.2 320 14:39 03.07.2019
5479 Clouds 17 1023 82 10000 7.2 320 14:19 03.07.2019
5480 Clouds 17 1023 82 10000 7.2 320 13:43 03.07.2019
5481 Clouds 18 1023 82 10000 7.2 320 13:24 03.07.2019
5482 Clouds 17 1024 82 10000 5.7 330 12:45 03.07.2019
5483 Clouds 17 1024 87 10000 5.1 350 12:18 03.07.2019
5484 Clouds 16 1024 87 10000 5.1 350 11:43 03.07.2019
5485 Clouds 16 1024 87 10000 5.1 350 11:22 03.07.2019
5486 Clouds 15 1025 87 10000 5.1 10 10:44 03.07.2019
5487 Clouds 15 1025 87 10000 5.1 10 10:25 03.07.2019
5488 Clouds 15 1024 93 10000 3.1 10 09:57 03.07.2019
5489 Clouds 15 1024 93 10000 3.1 10 09:38 03.07.2019
5490 Clouds 15 1024 87 10000 4.1 350 09:19 03.07.2019
5491 Clouds 14 1024 87 10000 4.1 350 08:50 03.07.2019
5492 Clouds 14 1024 87 10000 4.1 350 08:26 03.07.2019
5493 Clouds 14 1024 93 10000 4.6 350 07:39 03.07.2019
5494 Clouds 14 1024 93 10000 4.6 350 07:19 03.07.2019
5495 Clouds 14 1023 93 10000 4.6 20 06:20 03.07.2019
5496 Drizzle 13 1023 100 10000 5.1 20 05:30 03.07.2019
5497 Clouds 14 1023 93 10000 5.1 360 04:28 03.07.2019
5498 Clouds 14 1023 93 10000 7.2 360 03:23 03.07.2019
5499 Rain 14 1023 93 2000 7.2 360 01:46 03.07.2019
5500 Clouds 14 1023 93 10000 7.7 350 01:21 03.07.2019
5501 Rain 14 1023 93 5000 8.2 350 00:42 03.07.2019
5502 Rain 13 1023 93 10000 2.1 0 23:59 02.07.2019
5503 Rain 13 1023 93 10000 2.1 0 23:37 02.07.2019
5504 Clouds 13 1023 93 10000 9.3 340 23:19 02.07.2019
5505 Clouds 13 1023 93 10000 9.3 340 22:55 02.07.2019
5506 Clouds 13 1023 93 10000 9.3 340 22:37 02.07.2019
5507 Rain 13 1022 100 2000 8.2 350 22:18 02.07.2019
5508 Rain 13 1022 100 2000 8.2 350 21:42 02.07.2019
5509 Rain 13 1023 93 2000 8.2 350 21:21 02.07.2019
5510 Rain 13 1023 93 2000 8.2 350 20:57 02.07.2019
5511 Rain 13 1022 93 6000 9.3 350 20:39 02.07.2019
5512 Rain 13 1022 93 6000 8.2 360 20:20 02.07.2019
5513 Rain 13 1022 93 6000 9.3 350 19:42 02.07.2019
5514 Rain 13 1022 93 6000 9.3 350 19:23 02.07.2019
5515 Rain 13 1022 93 6000 8.2 360 18:48 02.07.2019
5516 Drizzle 13 1021 93 2500 8.2 360 18:19 02.07.2019
5517 Drizzle 13 1021 93 2500 8.2 360 18:19 02.07.2019
5518 Drizzle 13 1021 93 1500 8.7 350 17:44 02.07.2019
5519 Drizzle 13 1021 93 1500 8.7 350 17:23 02.07.2019
5520 Drizzle 13 1021 93 1500 8.7 350 16:54 02.07.2019
5521 Drizzle 13 1021 93 1800 8.7 350 16:35 02.07.2019
5522 Rain 14 1021 87 7000 9.3 340 15:48 02.07.2019
5523 Rain 14 1021 87 7000 9.3 340 15:27 02.07.2019
5524 Rain 14 1021 87 6000 9.8 340 14:59 02.07.2019
5525 Rain 15 1021 77 4000 10.3 340 14:40 02.07.2019
5526 Rain 15 1021 77 4000 10.3 340 14:20 02.07.2019
5527 Clouds 15 1021 77 10000 11.3 340 13:42 02.07.2019
5528 Clouds 15 1021 77 10000 11.3 340 13:19 02.07.2019
5529 Clouds 15 1021 77 10000 11.3 340 13:19 02.07.2019
5530 Rain 15 1016 78 0 3.58 337 13:19 02.07.2019
5531 Rain 15 1017 79 0 4.02 357 12:44 02.07.2019
5532 Clouds 15 1022 72 10000 10.3 350 12:22 02.07.2019
5533 Clouds 14 1022 72 10000 10.3 350 11:44 02.07.2019
5534 Clouds 15 1022 72 10000 10.3 350 11:23 02.07.2019
5535 Clouds 14 1022 82 10000 10.3 360 10:58 02.07.2019
5536 Clouds 14 1022 82 10000 10.3 360 10:37 02.07.2019
5537 Rain 14 1021 87 0 4.47 0 10:18 02.07.2019
5538 Clouds 14 1021 88 0 4.92 0 09:23 02.07.2019
5539 Clouds 14 1021 88 0 5.36 0 08:59 02.07.2019
5540 Rain 14 1021 87 0 4.47 0 08:38 02.07.2019
5541 Rain 14 1018 88 0 1.34 10 08:19 02.07.2019
5542 Clouds 14 1021 76 10000 7.7 350 07:43 02.07.2019
5543 Clouds 14 1021 76 10000 7.7 350 07:20 02.07.2019
5544 Clouds 13 1021 82 10000 9.3 360 06:38 02.07.2019
5545 Clouds 13 1021 82 10000 6.7 360 05:46 02.07.2019
5546 Clouds 12 1022 87 10000 6.7 20 02:43 02.07.2019
5547 Rain 12 1022 81 10000 6.7 10 00:41 02.07.2019
5548 Clouds 14 1022 71 10000 9.3 350 23:40 01.07.2019
5549 Clouds 13 1022 76 10000 6.7 350 23:19 01.07.2019
5550 Clouds 13 1022 76 10000 6.7 350 22:44 01.07.2019
5551 Clouds 13 1022 76 10000 6.7 350 22:26 01.07.2019
5552 Clouds 13 1022 76 10000 5.1 360 21:46 01.07.2019
5553 Clouds 13 1022 76 10000 5.1 360 21:25 01.07.2019
5554 Clouds 13 1022 67 10000 7.7 340 20:51 01.07.2019
5555 Clouds 13 1022 67 10000 7.7 340 20:21 01.07.2019
5556 Clear 13 1022 71 10000 4.6 320 19:57 01.07.2019
5557 Clear 13 1022 71 10000 4.6 320 19:39 01.07.2019
5558 Clear 13 1022 71 10000 4.6 320 19:21 01.07.2019
5559 Clouds 13 1021 67 10000 5.7 310 18:50 01.07.2019
5560 Clouds 14 1021 67 10000 5.7 310 18:28 01.07.2019
5561 Rain 14 1021 72 10000 6.7 310 17:55 01.07.2019
5562 Rain 15 1021 72 10000 6.7 310 17:37 01.07.2019
5563 Rain 15 1021 72 10000 6.7 310 17:19 01.07.2019
5564 Clouds 15 1020 59 10000 4.1 280 16:44 01.07.2019
5565 Clouds 16 1020 59 10000 4.1 280 16:24 01.07.2019
5566 Clouds 16 1020 63 10000 6.7 290 15:46 01.07.2019
5567 Clouds 16 1020 63 10000 6.7 290 15:26 01.07.2019
5568 Clouds 16 1019 63 10000 7.2 290 14:45 01.07.2019
5569 Clouds 16 1019 63 10000 7.2 290 14:45 01.07.2019
5570 Clouds 16 1019 63 10000 7.2 290 14:24 01.07.2019
5571 Clouds 16 1020 63 10000 4.6 270 13:55 01.07.2019
5572 Clouds 16 1020 63 10000 4.6 270 13:37 01.07.2019
5573 Clouds 16 1020 63 10000 4.6 270 13:37 01.07.2019
5574 Clouds 16 1020 67 10000 5.7 250 13:18 01.07.2019
5575 Clouds 16 1020 67 10000 5.7 250 12:39 01.07.2019
5576 Clouds 16 1020 67 10000 5.7 250 12:39 01.07.2019
5577 Clouds 16 1020 67 10000 5.7 250 12:39 01.07.2019
5578 Clouds 15 1020 67 10000 2.1 300 12:20 01.07.2019
5579 Clouds 16 1020 67 10000 2.1 300 11:56 01.07.2019
5580 Clouds 16 1020 67 10000 2.1 300 11:56 01.07.2019
5581 Clouds 16 1020 67 10000 2.1 300 11:37 01.07.2019
5582 Clouds 15 1019 76 10000 1.5 0 11:18 01.07.2019
5583 Clouds 14 1019 76 10000 1.5 0 10:42 01.07.2019
5584 Clouds 14 1017 82 10000 2.6 260 10:20 01.07.2019
5585 Clouds 13 1017 82 10000 2.6 260 09:42 01.07.2019
5586 Clouds 13 1017 82 10000 2.6 260 09:24 01.07.2019
5587 Clouds 13 1016 82 10000 6.2 230 08:42 01.07.2019
5588 Clouds 13 1016 82 10000 6.2 230 08:21 01.07.2019
5589 Clouds 12 1015 82 10000 4.6 230 07:34 01.07.2019
5590 Clouds 12 1014 87 10000 3.6 260 06:51 01.07.2019
5591 Rain 11 1012 100 10000 3.6 340 04:44 01.07.2019
5592 Rain 12 1011 93 10000 6.7 330 01:20 01.07.2019
5593 Rain 12 1011 93 10000 6.7 330 00:42 01.07.2019
5594 Rain 12 1011 93 10000 6.7 340 00:21 01.07.2019
5595 Rain 12 1011 93 10000 6.7 340 23:25 30.06.2019
5596 Rain 12 1010 93 10000 7.2 330 22:58 30.06.2019
5597 Rain 12 1010 93 10000 7.2 330 22:37 30.06.2019
5598 Rain 12 1010 93 10000 7.2 330 22:18 30.06.2019
5599 Rain 12 1010 93 10000 7.7 30 21:41 30.06.2019
5600 Rain 12 1010 93 10000 7.7 30 21:18 30.06.2019
5601 Rain 12 1010 93 10000 8.2 10 20:42 30.06.2019
5602 Rain 12 1010 93 10000 8.2 10 20:23 30.06.2019
5603 Rain 12 1011 87 8000 9.3 20 19:55 30.06.2019
5604 Clouds 13 1011 76 10000 10.3 10 19:37 30.06.2019
5605 Clouds 13 1011 76 10000 9.3 360 19:18 30.06.2019
5606 Clouds 13 1011 76 10000 9.3 360 18:25 30.06.2019
5607 Clouds 14 1011 62 10000 8.2 360 17:56 30.06.2019
5608 Clouds 14 1011 62 10000 8.2 360 17:37 30.06.2019
5609 Clouds 14 1010 67 10000 8.7 10 17:18 30.06.2019
5610 Clouds 15 1010 67 10000 8.7 10 16:44 30.06.2019
5611 Clouds 15 1010 67 10000 8.7 10 16:25 30.06.2019
5612 Clouds 16 1010 63 10000 8.2 350 15:37 30.06.2019
5613 Clouds 16 1010 63 10000 9.3 10 15:18 30.06.2019
5614 Clouds 16 1010 63 10000 9.3 10 14:50 30.06.2019
5615 Clouds 16 1010 63 10000 9.3 10 14:29 30.06.2019
5616 Clouds 17 1010 67 10000 7.7 20 13:46 30.06.2019
5617 Clouds 17 1010 67 10000 7.7 20 13:25 30.06.2019
5618 Clouds 16 1012 67 10000 7.2 30 12:50 30.06.2019
5619 Clouds 16 1012 67 10000 7.2 30 12:27 30.06.2019
5620 Clouds 15 1013 67 10000 5.7 30 11:56 30.06.2019
5621 Clouds 15 1013 67 10000 5.7 30 11:38 30.06.2019
5622 Clouds 15 1013 67 10000 5.7 30 11:18 30.06.2019
5623 Clouds 15 1013 67 10000 4.6 30 10:42 30.06.2019
5624 Clouds 13 1013 71 10000 5.1 30 10:19 30.06.2019
5625 Clouds 13 1013 71 10000 5.1 30 09:57 30.06.2019
5626 Clouds 13 1013 71 10000 5.1 30 09:36 30.06.2019
5627 Clouds 12 1013 76 10000 5.7 30 09:18 30.06.2019
5628 Clouds 12 1013 76 10000 5.7 30 08:38 30.06.2019
5629 Clouds 12 1013 76 10000 5.7 30 08:19 30.06.2019
5630 Clouds 12 1013 76 10000 4.6 10 07:40 30.06.2019
5631 Clouds 12 1013 71 10000 6.2 20 07:21 30.06.2019
5632 Clouds 12 1013 71 10000 6.2 20 06:23 30.06.2019
5633 Clouds 13 1015 71 10000 6.2 20 03:26 30.06.2019
5634 Clear 13 1015 76 10000 7.7 20 01:31 30.06.2019
5635 Clear 13 1015 76 10000 8.2 20 00:39 30.06.2019
5636 Clear 13 1015 76 10000 8.2 20 00:19 30.06.2019
5637 Clouds 13 1015 76 10000 7.7 20 23:39 29.06.2019
5638 Clouds 13 1015 71 10000 8.2 10 23:20 29.06.2019
5639 Clouds 13 1015 71 10000 8.2 10 22:42 29.06.2019
5640 Clouds 13 1015 71 10000 8.2 10 22:22 29.06.2019
5641 Clouds 14 1015 67 10000 7.2 10 21:54 29.06.2019
5642 Clouds 14 1015 67 10000 7.2 10 21:24 29.06.2019
5643 Clouds 14 1015 67 10000 9.3 360 20:46 29.06.2019
5644 Clouds 14 1015 67 10000 9.3 360 20:28 29.06.2019
5645 Clouds 15 1015 62 10000 12.3 360 19:55 29.06.2019
5646 Clouds 15 1015 62 10000 12.3 360 19:36 29.06.2019
5647 Clouds 15 1015 62 10000 5.7 360 19:18 29.06.2019
5648 Clouds 15 1015 62 10000 5.7 360 18:44 29.06.2019
5649 Clouds 15 1015 59 10000 5.7 360 18:22 29.06.2019
5650 Clouds 16 1015 59 10000 5.7 360 17:37 29.06.2019
5651 Clouds 16 1014 59 10000 7.7 360 17:19 29.06.2019
5652 Clouds 16 1014 59 10000 7.7 360 16:42 29.06.2019
5653 Clouds 16 1014 59 10000 7.7 360 15:59 29.06.2019
5654 Clouds 17 1014 59 10000 7.7 360 15:31 29.06.2019
5655 Clouds 16 1015 63 10000 7.2 360 14:46 29.06.2019
5656 Clouds 16 1015 63 10000 7.2 360 14:27 29.06.2019
5657 Clouds 16 1016 63 10000 8.7 350 13:54 29.06.2019
5658 Clouds 16 1016 63 10000 8.7 350 13:27 29.06.2019
5659 Clouds 16 1017 63 10000 8.7 10 12:59 29.06.2019
5660 Clouds 16 1017 63 10000 8.7 10 12:38 29.06.2019
5661 Clouds 16 1017 63 10000 8.7 10 12:20 29.06.2019
5662 Clouds 15 1017 71 10000 7.7 360 11:42 29.06.2019
5663 Clouds 14 1017 71 10000 7.7 360 11:23 29.06.2019
5664 Clouds 14 1017 82 10000 7.7 10 10:49 29.06.2019
5665 Clouds 13 1017 82 10000 7.7 10 10:21 29.06.2019
5666 Clouds 13 1017 87 10000 7.7 10 09:55 29.06.2019
5667 Clouds 12 1017 87 10000 7.2 360 08:55 29.06.2019
5668 Clouds 12 1017 87 10000 7.2 360 08:31 29.06.2019
5669 Clouds 12 1017 87 10000 6.7 10 07:45 29.06.2019
5670 Clouds 12 1017 87 10000 7.2 360 06:49 29.06.2019
5671 Clouds 12 1017 87 10000 7.2 360 06:25 29.06.2019
5672 Clouds 11 1017 93 10000 5.7 10 05:18 29.06.2019
5673 Clouds 12 1019 93 10000 3.1 50 01:42 29.06.2019
5674 Clouds 12 1019 81 10000 3.1 10 00:49 29.06.2019
5675 Clouds 12 1019 87 10000 5.1 360 23:48 28.06.2019
5676 Clouds 12 1019 87 10000 4.6 350 23:21 28.06.2019
5677 Clouds 12 1019 87 10000 4.6 350 22:47 28.06.2019
5678 Clouds 12 1019 93 10000 5.1 350 22:19 28.06.2019
5679 Clouds 12 1019 93 10000 5.1 350 21:45 28.06.2019
5680 Clouds 12 1019 93 10000 5.1 350 21:45 28.06.2019
5681 Clouds 12 1019 93 10000 5.1 350 21:19 28.06.2019
5682 Clouds 12 1018 93 10000 3.6 360 20:41 28.06.2019
5683 Clouds 13 1017 82 10000 6.7 330 20:19 28.06.2019
5684 Clouds 13 1017 82 10000 6.7 330 19:40 28.06.2019
5685 Clouds 13 1017 82 10000 6.7 330 19:40 28.06.2019
5686 Clouds 13 1017 82 10000 6.7 330 19:21 28.06.2019
5687 Clouds 13 1017 71 10000 9.3 310 18:41 28.06.2019
5688 Clouds 14 1017 71 10000 9.3 310 18:22 28.06.2019
5689 Clouds 14 1016 71 10000 8.7 310 17:46 28.06.2019
5690 Clouds 14 1016 71 10000 8.7 310 17:25 28.06.2019
5691 Clouds 14 1016 71 10000 7.7 310 16:46 28.06.2019
5692 Clouds 15 1016 71 10000 7.7 310 16:20 28.06.2019
5693 Clouds 15 1016 76 10000 9.8 310 15:45 28.06.2019
5694 Clouds 15 1016 76 10000 9.8 310 15:18 28.06.2019
5695 Clouds 16 1016 62 10000 8.2 300 14:42 28.06.2019
5696 Clouds 15 1016 62 10000 8.2 300 14:21 28.06.2019
5697 Clouds 16 1016 67 10000 7.7 310 13:49 28.06.2019
5698 Clouds 16 1016 67 10000 7.7 310 13:29 28.06.2019
5699 Clouds 16 1016 62 10000 8.7 310 12:53 28.06.2019
5700 Clouds 16 1016 62 10000 8.7 310 12:34 28.06.2019
5701 Clouds 15 1016 72 10000 6.7 320 11:46 28.06.2019
5702 Clouds 15 1016 72 10000 6.7 320 11:19 28.06.2019
5703 Rain 13 1015 87 10000 6.2 340 10:43 28.06.2019
5704 Clouds 13 1015 87 10000 5.7 350 10:20 28.06.2019
5705 Clouds 13 1015 87 10000 5.7 350 09:47 28.06.2019
5706 Clouds 13 1015 87 10000 5.7 350 09:28 28.06.2019
5707 Clouds 12 1014 93 10000 5.7 350 08:43 28.06.2019
5708 Clouds 13 1014 93 10000 5.7 350 08:24 28.06.2019
5709 Clouds 13 1013 93 10000 6.2 360 07:43 28.06.2019
5710 Clouds 13 1013 93 10000 6.7 350 06:57 28.06.2019
5711 Clouds 12 1012 93 10000 7.2 360 05:18 28.06.2019
5712 Rain 12 1011 93 9000 8.2 330 01:21 28.06.2019
5713 Rain 12 1011 93 9000 8.2 330 00:23 28.06.2019
5714 Rain 13 1010 82 9000 11.8 340 23:48 27.06.2019
5715 Rain 13 1010 82 9000 11.8 340 23:25 27.06.2019
5716 Clouds 13 1009 76 10000 13.9 360 22:54 27.06.2019
5717 Clouds 13 1009 76 10000 13.9 360 22:36 27.06.2019
5718 Clouds 13 1010 76 10000 13.4 20 22:18 27.06.2019
5719 Clouds 13 1010 76 10000 13.4 20 21:42 27.06.2019
5720 Clouds 13 1010 76 10000 13.4 20 21:24 27.06.2019
5721 Clouds 13 1010 76 10000 10.8 10 20:50 27.06.2019
5722 Clouds 13 1010 76 10000 10.8 10 20:31 27.06.2019
5723 Clouds 13 1010 71 10000 12.3 360 19:59 27.06.2019
5724 Clouds 14 1010 71 10000 12.3 360 19:40 27.06.2019
5725 Clouds 14 1010 71 10000 12.3 360 19:22 27.06.2019
5726 Clouds 14 1010 71 10000 10.8 350 18:42 27.06.2019
5727 Clouds 14 1010 71 10000 10.8 350 18:19 27.06.2019
5728 Clouds 15 1009 67 10000 10.8 340 17:41 27.06.2019
5729 Clouds 15 1009 67 10000 10.8 340 17:22 27.06.2019
5730 Clouds 15 1009 72 10000 11.8 330 16:39 27.06.2019
5731 Clouds 16 1010 77 10000 9.3 330 16:19 27.06.2019
5732 Clouds 16 1009 72 10000 11.8 330 16:19 27.06.2019
5733 Clouds 15 1010 77 10000 9.3 330 15:51 27.06.2019
5734 Clouds 15 1010 77 10000 9.3 330 15:31 27.06.2019
5735 Clouds 16 1010 67 10000 8.7 320 14:57 27.06.2019
5736 Clouds 16 1010 67 10000 8.7 320 14:36 27.06.2019
5737 Clouds 16 1010 67 10000 8.7 320 14:18 27.06.2019
5738 Clear 16 1011 67 10000 8.2 330 13:42 27.06.2019
5739 Clear 17 1011 67 10000 8.2 330 13:24 27.06.2019
5740 Clear 16 1012 67 10000 7.7 320 12:43 27.06.2019
5741 Clear 16 1012 67 10000 7.7 320 12:23 27.06.2019
5742 Clear 17 1012 63 10000 6.7 310 11:45 27.06.2019
5743 Clear 16 1012 63 10000 6.7 310 11:22 27.06.2019
5744 Clear 16 1012 67 10000 4.1 310 10:57 27.06.2019
5745 Clear 15 1012 76 10000 3.6 320 10:36 27.06.2019
5746 Clear 13 1012 100 10000 2.6 350 10:18 27.06.2019
5747 Clouds 12 1012 100 7000 1 0 09:38 27.06.2019
5748 Clouds 12 1012 100 7000 1 0 09:20 27.06.2019
5749 Fog 11 1013 100 250 2.1 290 08:46 27.06.2019
5750 Fog 11 1013 100 250 2.1 290 08:46 27.06.2019
5751 Fog 11 1013 100 250 2.1 290 08:46 27.06.2019
5752 Fog 11 1013 100 250 2.1 290 08:26 27.06.2019
5753 Clear 11 1013 93 10000 4.6 20 07:44 27.06.2019
5754 Clear 11 1013 93 10000 6.2 30 06:56 27.06.2019
5755 Clouds 10 1013 100 8000 2.6 350 06:30 27.06.2019
5756 Fog 11 1015 100 1000 3.6 40 03:51 27.06.2019
5757 Fog 11 1016 93 200 3.1 20 02:41 27.06.2019
5758 Fog 11 1017 100 200 4.6 330 01:26 27.06.2019
5759 Fog 11 1017 93 300 5.1 330 00:49 27.06.2019
5760 Mist 10 1017 93 5000 3.6 330 00:26 27.06.2019
5761 Mist 10 1017 93 4000 2.6 360 23:48 26.06.2019
5762 Mist 10 1017 93 4000 2.6 360 23:23 26.06.2019
5763 Fog 11 1017 100 1000 2.1 340 22:57 26.06.2019
5764 Fog 11 1017 100 1000 2.1 340 22:39 26.06.2019
5765 Mist 11 1018 93 5000 2.6 320 22:19 26.06.2019
5766 Mist 11 1018 93 5000 2.6 320 21:42 26.06.2019
5767 Mist 11 1018 93 5000 2.6 320 21:20 26.06.2019
5768 Mist 11 1019 87 5000 2.1 300 20:57 26.06.2019
5769 Mist 11 1019 87 5000 2.1 300 20:37 26.06.2019
5770 Mist 11 1019 87 5000 2.1 300 20:18 26.06.2019
5771 Clear 12 1019 87 10000 1 340 19:41 26.06.2019
5772 Clear 12 1019 87 10000 1 340 19:23 26.06.2019
5773 Clear 13 1019 82 10000 3.1 300 18:45 26.06.2019
5774 Clear 13 1019 82 10000 3.1 300 18:22 26.06.2019
5775 Clear 14 1019 82 10000 4.6 310 17:57 26.06.2019
5776 Clear 15 1019 82 10000 4.6 310 17:29 26.06.2019
5777 Clear 16 1019 77 10000 6.2 310 16:57 26.06.2019
5778 Clear 16 1019 77 10000 6.2 310 16:39 26.06.2019
5779 Clear 16 1019 77 10000 6.2 310 16:19 26.06.2019
5780 Clear 17 1019 72 10000 4.1 320 15:37 26.06.2019
5781 Clear 17 1019 72 10000 4.1 320 15:19 26.06.2019
5782 Clear 16 1019 77 10000 6.2 310 14:38 26.06.2019
5783 Clear 16 1019 77 10000 6.2 310 14:19 26.06.2019
5784 Clear 17 1019 68 10000 6.2 310 13:42 26.06.2019
5785 Clear 17 1020 59 10000 4.6 220 13:19 26.06.2019
5786 Clear 18 1020 59 10000 4.6 220 12:41 26.06.2019
5787 Clear 18 1020 59 10000 4.6 220 12:22 26.06.2019
5788 Clear 17 1021 59 10000 2.1 250 11:45 26.06.2019
5789 Clear 17 1020 59 10000 2.1 210 11:19 26.06.2019
5790 Clear 16 1020 72 10000 3.1 220 10:41 26.06.2019
5791 Clear 16 1020 72 10000 3.1 220 10:22 26.06.2019
5792 Clouds 15 1020 82 10000 4.1 230 09:44 26.06.2019
5793 Clear 13 1020 81 10000 3.1 250 09:19 26.06.2019
5794 Clear 13 1020 81 10000 3.1 250 08:44 26.06.2019
5795 Clear 13 1020 81 10000 3.1 250 08:20 26.06.2019
5796 Clear 13 1020 76 10000 2.6 110 07:46 26.06.2019
5797 Clear 13 1019 81 10000 3.1 140 06:40 26.06.2019
5798 Clear 13 1019 81 10000 3.1 140 06:21 26.06.2019
5799 Clear 14 1020 76 10000 6.2 130 01:25 26.06.2019
5800 Clear 14 1020 71 10000 5.7 130 00:25 26.06.2019
5801 Clear 14 1020 71 10000 5.7 130 23:45 25.06.2019
5802 Clear 14 1020 71 10000 5.7 130 23:27 25.06.2019
5803 Clear 14 1020 76 10000 4.6 130 22:57 25.06.2019
5804 Clear 14 1020 76 10000 4.6 130 22:57 25.06.2019
5805 Clear 14 1020 76 10000 4.6 130 22:38 25.06.2019
5806 Clear 14 1020 71 10000 4.6 130 22:20 25.06.2019
5807 Clear 14 1020 71 10000 4.6 130 21:43 25.06.2019
5808 Clear 14 1020 71 10000 4.6 130 21:22 25.06.2019
5809 Clear 14 1020 71 10000 5.1 130 20:45 25.06.2019
5810 Clear 14 1020 71 10000 5.1 130 20:45 25.06.2019
5811 Clear 14 1020 71 10000 5.1 130 20:45 25.06.2019
5812 Clear 14 1020 71 10000 5.1 130 20:22 25.06.2019
5813 Clouds 15 1020 71 10000 5.7 130 19:46 25.06.2019
5814 Clouds 15 1020 71 10000 5.7 130 19:23 25.06.2019
5815 Clouds 15 1019 67 10000 6.2 130 18:59 25.06.2019
5816 Clouds 15 1019 67 10000 6.2 130 18:40 25.06.2019
5817 -273 0 0 0 0 0 18:21 25.06.2019
5818 Clouds 17 1019 67 10000 6.7 130 17:30 25.06.2019
5819 Clouds 18 1019 52 10000 6.2 140 16:58 25.06.2019
5820 Clouds 18 1019 52 10000 6.2 140 16:39 25.06.2019
5821 Clouds 18 1019 52 10000 6.2 140 16:21 25.06.2019
5822 Clouds 19 1018 52 10000 4.6 140 15:42 25.06.2019
5823 Clouds 19 1018 52 10000 4.6 140 15:24 25.06.2019
5824 Clouds 20 1018 45 10000 4.6 130 14:54 25.06.2019
5825 Clouds 20 1018 45 10000 4.6 130 14:35 25.06.2019
5826 Clear 19 1018 54 0 1.34 158 13:47 25.06.2019
5827 Clear 19 1018 54 0 1.34 158 13:47 25.06.2019
5828 Clear 19 1016 65 0 0.89 75 13:29 25.06.2019
5829 Clear 19 1018 60 0 1.79 135 12:55 25.06.2019
5830 Clouds 18 1020 63 10000 6.2 140 12:37 25.06.2019
5831 Clouds 18 1020 63 10000 6.2 140 12:18 25.06.2019
5832 Clouds 17 1020 63 10000 6.2 140 11:43 25.06.2019
5833 Clouds 17 1020 67 10000 6.2 130 11:21 25.06.2019
5834 Clouds 17 1020 63 10000 6.2 140 11:21 25.06.2019
5835 Clouds 17 1020 67 10000 6.2 130 10:45 25.06.2019
5836 Clouds 16 1020 67 10000 6.2 130 10:23 25.06.2019
5837 Clouds 15 1020 76 10000 4.1 140 09:56 25.06.2019
5838 Clouds 15 1020 76 10000 4.1 140 09:38 25.06.2019
5839 Clouds 14 1019 81 10000 1.5 140 09:19 25.06.2019
5840 Clouds 13 1019 81 10000 1.5 140 08:47 25.06.2019
5841 Clouds 13 1019 81 10000 1.5 140 08:28 25.06.2019
5842 Clouds 12 1019 87 10000 2.6 160 07:40 25.06.2019
5843 Clouds 13 1019 81 10000 1.5 150 06:58 25.06.2019
5844 Clouds 13 1019 81 10000 1.5 150 06:40 25.06.2019
5845 Clouds 13 1019 81 10000 1 140 04:24 25.06.2019
5846 Clouds 13 1020 82 10000 6.2 140 02:23 25.06.2019
5847 Clouds 13 1020 82 10000 7.7 150 00:38 25.06.2019
5848 Clouds 13 1020 82 10000 9.8 150 00:18 25.06.2019
5849 Clouds 13 1020 82 10000 9.8 150 23:42 24.06.2019
5850 Clear 14 1020 76 10000 10.3 160 23:23 24.06.2019
5851 Clear 14 1020 76 10000 10.3 160 22:44 24.06.2019
5852 Clear 14 1020 76 10000 8.7 170 22:19 24.06.2019
5853 Clear 14 1020 76 10000 8.7 170 21:42 24.06.2019
5854 Clear 14 1020 76 10000 8.7 170 21:20 24.06.2019
5855 Clear 14 1020 87 10000 9.3 180 20:59 24.06.2019
5856 Clear 14 1020 87 10000 9.3 180 20:40 24.06.2019
5857 Clear 14 1020 82 10000 7.7 180 20:21 24.06.2019
5858 Clear 14 1020 82 10000 7.7 180 19:46 24.06.2019
5859 Clear 14 1020 82 10000 7.7 180 19:24 24.06.2019
5860 Clear 14 1020 82 10000 7.7 180 19:24 24.06.2019
5861 Clear 14 1020 82 10000 5.7 170 18:48 24.06.2019
5862 Clear 14 1020 82 10000 5.7 170 18:30 24.06.2019
5863 Clear 15 1020 72 10000 6.7 180 17:58 24.06.2019
5864 Clear 15 1020 72 10000 6.7 180 17:36 24.06.2019
5865 Clouds 16 1020 67 10000 6.7 180 16:56 24.06.2019
5866 Clouds 16 1020 67 10000 6.7 180 16:37 24.06.2019
5867 Clouds 16 1019 63 10000 6.7 180 16:18 24.06.2019
5868 Clouds 17 1019 63 10000 6.7 180 15:39 24.06.2019
5869 Clouds 18 1019 63 10000 6.7 180 15:20 24.06.2019
5870 Clouds 17 1019 67 10000 6.2 180 14:34 24.06.2019
5871 -273 0 0 0 0 0 13:54 24.06.2019
5872 Clouds 17 1020 63 10000 6.2 180 13:54 24.06.2019
5873 Clouds 17 1020 63 10000 6.2 180 13:31 24.06.2019
5874 Clouds 17 1020 67 10000 5.1 170 12:45 24.06.2019
5875 Clouds 17 1020 67 10000 5.1 170 12:26 24.06.2019
5876 Clouds 17 1020 82 10000 4.1 180 11:58 24.06.2019
5877 Clouds 16 1020 82 10000 4.1 180 11:58 24.06.2019
5878 Clouds 16 1020 82 10000 4.1 180 11:40 24.06.2019
5879 Clouds 15 1020 82 10000 4.1 180 11:20 24.06.2019
5880 Clear 14 1020 100 10000 3.6 200 10:47 24.06.2019
5881 Clear 13 1020 100 10000 3.6 200 10:27 24.06.2019
5882 Clouds 13 1020 100 7000 2.1 210 09:49 24.06.2019
5883 Mist 13 1020 100 2500 1.5 0 09:49 24.06.2019
5884 Mist 13 1020 100 2500 1.5 0 09:22 24.06.2019
5885 Mist 12 1019 100 1100 1.5 150 08:52 24.06.2019
5886 Fog 10 1019 100 800 1.5 180 08:26 24.06.2019
5887 Fog 11 1019 100 800 1.5 180 08:26 24.06.2019
5888 Fog 10 1019 100 300 2.1 130 07:45 24.06.2019
5889 Mist 10 1019 100 3000 2.1 170 07:26 24.06.2019
5890 Clouds 11 1019 93 7000 2.6 160 06:49 24.06.2019
5891 Clear 9 1018 100 10000 2.1 180 06:21 24.06.2019
5892 Clear 10 1018 100 10000 1.5 200 05:27 24.06.2019
5893 Clear 11 1019 93 10000 3.1 220 04:25 24.06.2019
5894 Mist 11 1019 100 3000 3.6 220 03:23 24.06.2019
5895 Mist 11 1019 100 3000 3.6 220 02:33 24.06.2019
5896 Clear 11 1019 100 10000 3.6 200 01:54 24.06.2019
5897 Clouds 11 1019 100 7000 1.5 200 01:26 24.06.2019
5898 Clouds 11 1019 100 7000 1.5 200 00:41 24.06.2019
5899 Clouds 11 1019 100 7000 1.5 200 00:19 24.06.2019
5900 Clear 11 1020 100 10000 2.1 200 23:45 23.06.2019
5901 Clear 11 1020 100 10000 2.1 200 23:23 23.06.2019
5902 Clouds 12 1020 100 9000 2.1 200 22:43 23.06.2019
5903 Clouds 12 1020 100 9000 2.1 200 22:21 23.06.2019
5904 Clear 12 1020 100 10000 0.5 200 21:58 23.06.2019
5905 Clear 12 1020 100 10000 0.5 200 21:40 23.06.2019
5906 Clear 12 1020 100 10000 0.5 200 21:21 23.06.2019
5907 Clear 12 1021 93 10000 2.1 150 20:43 23.06.2019
5908 Clear 12 1021 93 10000 2.1 150 20:25 23.06.2019
5909 Clear 12 1021 93 10000 2.1 140 19:45 23.06.2019
5910 Clear 12 1021 93 10000 2.1 140 19:21 23.06.2019
5911 Clear 13 1020 93 10000 2.6 150 18:54 23.06.2019
5912 Clear 14 1020 93 10000 2.6 150 18:24 23.06.2019
5913 Clouds 15 1020 72 10000 3.6 210 17:53 23.06.2019
5914 Clouds 16 1020 72 10000 3.6 210 17:27 23.06.2019
5915 Clouds 17 1020 63 10000 3.1 230 16:59 23.06.2019
5916 Clouds 17 1020 63 10000 3.1 230 16:40 23.06.2019
5917 Clouds 17 1020 63 10000 3.1 230 16:21 23.06.2019
5918 Clouds 18 1020 63 10000 2.1 220 15:41 23.06.2019
5919 Clouds 18 1020 63 10000 2.1 220 15:22 23.06.2019
5920 Clouds 18 1021 59 10000 2.1 0 14:42 23.06.2019
5921 Clouds 18 1021 59 10000 2.1 0 14:23 23.06.2019
5922 Clouds 18 1022 67 10000 2.1 220 13:58 23.06.2019
5923 Clouds 18 1022 67 10000 2.1 220 13:40 23.06.2019
5924 Clouds 18 1022 67 10000 2.1 220 13:19 23.06.2019
5925 Clouds 17 1023 67 10000 2.1 170 12:44 23.06.2019
5926 Clear 17 1018 78 0 1.34 144 12:23 23.06.2019
5927 Clear 16 1024 77 10000 3.6 200 11:57 23.06.2019
5928 Clear 16 1024 77 10000 3.6 200 11:38 23.06.2019
5929 Clear 16 1024 77 10000 3.6 200 11:19 23.06.2019
5930 Clear 16 1023 87 0 0.45 203 10:44 23.06.2019
5931 Clear 14 1023 89 0 1.79 65.784 10:19 23.06.2019
5932 Clear 13 1019 79 0 1.79 65.784 09:42 23.06.2019
5933 Clear 13 1023 94 0 4.29 125.825 09:21 23.06.2019
5934 Clear 12 1023 95 0 4.29 125.825 08:45 23.06.2019
5935 Clear 12 1018 80 0 4.38 117.812 08:27 23.06.2019
5936 Clear 12 1018 80 0 4.38 117.812 07:54 23.06.2019
5937 Clear 12 1023 95 0 4.38 117.812 07:21 23.06.2019
5938 Clear 12 1022 95 0 0.89 203 06:54 23.06.2019
5939 Clear 12 1018 80 0 6.85 138.223 05:55 23.06.2019
5940 Clear 13 1019 79 0 6.85 138.223 04:38 23.06.2019
5941 Clear 13 1024 93 0 4.47 200 02:19 23.06.2019
5942 Clear 14 1024 94 0 1.34 180 01:37 23.06.2019
5943 Clear 14 1018 93 0 7.15 180 00:37 23.06.2019
5944 Clear 14 1024 92 0 1.79 180 23:57 22.06.2019
5945 Clear 14 1021 78 0 0.89 163 23:38 22.06.2019
5946 Clear 14 1018 93 0 7.15 180 23:19 22.06.2019
5947 Clear 15 1024 92 0 1.79 180 22:44 22.06.2019
5948 Clear 15 1022 91 0 9.83 148.239 22:19 22.06.2019
5949 Clear 15 1022 92 0 9.83 148.239 21:38 22.06.2019
5950 Rain 15 1025 90 0 2.24 180 21:19 22.06.2019
5951 Rain 15 1023 90 0 10.05 158.757 20:50 22.06.2019
5952 Rain 15 1022 88 0 0.45 122 20:25 22.06.2019
5953 Rain 15 1024 91 0 2.24 180 19:50 22.06.2019
5954 Rain 15 1024 94 0 2.24 180 19:28 22.06.2019
5955 Rain 15 1020 78 0 3.13 157 18:55 22.06.2019
5956 Rain 15 1024 93 0 7.15 180 18:33 22.06.2019
5957 Rain 15 1024 93 4000 7.2 180 17:57 22.06.2019
5958 Rain 15 1024 93 4000 7.2 180 17:38 22.06.2019
5959 Rain 15 1024 93 4000 7.2 180 17:18 22.06.2019
5960 Clouds 16 1024 93 7000 8.2 180 16:39 22.06.2019
5961 Clouds 16 1024 93 7000 8.2 180 16:20 22.06.2019
5962 Clouds 16 1024 93 7000 8.2 180 16:20 22.06.2019
5963 Rain 16 1024 93 4000 7.2 200 15:40 22.06.2019
5964 Rain 16 1024 93 4000 7.2 200 15:22 22.06.2019
5965 Rain 16 1024 87 6000 8.7 190 14:46 22.06.2019
5966 Clouds 16 1024 93 10000 8.2 200 14:28 22.06.2019
5967 Clouds 16 1024 93 10000 8.2 200 13:44 22.06.2019
5968 Clouds 15 1024 93 10000 8.2 200 13:25 22.06.2019
5969 Clouds 15 1024 93 10000 8.2 200 13:25 22.06.2019
5970 Clouds 15 1025 87 10000 7.2 210 12:54 22.06.2019
5971 Clouds 15 1025 87 10000 7.2 210 12:35 22.06.2019
5972 Clouds 15 1025 93 10000 6.2 210 11:59 22.06.2019
5973 Drizzle 15 1025 87 5000 5.7 220 11:36 22.06.2019
5974 Clouds 14 1025 93 7000 6.2 220 10:54 22.06.2019
5975 Rain 14 1025 87 6000 5.1 210 10:22 22.06.2019
5976 Clouds 14 1024 87 10000 6.2 200 09:56 22.06.2019
5977 Clouds 14 1024 87 10000 6.2 200 09:27 22.06.2019
5978 Clouds 14 1023 87 10000 6.7 200 08:45 22.06.2019
5979 Clouds 14 1023 87 10000 6.7 200 08:26 22.06.2019
5980 Clouds 13 1022 93 10000 4.1 240 07:43 22.06.2019
5981 Clouds 13 1022 93 10000 4.1 240 06:58 22.06.2019
5982 Rain 13 1022 100 4500 4.1 240 06:31 22.06.2019
5983 Rain 13 1019 87 8000 5.7 250 02:38 22.06.2019
5984 Rain 13 1019 87 8000 5.7 250 02:18 22.06.2019
5985 Clouds 15 1015 77 10000 12.9 230 00:47 22.06.2019
5986 Clouds 15 1015 77 10000 12.9 230 00:23 22.06.2019
5987 Rain 15 1012 82 6000 10.8 290 23:49 21.06.2019
5988 Rain 15 1012 82 6000 10.8 290 23:22 21.06.2019
5989 Clouds 15 1009 82 10000 9.3 310 22:54 21.06.2019
5990 Clouds 15 1009 82 10000 9.3 310 22:27 21.06.2019
5991 Rain 14 1009 77 9000 7.2 290 21:57 21.06.2019
5992 Rain 13 1008 93 3000 19 360 21:38 21.06.2019
5993 Rain 13 1008 93 3000 19 360 21:38 21.06.2019
5994 Rain 13 1008 93 3000 19 360 21:38 21.06.2019
5995 Rain 13 1008 93 3000 19 360 21:38 21.06.2019
5996 Rain 13 1008 93 3000 19 360 21:19 21.06.2019
5997 Rain 13 1010 82 4000 15.4 360 20:47 21.06.2019
5998 Rain 13 1010 82 4000 15.4 360 20:24 21.06.2019
5999 Clouds 14 1011 71 10000 14.4 360 19:38 21.06.2019
6000 Clouds 14 1011 76 10000 12.9 360 18:59 21.06.2019
6001 Clouds 14 1011 82 10000 11.8 360 18:35 21.06.2019
6002 Rain 14 1013 87 10000 11.3 350 17:58 21.06.2019
6003 Rain 14 1013 87 10000 11.3 350 17:30 21.06.2019
6004 Rain 14 1013 87 10000 8.2 360 16:43 21.06.2019
6005 Rain 14 1013 87 10000 8.2 360 16:23 21.06.2019
6006 Rain 14 1013 93 6000 8.2 340 15:58 21.06.2019
6007 Rain 15 1012 87 3000 8.2 320 15:36 21.06.2019
6008 Clouds 19 1011 83 10000 12.9 340 14:56 21.06.2019
6009 Clouds 20 1011 83 10000 12.9 340 14:37 21.06.2019
6010 Clouds 20 1011 83 10000 12.9 340 14:19 21.06.2019
6011 Clear 21 1011 26 10000 9.3 360 13:39 21.06.2019
6012 Clear 21 1011 26 10000 9.3 360 13:21 21.06.2019
6013 Clear 21 1012 81 10000 9.3 10 12:44 21.06.2019
6014 Clear 20 1012 67 10000 9.3 10 12:22 21.06.2019
6015 Clear 18 1013 34 10000 7.2 30 11:48 21.06.2019
6016 Clear 18 1013 34 10000 7.2 30 11:28 21.06.2019
6017 Clear 18 1014 44 10000 3.6 20 10:58 21.06.2019
6018 Clear 18 1014 44 10000 3.6 20 10:39 21.06.2019
6019 Clear 18 1014 44 10000 3.6 20 10:20 21.06.2019
6020 Clear 17 1015 50 10000 2.6 50 09:42 21.06.2019
6021 Clear 15 1015 50 10000 2.6 50 09:21 21.06.2019
6022 Clear 14 1014 53 10000 2.6 80 08:55 21.06.2019
6023 Clear 14 1014 53 10000 2.6 80 08:37 21.06.2019
6024 Clear 14 1014 53 10000 2.6 80 08:18 21.06.2019
6025 Clear 14 1014 50 10000 3.6 40 07:40 21.06.2019
6026 Clear 15 1013 43 10000 3.6 40 06:59 21.06.2019
6027 Clear 15 1014 50 10000 3.1 40 06:24 21.06.2019
6028 Clear 14 1014 50 10000 3.1 40 05:33 21.06.2019
6029 Clear 15 1015 47 10000 5.1 50 04:36 21.06.2019
6030 Clear 15 1015 41 10000 4.6 50 03:35 21.06.2019
6031 Clear 15 1016 64 10000 3.1 20 02:59 21.06.2019
6032 Clear 16 1016 64 10000 4.6 30 01:59 21.06.2019
6033 Clear 16 1016 67 10000 4.6 30 01:27 21.06.2019
6034 Clear 14 1016 67 10000 4.1 30 00:29 21.06.2019
6035 Clear 13 1017 43 10000 3.6 30 23:55 20.06.2019
6036 Clear 13 1017 43 10000 3.6 30 23:37 20.06.2019
6037 Clear 13 1017 43 10000 3.6 30 23:18 20.06.2019
6038 Clear 14 1017 46 10000 4.6 50 22:41 20.06.2019
6039 Clear 14 1017 46 10000 4.6 50 22:22 20.06.2019
6040 Clear 15 1017 62 10000 1 0 21:54 20.06.2019
6041 Clear 15 1017 62 10000 1 0 21:36 20.06.2019
6042 Clear 16 1017 65 10000 3.1 10 21:18 20.06.2019
6043 Clear 15 1017 65 10000 1 0 21:18 20.06.2019
6044 Clear 16 1017 64 10000 3.1 10 20:41 20.06.2019
6045 Clear 16 1017 64 10000 3.1 10 20:22 20.06.2019
6046 Clear 15 1017 64 10000 3.1 360 19:45 20.06.2019
6047 Clear 15 1017 64 10000 3.1 360 19:19 20.06.2019
6048 Clear 16 1017 64 10000 1 0 18:57 20.06.2019
6049 Clear 17 1017 64 10000 1 0 18:38 20.06.2019
6050 Clear 17 1017 63 10000 1 0 18:20 20.06.2019
6051 Clear 18 1017 28 10000 3.6 350 17:45 20.06.2019
6052 Clear 20 1017 28 10000 3.6 350 17:25 20.06.2019
6053 Clear 21 1017 26 10000 3.6 310 16:42 20.06.2019
6054 Clear 21 1017 26 10000 3.6 310 16:19 20.06.2019
6055 Clear 22 1018 27 10000 3.1 300 15:56 20.06.2019
6056 Clear 23 1018 27 10000 3.1 300 15:37 20.06.2019
6057 Clear 23 1018 29 10000 3.1 320 15:18 20.06.2019
6058 Clear 24 1018 29 10000 3.1 320 14:42 20.06.2019
6059 Clear 24 1018 29 10000 3.1 320 14:21 20.06.2019
6060 Clear 24 1019 25 10000 2.6 310 13:40 20.06.2019
6061 Clear 24 1019 25 10000 2.6 310 13:19 20.06.2019
6062 Clear 23 1020 25 10000 2.1 330 12:44 20.06.2019
6063 Clear 23 1020 25 10000 2.1 330 12:22 20.06.2019
6064 Clear 21 1021 30 10000 3.1 30 11:44 20.06.2019
6065 Clear 20 1021 34 10000 3.6 40 11:23 20.06.2019
6066 Clear 19 1021 34 10000 3.6 40 10:47 20.06.2019
6067 Clear 19 1021 48 10000 2.6 50 10:47 20.06.2019
6068 Clear 17 1021 48 10000 2.6 50 10:25 20.06.2019
6069 Clear 16 1021 51 10000 3.6 50 09:59 20.06.2019
6070 Clear 15 1022 58 10000 3.6 50 09:40 20.06.2019
6071 Clear 13 1021 54 10000 4.1 40 09:21 20.06.2019
6072 Clear 12 1021 54 10000 4.1 40 08:45 20.06.2019
6073 Clear 12 1021 54 10000 4.1 40 08:27 20.06.2019
6074 Clear 12 1021 50 10000 1 0 07:53 20.06.2019
6075 Clear 12 1021 50 10000 1 0 07:27 20.06.2019
6076 Clear 12 1021 53 10000 1.5 0 06:27 20.06.2019
6077 Clear 10 1022 53 10000 1 0 04:53 20.06.2019
6078 Clear 13 1022 53 10000 3.1 50 02:29 20.06.2019
6079 Clear 14 1023 46 10000 3.6 40 00:34 20.06.2019
6080 Clear 14 1022 50 10000 4.1 50 23:56 19.06.2019
6081 Clear 14 1022 50 10000 4.1 50 23:37 19.06.2019
6082 Clear 14 1023 46 10000 3.6 40 23:19 19.06.2019
6083 Clear 14 1023 46 10000 3.6 40 22:40 19.06.2019
6084 Clear 14 1023 46 10000 3.6 40 22:18 19.06.2019
6085 Clear 16 1022 31 10000 3.1 350 22:18 19.06.2019
6086 Clear 16 1022 31 10000 3.1 350 21:42 19.06.2019
6087 Clear 16 1022 31 10000 3.1 350 21:23 19.06.2019
6088 Clear 16 1022 68 10000 4.1 330 20:42 19.06.2019
6089 Clear 16 1022 68 10000 4.1 330 20:22 19.06.2019
6090 Clear 17 1021 33 10000 4.6 340 19:55 19.06.2019
6091 Clear 17 1021 33 10000 4.6 340 19:36 19.06.2019
6092 Clear 17 1021 33 10000 4.6 340 19:18 19.06.2019
6093 Clear 18 1021 31 10000 5.1 330 18:43 19.06.2019
6094 Clear 18 1021 31 10000 5.1 330 18:20 19.06.2019
6095 Clear 20 1021 28 10000 5.1 330 17:35 19.06.2019
6096 Clear 21 1020 22 10000 5.7 320 16:57 19.06.2019
6097 Clear 21 1020 22 10000 5.7 320 16:38 19.06.2019
6098 Clear 21 1020 22 10000 5.7 320 16:20 19.06.2019
6099 Clear 23 1021 18 10000 7.7 320 15:48 19.06.2019
6100 -273 0 0 0 0 0 15:26 19.06.2019
6101 Clear 23 1021 18 10000 6.7 320 14:50 19.06.2019
6102 Clear 23 1021 18 10000 6.7 320 14:30 19.06.2019
6103 Clear 23 1021 23 10000 6.2 320 13:59 19.06.2019
6104 Clear 23 1021 23 10000 6.2 320 13:40 19.06.2019
6105 Clear 23 1022 23 10000 5.7 320 13:21 19.06.2019
6106 Clear 23 1022 23 10000 5.7 320 12:44 19.06.2019
6107 Clear 22 1022 23 10000 5.7 320 12:21 19.06.2019
6108 Clear 21 1022 26 10000 4.6 330 11:45 19.06.2019
6109 Clear 21 1022 26 10000 4.6 330 11:25 19.06.2019
6110 Clear 20 1022 32 10000 3.6 360 10:58 19.06.2019
6111 Clear 19 1022 32 10000 3.6 360 10:40 19.06.2019
6112 Clear 20 1022 32 10000 3.6 360 10:40 19.06.2019
6113 Clear 17 1022 48 10000 2.6 350 10:22 19.06.2019
6114 Clear 14 1021 58 10000 3.1 20 09:39 19.06.2019
6115 Clear 14 1021 54 10000 4.1 360 09:20 19.06.2019
6116 Clear 12 1021 54 10000 4.1 360 08:50 19.06.2019
6117 Clear 12 1021 54 10000 4.1 360 08:28 19.06.2019
6118 Clear 12 1021 44 10000 3.6 360 07:47 19.06.2019
6119 Clear 12 1021 44 10000 3.6 360 07:47 19.06.2019
6120 Clear 12 1021 44 10000 3.6 360 07:25 19.06.2019
6121 Clear 12 1020 54 10000 4.1 10 06:52 19.06.2019
6122 Clear 12 1020 54 10000 4.1 10 06:28 19.06.2019
6123 Clear 14 1020 54 10000 4.1 20 05:49 19.06.2019
6124 Clear 12 1020 62 10000 4.1 350 04:41 19.06.2019
6125 Clear 13 1020 54 10000 1.5 0 03:33 19.06.2019
6126 Clear 14 1020 50 10000 2.6 20 02:26 19.06.2019
6127 Clear 15 1020 41 10000 3.1 30 01:27 19.06.2019
6128 Clear 15 1021 44 10000 4.6 350 00:43 19.06.2019
6129 Clear 15 1021 44 10000 4.6 350 00:20 19.06.2019
6130 Clear 15 1021 44 10000 3.6 350 23:53 18.06.2019
6131 Clear 15 1021 44 10000 3.6 350 23:28 18.06.2019
6132 Clear 15 1020 67 10000 3.6 340 22:55 18.06.2019
6133 Clear 16 1020 67 10000 3.6 340 22:37 18.06.2019
6134 Clear 16 1020 67 10000 3.6 340 22:18 18.06.2019
6135 Clear 16 1020 58 10000 4.6 330 21:42 18.06.2019
6136 Clear 17 1020 58 10000 4.6 330 21:21 18.06.2019
6137 Clear 17 1020 48 10000 2.6 300 20:44 18.06.2019
6138 Clear 17 1020 48 10000 2.6 300 20:25 18.06.2019
6139 Clear 17 1019 48 10000 2.1 340 19:55 18.06.2019
6140 Clear 17 1019 48 10000 2.1 340 19:37 18.06.2019
6141 Clear 18 1019 48 10000 2.1 340 19:19 18.06.2019
6142 Clear 19 1019 37 10000 4.1 330 18:43 18.06.2019
6143 Clear 20 1019 37 10000 4.1 330 18:24 18.06.2019
6144 Clear 22 1019 28 10000 4.6 320 17:42 18.06.2019
6145 Clear 22 1019 28 10000 4.6 320 17:20 18.06.2019
6146 Clear 24 1019 24 10000 5.1 20 16:47 18.06.2019
6147 Clear 25 1019 24 10000 5.1 20 16:27 18.06.2019
6148 Clear 27 1019 22 10000 5.1 10 15:56 18.06.2019
6149 Clear 27 1019 22 10000 5.1 10 15:37 18.06.2019
6150 Clear 27 1019 22 10000 5.1 10 15:19 18.06.2019
6151 Clear 26 1019 24 10000 4.1 30 14:45 18.06.2019
6152 Clear 26 1019 24 10000 4.1 30 14:45 18.06.2019
6153 Clear 26 1019 24 10000 4.1 30 14:22 18.06.2019
6154 Clear 25 1020 25 10000 3.6 10 13:56 18.06.2019
6155 Clear 25 1020 25 10000 3.6 10 13:38 18.06.2019
6156 Clear 25 1021 25 10000 4.6 30 13:19 18.06.2019
6157 Clear 24 1021 27 10000 5.1 20 12:42 18.06.2019
6158 Clear 22 1022 28 10000 5.1 30 12:24 18.06.2019
6159 Clear 21 1022 37 10000 2.1 20 11:43 18.06.2019
6160 Clear 21 1022 37 10000 2.1 20 11:21 18.06.2019
6161 Clear 19 1022 52 10000 1.5 0 10:57 18.06.2019
6162 Clear 18 1022 71 10000 1 0 10:37 18.06.2019
6163 Clear 15 1022 81 10000 2.1 90 10:18 18.06.2019
6164 Clear 14 1022 81 10000 2.1 90 09:48 18.06.2019
6165 Clear 12 1022 93 10000 1.5 120 09:24 18.06.2019
6166 Clear 10 1021 100 10000 2.6 70 08:46 18.06.2019
6167 Mist 10 1022 100 2000 2.1 60 08:21 18.06.2019
6168 Mist 10 1022 100 2000 2.1 60 07:41 18.06.2019
6169 Fog 10 1022 100 100 2.1 60 07:21 18.06.2019
6170 Fog 10 1022 100 100 2.1 80 06:44 18.06.2019
6171 Fog 11 1022 100 50 1.5 60 05:21 18.06.2019
6172 Fog 10 1023 100 50 1 60 02:53 18.06.2019
6173 Fog 10 1023 100 100 1.5 70 01:59 18.06.2019
6174 Fog 10 1023 100 100 1.5 70 01:25 18.06.2019
6175 Fog 10 1023 100 100 1 0 00:56 18.06.2019
6176 Fog 10 1023 100 100 1 0 00:30 18.06.2019
6177 Mist 11 1023 100 2000 1 0 23:41 17.06.2019
6178 Mist 11 1023 100 2000 1 0 23:20 17.06.2019
6179 Mist 11 1023 100 2000 1 0 22:58 17.06.2019
6180 Mist 11 1023 100 2000 1 0 22:38 17.06.2019
6181 Mist 11 1023 100 2000 1 0 22:20 17.06.2019
6182 Fog 11 1023 93 1000 0.5 0 21:42 17.06.2019
6183 Fog 11 1023 100 1000 2.1 160 21:22 17.06.2019
6184 Clear 12 1022 100 10000 1 150 20:38 17.06.2019
6185 Clear 12 1022 100 10000 1 150 20:20 17.06.2019
6186 Clear 13 1022 93 10000 3.1 120 19:54 17.06.2019
6187 Clear 13 1022 93 10000 3.1 120 19:36 17.06.2019
6188 Clear 14 1022 77 10000 2.6 150 19:18 17.06.2019
6189 Clear 14 1022 77 10000 2.6 150 18:38 17.06.2019
6190 Clear 16 1021 63 10000 2.1 150 18:18 17.06.2019
6191 Clear 17 1021 63 10000 2.1 150 17:48 17.06.2019
6192 Clear 17 1021 63 10000 2.1 150 17:48 17.06.2019
6193 Clear 18 1021 63 10000 2.1 150 17:29 17.06.2019
6194 Clear 18 1021 52 10000 2.1 150 16:56 17.06.2019
6195 Clear 18 1021 52 10000 2.1 150 16:38 17.06.2019
6196 Clear 19 1021 52 10000 2.1 150 16:20 17.06.2019
6197 Clear 19 1021 55 10000 1.5 0 15:43 17.06.2019
6198 Clear 19 1021 55 10000 1.5 0 15:20 17.06.2019
6199 Clear 19 1021 55 10000 1.5 0 15:20 17.06.2019
6200 Clear 19 1021 55 10000 2.6 170 14:56 17.06.2019
6201 Clear 19 1021 55 10000 2.6 170 14:36 17.06.2019
6202 Clear 19 1021 55 10000 2.6 170 14:36 17.06.2019
6203 Clear 19 1021 55 10000 2.6 170 14:18 17.06.2019
6204 Clear 18 1022 52 10000 2.1 160 13:40 17.06.2019
6205 Clear 18 1022 52 10000 2.1 160 13:20 17.06.2019
6206 Clear 18 1022 48 10000 1 0 12:40 17.06.2019
6207 Clear 17 1022 48 10000 1 0 12:19 17.06.2019
6208 Clear 17 1022 48 10000 1 0 12:19 17.06.2019
6209 Clear 15 1022 62 10000 1.5 60 11:43 17.06.2019
6210 Clear 15 1022 62 10000 1.5 60 11:25 17.06.2019
6211 Clear 15 1022 67 10000 0.5 0 10:47 17.06.2019
6212 Clear 14 1022 76 10000 1 0 10:29 17.06.2019
6213 Clear 12 1021 81 10000 1 0 09:56 17.06.2019
6214 Clear 11 1021 81 10000 1 0 09:34 17.06.2019
6215 Clear 8 1020 93 10000 2.1 50 08:55 17.06.2019
6216 Clear 7 1020 93 10000 2.1 50 08:36 17.06.2019
6217 Clear 8 1020 87 10000 1 0 08:18 17.06.2019
6218 Clear 8 1020 87 10000 1 0 07:39 17.06.2019
6219 Clear 8 1019 93 10000 1 40 07:19 17.06.2019
6220 Clear 8 1019 93 10000 1 40 06:23 17.06.2019
6221 Clear 9 1019 87 10000 1.5 40 05:31 17.06.2019
6222 Clear 9 1019 87 10000 3.6 40 04:33 17.06.2019
6223 Clear 8 1020 86 10000 1.5 10 03:33 17.06.2019
6224 Clear 9 1020 81 10000 1 0 02:50 17.06.2019
6225 Clear 9 1020 81 10000 1 0 02:32 17.06.2019
6226 Clear 9 1020 81 10000 1 0 02:32 17.06.2019
6227 Clear 9 1019 87 10000 2.6 50 01:39 17.06.2019
6228 Clear 10 1020 87 10000 1 360 00:59 17.06.2019
6229 Clear 10 1020 87 10000 1 360 00:40 17.06.2019
6230 Clear 10 1020 87 10000 1 360 00:20 17.06.2019
6231 Clear 9 1019 66 10000 2.08 263.809 23:40 16.06.2019
6232 Clear 10 1019 66 10000 2.08 263.809 23:21 16.06.2019
6233 Clear 11 1019 66 10000 1 110 22:47 16.06.2019
6234 Clear 11 1019 57 10000 0.5 0 22:21 16.06.2019
6235 Clear 12 1019 57 10000 0.5 0 21:59 16.06.2019
6236 Clear 12 1019 57 10000 0.5 0 21:40 16.06.2019
6237 Clear 12 1019 57 10000 0.5 0 21:40 16.06.2019
6238 Clear 11 1019 57 10000 0.5 0 21:22 16.06.2019
6239 Clear 13 1018 44 10000 1.5 330 20:56 16.06.2019
6240 Clear 13 1018 44 10000 1.5 330 20:37 16.06.2019
6241 Clear 13 1018 44 10000 1.5 330 20:37 16.06.2019
6242 Clear 13 1018 44 10000 1.5 330 20:18 16.06.2019
6243 Clear 14 1018 38 10000 3.1 20 19:41 16.06.2019
6244 Clear 14 1018 38 10000 3.1 20 19:22 16.06.2019
6245 Clear 14 1017 41 10000 2.6 20 18:58 16.06.2019
6246 Clear 15 1017 41 10000 2.6 20 18:39 16.06.2019
6247 Clear 15 1017 41 10000 2.6 20 18:20 16.06.2019
6248 Clear 18 1017 32 10000 2.1 20 17:47 16.06.2019
6249 Clear 19 1017 32 10000 2.1 20 17:22 16.06.2019
6250 Clear 19 1017 67 10000 3.1 320 16:57 16.06.2019
6251 Clear 19 1017 67 10000 3.1 320 16:57 16.06.2019
6252 Clear 19 1017 67 10000 3.1 320 16:39 16.06.2019
6253 Clear 20 1017 67 10000 3.1 320 16:20 16.06.2019
6254 Clear 21 1017 24 10000 4.1 320 15:42 16.06.2019
6255 Clear 21 1017 24 10000 4.1 320 15:24 16.06.2019
6256 Clear 21 1017 35 10000 2.6 330 14:44 16.06.2019
6257 Clear 21 1017 35 10000 2.6 330 14:23 16.06.2019
6258 Clear 21 1018 35 10000 1.5 0 13:52 16.06.2019
6259 Clear 21 1018 35 10000 1.5 0 13:28 16.06.2019
6260 Clear 20 1019 37 10000 3.1 20 12:58 16.06.2019
6261 Clear 19 1019 37 10000 3.1 20 12:40 16.06.2019
6262 Clear 18 1019 37 10000 3.1 20 12:20 16.06.2019
6263 Clear 18 1019 45 10000 4.1 20 11:46 16.06.2019
6264 Clear 16 1020 72 10000 2.6 30 11:20 16.06.2019
6265 Clear 15 1020 72 10000 2.1 50 10:54 16.06.2019
6266 Clear 14 1021 93 10000 1.5 0 10:36 16.06.2019
6267 Clear 13 1020 93 8000 1 0 10:18 16.06.2019
6268 Clear 11 1020 100 7000 1 0 09:37 16.06.2019
6269 Clear 10 1020 100 7000 1 0 09:19 16.06.2019
6270 Clear 8 1019 93 10000 1 0 08:40 16.06.2019
6271 Clear 7 1019 93 10000 1 0 08:19 16.06.2019
6272 Mist 7 1019 93 5000 3.6 50 07:44 16.06.2019
6273 Mist 7 1019 93 5000 3.6 50 06:59 16.06.2019
6274 Mist 7 1020 100 3000 3.1 50 06:39 16.06.2019
6275 Mist 8 1020 100 4000 1.5 60 05:50 16.06.2019
6276 Clear 8 1020 93 8000 2.1 60 04:55 16.06.2019
6277 Fog 8 1021 100 50 1 70 03:57 16.06.2019
6278 Fog 8 1021 100 50 1 70 03:32 16.06.2019
6279 Fog 9 1021 93 50 0.5 100 02:33 16.06.2019
6280 Fog 9 1022 100 50 1 60 01:47 16.06.2019
6281 Fog 9 1022 100 50 1 60 01:27 16.06.2019
6282 Fog 10 1022 100 500 1.5 70 00:40 16.06.2019
6283 Fog 10 1022 100 500 1.5 70 00:21 16.06.2019
6284 Fog 11 1022 100 200 1.5 100 23:45 15.06.2019
6285 Fog 10 1022 100 200 1.5 100 23:25 15.06.2019
6286 Fog 10 1022 93 100 1 120 22:50 15.06.2019
6287 Fog 11 1022 100 1500 0.5 0 22:28 15.06.2019
6288 Fog 11 1022 100 1500 0.5 0 21:58 15.06.2019
6289 Clear 11 1022 93 8000 0.5 0 21:40 15.06.2019
6290 Clear 11 1022 93 8000 0.5 0 21:20 15.06.2019
6291 Clear 11 1022 93 10000 1 0 20:43 15.06.2019
6292 Clear 12 1022 93 10000 1 0 20:22 15.06.2019
6293 Clear 12 1022 93 10000 1.5 0 19:46 15.06.2019
6294 Clear 13 1022 93 10000 1.5 0 19:24 15.06.2019
6295 Clear 14 1022 77 10000 2.1 300 18:42 15.06.2019
6296 Clear 15 1022 77 10000 2.1 300 18:23 15.06.2019
6297 Clear 16 1022 68 10000 1.5 360 17:44 15.06.2019
6298 Clear 17 1022 68 10000 1.5 360 17:25 15.06.2019
6299 Clouds 17 1021 67 10000 3.1 300 16:49 15.06.2019
6300 Clouds 17 1021 67 10000 3.1 300 16:20 15.06.2019
6301 Clear 18 1021 63 10000 3.1 340 15:45 15.06.2019
6302 Clear 18 1021 63 10000 3.1 340 15:24 15.06.2019
6303 Clear 17 1022 63 10000 2.6 320 14:56 15.06.2019
6304 Clear 18 1022 63 10000 2.6 320 14:37 15.06.2019
6305 Clear 18 1022 59 10000 1.5 0 14:18 15.06.2019
6306 Clear 17 1023 67 10000 2.1 360 13:42 15.06.2019
6307 Clear 17 1023 67 10000 2.1 360 13:20 15.06.2019
6308 Clear 17 1023 63 10000 2.1 10 12:52 15.06.2019
6309 Clear 17 1023 63 10000 2.1 10 12:27 15.06.2019
6310 Clear 16 1024 72 10000 1.5 0 11:59 15.06.2019
6311 Clear 15 1024 72 10000 1.5 0 11:41 15.06.2019
6312 Clear 15 1024 72 10000 1.5 0 11:23 15.06.2019
6313 Clear 14 1024 81 10000 1.5 0 10:41 15.06.2019
6314 Clear 14 1024 81 10000 1.5 0 10:23 15.06.2019
6315 Clear 12 1023 93 10000 1.5 30 09:44 15.06.2019
6316 Clear 9 1023 93 10000 2.1 40 09:25 15.06.2019
6317 Clear 7 1022 100 10000 1.5 0 08:53 15.06.2019
6318 Clear 7 1022 100 10000 1.5 0 08:32 15.06.2019
6319 Clear 7 1021 100 10000 2.1 30 07:50 15.06.2019
6320 Clear 7 1021 100 10000 2.1 30 07:50 15.06.2019
6321 Clear 7 1021 100 10000 2.1 30 07:25 15.06.2019
6322 Clear 7 1021 100 8000 1.5 20 06:41 15.06.2019
6323 Clear 6 1021 100 8000 1.5 20 06:19 15.06.2019
6324 Mist 7 1021 100 3000 2.1 40 05:27 15.06.2019
6325 Fog 7 1022 100 100 2.1 50 04:44 15.06.2019
6326 Fog 7 1022 100 100 2.1 50 04:44 15.06.2019
6327 Fog 7 1022 100 100 2.1 50 04:44 15.06.2019
6328 Fog 7 1022 100 100 2.1 50 04:44 15.06.2019
6329 Clear 9 1021 95 0 2.11 237.862 03:44 15.06.2019
6330 Fog 8 1022 100 100 2.6 40 02:56 15.06.2019
6331 Fog 9 1022 100 100 2.6 40 02:23 15.06.2019
6332 Fog 9 1022 100 100 1.5 70 01:45 15.06.2019
6333 Clear 11 1021 74 0 2.42 161.707 00:58 15.06.2019
6334 Fog 9 1023 93 800 0.5 0 00:39 15.06.2019
6335 Fog 8 1023 93 800 0.5 0 23:55 14.06.2019
6336 Fog 8 1023 93 800 0.5 0 23:26 14.06.2019
6337 Fog 9 1024 93 800 1 140 22:55 14.06.2019
6338 Fog 9 1024 93 800 1 140 22:37 14.06.2019
6339 Fog 9 1024 93 800 1 140 22:19 14.06.2019
6340 Mist 10 1024 93 3000 2.1 110 21:40 14.06.2019
6341 Mist 10 1024 93 3000 2.1 110 21:22 14.06.2019
6342 Mist 10 1024 93 3000 2.1 110 20:43 14.06.2019
6343 Fog 10 1024 93 6000 1.5 110 20:43 14.06.2019
6344 Fog 10 1024 93 6000 1.5 110 20:19 14.06.2019
6345 Clear 11 1025 93 10000 1 140 19:57 14.06.2019
6346 Clear 11 1025 93 10000 1 140 19:36 14.06.2019
6347 Clear 11 1025 93 10000 1 140 19:18 14.06.2019
6348 Clear 13 1024 76 10000 2.6 170 18:43 14.06.2019
6349 Clear 14 1024 76 10000 2.6 170 18:24 14.06.2019
6350 Clear 15 1024 51 10000 3.6 160 17:55 14.06.2019
6351 Clear 17 1024 51 10000 3.6 160 17:37 14.06.2019
6352 Clear 16 1024 51 10000 3.6 160 17:19 14.06.2019
6353 Clear 17 1025 48 10000 3.1 150 16:45 14.06.2019
6354 Clear 17 1025 48 10000 3.1 150 16:20 14.06.2019
6355 Clear 17 1025 48 10000 3.1 150 16:20 14.06.2019
6356 Clear 17 1025 45 10000 3.6 170 15:57 14.06.2019
6357 Clear 18 1025 45 10000 3.6 170 15:38 14.06.2019
6358 Clear 18 1025 45 10000 3.6 170 15:18 14.06.2019
6359 Clear 18 1026 51 10000 2.1 130 14:40 14.06.2019
6360 Clear 18 1026 51 10000 2.1 130 14:21 14.06.2019
6361 Clear 17 1027 51 10000 3.1 160 13:44 14.06.2019
6362 Clear 17 1027 51 10000 3.1 160 13:24 14.06.2019
6363 Clear 16 1028 48 10000 3.6 160 12:45 14.06.2019
6364 Clear 16 1028 48 10000 3.6 160 12:26 14.06.2019
6365 Clear 16 1028 54 10000 1 0 11:59 14.06.2019
6366 Clear 15 1028 54 10000 1 0 11:41 14.06.2019
6367 Clear 16 1028 54 10000 1 0 11:22 14.06.2019
6368 Clear 13 1029 71 10000 1 0 10:45 14.06.2019
6369 Clear 13 1029 71 10000 1 0 10:20 14.06.2019
6370 Clear 12 1029 81 10000 1 0 09:49 14.06.2019
6371 Clear 8 1029 93 10000 1 0 09:31 14.06.2019
6372 Clear 6 1029 93 10000 1.5 40 08:47 14.06.2019
6373 Clear 5 1029 93 10000 2.1 70 08:20 14.06.2019
6374 Clear 5 1029 93 10000 2.1 70 07:52 14.06.2019
6375 Clear 5 1029 93 10000 2.1 70 07:52 14.06.2019
6376 Clear 6 1029 93 10000 2.1 70 07:22 14.06.2019
6377 Clear 6 1029 93 10000 1 60 06:52 14.06.2019
6378 Clear 6 1029 93 10000 1 60 06:52 14.06.2019
6379 Clear 6 1029 93 10000 2.1 50 06:18 14.06.2019
6380 Clear 6 1029 93 10000 2.1 50 05:33 14.06.2019
6381 Clear 6 1029 93 10000 0.5 0 04:51 14.06.2019
6382 Clear 6 1029 86 10000 1.5 80 04:18 14.06.2019
6383 Clear 6 1029 86 10000 1.5 80 03:26 14.06.2019
6384 Clear 6 1029 86 10000 2.1 60 02:58 14.06.2019
6385 Clear 6 1029 86 10000 2.1 60 02:35 14.06.2019
6386 Clear 7 1029 86 10000 1 100 01:35 14.06.2019
6387 Clear 7 1030 81 10000 2.1 40 00:37 14.06.2019
6388 Clear 7 1030 81 10000 2.1 40 00:18 14.06.2019
6389 Clear 7 1030 81 10000 0.5 360 23:48 13.06.2019
6390 Clear 7 1030 81 10000 0.5 360 23:25 13.06.2019
6391 Clear 8 1030 81 10000 0.5 0 22:40 13.06.2019
6392 Clear 8 1030 81 10000 0.5 0 22:22 13.06.2019
6393 Clear 8 1031 75 10000 0.5 0 21:58 13.06.2019
6394 Clear 9 1031 75 10000 0.5 0 21:37 13.06.2019
6395 Clear 8 1031 75 10000 0.5 0 21:18 13.06.2019
6396 Clear 9 1031 70 10000 1 140 20:44 13.06.2019
6397 Clear 9 1031 70 10000 1 140 20:20 13.06.2019
6398 Clear 10 1031 66 10000 2.1 150 19:43 13.06.2019
6399 Clear 10 1031 66 10000 2.1 150 19:25 13.06.2019
6400 Clear 11 1031 62 10000 3.1 160 18:58 13.06.2019
6401 Clear 11 1031 62 10000 3.1 160 18:40 13.06.2019
6402 Clear 12 1031 62 10000 3.1 160 18:22 13.06.2019
6403 Clear 14 1031 47 10000 3.1 160 17:45 13.06.2019
6404 Clear 14 1031 47 10000 3.1 160 17:21 13.06.2019
6405 Clear 15 1031 41 10000 2.1 130 16:58 13.06.2019
6406 Clear 15 1031 41 10000 2.1 130 16:40 13.06.2019
6407 Clear 15 1031 41 10000 2.1 130 16:20 13.06.2019
6408 Clear 15 1031 41 10000 2.1 120 15:41 13.06.2019
6409 Clear 16 1031 41 10000 2.1 120 15:22 13.06.2019
6410 Clear 16 1031 41 10000 1.5 0 14:50 13.06.2019
6411 Clear 15 1031 41 10000 1.5 0 14:31 13.06.2019
6412 -273 0 0 0 0 0 13:57 13.06.2019
6413 Clear 15 1032 41 10000 2.1 190 13:39 13.06.2019
6414 Clear 15 1032 41 10000 2.1 190 13:20 13.06.2019
6415 Clear 15 1033 47 10000 3.1 150 12:41 13.06.2019
6416 Clear 15 1033 47 10000 3.1 150 12:21 13.06.2019
6417 Clear 14 1034 47 10000 1.5 0 11:46 13.06.2019
6418 Clear 14 1034 47 10000 1.5 0 11:28 13.06.2019
6419 Clear 13 1034 71 10000 0.5 0 10:51 13.06.2019
6420 Clear 13 1034 71 10000 0.5 0 10:31 13.06.2019
6421 -273 0 0 0 0 0 09:58 13.06.2019
6422 Clear 10 1034 93 10000 1 0 09:40 13.06.2019
6423 Clear 9 1034 93 10000 1 0 09:22 13.06.2019
6424 Clear 7 1034 100 10000 1 70 08:43 13.06.2019
6425 Clear 7 1034 100 10000 1 70 08:23 13.06.2019
6426 Clear 6 1033 100 10000 1.5 60 07:50 13.06.2019
6427 Clear 6 1033 100 10000 1.5 60 07:25 13.06.2019
6428 Clear 6 1033 100 10000 2.1 50 06:45 13.06.2019
6429 Clear 7 1033 100 10000 2.1 50 06:22 13.06.2019
6430 Clear 7 1033 93 10000 0.5 0 05:54 13.06.2019
6431 Clear 7 1033 93 10000 0.5 0 05:36 13.06.2019
6432 Clear 6 1033 100 10000 1 0 04:55 13.06.2019
6433 Clear 7 1033 93 10000 1.5 30 02:23 13.06.2019
6434 Clouds 9 1032 100 10000 1.5 40 00:47 13.06.2019
6435 Clear 8 1032 93 10000 2.6 60 23:52 12.06.2019
6436 Clear 8 1032 93 10000 2.6 60 23:23 12.06.2019
6437 Clear 9 1032 87 10000 0.5 0 22:44 12.06.2019
6438 Clear 9 1032 87 10000 0.5 0 22:26 12.06.2019
6439 Clouds 10 1031 87 10000 1.5 30 21:57 12.06.2019
6440 Clouds 10 1031 87 10000 1.5 30 21:38 12.06.2019
6441 Clouds 11 1031 87 10000 1.5 30 21:18 12.06.2019
6442 Clouds 11 1031 76 10000 2.1 180 20:38 12.06.2019
6443 Clouds 11 1031 76 10000 2.1 180 20:20 12.06.2019
6444 Clouds 11 1030 81 10000 2.1 150 19:42 12.06.2019
6445 Clouds 11 1030 81 10000 2.1 150 19:23 12.06.2019
6446 Clouds 12 1029 62 10000 3.1 230 18:57 12.06.2019
6447 Clouds 13 1029 62 10000 3.1 230 18:39 12.06.2019
6448 Clouds 13 1028 66 10000 5.1 200 18:19 12.06.2019
6449 Clouds 13 1028 66 10000 5.1 200 17:44 12.06.2019
6450 Clouds 14 1028 66 10000 5.1 200 17:21 12.06.2019
6451 Clouds 15 1027 51 10000 5.7 230 16:42 12.06.2019
6452 Clouds 15 1027 51 10000 5.7 230 16:23 12.06.2019
6453 Clouds 15 1026 51 10000 6.7 240 15:54 12.06.2019
6454 Clouds 15 1026 51 10000 6.7 240 15:32 12.06.2019
6455 Clouds 16 1026 54 10000 7.2 250 14:50 12.06.2019
6456 Clouds 15 1026 54 10000 7.2 250 14:29 12.06.2019
6457 Clouds 15 1026 58 10000 5.7 250 13:55 12.06.2019
6458 Clouds 14 1026 58 10000 5.1 280 13:36 12.06.2019
6459 Clouds 15 1026 54 10000 7.7 240 13:18 12.06.2019
6460 Clouds 15 1026 58 10000 5.7 240 12:39 12.06.2019
6461 Clouds 15 1026 58 10000 5.7 240 12:39 12.06.2019
6462 Clouds 15 1026 58 10000 5.7 240 12:19 12.06.2019
6463 Clouds 15 1026 58 10000 5.7 240 11:47 12.06.2019
6464 Clouds 15 1026 58 10000 5.7 240 11:47 12.06.2019
6465 Clouds 15 1026 58 10000 5.7 240 11:29 12.06.2019
6466 Clouds 15 1025 62 10000 6.2 290 10:52 12.06.2019
6467 Clouds 14 1025 71 10000 4.6 280 10:34 12.06.2019
6468 -273 0 0 0 0 0 09:58 12.06.2019
6469 Rain 13 1024 76 10000 3.6 300 09:40 12.06.2019
6470 Clouds 13 1023 76 10000 2.1 290 09:18 12.06.2019
6471 Clouds 13 1023 76 10000 2.1 290 08:26 12.06.2019
6472 Clouds 13 1022 81 10000 5.1 310 07:52 12.06.2019
6473 Rain 14 1021 71 9000 4.6 270 06:55 12.06.2019
6474 Clouds 14 1020 67 10000 5.1 310 05:54 12.06.2019
6475 Clouds 14 1020 67 10000 5.1 310 05:24 12.06.2019
6476 Rain 15 1019 87 6000 7.2 320 02:20 12.06.2019
6477 Clouds 15 1018 87 10000 7.2 340 00:41 12.06.2019
6478 Clouds 15 1017 87 10000 8.7 340 23:53 11.06.2019
6479 Clouds 15 1017 87 10000 8.7 340 23:35 11.06.2019
6480 Drizzle 15 1017 82 10000 9.8 330 22:45 11.06.2019
6481 Drizzle 15 1017 82 10000 9.8 330 22:24 11.06.2019
6482 Clouds 16 1017 72 10000 8.7 350 21:59 11.06.2019
6483 Clouds 16 1017 72 10000 8.7 350 21:40 11.06.2019
6484 Clouds 16 1017 72 10000 8.7 350 21:22 11.06.2019
6485 Clouds 16 1016 72 10000 7.7 350 20:57 11.06.2019
6486 Clouds 16 1016 72 10000 7.7 350 20:39 11.06.2019
6487 -273 0 0 0 0 0 20:21 11.06.2019
6488 Clouds 16 1016 67 10000 5.7 10 19:50 11.06.2019
6489 Clouds 16 1016 67 10000 5.7 10 19:28 11.06.2019
6490 Clouds 16 1016 67 10000 5.7 10 19:28 11.06.2019
6491 Clouds 16 1016 72 10000 5.1 10 18:48 11.06.2019
6492 Clouds 16 1016 72 10000 5.1 10 18:20 11.06.2019
6493 Clouds 16 1016 77 10000 6.2 350 17:41 11.06.2019
6494 Clouds 16 1016 77 10000 6.2 350 17:20 11.06.2019
6495 Clouds 17 1016 72 10000 8.2 330 16:43 11.06.2019
6496 Clouds 17 1016 72 10000 8.2 330 16:24 11.06.2019
6497 Clouds 17 1016 77 10000 9.8 320 15:44 11.06.2019
6498 Clouds 16 1016 77 10000 9.8 320 15:25 11.06.2019
6499 Clouds 16 1016 82 10000 8.7 320 14:58 11.06.2019
6500 Clouds 17 1016 82 10000 8.7 320 14:39 11.06.2019
6501 Clouds 17 1016 82 10000 8.7 320 14:19 11.06.2019
6502 Clouds 17 1017 72 10000 7.7 320 13:43 11.06.2019
6503 Clouds 17 1017 72 10000 7.7 320 13:21 11.06.2019
6504 Clouds 17 1018 63 10000 9.3 310 12:42 11.06.2019
6505 Clouds 17 1018 63 10000 9.3 310 12:22 11.06.2019
6506 Clouds 16 1018 67 10000 7.7 340 11:57 11.06.2019
6507 Clouds 16 1018 67 10000 7.7 340 11:33 11.06.2019
6508 Clouds 16 1018 67 10000 7.2 340 10:57 11.06.2019
6509 Clouds 16 1018 67 10000 7.2 340 10:39 11.06.2019
6510 Clouds 15 1018 67 10000 7.2 340 10:19 11.06.2019
6511 Clouds 14 1018 71 10000 6.7 350 09:43 11.06.2019
6512 Clouds 14 1018 71 10000 6.7 350 09:23 11.06.2019
6513 Clouds 14 1019 76 10000 5.7 350 08:41 11.06.2019
6514 Clouds 14 1019 76 10000 5.7 350 08:22 11.06.2019
6515 Clear 13 1019 81 10000 4.6 360 07:36 11.06.2019
6516 Clear 12 1019 87 10000 3.6 30 06:54 11.06.2019
6517 Clear 13 1019 87 10000 4.1 30 06:23 11.06.2019
6518 Clear 12 1020 93 10000 4.1 60 04:48 11.06.2019
6519 Clear 13 1021 87 10000 4.1 10 02:27 11.06.2019
6520 Clouds 13 1022 87 10000 3.1 40 01:23 11.06.2019
6521 Clouds 14 1022 87 10000 3.1 40 00:44 11.06.2019
6522 Clouds 14 1022 82 10000 4.6 20 23:47 10.06.2019
6523 Clouds 14 1022 82 10000 4.6 20 23:21 10.06.2019
6524 Clouds 14 1023 82 10000 4.6 10 22:47 10.06.2019
6525 Clouds 14 1023 82 10000 4.6 10 22:29 10.06.2019
6526 Clouds 15 1023 77 10000 4.6 20 21:58 10.06.2019
6527 Clouds 15 1023 77 10000 4.6 20 21:39 10.06.2019
6528 Clouds 15 1023 77 10000 4.6 20 21:21 10.06.2019
6529 Clouds 15 1023 72 10000 4.1 360 20:44 10.06.2019
6530 Clouds 15 1023 72 10000 4.1 360 20:23 10.06.2019
6531 Clouds 15 1023 77 10000 2.6 360 19:51 10.06.2019
6532 Clouds 15 1023 77 10000 2.6 360 19:26 10.06.2019
6533 Clouds 16 1023 67 10000 5.1 340 18:59 10.06.2019
6534 Clouds 16 1023 67 10000 5.1 340 18:40 10.06.2019
6535 Clouds 16 1023 67 10000 5.1 340 18:20 10.06.2019
6536 Clouds 17 1023 59 10000 5.7 330 17:44 10.06.2019
6537 Clouds 17 1021 63 0 2.24 315 17:24 10.06.2019
6538 Clouds 17 1021 63 0 2.24 315 16:56 10.06.2019
6539 Clouds 17 1019 57 0 0.89 1 16:38 10.06.2019
6540 Clouds 17 1017 23 0 6.31 331.521 16:18 10.06.2019
6541 Clouds 17 1024 67 0 6.71 320 15:41 10.06.2019
6542 Clouds 18 1022 64 0 2.68 315 15:23 10.06.2019
6543 Clouds 17 1022 66 0 2.68 0 14:49 10.06.2019
6544 Clouds 17 1022 67 0 3.13 315 14:30 10.06.2019
6545 Clouds 18 1022 67 0 2.68 315 13:58 10.06.2019
6546 Clouds 18 1017 17 0 1.34 235 13:39 10.06.2019
6547 Clouds 17 1024 67 10000 6.7 320 13:20 10.06.2019
6548 Clouds 17 1024 67 10000 6.7 320 12:40 10.06.2019
6549 Clouds 17 1024 67 10000 6.7 320 12:22 10.06.2019
6550 Clouds 17 1024 77 10000 5.7 330 11:43 10.06.2019
6551 Clouds 17 1024 77 10000 5.7 330 11:19 10.06.2019
6552 Clouds 16 1023 72 10000 5.1 350 10:42 10.06.2019
6553 Clouds 16 1023 72 10000 5.1 350 10:20 10.06.2019
6554 Clouds 15 1023 82 10000 5.1 320 09:55 10.06.2019
6555 Clouds 15 1023 82 10000 5.1 320 09:32 10.06.2019
6556 Clouds 15 1022 87 10000 3.6 360 08:50 10.06.2019
6557 Clouds 15 1022 87 10000 3.6 360 08:27 10.06.2019
6558 Clouds 15 1021 93 10000 4.1 340 07:59 10.06.2019
6559 Clouds 15 1021 87 10000 5.7 320 06:33 10.06.2019
6560 Clouds 15 1020 93 10000 6.7 330 04:27 10.06.2019
6561 Clouds 16 1019 93 10000 7.2 350 01:57 10.06.2019
6562 Clouds 16 1019 93 10000 7.2 350 01:23 10.06.2019
6563 Clouds 16 1019 93 10000 7.2 340 00:54 10.06.2019
6564 Rain 16 1018 87 9000 7.2 340 00:19 10.06.2019
6565 Rain 16 1018 87 9000 7.2 340 23:42 09.06.2019
6566 Rain 16 1018 87 9000 7.2 340 23:19 09.06.2019
6567 Rain 16 1018 87 5000 7.2 350 22:43 09.06.2019
6568 Clouds 16 1018 87 10000 6.7 350 22:24 09.06.2019
6569 Clouds 16 1018 87 10000 7.2 350 21:43 09.06.2019
6570 Clouds 16 1018 87 10000 7.2 350 21:23 09.06.2019
6571 Clouds 16 1017 87 10000 6.2 350 20:43 09.06.2019
6572 Clouds 16 1017 87 10000 6.2 350 20:23 09.06.2019
6573 Clouds 16 1016 87 10000 4.6 350 19:47 09.06.2019
6574 Clouds 16 1016 87 10000 4.6 350 19:19 09.06.2019
6575 Clouds 16 1015 87 10000 4.6 310 18:58 09.06.2019
6576 Clouds 16 1015 87 10000 4.6 310 18:40 09.06.2019
6577 Clouds 16 1015 87 10000 4.6 310 18:22 09.06.2019
6578 Clouds 17 1014 82 10000 5.7 290 17:46 09.06.2019
6579 Clouds 17 1014 82 10000 5.7 290 17:27 09.06.2019
6580 Clear 18 1013 77 10000 7.2 310 16:54 09.06.2019
6581 Clear 18 1013 77 10000 7.2 310 16:36 09.06.2019
6582 Clear 18 1013 77 10000 7.2 310 16:18 09.06.2019
6583 Clear 20 1013 60 10000 6.2 330 15:44 09.06.2019
6584 Clear 21 1013 60 10000 6.2 330 15:24 09.06.2019
6585 Clear 20 1013 64 10000 8.2 320 14:45 09.06.2019
6586 Clear 20 1013 64 10000 8.2 320 14:22 09.06.2019
6587 Clear 20 1013 60 10000 10.3 320 13:52 09.06.2019
6588 Clear 20 1013 60 10000 10.3 320 13:27 09.06.2019
6589 Clear 21 1013 43 10000 12.3 310 12:42 09.06.2019
6590 Clear 21 1013 43 10000 12.3 310 12:24 09.06.2019
6591 Clear 22 1013 37 10000 11.3 320 11:40 09.06.2019
6592 Clear 22 1013 37 10000 11.3 320 11:22 09.06.2019
6593 Clear 23 1012 25 10000 8.2 320 10:46 09.06.2019
6594 Clear 24 1012 25 10000 8.2 320 10:23 09.06.2019
6595 Clear 24 1012 25 10000 8.2 320 10:23 09.06.2019
6596 Clear 25 1012 19 10000 9.3 350 09:41 09.06.2019
6597 Clear 21 1012 19 10000 9.3 350 09:22 09.06.2019
6598 Clear 20 1012 30 10000 9.8 20 08:53 09.06.2019
6599 Clear 20 1012 30 10000 9.8 20 08:34 09.06.2019
6600 Clear 18 1012 42 10000 4.1 40 07:28 09.06.2019
6601 Clear 19 1012 45 10000 5.1 40 06:30 09.06.2019
6602 Clear 19 1012 45 10000 5.1 40 06:30 09.06.2019
6603 Clear 19 1013 48 10000 4.1 10 05:28 09.06.2019
6604 Clear 19 1013 48 10000 4.1 10 05:28 09.06.2019
6605 Clear 15 1017 93 10000 1.5 110 01:46 09.06.2019
6606 Clear 15 1017 93 10000 1.5 110 01:22 09.06.2019
6607 Clear 15 1018 93 10000 2.6 70 00:59 09.06.2019
6608 Clear 15 1018 93 10000 2.6 70 00:19 09.06.2019
6609 Clear 14 1019 93 10000 2.1 80 23:38 08.06.2019
6610 Clear 14 1020 93 10000 2.1 80 23:20 08.06.2019
6611 Clear 14 1020 93 10000 2.1 80 22:43 08.06.2019
6612 Clear 14 1020 93 10000 2.1 80 22:25 08.06.2019
6613 Clear 14 1020 87 10000 1 110 21:52 08.06.2019
6614 Clear 14 1020 87 10000 1 110 21:29 08.06.2019
6615 Clear 14 1021 87 10000 0.5 130 20:59 08.06.2019
6616 Clear 15 1021 87 10000 0.5 130 20:40 08.06.2019
6617 Clear 15 1021 87 10000 0.5 130 20:40 08.06.2019
6618 Clear 14 1021 87 10000 0.5 130 20:20 08.06.2019
6619 Clear 15 1022 82 10000 1.5 0 19:42 08.06.2019
6620 Clear 15 1022 82 10000 1.5 0 19:22 08.06.2019
6621 Clear 16 1022 77 10000 3.1 190 18:58 08.06.2019
6622 Clear 16 1022 77 10000 3.1 190 18:39 08.06.2019
6623 Clear 17 1022 77 10000 3.1 190 18:18 08.06.2019
6624 Clear 18 1023 68 10000 3.1 170 17:41 08.06.2019
6625 Clear 18 1023 68 10000 3.1 170 17:18 08.06.2019
6626 Clear 19 1023 68 10000 2.6 180 16:45 08.06.2019
6627 Clear 19 1023 68 10000 2.6 180 16:20 08.06.2019
6628 Clear 20 1024 64 10000 3.6 200 15:39 08.06.2019
6629 Clear 20 1024 64 10000 3.6 200 15:39 08.06.2019
6630 Clear 20 1024 68 10000 2.1 190 14:58 08.06.2019
6631 Clear 20 1024 68 10000 2.1 190 14:40 08.06.2019
6632 Clear 19 1024 68 10000 2.1 190 14:21 08.06.2019
6633 Clouds 19 1026 68 10000 1.5 0 13:37 08.06.2019
6634 Clouds 18 1027 72 10000 2.1 160 12:47 08.06.2019
6635 Clouds 18 1027 72 10000 2.1 160 12:24 08.06.2019
6636 Clouds 17 1027 87 10000 2.6 160 11:44 08.06.2019
6637 Clouds 16 1027 87 10000 2.6 160 11:23 08.06.2019
6638 Clouds 15 1028 93 10000 2.1 160 10:45 08.06.2019
6639 Clouds 15 1028 93 10000 2.1 160 10:23 08.06.2019
6640 Clouds 15 1028 93 8000 1.5 170 09:51 08.06.2019
6641 Clouds 14 1028 93 8000 1.5 170 09:24 08.06.2019
6642 Mist 13 1028 100 4000 2.6 180 08:35 08.06.2019
6643 Mist 13 1027 100 1500 1.5 0 07:59 08.06.2019
6644 Drizzle 13 1027 100 10000 1.5 40 06:51 08.06.2019
6645 Clouds 14 1027 100 10000 3.1 30 05:49 08.06.2019
6646 Clouds 13 1026 100 10000 3.6 30 03:33 08.06.2019
6647 Rain 14 1026 93 10000 3.6 50 01:59 08.06.2019
6648 Rain 14 1026 87 10000 4.6 30 00:29 08.06.2019
6649 Clouds 14 1025 82 10000 6.2 20 23:47 07.06.2019
6650 Clouds 14 1025 82 10000 6.2 20 23:20 07.06.2019
6651 Clouds 15 1024 87 10000 4.6 330 23:20 07.06.2019
6652 Clouds 15 1024 87 10000 4.6 330 22:48 07.06.2019
6653 Clouds 15 1024 87 10000 4.6 330 22:30 07.06.2019
6654 Clouds 15 1024 77 10000 6.7 320 21:54 07.06.2019
6655 Clouds 15 1024 77 10000 6.7 320 21:31 07.06.2019
6656 Clouds 15 1024 72 10000 8.2 330 20:57 07.06.2019
6657 Clouds 15 1024 72 10000 8.2 330 20:38 07.06.2019
6658 Clouds 15 1023 72 10000 7.7 330 19:52 07.06.2019
6659 Clouds 15 1023 72 10000 7.7 330 19:27 07.06.2019
6660 Clouds 15 1023 72 10000 6.7 330 18:59 07.06.2019
6661 Clouds 15 1023 72 10000 6.7 330 18:37 07.06.2019
6662 Clouds 15 1022 62 10000 8.2 340 18:18 07.06.2019
6663 Clouds 15 1022 62 10000 8.2 340 17:39 07.06.2019
6664 Clouds 15 1022 62 10000 8.2 340 17:19 07.06.2019
6665 Clouds 15 1022 62 10000 8.2 340 16:40 07.06.2019
6666 Clouds 15 1022 62 10000 8.2 340 16:40 07.06.2019
6667 Clouds 15 1022 62 10000 9.3 320 15:54 07.06.2019
6668 Clouds 15 1022 62 10000 9.3 320 15:23 07.06.2019
6669 Clouds 16 1022 58 10000 10.3 320 14:48 07.06.2019
6670 Clouds 16 1022 58 10000 10.3 320 14:27 07.06.2019
6671 Clouds 16 1023 48 10000 8.7 340 13:52 07.06.2019
6672 Clouds 16 1023 48 10000 8.7 340 13:26 07.06.2019
6673 Clouds 16 1023 38 10000 8.2 340 12:51 07.06.2019
6674 Clouds 15 1023 38 10000 8.2 340 12:25 07.06.2019
6675 Clear 15 1023 47 10000 5.1 360 11:54 07.06.2019
6676 Clear 14 1023 47 10000 5.1 360 11:31 07.06.2019
6677 Clear 14 1022 50 10000 7.7 10 10:55 07.06.2019
6678 Clear 14 1022 50 10000 7.7 10 10:37 07.06.2019
6679 Clear 13 1022 50 10000 7.7 10 10:18 07.06.2019
6680 Clear 12 1022 66 10000 6.2 20 09:44 07.06.2019
6681 Clear 11 1022 66 10000 6.7 10 09:18 07.06.2019
6682 Clear 10 1022 66 10000 6.7 10 08:42 07.06.2019
6683 Clear 9 1022 66 10000 6.7 10 08:24 07.06.2019